# Wetter Temperatur Luftdruck Luftfeuchtigkeit Sichtweite Windgeschwindigkeit Windrichtung Zeit
1 Rain 23 1020 64 10000 4.68 80 13:27 22.04.2021
2 Rain 24 1021 60 10000 5.14 170 12:56 22.04.2021
3 Rain 24 1021 60 10000 5.14 170 12:38 22.04.2021
4 Rain 23 1023 68 10000 2.06 200 12:19 22.04.2021
5 Rain 20 1012 66 10000 1.34 188 11:45 22.04.2021
6 Clouds 22 1023 68 10000 3.11 88 11:22 22.04.2021
7 Clouds 22 1023 68 10000 3.12 88 10:43 22.04.2021
8 Clouds 22 1023 68 10000 3.11 88 10:43 22.04.2021
9 Clouds 21 1023 68 10000 2.93 85 10:21 22.04.2021
10 Clouds 20 1023 68 10000 2.91 84 09:41 22.04.2021
11 Clouds 18 1023 82 10000 2.57 30 09:19 22.04.2021
12 Clouds 18 1023 82 10000 2.57 30 08:38 22.04.2021
13 Clouds 17 1023 88 10000 2.57 60 08:18 22.04.2021
14 Clouds 17 1023 88 10000 2.57 60 07:38 22.04.2021
15 Clouds 16 1022 94 10000 6.17 40 07:19 22.04.2021
16 Clouds 16 1022 94 10000 2.57 40 06:23 22.04.2021
17 Rain 16 1023 94 5000 4.12 20 05:25 22.04.2021
18 Rain 17 1020 100 10000 2.57 30 03:25 22.04.2021
19 Clouds 18 1022 94 10000 0.51 0 00:52 22.04.2021
20 Rain 18 1021 94 10000 2.57 60 23:47 21.04.2021
21 Rain 18 1021 94 10000 2.57 60 23:25 21.04.2021
22 Rain 18 1021 94 10000 2.57 60 22:42 21.04.2021
23 Rain 18 1021 94 10000 2.57 60 22:23 21.04.2021
24 Rain 20 1020 77 10000 6.17 60 21:42 21.04.2021
25 Rain 20 1020 77 10000 6.17 60 21:23 21.04.2021
26 Rain 20 1020 77 10000 6.17 60 21:23 21.04.2021
27 Rain 20 1020 77 10000 6.17 60 20:42 21.04.2021
28 Rain 16 1012 84 10000 3.58 65 20:19 21.04.2021
29 Rain 16 1011 85 10000 3.58 98 19:42 21.04.2021
30 Rain 22 1018 60 10000 5.14 90 19:23 21.04.2021
31 Rain 22 1018 60 10000 5.14 90 18:45 21.04.2021
32 Rain 23 1018 60 10000 5.14 90 18:26 21.04.2021
33 Rain 24 1018 53 10000 10.29 70 17:47 21.04.2021
34 Rain 24 1018 53 10000 10.29 70 17:24 21.04.2021
35 Rain 25 1018 47 10000 5.14 70 16:43 21.04.2021
36 Rain 26 1018 44 10000 5.14 90 15:57 21.04.2021
37 Rain 26 1018 44 10000 5.14 90 15:39 21.04.2021
38 Rain 25 1019 50 10000 3.09 110 14:48 21.04.2021
39 Rain 25 1019 50 10000 3.09 110 14:30 21.04.2021
40 Rain 25 1019 50 10000 3.09 110 13:52 21.04.2021
41 Rain 25 1020 53 10000 3.09 110 13:24 21.04.2021
42 Rain 25 1020 53 10000 3.09 110 12:58 21.04.2021
43 Rain 24 1020 53 10000 3.09 110 12:29 21.04.2021
44 Rain 24 1020 53 10000 3.09 110 12:29 21.04.2021
45 Rain 23 1022 64 10000 2.57 90 11:49 21.04.2021
46 Rain 23 1022 64 10000 2.57 90 11:49 21.04.2021
47 Rain 23 1022 64 10000 2.57 90 11:29 21.04.2021
48 Rain 23 1023 64 10000 2.06 0 10:48 21.04.2021
49 Clouds 20 1022 82 10000 1.54 90 10:18 21.04.2021
50 Clouds 19 1022 82 10000 1.54 90 09:41 21.04.2021
51 Rain 19 1021 88 10000 2.57 150 08:56 21.04.2021
52 Rain 17 1013 75 10000 1.34 177 08:37 21.04.2021
53 Rain 17 1014 78 10000 0.89 98 08:18 21.04.2021
54 Rain 17 1022 100 10000 1.54 100 07:31 21.04.2021
55 Clouds 18 1019 88 10000 2.3 65 06:28 21.04.2021
56 Clouds 17 1019 94 10000 2.57 60 04:54 21.04.2021
57 Clouds 18 1020 88 10000 2.06 60 00:53 21.04.2021
58 Clouds 14 1011 91 10000 0.89 105 23:49 20.04.2021
59 Clouds 18 1021 88 10000 3.6 40 23:21 20.04.2021
60 Clouds 18 1021 88 10000 3.6 40 22:40 20.04.2021
61 Rain 18 1017 94 10000 5.14 90 22:18 20.04.2021
62 Rain 18 1022 94 10000 5.14 80 21:46 20.04.2021
63 Rain 19 1020 73 10000 9.26 40 21:24 20.04.2021
64 Rain 15 1012 85 10000 3.13 99 20:43 20.04.2021
65 Rain 20 1021 77 10000 2.57 80 20:23 20.04.2021
66 Rain 20 1021 77 10000 2.57 80 19:54 20.04.2021
67 Rain 15 1011 85 10000 4.47 115 19:36 20.04.2021
68 Rain 15 1010 86 10000 4.02 116 18:55 20.04.2021
69 Rain 22 1019 64 10000 6.17 80 18:35 20.04.2021
70 Rain 23 1018 60 10000 6.69 80 17:45 20.04.2021
71 Rain 23 1018 60 10000 6.69 80 17:22 20.04.2021
72 Rain 23 1018 60 10000 6.69 80 16:44 20.04.2021
73 Rain 26 1011 41 10000 4.12 80 15:51 20.04.2021
74 Clouds 25 1018 50 10000 7.2 90 15:28 20.04.2021
75 Clouds 25 1018 50 10000 7.2 90 14:57 20.04.2021
76 Clouds 25 1018 50 10000 7.2 90 14:31 20.04.2021
77 Clouds 25 1019 50 10000 4.63 90 13:37 20.04.2021
78 Clouds 24 1021 57 10000 4.63 70 13:18 20.04.2021
79 Clouds 24 1021 57 10000 6.17 90 12:40 20.04.2021
80 Clouds 24 1021 57 10000 6.17 90 12:19 20.04.2021
81 Clouds 24 1021 57 10000 6.17 90 11:40 20.04.2021
82 Clouds 22 1021 64 10000 3.09 60 11:20 20.04.2021
83 Clouds 22 1021 64 10000 3.09 60 10:42 20.04.2021
84 Clouds 22 1021 64 10000 3.09 60 10:22 20.04.2021
85 Clouds 19 1022 82 10000 3.09 100 09:22 20.04.2021
86 Clouds 19 1022 82 10000 3.09 100 08:54 20.04.2021
87 Clouds 18 1021 88 10000 4.12 80 08:20 20.04.2021
88 Clouds 18 1021 88 10000 4.12 80 07:39 20.04.2021
89 Clouds 17 1020 94 10000 3.09 90 06:36 20.04.2021
90 Clouds 17 1020 94 10000 3.09 90 05:37 20.04.2021
91 Clouds 17 1020 94 10000 2.57 40 04:41 20.04.2021
92 Clouds 14 1011 86 10000 3.13 129 00:53 20.04.2021
93 Clouds 14 1011 85 10000 4.02 76 00:28 20.04.2021
94 Clouds 19 1021 82 10000 3.09 80 23:34 19.04.2021
95 Clouds 19 1021 82 10000 2.57 70 22:56 19.04.2021
96 Clouds 19 1021 82 10000 2.57 70 22:30 19.04.2021
97 Clouds 19 1021 82 10000 2.57 70 22:30 19.04.2021
98 Clouds 15 1012 85 10000 3.13 53 21:47 19.04.2021
99 Clouds 21 1020 64 10000 7.72 80 21:27 19.04.2021
100 Clouds 21 1020 64 10000 7.72 80 20:46 19.04.2021
101 Clouds 20 1020 68 10000 2.57 70 20:24 19.04.2021
102 Clouds 20 1020 68 10000 2.57 70 19:57 19.04.2021
103 Clouds 21 1019 60 10000 4.12 80 19:39 19.04.2021
104 Clouds 22 1020 60 10000 4.12 80 19:18 19.04.2021
105 Clouds 16 1010 78 10000 4.02 111 18:44 19.04.2021
106 Clouds 23 1018 56 10000 4.63 100 18:21 19.04.2021
107 Clouds 23 1018 56 10000 4.63 100 18:21 19.04.2021
108 Clouds 23 1018 56 10000 4.63 100 17:50 19.04.2021
109 Clouds 23 1018 56 10000 9.26 100 17:26 19.04.2021
110 Clouds 23 1018 56 10000 9.26 100 16:49 19.04.2021
111 Clouds 23 1018 56 10000 9.26 100 16:49 19.04.2021
112 Clouds 24 1011 44 10000 4.63 80 16:31 19.04.2021
113 Clouds 25 1011 44 10000 4.63 80 15:44 19.04.2021
114 Clouds 25 1010 44 10000 4.63 80 15:25 19.04.2021
115 Clouds 25 1019 44 10000 3.6 60 14:52 19.04.2021
116 Clouds 25 1019 44 10000 3.6 60 14:34 19.04.2021
117 Clouds 24 1019 53 10000 6.17 90 13:53 19.04.2021
118 Clouds 24 1019 53 10000 6.17 90 13:30 19.04.2021
119 Clouds 24 1011 50 10000 8.23 90 12:55 19.04.2021
120 Clouds 24 1011 50 10000 8.23 90 12:36 19.04.2021
121 Clouds 23 1021 56 10000 5.14 70 12:18 19.04.2021
122 Clouds 23 1021 56 10000 5.14 70 11:43 19.04.2021
123 Clouds 22 1022 60 10000 4.12 90 11:20 19.04.2021
124 Clouds 22 1022 60 10000 4.12 90 10:44 19.04.2021
125 Clouds 22 1023 68 10000 3.6 90 10:19 19.04.2021
126 Clouds 20 1022 77 10000 4.12 120 09:43 19.04.2021
127 Clouds 20 1022 77 10000 4.12 120 09:24 19.04.2021
128 Clouds 19 1022 77 10000 4.12 120 08:34 19.04.2021
129 Clouds 17 1021 94 10000 2.52 81 07:50 19.04.2021
130 Clouds 17 1021 94 10000 2.36 74 07:24 19.04.2021
131 Clouds 16 1021 94 10000 2.36 74 06:48 19.04.2021
132 Clouds 16 1020 94 10000 2.18 63 04:47 19.04.2021
133 Clouds 14 1012 89 10000 2.86 64 01:49 19.04.2021
134 Rain 17 1021 94 10000 2.97 66 00:41 19.04.2021
135 Rain 14 1012 92 10000 0.89 132 23:21 18.04.2021
136 Rain 14 1012 92 10000 1.34 96 22:58 18.04.2021
137 Rain 20 1021 73 10000 2.57 90 22:34 18.04.2021
138 Rain 20 1021 73 10000 2.57 90 21:53 18.04.2021
139 Rain 20 1021 73 10000 2.57 90 21:28 18.04.2021
140 Rain 20 1021 73 10000 5.14 120 20:44 18.04.2021
141 Clouds 21 1021 73 10000 5.14 120 20:25 18.04.2021
142 Clouds 22 1021 56 10000 5.14 90 19:59 18.04.2021
143 Clouds 22 1021 56 10000 5.14 90 19:39 18.04.2021
144 Clouds 23 1020 49 10000 5.14 90 19:19 18.04.2021
145 Clouds 23 1020 49 10000 5.14 90 18:45 18.04.2021
146 Clouds 23 1020 49 10000 5.14 90 18:25 18.04.2021
147 Clouds 23 1020 49 10000 5.14 90 18:25 18.04.2021
148 Clouds 24 1019 50 10000 5.14 90 17:46 18.04.2021
149 Clouds 24 1019 50 10000 5.14 90 17:27 18.04.2021
150 Clouds 25 1019 47 10000 5.14 70 16:47 18.04.2021
151 Clouds 25 1019 47 10000 5.14 70 16:29 18.04.2021
152 Clouds 24 1019 53 10000 5.14 90 15:46 18.04.2021
153 Clouds 24 1019 53 10000 5.14 90 15:27 18.04.2021
154 Clouds 24 1019 46 10000 4.12 90 14:52 18.04.2021
155 Clouds 25 1019 46 10000 4.12 90 14:23 18.04.2021
156 Clouds 25 1020 50 10000 6.17 90 13:56 18.04.2021
157 Clouds 25 1020 50 10000 6.17 90 13:38 18.04.2021
158 Clouds 24 1021 46 10000 5.14 70 13:18 18.04.2021
159 Clouds 24 1021 46 10000 5.13 70 12:32 18.04.2021
160 Clouds 22 1022 56 10000 10.29 120 11:45 18.04.2021
161 Clouds 22 1023 64 10000 7.72 90 11:22 18.04.2021
162 Clouds 22 1023 64 10000 7.72 90 10:48 18.04.2021
163 Clouds 21 1024 73 10000 2.06 0 10:23 18.04.2021
164 Clouds 21 1024 73 10000 2.06 0 09:53 18.04.2021
165 Clouds 20 1022 73 10000 2.57 90 09:34 18.04.2021
166 Clouds 20 1022 73 10000 2.57 90 08:57 18.04.2021
167 Clouds 19 1022 73 10000 2.57 90 08:35 18.04.2021
168 Clouds 18 1022 88 10000 2.57 60 07:59 18.04.2021
169 Clouds 18 1022 88 10000 2.57 60 07:38 18.04.2021
170 Clouds 16 1022 100 10000 1.54 50 05:43 18.04.2021
171 Clouds 16 1022 100 10000 1.54 50 05:24 18.04.2021
172 Clouds 18 1020 94 10000 2.57 90 02:56 18.04.2021
173 Clouds 18 1021 82 10000 2.57 60 02:22 18.04.2021
174 Clouds 18 1022 94 10000 3.6 80 00:38 18.04.2021
175 Clouds 19 1021 73 10000 5.14 70 23:38 17.04.2021
176 Clouds 20 1021 73 10000 5.14 70 22:52 17.04.2021
177 Clouds 20 1021 73 10000 5.14 70 22:31 17.04.2021
178 Clouds 20 1021 73 10000 4.12 80 21:50 17.04.2021
179 Clouds 20 1021 73 10000 4.12 80 21:31 17.04.2021
180 Clouds 21 1020 64 10000 5.14 70 20:51 17.04.2021
181 Clouds 21 1020 64 10000 5.14 70 20:28 17.04.2021
182 Clouds 23 1019 49 10000 5.14 90 19:46 17.04.2021
183 Clouds 23 1019 49 10000 5.14 90 19:46 17.04.2021
184 Clouds 24 1018 46 10000 6.17 90 19:21 17.04.2021
185 Clouds 24 1018 46 10000 6.17 90 18:56 17.04.2021
186 Clouds 24 1018 46 10000 6.17 90 18:36 17.04.2021
187 Clouds 24 1018 46 10000 6.17 90 18:36 17.04.2021
188 Clouds 25 1018 44 10000 6.17 90 17:58 17.04.2021
189 Clouds 25 1018 44 10000 6.17 90 17:39 17.04.2021
190 Clouds 26 1018 38 10000 6.17 80 16:54 17.04.2021
191 Clouds 26 1018 38 10000 6.17 80 16:28 17.04.2021
192 Clouds 26 1018 41 10000 3.6 90 15:50 17.04.2021
193 Clouds 27 1019 41 10000 5.14 100 14:50 17.04.2021
194 Clouds 27 1019 41 10000 5.14 100 14:50 17.04.2021
195 Clouds 27 1019 41 10000 5.14 100 14:31 17.04.2021
196 Clouds 26 1018 50 10000 7.72 90 13:48 17.04.2021
197 Rain 26 1018 50 10000 7.72 90 13:22 17.04.2021
198 Rain 25 1020 50 10000 6.17 100 12:41 17.04.2021
199 Rain 24 1021 57 10000 2.57 70 12:18 17.04.2021
200 Rain 24 1021 57 10000 2.57 70 11:40 17.04.2021
201 Clouds 23 1021 60 10000 7.72 110 11:22 17.04.2021
202 Clouds 23 1021 60 10000 7.72 110 10:43 17.04.2021
203 Clouds 22 1021 60 10000 7.72 110 10:25 17.04.2021
204 Clouds 21 1021 73 10000 3.09 70 09:27 17.04.2021
205 Clouds 19 1021 82 10000 4.12 80 08:38 17.04.2021
206 Clouds 19 1021 88 10000 3.27 68 08:19 17.04.2021
207 Clouds 17 1022 94 10000 2.82 56 06:44 17.04.2021
208 Clouds 18 1020 88 10000 1.88 37 03:53 17.04.2021
209 Clouds 18 1020 88 10000 1.86 31 02:58 17.04.2021
210 Rain 19 1021 82 10000 2.57 40 00:46 17.04.2021
211 Rain 19 1021 82 10000 2.57 40 00:24 17.04.2021
212 Rain 19 1020 77 10000 1.54 70 23:46 16.04.2021
213 Clouds 19 1020 77 10000 1.54 70 23:24 16.04.2021
214 Clouds 20 1022 77 10000 2.57 70 22:44 16.04.2021
215 Clouds 21 1020 68 10000 7.2 80 22:20 16.04.2021
216 Clouds 21 1020 68 10000 7.2 80 21:50 16.04.2021
217 Clouds 21 1020 68 10000 7.2 80 21:50 16.04.2021
218 Clouds 21 1020 68 10000 7.2 80 21:29 16.04.2021
219 Clouds 21 1019 68 10000 3.6 90 20:48 16.04.2021
220 Rain 21 1019 68 10000 3.6 90 20:24 16.04.2021
221 Rain 22 1018 60 10000 4.12 90 19:50 16.04.2021
222 Rain 22 1018 60 10000 4.12 90 19:28 16.04.2021
223 Rain 23 1017 56 10000 4.12 80 18:28 16.04.2021
224 Rain 25 1017 47 10000 5.66 90 17:55 16.04.2021
225 Rain 26 1018 38 10000 4.12 60 17:22 16.04.2021
226 Rain 26 1018 38 10000 4.12 60 16:59 16.04.2021
227 Clouds 26 1018 38 10000 4.12 60 16:41 16.04.2021
228 Clouds 26 1018 38 10000 4.12 60 16:21 16.04.2021
229 Clouds 26 1019 44 10000 7.72 70 15:42 16.04.2021
230 Clouds 26 1019 44 10000 7.72 70 14:59 16.04.2021
231 Clouds 26 1019 44 10000 7.72 70 14:40 16.04.2021
232 Clouds 26 1019 47 10000 6.17 90 13:59 16.04.2021
233 Clouds 26 1019 47 10000 6.17 90 13:41 16.04.2021
234 Clouds 25 1020 50 10000 6.17 120 13:19 16.04.2021
235 Clouds 25 1020 50 10000 6.17 120 12:46 16.04.2021
236 Clouds 25 1020 50 10000 6.17 120 12:25 16.04.2021
237 Clouds 24 1021 57 10000 4.63 90 11:43 16.04.2021
238 Clouds 24 1021 57 10000 4.63 90 11:24 16.04.2021
239 Clouds 22 1021 64 10000 4.63 50 10:43 16.04.2021
240 Clouds 22 1021 64 10000 4.63 50 10:25 16.04.2021
241 Clouds 20 1021 77 10000 4.12 60 09:52 16.04.2021
242 Clouds 19 1021 88 10000 3.4 65 09:24 16.04.2021
243 Clouds 19 1021 88 10000 3.4 65 08:46 16.04.2021
244 Clouds 19 1021 88 10000 3.04 63 08:27 16.04.2021
245 Clouds 18 1021 94 10000 3.06 63 07:47 16.04.2021
246 Clouds 18 1021 94 10000 2.47 56 07:28 16.04.2021
247 Clouds 17 1020 94 10000 2.47 56 06:47 16.04.2021
248 Clouds 17 1020 94 10000 3.09 80 05:33 16.04.2021
249 Clouds 17 1020 94 10000 3.09 80 05:33 16.04.2021
250 Clouds 17 1019 94 10000 1.77 39 03:59 16.04.2021
251 Clouds 18 1020 88 10000 1.54 320 00:49 16.04.2021
252 Clouds 18 1020 88 10000 2.66 44 00:22 16.04.2021
253 Clouds 18 1020 88 10000 2.66 44 23:58 15.04.2021
254 Clouds 18 1020 88 10000 2.67 49 23:35 15.04.2021
255 Rain 19 1021 88 10000 2.69 50 22:52 15.04.2021
256 Rain 19 1021 88 10000 3.01 58 22:26 15.04.2021
257 Clouds 19 1021 77 10000 2.57 70 21:56 15.04.2021
258 Clouds 19 1021 77 10000 2.57 70 21:37 15.04.2021
259 Clouds 21 1020 60 10000 1.54 70 21:19 15.04.2021
260 Clouds 21 1020 60 10000 1.54 70 20:38 15.04.2021
261 Clouds 22 1018 53 10000 2.06 50 20:20 15.04.2021
262 Clouds 22 1018 53 10000 2.06 50 19:42 15.04.2021
263 Rain 22 1018 53 10000 2.06 50 19:23 15.04.2021
264 Rain 23 1018 49 10000 3.6 80 18:41 15.04.2021
265 Clouds 24 1018 50 10000 4.63 70 18:20 15.04.2021
266 Clouds 24 1018 50 10000 4.63 70 17:54 15.04.2021
267 Clouds 24 1018 50 10000 4.63 70 17:36 15.04.2021
268 Clouds 25 1017 44 10000 5.14 80 16:47 15.04.2021
269 Clouds 25 1017 44 10000 5.14 80 16:25 15.04.2021
270 Clouds 26 1017 41 10000 4.12 80 15:51 15.04.2021
271 Clouds 26 1017 41 10000 4.12 80 15:31 15.04.2021
272 Clouds 25 1018 44 10000 2.06 50 14:57 15.04.2021
273 Clouds 25 1018 44 10000 2.06 50 14:38 15.04.2021
274 Clouds 25 1019 50 10000 5.14 80 14:19 15.04.2021
275 Clouds 25 1019 50 10000 5.14 80 13:41 15.04.2021
276 Clouds 25 1020 53 10000 6.17 60 12:59 15.04.2021
277 Clouds 24 1020 53 10000 6.17 60 12:38 15.04.2021
278 Clouds 24 1021 60 10000 5.66 80 12:20 15.04.2021
279 Clouds 24 1021 60 10000 5.66 80 12:20 15.04.2021
280 Clouds 23 1021 60 10000 5.66 80 11:42 15.04.2021
281 Clouds 23 1021 64 10000 3.52 64 11:22 15.04.2021
282 Clouds 22 1021 64 10000 3.52 64 10:48 15.04.2021
283 Clouds 21 1022 78 10000 3.6 80 10:26 15.04.2021
284 Clouds 21 1022 78 10000 3.6 80 09:37 15.04.2021
285 Clouds 19 1022 88 10000 2.98 57 08:58 15.04.2021
286 Clouds 19 1022 88 10000 2.98 57 08:38 15.04.2021
287 Clouds 17 1021 94 10000 2.45 47 07:50 15.04.2021
288 Clouds 17 1021 94 10000 1.82 42 07:22 15.04.2021
289 Clouds 17 1020 94 10000 1.82 42 07:22 15.04.2021
290 Clouds 17 1020 94 10000 1.82 42 06:38 15.04.2021
291 Clouds 17 1020 94 10000 1.53 33 06:20 15.04.2021
292 Clouds 17 1020 88 10000 1.54 28 04:49 15.04.2021
293 Clouds 18 1021 88 10000 5 300 00:43 15.04.2021
294 Clouds 17 1021 94 10000 2.8 40 23:39 14.04.2021
295 Rain 18 1021 88 10000 2.94 48 23:19 14.04.2021
296 Clouds 20 1022 83 10000 2.57 250 22:43 14.04.2021
297 Clouds 20 1022 83 10000 2.06 130 22:23 14.04.2021
298 Clouds 20 1022 83 10000 2.06 130 21:43 14.04.2021
299 Rain 20 1020 77 10000 3.17 73 21:23 14.04.2021
300 Rain 20 1020 77 10000 3.17 73 20:56 14.04.2021
301 Rain 20 1020 77 10000 3.09 69 20:33 14.04.2021
302 Rain 20 1019 82 10000 2.87 89 19:51 14.04.2021
303 Rain 21 1018 73 10000 3.33 94 19:20 14.04.2021
304 Rain 21 1018 73 10000 3.33 94 18:56 14.04.2021
305 Rain 23 1018 73 10000 4.12 180 18:22 14.04.2021
306 Rain 23 1018 73 10000 4.12 180 17:58 14.04.2021
307 Rain 24 1018 73 10000 4.12 180 17:25 14.04.2021
308 Rain 25 1017 61 10000 7.72 140 16:54 14.04.2021
309 Rain 26 1017 61 10000 7.72 140 16:26 14.04.2021
310 Rain 27 1017 36 10000 4.12 90 15:42 14.04.2021
311 Rain 26 1018 44 10000 5.14 60 15:24 14.04.2021
312 Rain 26 1018 44 10000 5.14 60 14:51 14.04.2021
313 Rain 26 1018 44 10000 5.14 60 14:27 14.04.2021
314 Clouds 26 1019 44 10000 4.12 120 13:58 14.04.2021
315 Clouds 26 1019 44 10000 4.12 120 13:37 14.04.2021
316 Clouds 24 1020 53 10000 5.14 120 12:39 14.04.2021
317 Rain 24 1021 57 10000 3.35 82 11:44 14.04.2021
318 Rain 24 1021 57 10000 2.75 87 11:25 14.04.2021
319 Rain 22 1022 68 10000 2.76 88 10:56 14.04.2021
320 Rain 22 1022 68 10000 2.76 88 10:33 14.04.2021
321 Rain 20 1023 77 10000 2.32 86 09:43 14.04.2021
322 Clouds 19 1022 82 10000 1.81 91 09:21 14.04.2021
323 Clouds 19 1022 82 10000 1.81 91 08:47 14.04.2021
324 Clouds 17 1022 94 10000 1.29 81 08:22 14.04.2021
325 Clouds 17 1022 94 10000 1.24 78 07:26 14.04.2021
326 Clouds 16 1021 94 10000 1.45 76 06:26 14.04.2021
327 Clouds 13 1012 88 10000 1.3 72 05:20 14.04.2021
328 Rain 14 1011 88 10000 0.45 92 01:54 14.04.2021
329 Rain 14 1012 87 10000 2.36 46 00:47 14.04.2021
330 Rain 19 1023 82 10000 2.57 120 00:25 14.04.2021
331 Rain 18 1022 82 10000 2.71 50 23:31 13.04.2021
332 Rain 18 1022 82 10000 2.7 50 22:44 13.04.2021
333 Rain 18 1022 88 10000 1.54 240 22:20 13.04.2021
334 Rain 18 1022 88 10000 1.54 240 21:48 13.04.2021
335 Rain 18 1021 82 10000 3.57 73 21:29 13.04.2021
336 Rain 18 1021 82 10000 3.34 76 20:48 13.04.2021
337 Rain 18 1016 82 10000 2.57 240 20:24 13.04.2021
338 Rain 18 1016 82 10000 2.57 240 19:50 13.04.2021
339 Rain 18 1015 82 10000 2.57 240 19:25 13.04.2021
340 Rain 19 1015 77 10000 6.17 180 18:46 13.04.2021
341 Rain 21 1013 77 10000 6.17 180 18:28 13.04.2021
342 Rain 22 1019 73 10000 5.14 300 17:40 13.04.2021
343 Rain 24 1018 56 8000 5.14 100 17:18 13.04.2021
344 Rain 24 1018 56 8000 5.14 100 16:45 13.04.2021
345 Rain 24 1018 56 8000 5.14 100 16:25 13.04.2021
346 Rain 24 1019 53 10000 3.6 150 15:53 13.04.2021
347 Rain 24 1019 53 10000 3.6 150 15:34 13.04.2021
348 Clouds 26 1019 44 10000 5.14 90 14:50 13.04.2021
349 Rain 26 1019 44 10000 5.14 90 14:22 13.04.2021
350 Rain 25 1020 47 10000 6.17 90 13:45 13.04.2021
351 Rain 25 1020 47 10000 6.17 90 13:26 13.04.2021
352 Rain 24 1021 50 10000 3.6 70 12:58 13.04.2021
353 Rain 24 1021 50 10000 3.6 70 12:37 13.04.2021
354 Rain 23 1022 56 10000 3.5 96 12:18 13.04.2021
355 Clouds 23 1022 56 10000 3.34 91 11:34 13.04.2021
356 Clouds 22 1023 64 10000 5.14 30 10:56 13.04.2021
357 Clouds 22 1023 64 10000 5.14 30 10:37 13.04.2021
358 Clouds 21 1023 68 10000 5.14 90 10:18 13.04.2021
359 Clouds 20 1023 68 10000 5.14 90 09:40 13.04.2021
360 Clouds 18 1023 88 10000 4.12 90 09:18 13.04.2021
361 Clouds 18 1023 88 10000 4.12 90 08:41 13.04.2021
362 Clouds 17 1022 94 10000 3.6 80 08:20 13.04.2021
363 Clouds 17 1022 94 10000 3.6 80 07:36 13.04.2021
364 Clouds 17 1021 94 10000 1.75 61 06:51 13.04.2021
365 Clouds 17 1020 94 10000 1.21 49 05:53 13.04.2021
366 Rain 18 1021 88 10000 3.6 90 02:47 13.04.2021
367 Clouds 18 1021 88 10000 4.12 70 01:27 13.04.2021
368 Clouds 18 1021 88 10000 2.57 80 23:49 12.04.2021
369 Clouds 18 1021 88 10000 2.57 80 23:27 12.04.2021
370 Clouds 19 1021 77 10000 3.09 61 22:43 12.04.2021
371 Clouds 19 1021 77 10000 2.66 49 22:23 12.04.2021
372 Clouds 20 1021 73 10000 2.06 90 22:23 12.04.2021
373 Clouds 20 1021 73 10000 2.06 90 21:46 12.04.2021
374 Clouds 20 1021 73 10000 2.06 90 21:46 12.04.2021
375 Clouds 20 1021 73 10000 2.06 90 21:21 12.04.2021
376 Rain 21 1021 68 10000 3.6 80 20:41 12.04.2021
377 Rain 21 1019 68 10000 6.17 60 20:23 12.04.2021
378 Rain 21 1019 68 10000 6.17 60 19:57 12.04.2021
379 Rain 21 1019 68 10000 6.17 60 19:38 12.04.2021
380 Rain 23 1019 53 10000 6.17 80 19:19 12.04.2021
381 Rain 23 1019 53 10000 6.17 80 18:44 12.04.2021
382 Rain 23 1019 53 10000 6.17 80 18:25 12.04.2021
383 Rain 24 1018 46 10000 6.17 90 17:45 12.04.2021
384 Clouds 25 1018 44 10000 7.2 80 17:24 12.04.2021
385 Clouds 25 1019 44 10000 7.2 60 16:47 12.04.2021
386 Clouds 25 1019 44 10000 7.2 60 16:27 12.04.2021
387 Clouds 25 1019 44 10000 7.2 60 15:49 12.04.2021
388 Clouds 25 1019 44 10000 7.2 60 15:31 12.04.2021
389 Clouds 25 1020 47 10000 6.17 80 14:53 12.04.2021
390 Clouds 25 1020 47 10000 6.17 80 14:35 12.04.2021
391 Rain 24 1021 53 10000 6.69 80 13:49 12.04.2021
392 Rain 24 1021 53 10000 6.69 80 13:30 12.04.2021
393 Rain 23 1021 60 10000 4.12 90 12:51 12.04.2021
394 Rain 23 1021 60 10000 4.12 90 12:27 12.04.2021
395 Rain 23 1022 60 10000 5.14 30 11:59 12.04.2021
396 Rain 23 1022 60 10000 5.14 30 11:24 12.04.2021
397 Rain 20 1023 77 10000 4.12 100 10:47 12.04.2021
398 Rain 20 1023 77 10000 4.12 100 10:27 12.04.2021
399 Rain 19 1023 77 10000 4.12 100 09:50 12.04.2021
400 Rain 18 1023 82 10000 2.99 106 09:21 12.04.2021
401 Rain 18 1023 82 10000 3 108 08:39 12.04.2021
402 Rain 17 1022 88 10000 2.79 97 07:42 12.04.2021
403 Rain 16 1021 94 10000 2.38 78 07:21 12.04.2021
404 Rain 16 1021 94 8888 2.29 68 06:25 12.04.2021
405 Rain 16 1020 94 10000 2.06 70 05:41 12.04.2021
406 Rain 18 1020 88 10000 3.09 80 01:40 12.04.2021
407 Rain 18 1020 88 10000 3.09 80 01:40 12.04.2021
408 Rain 18 1020 88 10000 3.09 80 01:40 12.04.2021
409 Clouds 18 1020 88 10000 3.09 80 00:26 12.04.2021
410 Clouds 18 1021 88 10000 3.09 80 23:49 11.04.2021
411 Clouds 18 1021 82 10000 3.6 70 23:30 11.04.2021
412 Clouds 19 1021 82 10000 3.6 70 22:48 11.04.2021
413 Rain 19 1021 82 10000 3.6 70 22:26 11.04.2021
414 Rain 20 1021 73 10000 1.54 70 21:52 11.04.2021
415 Rain 20 1021 73 10000 1.54 70 21:30 11.04.2021
416 Clouds 19 1020 68 10000 3.94 75 20:59 11.04.2021
417 Clouds 19 1020 68 10000 4.06 77 20:37 11.04.2021
418 Clouds 25 1019 37 10000 2.57 70 20:18 11.04.2021
419 Clouds 25 1019 37 10000 2.57 70 19:39 11.04.2021
420 Clouds 21 1019 56 10000 4.63 90 19:19 11.04.2021
421 Clouds 21 1019 56 10000 4.63 90 18:46 11.04.2021
422 Clouds 22 1018 60 10000 5.66 90 18:26 11.04.2021
423 Clouds 22 1018 60 10000 5.66 90 17:50 11.04.2021
424 Rain 22 1018 60 10000 5.66 90 17:29 11.04.2021
425 Rain 25 1018 47 10000 8.23 80 16:53 11.04.2021
426 Clouds 25 1018 47 10000 8.23 80 16:28 11.04.2021
427 Clouds 25 1018 50 10000 5.14 80 15:59 11.04.2021
428 Clouds 25 1018 50 10000 5.14 80 15:40 11.04.2021
429 Clouds 25 1019 50 10000 7.2 60 15:22 11.04.2021
430 Clouds 25 1019 50 10000 7.2 60 14:48 11.04.2021
431 Clouds 24 1020 53 10000 4.63 100 14:19 11.04.2021
432 Clouds 24 1020 53 10000 4.63 100 13:39 11.04.2021
433 Clouds 23 1021 60 10000 4.63 110 13:21 11.04.2021
434 Rain 23 1021 60 10000 4.63 110 12:25 11.04.2021
435 Rain 22 1022 60 10000 3.09 50 11:53 11.04.2021
436 Rain 22 1022 60 10000 3.09 50 11:33 11.04.2021
437 Rain 21 1023 68 10000 2.57 140 10:58 11.04.2021
438 Rain 21 1023 68 10000 2.57 140 10:39 11.04.2021
439 Rain 21 1022 68 10000 4.12 100 10:20 11.04.2021
440 Rain 21 1022 68 10000 4.12 100 09:40 11.04.2021
441 Rain 19 1021 82 10000 3.54 93 09:22 11.04.2021
442 Rain 18 1021 82 10000 3.53 93 08:39 11.04.2021
443 Clouds 16 1020 94 10000 3.01 85 07:38 11.04.2021
444 Rain 15 1020 94 10000 2.16 64 07:19 11.04.2021
445 Rain 16 1019 94 10000 2.17 59 05:46 11.04.2021
446 Rain 16 1019 94 10000 2.53 62 05:22 11.04.2021
447 Rain 16 1019 94 10000 2.53 62 04:35 11.04.2021
448 Rain 17 1019 94 10000 2.57 180 03:35 11.04.2021
449 Rain 13 1010 93 10000 2.72 69 00:51 11.04.2021
450 Rain 16 1020 94 10000 2.99 80 00:25 11.04.2021
451 Rain 16 1020 94 10000 2.99 80 23:44 10.04.2021
452 Rain 15 1022 100 10000 9.26 40 22:55 10.04.2021
453 Rain 15 1022 100 10000 9.26 40 22:27 10.04.2021
454 Rain 17 1021 94 10000 2.57 270 21:52 10.04.2021
455 Rain 17 1019 88 10000 3.25 80 21:24 10.04.2021
456 Rain 17 1019 88 10000 3.25 80 20:55 10.04.2021
457 Rain 17 1019 88 10000 3.29 71 20:34 10.04.2021
458 Rain 20 1018 82 10000 4.12 300 19:58 10.04.2021
459 Rain 20 1018 82 10000 4.12 300 19:40 10.04.2021
460 Rain 22 1017 56 10000 4.12 60 19:21 10.04.2021
461 Rain 22 1017 56 10000 4.12 60 18:41 10.04.2021
462 Rain 23 1017 56 10000 4.12 60 18:23 10.04.2021
463 Rain 23 1016 53 10000 5.14 60 18:23 10.04.2021
464 Rain 23 1016 53 10000 5.14 60 17:35 10.04.2021
465 Rain 23 1016 53 10000 5.14 60 17:35 10.04.2021
466 Rain 25 1016 50 10000 5.14 60 16:37 10.04.2021
467 Clouds 25 1016 50 10000 5.14 60 16:19 10.04.2021
468 Clouds 25 1016 47 10000 5.14 90 15:43 10.04.2021
469 Clouds 25 1016 47 10000 5.14 90 14:52 10.04.2021
470 Clouds 25 1016 47 10000 5.14 90 14:30 10.04.2021
471 Clouds 24 1018 50 10000 5.14 70 13:55 10.04.2021
472 Clouds 24 1018 50 10000 5.14 70 13:36 10.04.2021
473 Clouds 24 1019 53 10000 4.12 90 12:41 10.04.2021
474 Rain 24 1020 53 10000 4.12 60 12:20 10.04.2021
475 Rain 24 1020 53 10000 4.12 60 11:45 10.04.2021
476 Rain 24 1020 53 10000 4.12 60 11:45 10.04.2021
477 Clouds 21 1021 78 10000 5.14 90 11:21 10.04.2021
478 Clouds 21 1021 78 10000 5.14 90 10:50 10.04.2021
479 Rain 21 1021 78 10000 5.14 90 10:30 10.04.2021
480 Rain 19 1021 82 10000 4.12 150 09:37 10.04.2021
481 Rain 19 1020 82 10000 3.12 71 09:18 10.04.2021
482 Rain 19 1020 82 10000 2.85 84 08:34 10.04.2021
483 Rain 18 1020 88 10000 2.24 68 07:56 10.04.2021
484 Rain 18 1020 88 10000 2.06 49 07:26 10.04.2021
485 Rain 17 1018 94 10000 1.96 41 06:27 10.04.2021
486 Rain 16 1020 100 10000 1.41 40 05:28 10.04.2021
487 Rain 16 1018 94 10000 2.57 60 03:36 10.04.2021
488 Rain 16 1018 94 10000 2.57 60 02:42 10.04.2021
489 Rain 13 1010 92 10000 2.24 101 01:27 10.04.2021
490 Rain 14 1011 89 10000 4.92 113 00:31 10.04.2021
491 Rain 13 1011 91 10000 4.02 110 23:53 09.04.2021
492 Rain 14 1012 91 10000 3.58 92 23:30 09.04.2021
493 Rain 14 1012 91 10000 4.02 95 22:53 09.04.2021
494 Rain 18 1020 72 10000 3.09 360 22:34 09.04.2021
495 Rain 19 1020 72 10000 3.09 360 21:40 09.04.2021
496 Rain 20 1019 64 10000 3.09 360 21:21 09.04.2021
497 Rain 20 1019 64 10000 3.09 360 20:46 09.04.2021
498 Rain 19 1018 77 10000 1.42 153 20:24 09.04.2021
499 Rain 19 1018 77 10000 1.41 155 19:58 09.04.2021
500 Rain 19 1018 77 10000 1.42 153 19:40 09.04.2021
501 Rain 20 1017 73 10000 1.98 148 19:22 09.04.2021
502 Rain 19 1018 77 10000 2.01 145 19:22 09.04.2021
503 Rain 20 1017 73 10000 2.01 145 18:42 09.04.2021
504 Rain 21 1017 64 10000 2.57 160 18:23 09.04.2021
505 Rain 21 1017 64 10000 2.57 160 17:48 09.04.2021
506 Rain 21 1017 64 10000 2.57 160 17:29 09.04.2021
507 Rain 24 1015 53 10000 5.14 70 16:47 09.04.2021
508 Rain 24 1015 53 10000 5.14 70 16:28 09.04.2021
509 Rain 24 1015 57 10000 10.29 120 15:44 09.04.2021
510 Rain 24 1015 57 10000 10.29 120 15:24 09.04.2021
511 Rain 23 1017 64 10000 12.86 150 14:46 09.04.2021
512 Rain 24 1017 64 10000 12.86 150 14:28 09.04.2021
513 Rain 25 1017 53 10000 2.93 59 13:45 09.04.2021
514 Rain 24 1019 53 10000 5.14 360 13:22 09.04.2021
515 Rain 24 1019 53 10000 5.14 360 12:47 09.04.2021
516 Rain 24 1019 53 10000 5.14 360 12:47 09.04.2021
517 Rain 23 1020 56 10000 2.06 60 12:23 09.04.2021
518 Rain 23 1020 56 10000 2.06 60 11:43 09.04.2021
519 Rain 22 1020 64 10000 2.06 70 11:20 09.04.2021
520 Rain 22 1020 64 10000 2.06 70 10:37 09.04.2021
521 Clouds 20 1021 77 10000 2.79 43 09:58 09.04.2021
522 Rain 20 1021 77 10000 2.81 41 09:27 09.04.2021
523 Rain 18 1021 88 10000 2.57 160 08:56 09.04.2021
524 Clouds 18 1021 88 10000 2.57 160 08:31 09.04.2021
525 Clouds 17 1020 94 10000 2.31 44 07:22 09.04.2021
526 Clouds 17 1020 94 10000 2.28 50 06:30 09.04.2021
527 Clouds 17 1018 94 10000 2.28 50 05:36 09.04.2021
528 Rain 17 1020 94 10000 3.6 20 03:43 09.04.2021
529 Rain 18 1021 94 10000 1.97 43 00:39 09.04.2021
530 Rain 18 1015 88 10000 3.6 10 00:21 09.04.2021
531 Rain 18 1015 88 10000 3.6 10 23:38 08.04.2021
532 Clouds 17 1021 94 10000 4.12 360 22:56 08.04.2021
533 Clouds 17 1021 94 10000 4.12 360 22:56 08.04.2021
534 Clouds 17 1021 94 10000 4.12 360 22:31 08.04.2021
535 Rain 17 1021 88 10000 3.6 100 21:59 08.04.2021
536 Rain 17 1021 88 10000 3.6 100 21:41 08.04.2021
537 Rain 17 1021 88 10000 3.6 100 21:22 08.04.2021
538 Rain 22 1019 60 10000 8.75 80 20:59 08.04.2021
539 Rain 22 1019 60 10000 8.75 80 20:40 08.04.2021
540 Rain 22 1019 64 10000 5.14 60 20:19 08.04.2021
541 Rain 22 1019 64 10000 5.14 60 19:41 08.04.2021
542 Rain 23 1019 60 10000 5.66 60 19:19 08.04.2021
543 Rain 23 1019 60 10000 5.66 60 18:43 08.04.2021
544 Rain 25 1018 50 10000 4.12 60 18:19 08.04.2021
545 Rain 25 1018 50 10000 4.12 60 17:42 08.04.2021
546 Rain 25 1018 50 10000 4.12 60 17:21 08.04.2021
547 Rain 25 1017 50 10000 6.17 60 16:45 08.04.2021
548 Rain 26 1017 47 10000 6.17 110 16:23 08.04.2021
549 Rain 26 1017 47 10000 6.17 110 15:46 08.04.2021
550 Clouds 26 1017 47 10000 6.17 110 15:28 08.04.2021
551 Clouds 25 1019 47 10000 6.69 80 14:43 08.04.2021
552 Clouds 25 1020 53 10000 4.12 90 14:22 08.04.2021
553 Clouds 25 1020 53 10000 4.12 90 13:49 08.04.2021
554 Rain 24 1021 57 10000 4.63 60 13:25 08.04.2021
555 Rain 25 1020 53 10000 4.12 90 13:25 08.04.2021
556 Rain 24 1021 57 10000 4.63 60 12:59 08.04.2021
557 Rain 24 1021 57 10000 4.63 60 12:37 08.04.2021
558 Rain 22 1022 64 10000 3.6 80 11:58 08.04.2021
559 Rain 21 1023 68 10000 3.09 80 11:29 08.04.2021
560 Rain 21 1023 68 10000 3.09 80 10:56 08.04.2021
561 Clouds 21 1023 68 10000 3.09 80 10:26 08.04.2021
562 Clouds 21 1023 68 10000 3.09 80 10:26 08.04.2021
563 Clouds 21 1023 68 10000 3.09 80 10:26 08.04.2021
564 Clouds 21 1023 68 10000 3.09 80 10:26 08.04.2021
565 Clouds 21 1023 68 10000 3.09 80 10:26 08.04.2021
566 Clouds 20 1024 77 10000 3.09 50 09:49 08.04.2021
567 Clouds 19 1023 88 10000 2.57 80 09:30 08.04.2021
568 Clouds 18 1023 88 10000 2.57 80 08:45 08.04.2021
569 Clouds 17 1022 88 10000 5.14 10 08:22 08.04.2021
570 Drizzle 17 1023 94 10000 3.6 10 07:47 08.04.2021
571 Clouds 17 1021 94 10000 4.63 90 06:46 08.04.2021
572 Clouds 18 1020 94 10000 2.77 59 02:26 08.04.2021
573 Clouds 19 1021 82 10000 4.12 90 00:32 08.04.2021
574 Clouds 19 1023 82 10000 4.12 80 23:55 07.04.2021
575 Clouds 20 1021 77 10000 2.57 60 23:37 07.04.2021
576 Rain 20 1021 77 10000 2.57 60 23:18 07.04.2021
577 Rain 20 1021 77 10000 2.57 60 22:43 07.04.2021
578 Rain 20 1021 73 10000 2.57 80 22:21 07.04.2021
579 Rain 20 1021 73 10000 2.57 80 21:41 07.04.2021
580 Rain 21 1020 68 10000 3.78 69 21:20 07.04.2021
581 Rain 21 1020 68 10000 4.06 73 20:41 07.04.2021
582 Rain 21 1020 64 10000 2.06 80 20:20 07.04.2021
583 Rain 21 1020 64 10000 2.06 80 19:42 07.04.2021
584 Clouds 21 1020 64 10000 2.06 80 19:22 07.04.2021
585 Clouds 23 1019 60 10000 5.14 80 18:42 07.04.2021
586 Clouds 23 1019 60 10000 7.2 100 18:19 07.04.2021
587 Clouds 23 1019 60 10000 7.2 100 17:50 07.04.2021
588 Clouds 23 1019 60 10000 7.2 100 17:32 07.04.2021
589 Clouds 25 1019 53 10000 3.6 70 16:47 07.04.2021
590 Clouds 25 1019 53 10000 3.6 70 16:22 07.04.2021
591 Clouds 25 1019 44 10000 8.75 90 15:56 07.04.2021
592 Clouds 25 1019 44 10000 8.75 90 15:38 07.04.2021
593 Clouds 25 1020 57 10000 4.12 70 14:50 07.04.2021
594 Clouds 26 1021 36 10000 7.72 90 14:25 07.04.2021
595 Clouds 26 1021 36 10000 7.72 90 13:46 07.04.2021
596 Clouds 23 1021 60 10000 4.63 70 13:21 07.04.2021
597 Clouds 23 1021 60 10000 4.63 70 12:49 07.04.2021
598 Clouds 23 1022 64 10000 3.6 60 12:22 07.04.2021
599 Clouds 22 1022 64 10000 3.6 60 11:48 07.04.2021
600 Clouds 21 1022 77 10000 4.12 70 11:25 07.04.2021
601 Clouds 20 1022 77 10000 4.12 70 10:51 07.04.2021
602 Rain 21 1024 73 10000 3.6 60 09:56 07.04.2021
603 Rain 19 1023 82 10000 4.12 90 09:37 07.04.2021
604 Clouds 19 1023 82 10000 4.12 90 09:19 07.04.2021
605 Clouds 19 1023 82 10000 4.12 90 08:33 07.04.2021
606 Clouds 17 1023 94 10000 4.12 90 07:57 07.04.2021
607 Clouds 17 1023 94 10000 4.12 90 07:29 07.04.2021
608 Clouds 16 1022 94 10000 2.74 53 06:59 07.04.2021
609 Rain 16 1021 94 10000 5.14 60 06:18 07.04.2021
610 Rain 17 1020 100 10000 3.6 30 03:35 07.04.2021
611 Clouds 18 1022 88 10000 3.07 57 23:52 06.04.2021
612 Clouds 17 1021 94 10000 2.73 52 23:23 06.04.2021
613 Clouds 17 1021 94 10000 2.77 53 22:59 06.04.2021
614 Rain 17 1021 94 10000 2.73 49 22:22 06.04.2021
615 Rain 18 1021 88 10000 4.12 30 21:59 06.04.2021
616 Rain 18 1021 88 10000 4.12 30 21:59 06.04.2021
617 Rain 18 1021 88 10000 4.12 30 21:39 06.04.2021
618 Rain 18 1021 88 10000 3.09 20 21:21 06.04.2021
619 Clouds 18 1021 88 10000 4.12 30 21:21 06.04.2021
620 Rain 18 1021 88 10000 3.09 20 20:51 06.04.2021
621 Clouds 22 1019 68 10000 4.12 70 20:21 06.04.2021
622 Clouds 22 1019 68 10000 4.12 70 19:50 06.04.2021
623 Clouds 22 1019 68 10000 4.12 70 19:31 06.04.2021
624 Rain 22 1018 68 10000 5.14 60 18:48 06.04.2021
625 Rain 22 1018 68 10000 5.14 60 18:24 06.04.2021
626 Rain 23 1018 60 10000 5.14 90 17:52 06.04.2021
627 Rain 24 1018 60 10000 5.14 90 17:30 06.04.2021
628 Rain 25 1017 53 10000 6.17 90 16:59 06.04.2021
629 Rain 25 1017 53 10000 6.17 90 16:39 06.04.2021
630 Rain 24 1017 57 10000 5.14 90 15:44 06.04.2021
631 Rain 25 1018 53 10000 7.72 90 15:22 06.04.2021
632 Rain 25 1018 53 10000 7.72 90 14:39 06.04.2021
633 Rain 24 1019 57 10000 6.17 60 14:19 06.04.2021
634 Rain 24 1019 57 10000 6.17 60 13:44 06.04.2021
635 Rain 24 1019 57 10000 6.17 60 13:25 06.04.2021
636 Rain 24 1021 57 10000 5.14 60 12:42 06.04.2021
637 Rain 23 1022 60 10000 2.57 90 12:22 06.04.2021
638 Rain 23 1022 60 10000 2.57 90 11:52 06.04.2021
639 Rain 23 1022 60 10000 2.57 90 11:21 06.04.2021
640 Rain 21 1023 73 10000 3.9 83 10:48 06.04.2021
641 Rain 21 1023 73 10000 3.89 83 10:29 06.04.2021
642 Rain 20 1023 77 10000 3.88 83 09:57 06.04.2021
643 Rain 20 1023 77 10000 3.89 83 09:36 06.04.2021
644 Rain 19 1023 82 10000 3.7 76 08:45 06.04.2021
645 Rain 19 1023 82 10000 3.7 76 08:45 06.04.2021
646 Rain 18 1021 88 10000 3.1 65 08:19 06.04.2021
647 Rain 17 1021 94 10000 2.36 45 06:56 06.04.2021
648 Rain 17 1020 94 10000 2.06 80 06:20 06.04.2021
649 Rain 14 1011 93 10000 1.63 43 02:59 06.04.2021
650 Clouds 14 1011 92 10000 1.83 54 00:46 06.04.2021
651 Clouds 18 1022 100 10000 1.54 30 00:21 06.04.2021
652 Clouds 18 1022 100 10000 1.54 30 23:44 05.04.2021
653 Clouds 17 1016 87 10000 2.2 47 23:22 05.04.2021
654 Clouds 17 1016 87 10000 2.21 48 22:48 05.04.2021
655 Rain 19 1021 88 10000 2.33 49 22:27 05.04.2021
656 Clouds 18 1022 94 10000 3.6 70 21:45 05.04.2021
657 Clouds 20 1020 77 10000 6.17 60 21:22 05.04.2021
658 Clouds 20 1020 77 10000 6.17 60 20:45 05.04.2021
659 Clouds 20 1020 77 10000 6.17 60 20:27 05.04.2021
660 Clouds 21 1019 78 10000 5.14 60 19:44 05.04.2021
661 Clouds 21 1019 78 10000 5.14 60 19:24 05.04.2021
662 Clouds 21 1018 73 10000 2.57 150 18:55 05.04.2021
663 Clouds 22 1018 73 10000 2.57 150 18:36 05.04.2021
664 Clouds 23 1017 64 10000 3.09 150 18:18 05.04.2021
665 Clouds 23 1017 64 10000 3.09 150 17:43 05.04.2021
666 Clouds 25 1017 53 10000 6.17 120 17:20 05.04.2021
667 Clouds 25 1017 53 10000 6.17 120 16:44 05.04.2021
668 Rain 25 1017 53 10000 6.17 120 16:21 05.04.2021
669 Rain 25 1017 50 10000 5.14 60 15:52 05.04.2021
670 Clouds 25 1017 50 10000 5.14 60 15:30 05.04.2021
671 Clouds 24 1018 53 10000 6.17 70 14:54 05.04.2021
672 Clouds 24 1018 53 10000 6.17 70 14:34 05.04.2021
673 Clouds 24 1019 50 10000 6.17 60 13:32 05.04.2021
674 Clouds 23 1020 53 10000 5.14 100 12:51 05.04.2021
675 Clouds 23 1020 53 10000 5.14 100 12:28 05.04.2021
676 Clouds 23 1021 53 10000 5.14 100 11:56 05.04.2021
677 Clouds 23 1021 53 10000 5.14 100 11:36 05.04.2021
678 Clouds 21 1022 68 10000 2.54 80 11:18 05.04.2021
679 Clouds 21 1022 68 10000 2.53 80 10:45 05.04.2021
680 Clouds 21 1022 68 10000 1.96 65 10:26 05.04.2021
681 Clouds 16 1013 91 10000 0.45 42 09:47 05.04.2021
682 Clouds 17 1023 88 10000 3.09 80 09:23 05.04.2021
683 Clouds 17 1023 88 10000 3.09 80 08:45 05.04.2021
684 Rain 17 1023 88 10000 3.09 80 08:25 05.04.2021
685 Rain 16 1021 94 10000 3.6 360 07:36 05.04.2021
686 Rain 16 1021 94 10000 2.06 30 06:20 05.04.2021
687 Rain 15 1010 89 10000 2.53 44 01:41 05.04.2021
688 Rain 16 1010 86 10000 2.73 43 00:49 05.04.2021
689 Rain 16 1011 84 10000 2.57 43 23:51 04.04.2021
690 Rain 16 1011 84 10000 0.89 63 23:24 04.04.2021
691 Rain 16 1011 84 10000 2.84 42 22:51 04.04.2021
692 Rain 16 1010 83 10000 2.24 88 22:30 04.04.2021
693 Rain 16 1010 84 10000 3.58 111 21:28 04.04.2021
694 Rain 18 1016 85 10000 2.57 31 20:57 04.04.2021
695 Rain 18 1014 84 9437 3.69 67 20:30 04.04.2021
696 Rain 19 1014 80 8729 3.92 79 19:58 04.04.2021
697 Rain 19 1014 80 8729 3.92 79 19:37 04.04.2021
698 Rain 19 1013 78 6969 3.88 77 19:18 04.04.2021
699 Rain 19 1013 78 6969 3.88 77 18:44 04.04.2021
700 Rain 20 1017 83 10000 2.06 210 18:21 04.04.2021
701 Rain 20 1017 83 10000 2.06 210 17:44 04.04.2021
702 Rain 20 1017 83 10000 3.23 82 17:23 04.04.2021
703 Rain 20 1017 83 10000 3.23 82 16:44 04.04.2021
704 Rain 22 1017 73 10000 3.88 105 16:19 04.04.2021
705 Rain 20 1019 64 10000 5.14 80 15:34 04.04.2021
706 Rain 20 1019 64 10000 5.14 80 14:46 04.04.2021
707 Rain 20 1019 64 10000 5.14 80 14:27 04.04.2021
708 Rain 27 1018 39 10000 2.57 100 13:52 04.04.2021
709 Clouds 27 1018 39 10000 2.57 100 13:25 04.04.2021
710 Clouds 27 1020 39 10000 3.89 67 12:44 04.04.2021
711 Clouds 27 1020 39 10000 3.54 70 12:25 04.04.2021
712 Clouds 25 1021 47 10000 7.72 120 11:42 04.04.2021
713 Clouds 25 1021 47 10000 7.72 120 11:24 04.04.2021
714 Clouds 24 1021 53 10000 4.12 80 10:46 04.04.2021
715 Clouds 22 1022 68 10000 3.43 74 09:57 04.04.2021
716 Clouds 22 1022 68 10000 3.71 72 09:26 04.04.2021
717 Clouds 22 1022 68 10000 3.71 72 09:26 04.04.2021
718 Clouds 20 1022 77 10000 3.69 72 08:55 04.04.2021
719 Clouds 20 1022 77 10000 3.71 72 08:37 04.04.2021
720 Clouds 18 1021 88 10000 2.94 66 08:19 04.04.2021
721 Clouds 17 1021 94 10000 3.6 130 06:38 04.04.2021
722 Clouds 18 1021 88 10000 2.57 90 05:33 04.04.2021
723 Rain 19 1020 82 10000 2.37 29 01:33 04.04.2021
724 Rain 21 1020 64 10000 7.72 50 00:23 04.04.2021
725 Rain 21 1020 64 10000 7.72 50 23:51 03.04.2021
726 Rain 21 1020 64 10000 7.72 50 23:32 03.04.2021
727 Rain 22 1020 60 10000 3.6 70 22:53 03.04.2021
728 Rain 23 1019 49 10000 3.6 50 22:22 03.04.2021
729 Rain 23 1019 49 10000 3.6 50 21:56 03.04.2021
730 Rain 23 1019 49 10000 3.6 50 21:38 03.04.2021
731 Rain 24 1019 43 10000 1.54 70 21:18 03.04.2021
732 Rain 24 1019 43 10000 1.54 70 20:29 03.04.2021
733 Rain 23 1018 43 10000 2.06 70 19:51 03.04.2021
734 Rain 23 1018 43 10000 2.06 70 19:29 03.04.2021
735 Rain 23 1018 56 10000 8.23 120 18:57 03.04.2021
736 Rain 23 1018 56 10000 8.23 120 18:36 03.04.2021
737 Rain 27 1017 36 10000 6.69 90 17:58 03.04.2021
738 Rain 27 1017 36 10000 6.69 90 17:28 03.04.2021
739 Rain 28 1016 30 10000 7.2 50 16:58 03.04.2021
740 Rain 28 1016 30 10000 7.2 50 16:31 03.04.2021
741 Rain 28 1017 34 10000 4.63 80 15:53 03.04.2021
742 Clouds 29 1017 34 10000 4.63 80 15:32 03.04.2021
743 Clouds 29 1018 32 10000 6.69 70 14:59 03.04.2021
744 Clouds 29 1018 32 10000 6.69 70 14:37 03.04.2021
745 Clouds 28 1018 34 10000 4.12 60 14:18 03.04.2021
746 Clouds 28 1018 34 10000 4.12 60 13:40 03.04.2021
747 Clouds 27 1020 39 10000 3.09 30 13:20 03.04.2021
748 Clouds 27 1020 39 10000 3.09 30 12:40 03.04.2021
749 Clouds 26 1020 50 10000 3.64 100 12:19 03.04.2021
750 Clouds 25 1020 50 10000 2.6 106 11:32 03.04.2021
751 Clouds 24 1020 57 10000 2.06 120 10:49 03.04.2021
752 Clouds 24 1020 57 10000 2.06 120 10:29 03.04.2021
753 Clouds 23 1021 64 10000 1.83 102 09:50 03.04.2021
754 Clouds 22 1021 64 10000 1.25 60 09:27 03.04.2021
755 Clouds 19 1021 82 10000 3.09 240 08:38 03.04.2021
756 Rain 18 1021 88 10000 3.6 210 08:19 03.04.2021
757 Rain 18 1021 88 10000 3.6 210 07:27 03.04.2021
758 Rain 18 1021 88 10000 1.77 37 05:33 03.04.2021
759 Rain 19 1019 72 10000 2.06 90 03:18 03.04.2021
760 Rain 19 1019 72 10000 2.06 90 02:35 03.04.2021
761 Rain 17 1014 86 10000 2.56 40 01:44 03.04.2021
762 Clouds 20 1021 68 10000 4.12 30 00:19 03.04.2021
763 Clouds 20 1021 68 10000 4.12 30 23:46 02.04.2021
764 Clouds 21 1020 64 10000 5.14 50 23:21 02.04.2021
765 Clouds 16 1011 79 10000 4.92 80 22:50 02.04.2021
766 Clouds 21 1020 64 10000 5.14 60 22:30 02.04.2021
767 Clouds 21 1020 64 10000 5.14 60 21:42 02.04.2021
768 Rain 22 1020 56 10000 5.14 120 21:20 02.04.2021
769 Rain 22 1020 56 10000 5.14 120 20:48 02.04.2021
770 Rain 22 1020 56 10000 5.14 120 20:26 02.04.2021
771 Rain 23 1018 49 10000 5.14 90 19:43 02.04.2021
772 Rain 24 1018 43 10000 5.14 90 19:24 02.04.2021
773 Rain 24 1018 43 10000 5.14 90 18:56 02.04.2021
774 Rain 24 1018 43 10000 5.14 90 18:38 02.04.2021
775 Clouds 26 1017 41 10000 7.72 90 18:19 02.04.2021
776 Clouds 26 1017 41 10000 7.72 90 17:36 02.04.2021
777 Clouds 28 1016 36 10000 5.14 90 16:45 02.04.2021
778 Clouds 27 1017 36 10000 4.12 60 15:51 02.04.2021
779 Clouds 28 1017 36 10000 4.12 60 15:32 02.04.2021
780 Clouds 28 1018 39 10000 4.12 90 14:45 02.04.2021
781 Clouds 28 1018 39 10000 4.12 90 14:21 02.04.2021
782 Clouds 28 1019 34 10000 6.17 30 13:41 02.04.2021
783 Clouds 26 1020 41 10000 5.14 60 13:19 02.04.2021
784 Clouds 26 1020 41 10000 5.14 60 12:40 02.04.2021
785 Clouds 25 1021 50 10000 5.14 50 12:19 02.04.2021
786 Clouds 25 1021 50 10000 5.14 50 12:19 02.04.2021
787 Clouds 25 1021 50 10000 5.14 50 11:49 02.04.2021
788 Clouds 23 1022 60 10000 4.12 60 11:19 02.04.2021
789 Clouds 22 1022 60 10000 4.12 60 10:44 02.04.2021
790 Clouds 21 1023 73 10000 5.14 120 10:25 02.04.2021
791 Clouds 21 1023 73 10000 5.14 120 09:52 02.04.2021
792 Clouds 21 1023 73 10000 5.14 120 09:26 02.04.2021
793 Clouds 21 1023 73 10000 5.14 120 09:26 02.04.2021
794 Clouds 19 1022 88 10000 3.09 100 08:46 02.04.2021
795 Clouds 19 1022 88 10000 3.09 100 08:27 02.04.2021
796 Clouds 18 1021 94 10000 3.09 90 07:23 02.04.2021
797 Clouds 18 1021 88 10000 2.53 42 06:46 02.04.2021
798 Clouds 15 1010 86 10000 3.58 92 04:18 02.04.2021
799 Clouds 15 1010 85 10000 3.58 92 02:20 02.04.2021
800 Clouds 15 1010 85 10000 3.58 103 00:47 02.04.2021
801 Rain 19 1020 77 10000 5.14 90 00:18 02.04.2021
802 Clouds 19 1020 77 10000 5.14 90 23:30 01.04.2021
803 Clouds 20 1020 68 10000 7.72 90 22:52 01.04.2021
804 Clouds 21 1020 64 10000 3.6 80 22:19 01.04.2021
805 Clear 22 1022 64 10000 2.57 60 21:49 01.04.2021
806 Clouds 22 1020 56 10000 2.7 75 21:25 01.04.2021
807 Clouds 22 1020 56 10000 2.7 75 20:43 01.04.2021
808 Clouds 23 1019 49 10000 2.42 84 20:24 01.04.2021
809 Clouds 23 1019 49 10000 2.42 84 19:46 01.04.2021
810 Clouds 23 1019 49 10000 3.07 97 19:27 01.04.2021
811 Clouds 24 1018 46 10000 3.6 80 18:45 01.04.2021
812 Clouds 25 1018 41 10000 6.17 60 18:18 01.04.2021
813 Clouds 18 1009 72 10000 2.24 128 17:51 01.04.2021
814 Clouds 25 1018 41 10000 6.17 60 17:32 01.04.2021
815 Clouds 19 1009 68 10000 3.13 90 16:51 01.04.2021
816 Clouds 27 1018 34 10000 9.26 60 16:27 01.04.2021
817 Clouds 27 1018 34 10000 9.26 60 15:46 01.04.2021
818 Clouds 25 1019 41 10000 9.26 80 15:19 01.04.2021
819 Clouds 25 1019 41 10000 9.26 80 15:19 01.04.2021
820 Clouds 25 1019 41 10000 9.26 80 14:45 01.04.2021
821 Clouds 25 1019 41 10000 9.26 80 14:26 01.04.2021
822 Clouds 26 1020 41 10000 5.14 90 13:55 01.04.2021
823 Clouds 25 1020 47 10000 5.14 90 13:30 01.04.2021
824 Clouds 25 1020 47 10000 5.14 90 12:51 01.04.2021
825 Clouds 25 1020 47 10000 5.14 90 12:32 01.04.2021
826 Clouds 23 1021 56 10000 5.14 90 11:49 01.04.2021
827 Clouds 22 1022 64 10000 6.17 100 11:24 01.04.2021
828 Clouds 22 1022 64 10000 6.17 100 10:56 01.04.2021
829 Clouds 22 1022 64 10000 6.17 100 10:37 01.04.2021
830 Clouds 21 1022 73 10000 6.17 80 09:56 01.04.2021
831 Clouds 21 1022 73 10000 6.17 80 09:27 01.04.2021
832 Clouds 19 1021 77 10000 3.09 90 08:33 01.04.2021
833 Clouds 18 1020 77 10000 4.63 60 07:59 01.04.2021
834 Clouds 17 1021 94 10000 2.57 40 07:20 01.04.2021
835 Clouds 17 1021 94 10000 2.57 40 06:49 01.04.2021
836 Clouds 17 1020 94 10000 3.6 50 03:52 01.04.2021
837 Clouds 17 1019 94 10000 2.57 40 01:52 01.04.2021
838 Clouds 17 1019 94 10000 2.57 40 01:52 01.04.2021
839 Rain 18 1019 88 10000 4.12 50 23:51 31.03.2021
840 Rain 18 1019 88 10000 4.12 50 23:32 31.03.2021
841 Clouds 18 1019 88 10000 4.12 30 22:42 31.03.2021
842 Clouds 21 1018 68 10000 3.6 50 22:21 31.03.2021
843 Clouds 21 1018 68 10000 3.6 50 21:47 31.03.2021
844 Clouds 21 1018 68 10000 3.6 50 21:24 31.03.2021
845 Clouds 22 1018 60 10000 4.12 100 20:58 31.03.2021
846 Clouds 23 1017 49 10000 4.63 90 20:40 31.03.2021
847 Clouds 23 1017 49 10000 4.63 90 20:18 31.03.2021
848 Clouds 23 1017 49 10000 4.63 90 19:41 31.03.2021
849 Rain 24 1018 43 10000 6.17 90 19:19 31.03.2021
850 Rain 19 1014 71 10000 3.98 37 18:51 31.03.2021
851 Rain 25 1017 41 10000 8.75 90 18:22 31.03.2021
852 Rain 25 1017 41 10000 8.75 90 17:37 31.03.2021
853 Rain 26 1016 38 10000 7.2 100 17:18 31.03.2021
854 Rain 26 1016 38 10000 7.2 100 16:49 31.03.2021
855 Rain 26 1016 38 10000 7.2 100 16:49 31.03.2021
856 Clouds 26 1016 38 10000 7.2 100 16:29 31.03.2021
857 Clouds 27 1016 39 10000 9.26 90 15:51 31.03.2021
858 Clouds 27 1018 39 10000 7.72 90 15:20 31.03.2021
859 Clouds 27 1018 39 10000 7.72 90 14:49 31.03.2021
860 Clouds 27 1018 44 10000 8.75 120 14:24 31.03.2021
861 Clouds 27 1018 44 10000 8.75 120 14:24 31.03.2021
862 Clouds 27 1018 44 10000 8.75 120 13:53 31.03.2021
863 Clouds 27 1021 36 10000 5.66 70 13:19 31.03.2021
864 Clouds 27 1021 36 10000 5.66 70 12:37 31.03.2021
865 Clouds 25 1021 53 10000 4.63 80 12:18 31.03.2021
866 Clouds 24 1023 60 10000 3.09 80 11:22 31.03.2021
867 Clouds 24 1023 60 10000 3.09 80 10:48 31.03.2021
868 Clouds 24 1023 60 10000 3.09 80 10:27 31.03.2021
869 Clouds 22 1023 73 10000 2.57 100 09:45 31.03.2021
870 Clouds 20 1022 88 10000 3.6 130 09:27 31.03.2021
871 Clouds 19 1022 88 10000 3.6 130 08:43 31.03.2021
872 Clouds 17 1021 94 8000 3.03 64 08:21 31.03.2021
873 Clouds 17 1021 94 8000 2.69 57 07:19 31.03.2021
874 Clouds 16 1019 94 10000 1.9 32 04:34 31.03.2021
875 Clouds 18 1019 88 10000 1.92 64 02:37 31.03.2021
876 Clouds 18 1021 94 10000 1.54 10 00:54 31.03.2021
877 Clouds 19 1020 77 10000 2.55 60 00:22 31.03.2021
878 Clouds 19 1020 77 10000 2.55 60 23:54 30.03.2021
879 Clouds 19 1020 77 10000 3.07 63 23:22 30.03.2021
880 Clouds 18 1021 88 10000 6.17 100 22:49 30.03.2021
881 Clouds 18 1021 88 10000 6.17 100 22:49 30.03.2021
882 Rain 18 1021 88 10000 6.17 100 22:30 30.03.2021
883 Rain 20 1020 83 10000 3.09 70 21:56 30.03.2021
884 Rain 21 1018 60 10000 3.6 120 21:25 30.03.2021
885 Rain 21 1018 60 10000 3.6 120 20:58 30.03.2021
886 Clouds 21 1018 60 10000 3.6 120 20:30 30.03.2021
887 Clouds 22 1017 56 10000 4.12 70 19:55 30.03.2021
888 Clouds 22 1017 56 10000 4.12 70 19:36 30.03.2021
889 Clouds 24 1018 53 10000 4.63 30 18:55 30.03.2021
890 Clouds 25 1016 47 10000 5.14 60 18:26 30.03.2021
891 Clouds 25 1016 47 10000 5.14 60 17:45 30.03.2021
892 Clouds 27 1016 44 10000 6.69 40 17:26 30.03.2021
893 Clouds 27 1016 44 10000 6.69 40 16:47 30.03.2021
894 Clouds 26 1016 44 10000 5.14 60 16:27 30.03.2021
895 Clouds 26 1016 47 10000 5.14 60 15:37 30.03.2021
896 Clouds 26 1016 47 10000 5.14 60 15:18 30.03.2021
897 Clouds 26 1016 47 10000 5.14 60 14:45 30.03.2021
898 Clouds 25 1018 57 10000 7.72 70 14:20 30.03.2021
899 Clouds 25 1018 57 10000 7.72 70 13:47 30.03.2021
900 Clouds 23 1019 56 10000 6.17 90 13:24 30.03.2021
901 Clouds 23 1019 56 10000 6.17 90 12:41 30.03.2021
902 Clouds 22 1021 73 10000 5.14 90 12:21 30.03.2021
903 Clouds 21 1021 73 10000 5.14 90 11:43 30.03.2021
904 Rain 20 1021 77 10000 5.14 30 11:19 30.03.2021
905 Rain 20 1021 77 10000 5.14 30 10:41 30.03.2021
906 Rain 19 1021 82 10000 7.2 60 10:19 30.03.2021
907 Rain 19 1021 82 10000 7.2 60 09:41 30.03.2021
908 Rain 19 1021 82 10000 7.2 60 09:41 30.03.2021
909 Rain 18 1021 100 8000 5.14 90 09:21 30.03.2021
910 Rain 17 1021 100 8000 5.14 90 08:42 30.03.2021
911 Rain 17 1020 94 8000 4.12 90 07:56 30.03.2021
912 Rain 17 1020 94 8000 4.12 90 07:31 30.03.2021
913 Clouds 17 1019 94 10000 5.14 60 06:29 30.03.2021
914 Clouds 17 1020 94 10000 5.66 60 05:25 30.03.2021
915 Rain 15 1008 87 10000 3.13 117 01:44 30.03.2021
916 Rain 19 1020 77 10000 5.14 30 23:54 29.03.2021
917 Rain 20 1019 73 10000 5.14 30 23:21 29.03.2021
918 Rain 20 1019 73 10000 5.14 30 22:43 29.03.2021
919 Rain 20 1021 88 10000 3.09 50 21:55 29.03.2021
920 Rain 21 1019 56 10000 14.4 90 21:34 29.03.2021
921 Rain 21 1019 56 10000 14.4 90 20:51 29.03.2021
922 Rain 21 1019 56 10000 14.4 90 20:30 29.03.2021
923 Rain 23 1018 53 10000 5.14 60 19:56 29.03.2021
924 Rain 23 1016 53 10000 4.12 60 19:28 29.03.2021
925 Rain 23 1016 53 10000 4.12 60 18:56 29.03.2021
926 Rain 23 1016 53 10000 4.12 60 18:37 29.03.2021
927 Rain 25 1016 47 10000 5.14 90 18:18 29.03.2021
928 Rain 25 1016 47 10000 5.14 90 17:36 29.03.2021
929 Rain 26 1015 36 10000 5.14 90 16:53 29.03.2021
930 Rain 27 1015 39 10000 7.72 70 16:30 29.03.2021
931 Rain 27 1015 39 10000 7.72 70 15:43 29.03.2021
932 Clouds 27 1017 39 10000 7.72 90 15:24 29.03.2021
933 Clouds 28 1017 39 10000 7.72 90 14:48 29.03.2021
934 Clouds 28 1018 34 10000 9.26 70 14:21 29.03.2021
935 Clouds 28 1018 34 10000 9.26 70 13:40 29.03.2021
936 Clouds 28 1019 36 10000 7.72 40 13:19 29.03.2021
937 Clouds 28 1019 36 10000 7.72 40 12:49 29.03.2021
938 Clouds 27 1019 44 10000 7.72 80 11:49 29.03.2021
939 Clouds 27 1019 44 10000 7.72 80 11:29 29.03.2021
940 Clouds 26 1020 44 10000 7.72 90 10:51 29.03.2021
941 Clouds 24 1021 56 10000 5.14 90 10:31 29.03.2021
942 Clouds 21 1020 68 10000 3.6 50 09:33 29.03.2021
943 Clouds 17 1012 75 10000 4.47 74 08:43 29.03.2021
944 Clouds 17 1012 75 10000 4.47 74 08:25 29.03.2021
945 Clouds 15 1012 83 10000 3.58 90 07:21 29.03.2021
946 Clouds 14 1011 83 10000 4.47 114 06:26 29.03.2021
947 Clouds 15 1010 82 10000 3.13 82 03:25 29.03.2021
948 Clouds 15 1011 81 10000 4.02 107 00:46 29.03.2021
949 Rain 16 1011 82 10000 3.58 78 00:18 29.03.2021
950 Rain 16 1012 82 10000 3.58 75 23:30 28.03.2021
951 Rain 16 1012 83 10000 4.47 71 22:54 28.03.2021
952 Rain 21 1020 73 10000 3.6 60 22:35 28.03.2021
953 Rain 21 1020 73 10000 3.6 60 21:59 28.03.2021
954 Rain 21 1020 73 10000 3.6 60 21:40 28.03.2021
955 Rain 21 1020 73 10000 1.54 170 21:22 28.03.2021
956 Rain 21 1020 73 10000 1.54 170 20:47 28.03.2021
957 Rain 21 1020 73 10000 1.54 170 20:29 28.03.2021
958 Rain 24 1018 43 10000 7.72 80 19:43 28.03.2021
959 Rain 25 1019 44 10000 4.12 80 19:22 28.03.2021
960 Rain 25 1019 44 10000 4.12 80 18:58 28.03.2021
961 Rain 26 1017 38 10000 3.6 70 18:25 28.03.2021
962 Rain 26 1017 38 10000 3.6 70 17:46 28.03.2021
963 Rain 27 1017 41 10000 3.09 70 17:23 28.03.2021
964 Rain 27 1017 41 10000 3.09 70 16:46 28.03.2021
965 Rain 28 1018 39 10000 3.6 100 16:23 28.03.2021
966 Clouds 27 1018 41 10000 6.17 140 15:26 28.03.2021
967 Clouds 26 1018 41 10000 6.17 140 14:52 28.03.2021
968 Clouds 27 1019 39 10000 4.63 60 14:30 28.03.2021
969 Clouds 27 1019 39 10000 4.63 60 13:43 28.03.2021
970 Clouds 26 1021 44 10000 2.06 60 13:21 28.03.2021
971 Clouds 26 1021 44 10000 2.06 60 12:50 28.03.2021
972 Clouds 24 1021 53 10000 2.06 100 12:31 28.03.2021
973 Clouds 24 1021 53 10000 2.06 100 11:43 28.03.2021
974 Clouds 23 1023 60 10000 1.54 80 11:24 28.03.2021
975 Clouds 21 1013 60 10000 1.34 75 10:44 28.03.2021
976 Clouds 20 1021 73 10000 3.09 130 10:24 28.03.2021
977 Clouds 20 1021 73 10000 3.09 130 09:46 28.03.2021
978 Clouds 20 1021 73 10000 3.09 130 09:24 28.03.2021
979 Rain 19 1023 77 10000 2.06 210 08:45 28.03.2021
980 Clouds 17 1022 88 10000 0.56 105 07:49 28.03.2021
981 Clouds 17 1021 82 10000 4.12 210 06:30 28.03.2021
982 Clouds 18 1020 72 10000 3.6 90 03:55 28.03.2021
983 Clouds 19 1021 59 10000 0.51 0 00:53 28.03.2021
984 Clouds 20 1022 56 10000 2.06 70 00:20 28.03.2021
985 Clouds 19 1021 59 10000 1.14 335 23:40 27.03.2021
986 Clouds 19 1021 59 10000 1.16 10 22:57 27.03.2021
987 Clouds 19 1021 59 10000 1.15 10 22:36 27.03.2021
988 Clouds 19 1023 55 10000 3.6 120 21:55 27.03.2021
989 Clouds 19 1023 55 10000 3.6 120 21:36 27.03.2021
990 Rain 21 1022 49 10000 2.06 320 21:18 27.03.2021
991 Rain 21 1020 52 10000 1.58 356 20:38 27.03.2021
992 Rain 21 1020 52 10000 2.05 35 20:19 27.03.2021
993 Rain 21 1020 52 10000 2.05 35 19:42 27.03.2021
994 Rain 21 1020 52 10000 1.38 80 19:23 27.03.2021
995 Rain 22 1019 43 10000 1.4 79 18:48 27.03.2021
996 Clouds 22 1019 43 10000 2.23 92 18:28 27.03.2021
997 Clouds 25 1018 38 10000 6.17 30 17:50 27.03.2021
998 Clouds 26 1017 36 10000 4.12 30 17:23 27.03.2021
999 Clouds 26 1017 36 10000 4.12 30 16:49 27.03.2021
1000 Clouds 26 1017 36 10000 4.12 30 16:28 27.03.2021
1001 Clouds 27 1017 28 10000 5.14 60 15:48 27.03.2021
1002 Clouds 27 1016 34 10000 5.14 90 15:22 27.03.2021
1003 Clouds 27 1016 34 10000 5.14 90 14:45 27.03.2021
1004 Clouds 28 1018 36 10000 2.32 105 13:44 27.03.2021
1005 Clouds 28 1019 32 10000 5.14 90 13:24 27.03.2021
1006 Clouds 28 1019 32 10000 5.14 90 12:53 27.03.2021
1007 Clouds 27 1020 32 10000 3.82 85 11:59 27.03.2021
1008 Clouds 27 1020 32 10000 3.82 85 11:41 27.03.2021
1009 Clouds 25 1021 44 10000 3.45 87 11:20 27.03.2021
1010 Clouds 25 1021 44 10000 3.48 86 10:43 27.03.2021
1011 Clouds 24 1022 53 10000 2.68 81 10:22 27.03.2021
1012 Clouds 23 1022 64 10000 2.44 65 09:28 27.03.2021
1013 Clouds 22 1022 64 10000 2.44 65 08:43 27.03.2021
1014 Clouds 20 1021 77 10000 2.69 49 08:21 27.03.2021
1015 Clouds 20 1021 77 10000 3.63 52 07:34 27.03.2021
1016 Clouds 18 1021 82 10000 2.57 240 06:43 27.03.2021
1017 Clouds 18 1020 82 10000 1.12 15 04:57 27.03.2021
1018 Clouds 18 1021 82 10000 3.09 180 04:39 27.03.2021
1019 Clouds 16 1013 69 10000 1.96 21 00:49 27.03.2021
1020 Clouds 17 1013 67 10000 2.42 20 00:29 27.03.2021
1021 Clouds 17 1013 67 10000 2.42 20 23:54 26.03.2021
1022 Clouds 18 1014 67 10000 2.57 23 22:56 26.03.2021
1023 Clouds 21 1020 64 10000 2.57 30 22:34 26.03.2021
1024 Clouds 22 1020 60 10000 2.57 30 21:25 26.03.2021
1025 Clouds 21 1021 56 10000 3.6 10 20:59 26.03.2021
1026 Clouds 22 1018 56 10000 2.57 30 20:32 26.03.2021
1027 Clouds 23 1018 56 10000 2.57 30 19:57 26.03.2021
1028 Clouds 23 1018 56 10000 2.57 30 19:39 26.03.2021
1029 Clouds 24 1017 46 10000 2.57 30 19:20 26.03.2021
1030 Clouds 24 1017 46 10000 2.57 30 18:42 26.03.2021
1031 Clouds 25 1016 44 10000 2.57 360 18:20 26.03.2021
1032 Clouds 25 1016 44 10000 2.57 360 17:45 26.03.2021
1033 Clouds 25 1016 44 10000 2.57 360 17:45 26.03.2021
1034 Clouds 26 1016 38 10000 5.14 30 16:56 26.03.2021
1035 Clouds 26 1016 38 10000 5.14 30 16:32 26.03.2021
1036 Clouds 27 1016 36 10000 5.14 90 15:51 26.03.2021
1037 Clouds 27 1016 36 10000 7.72 360 15:21 26.03.2021
1038 Clouds 27 1016 36 10000 7.72 360 14:30 26.03.2021
1039 Clouds 28 1016 34 10000 6.17 90 13:34 26.03.2021
1040 Clouds 27 1018 39 10000 5.14 60 12:50 26.03.2021
1041 Clouds 27 1018 39 10000 5.14 60 12:24 26.03.2021
1042 Clouds 27 1019 41 10000 6.17 90 11:34 26.03.2021
1043 Clouds 24 1020 50 10000 2.57 60 10:52 26.03.2021
1044 Clouds 24 1020 50 10000 2.57 60 10:33 26.03.2021
1045 Clouds 23 1020 53 10000 5.14 60 09:42 26.03.2021
1046 Clouds 21 1021 64 10000 5.14 40 09:19 26.03.2021
1047 Clouds 21 1021 64 10000 5.14 40 08:40 26.03.2021
1048 Clouds 20 1021 68 10000 3.09 70 08:21 26.03.2021
1049 Clouds 17 1010 69 10000 1.34 337 07:23 26.03.2021
1050 Clouds 17 1010 70 10000 1.79 98 06:58 26.03.2021
1051 Clouds 15 1010 79 10000 0.45 74 06:32 26.03.2021
1052 Clouds 15 1016 65 10000 2.32 36 05:30 26.03.2021
1053 Clouds 17 1013 56 10000 3.1 52 01:59 26.03.2021
1054 Clouds 14 1007 74 10000 3.58 88 00:31 26.03.2021
1055 Clouds 15 1008 72 10000 4.47 97 23:44 25.03.2021
1056 Clouds 15 1008 71 10000 4.47 79 23:20 25.03.2021
1057 Clouds 16 1008 69 10000 3.13 78 22:36 25.03.2021
1058 Clouds 16 1009 66 10000 5.36 95 21:53 25.03.2021
1059 Clouds 16 1009 64 10000 5.36 74 21:34 25.03.2021
1060 Clouds 17 1009 62 10000 4.92 81 20:45 25.03.2021
1061 Clouds 23 1017 43 10000 3.09 30 20:25 25.03.2021
1062 Clouds 23 1017 43 10000 3.09 30 19:48 25.03.2021
1063 Clouds 23 1017 43 10000 3.09 30 19:30 25.03.2021
1064 Clear 24 1016 29 10000 5.14 40 18:49 25.03.2021
1065 Clear 24 1016 29 10000 5.14 40 18:27 25.03.2021
1066 Clouds 26 1015 27 10000 5.14 70 17:57 25.03.2021
1067 Clouds 26 1015 27 10000 5.14 70 17:37 25.03.2021
1068 Clouds 27 1015 26 10000 6.17 100 16:56 25.03.2021
1069 Clouds 27 1015 26 10000 6.17 100 16:32 25.03.2021
1070 Clouds 28 1015 26 10000 6.17 70 15:46 25.03.2021
1071 Clouds 29 1015 21 10000 10.29 60 15:24 25.03.2021
1072 Clouds 29 1015 21 10000 10.29 60 14:48 25.03.2021
1073 Clouds 29 1015 21 10000 10.29 60 14:29 25.03.2021
1074 Clouds 28 1015 24 10000 6.17 60 13:25 25.03.2021
1075 Clouds 30 1017 20 10000 6.17 60 12:46 25.03.2021
1076 Clouds 28 1018 28 10000 6.17 70 12:22 25.03.2021
1077 Clouds 28 1018 28 10000 6.17 70 11:53 25.03.2021
1078 Clouds 27 1018 28 10000 6.17 70 11:33 25.03.2021
1079 Clouds 26 1019 34 10000 6.17 100 10:58 25.03.2021
1080 Clouds 26 1019 34 10000 6.17 100 10:39 25.03.2021
1081 Clouds 24 1020 46 10000 6.17 100 10:19 25.03.2021
1082 Clouds 24 1020 46 10000 6.17 100 09:43 25.03.2021
1083 Clouds 22 1020 56 10000 3.6 90 09:23 25.03.2021
1084 Clouds 22 1020 56 10000 3.6 90 08:31 25.03.2021
1085 Clouds 18 1020 72 10000 4.48 47 07:29 25.03.2021
1086 Clouds 18 1020 72 10000 4.51 47 06:43 25.03.2021
1087 Clouds 16 1019 72 10000 3.89 39 06:23 25.03.2021
1088 Clouds 15 1019 82 10000 1.54 40 04:51 25.03.2021
1089 Clouds 16 1018 72 10000 2.57 20 01:25 25.03.2021
1090 Clear 17 1019 67 10000 2.57 340 00:19 25.03.2021
1091 Clear 18 1020 55 10000 3.09 60 23:40 24.03.2021
1092 Clear 19 1020 55 10000 3.09 60 23:20 24.03.2021
1093 Clear 19 1020 55 10000 3.09 60 22:40 24.03.2021
1094 Clear 19 1020 52 10000 3.09 60 21:57 24.03.2021
1095 Clear 19 1020 52 10000 3.09 60 21:39 24.03.2021
1096 Clear 20 1020 49 10000 3.6 30 21:19 24.03.2021
1097 Clear 20 1020 49 10000 3.6 30 20:41 24.03.2021
1098 Clear 22 1018 49 10000 4.12 30 20:18 24.03.2021
1099 Clear 22 1018 49 10000 4.12 30 19:33 24.03.2021
1100 Clouds 23 1018 38 10000 4.12 60 18:56 24.03.2021
1101 Clouds 23 1018 38 10000 4.12 60 18:37 24.03.2021
1102 Clouds 24 1017 33 10000 7.72 70 18:19 24.03.2021
1103 Clouds 24 1017 33 10000 7.72 70 17:33 24.03.2021
1104 Clouds 26 1017 34 10000 9.26 40 16:59 24.03.2021
1105 Clouds 26 1017 34 10000 9.26 40 16:40 24.03.2021
1106 Clouds 28 1017 30 10000 6.69 30 16:19 24.03.2021
1107 Clouds 28 1017 30 10000 6.69 30 15:41 24.03.2021
1108 Clouds 27 1017 32 10000 7.72 80 15:21 24.03.2021
1109 Clouds 28 1018 32 10000 6.69 80 14:41 24.03.2021
1110 Clouds 28 1018 32 10000 6.69 40 14:21 24.03.2021
1111 Clouds 28 1018 32 10000 6.69 40 13:44 24.03.2021
1112 Clouds 28 1018 32 10000 6.69 40 13:24 24.03.2021
1113 Clouds 28 1019 36 10000 5.66 50 12:40 24.03.2021
1114 Clouds 27 1021 39 10000 6.17 40 12:20 24.03.2021
1115 Clouds 25 1021 46 10000 8.23 90 11:41 24.03.2021
1116 Clouds 24 1021 46 10000 8.23 90 10:49 24.03.2021
1117 Clouds 24 1021 46 10000 8.23 90 10:31 24.03.2021
1118 Clouds 23 1022 60 10000 8.23 50 09:58 24.03.2021
1119 Clouds 23 1022 60 10000 8.23 50 09:36 24.03.2021
1120 Clouds 22 1023 64 10000 4.12 80 09:18 24.03.2021
1121 Clouds 22 1023 64 10000 4.12 80 08:43 24.03.2021
1122 Clouds 19 1023 82 10000 2.57 30 07:50 24.03.2021
1123 Clouds 19 1023 82 10000 2.57 30 07:25 24.03.2021
1124 Clouds 18 1022 82 10000 3.09 70 06:46 24.03.2021
1125 Clouds 18 1020 77 10000 2.57 48 02:41 24.03.2021
1126 Clouds 17 1021 82 10000 2.57 360 00:42 24.03.2021
1127 Clouds 18 1021 72 10000 2.57 20 23:52 23.03.2021
1128 Clouds 20 1021 64 10000 3.6 50 23:20 23.03.2021
1129 Clouds 20 1021 64 10000 3.6 50 22:51 23.03.2021
1130 Clouds 20 1021 64 10000 3.6 50 22:25 23.03.2021
1131 Clouds 20 1021 64 10000 5.66 30 21:47 23.03.2021
1132 Clouds 20 1021 64 10000 5.66 30 21:29 23.03.2021
1133 Clear 20 1021 64 10000 4.12 50 20:47 23.03.2021
1134 Clear 20 1021 64 10000 4.12 50 20:25 23.03.2021
1135 Clear 21 1021 60 10000 4.92 75 19:50 23.03.2021
1136 Clear 22 1019 49 10000 5.66 40 19:26 23.03.2021
1137 Clear 22 1019 49 10000 5.66 40 18:47 23.03.2021
1138 Clear 22 1019 49 10000 5.66 40 18:24 23.03.2021
1139 Clouds 24 1018 35 10000 5.14 60 17:50 23.03.2021
1140 Rain 24 1018 35 10000 5.14 60 17:23 23.03.2021
1141 Rain 25 1018 38 10000 7.72 50 16:59 23.03.2021
1142 Clouds 27 1018 36 10000 9.26 80 16:25 23.03.2021
1143 Clouds 27 1018 36 10000 9.26 80 15:47 23.03.2021
1144 Clouds 27 1018 38 10000 8.23 100 15:21 23.03.2021
1145 Clouds 27 1018 38 10000 8.23 100 14:44 23.03.2021
1146 Clouds 27 1019 41 10000 5.14 30 14:19 23.03.2021
1147 Clouds 27 1019 41 10000 5.14 30 13:45 23.03.2021
1148 Clouds 26 1020 44 10000 8.23 90 13:23 23.03.2021
1149 Clouds 25 1020 44 10000 8.23 90 12:44 23.03.2021
1150 Clouds 25 1020 46 10000 8.75 60 12:23 23.03.2021
1151 Clouds 24 1020 46 10000 8.75 60 11:47 23.03.2021
1152 Clouds 24 1021 50 10000 6.17 70 10:59 23.03.2021
1153 Clouds 24 1021 50 10000 6.17 70 10:41 23.03.2021
1154 Clouds 22 1022 64 10000 8.23 50 10:20 23.03.2021
1155 Clouds 22 1022 64 10000 8.23 50 09:47 23.03.2021
1156 Clouds 22 1022 64 10000 8.23 50 09:22 23.03.2021
1157 Clouds 21 1023 73 10000 4.63 60 08:54 23.03.2021
1158 Clouds 21 1023 73 10000 4.63 60 08:36 23.03.2021
1159 Clouds 20 1022 77 10000 9.26 90 08:18 23.03.2021
1160 Clouds 20 1022 77 10000 9.26 90 07:26 23.03.2021
1161 Clouds 18 1021 88 10000 5.14 90 06:52 23.03.2021
1162 Clouds 17 1020 88 10000 3.6 60 03:24 23.03.2021
1163 Clouds 18 1019 77 10000 5.14 110 02:22 23.03.2021
1164 Clear 17 1021 82 10000 3.09 30 23:47 22.03.2021
1165 Clouds 19 1021 72 10000 3.09 50 22:59 22.03.2021
1166 Clouds 20 1020 68 10000 4.3 48 22:40 22.03.2021
1167 Clouds 20 1020 68 10000 4.39 45 22:20 22.03.2021
1168 Clouds 20 1020 68 10000 4.39 45 21:46 22.03.2021
1169 Clouds 20 1020 68 10000 4.68 43 21:26 22.03.2021
1170 Clouds 20 1021 68 10000 3.09 50 20:42 22.03.2021
1171 Clouds 21 1018 60 10000 3.09 70 20:24 22.03.2021
1172 Clouds 21 1018 60 10000 3.09 70 19:58 22.03.2021
1173 Clouds 21 1018 60 10000 3.09 70 19:38 22.03.2021
1174 Clouds 22 1018 53 10000 5.14 60 19:19 22.03.2021
1175 Clouds 22 1018 53 10000 5.14 60 18:40 22.03.2021
1176 Clouds 23 1017 53 10000 6.17 70 18:22 22.03.2021
1177 Clouds 23 1018 56 10000 4.63 30 17:49 22.03.2021
1178 Clouds 25 1016 47 10000 5.14 30 17:22 22.03.2021
1179 Clouds 25 1016 47 10000 5.14 30 16:48 22.03.2021
1180 Clouds 25 1016 47 10000 5.14 30 16:48 22.03.2021
1181 Clouds 26 1016 38 10000 10.29 70 16:22 22.03.2021
1182 Clouds 26 1016 38 10000 10.29 70 15:42 22.03.2021
1183 Clouds 26 1016 44 10000 5.14 90 15:22 22.03.2021
1184 Clouds 28 1017 36 10000 6.69 60 14:57 22.03.2021
1185 Clouds 27 1016 47 10000 6.17 90 14:34 22.03.2021
1186 Clouds 22 1007 59 10000 2.24 67 13:50 22.03.2021
1187 Clouds 26 1018 44 10000 6.17 50 13:29 22.03.2021
1188 Clouds 28 1019 39 10000 6.17 50 12:57 22.03.2021
1189 Clouds 28 1019 39 10000 6.17 50 12:26 22.03.2021
1190 Clouds 22 1008 58 10000 2.24 104 11:51 22.03.2021
1191 Clouds 25 1021 50 10000 6.69 60 11:29 22.03.2021
1192 Clouds 25 1021 50 10000 6.69 60 10:46 22.03.2021
1193 Clouds 25 1021 50 10000 6.69 60 10:26 22.03.2021
1194 Clouds 23 1021 56 10000 5.14 60 09:56 22.03.2021
1195 Clouds 23 1021 56 10000 5.14 60 09:34 22.03.2021
1196 Clouds 21 1022 60 10000 4.63 50 08:47 22.03.2021
1197 Clouds 21 1022 60 10000 4.63 50 08:47 22.03.2021
1198 Clouds 21 1022 60 10000 4.63 50 08:28 22.03.2021
1199 Clouds 19 1022 68 10000 4.63 20 07:54 22.03.2021
1200 Clouds 17 1020 88 10000 4.12 70 07:34 22.03.2021
1201 Clouds 17 1020 88 10000 4.12 70 06:51 22.03.2021
1202 Clouds 16 1013 85 10000 4.31 64 02:51 22.03.2021
1203 Clear 17 1019 88 10000 2.57 10 00:53 22.03.2021
1204 Clear 17 1019 88 10000 2.57 10 00:19 22.03.2021
1205 Clouds 15 1010 85 10000 2.24 195 23:40 21.03.2021
1206 Clouds 15 1010 85 10000 4.43 67 23:18 21.03.2021
1207 Clouds 15 1010 85 10000 4.43 67 22:53 21.03.2021
1208 Clouds 15 1010 84 10000 0.89 120 22:53 21.03.2021
1209 Clouds 20 1018 68 10000 3.09 30 21:43 21.03.2021
1210 Clouds 20 1018 68 10000 3.09 30 21:25 21.03.2021
1211 Clouds 21 1019 68 10000 4.12 50 20:57 21.03.2021
1212 Rain 22 1017 60 10000 4.12 90 20:39 21.03.2021
1213 Rain 22 1017 60 10000 4.12 90 20:21 21.03.2021
1214 Rain 22 1017 60 10000 4.12 90 19:46 21.03.2021
1215 Rain 22 1016 56 10000 3.09 80 19:20 21.03.2021
1216 Clouds 22 1016 56 10000 3.09 80 18:44 21.03.2021
1217 Clouds 22 1016 56 10000 3.09 80 18:25 21.03.2021
1218 Clouds 23 1016 53 10000 4.12 60 17:43 21.03.2021
1219 Rain 24 1015 50 10000 5.14 70 17:18 21.03.2021
1220 Rain 24 1015 50 10000 5.14 70 16:51 21.03.2021
1221 Rain 25 1015 50 10000 5.14 70 16:26 21.03.2021
1222 Rain 25 1014 44 10000 5.14 90 15:48 21.03.2021
1223 Rain 26 1014 44 10000 5.14 90 15:22 21.03.2021
1224 Rain 26 1015 47 10000 5.14 80 14:56 21.03.2021
1225 Rain 26 1015 47 10000 5.14 80 14:38 21.03.2021
1226 Rain 25 1016 47 10000 6.17 70 14:19 21.03.2021
1227 Rain 25 1016 47 10000 6.17 70 13:51 21.03.2021
1228 Rain 24 1018 57 10000 6.17 70 12:46 21.03.2021
1229 Rain 24 1018 57 10000 6.17 70 12:25 21.03.2021
1230 Rain 23 1018 60 10000 6.17 90 11:47 21.03.2021
1231 Rain 23 1018 60 10000 6.17 90 11:27 21.03.2021
1232 Rain 22 1019 68 10000 10.29 70 10:50 21.03.2021
1233 Rain 19 1020 77 10000 3.09 30 10:32 21.03.2021
1234 Clouds 19 1020 77 10000 3.09 30 09:56 21.03.2021
1235 Clouds 19 1020 77 10000 3.09 30 09:37 21.03.2021
1236 Clouds 18 1020 82 10000 5.14 60 09:19 21.03.2021
1237 Clouds 18 1020 82 10000 5.14 60 08:38 21.03.2021
1238 Clouds 17 1019 88 10000 5.14 40 08:19 21.03.2021
1239 Clouds 17 1019 88 10000 5.14 40 07:30 21.03.2021
1240 Clouds 16 1018 88 10000 2.06 90 06:21 21.03.2021
1241 Clouds 16 1018 94 10000 5.14 60 04:57 21.03.2021
1242 Clouds 17 1018 94 10000 3.6 20 00:59 21.03.2021
1243 Clouds 17 1018 94 10000 3.6 20 00:39 21.03.2021
1244 Clouds 17 1019 100 10000 4.12 10 00:20 21.03.2021
1245 Clouds 17 1019 100 10000 4.12 10 23:46 20.03.2021
1246 Rain 18 1019 94 10000 3.6 60 23:20 20.03.2021
1247 Rain 18 1019 94 10000 3.6 60 22:47 20.03.2021
1248 Rain 18 1018 82 10000 4.12 60 22:18 20.03.2021
1249 Rain 17 1020 100 10000 2.57 350 21:44 20.03.2021
1250 Rain 17 1020 100 10000 2.57 350 21:24 20.03.2021
1251 Rain 20 1018 68 10000 5.14 90 20:42 20.03.2021
1252 Rain 20 1018 68 10000 5.14 90 20:22 20.03.2021
1253 Rain 20 1018 68 10000 5.14 90 19:47 20.03.2021
1254 Rain 20 1017 64 10000 3.09 60 19:26 20.03.2021
1255 Rain 21 1017 64 10000 3.09 60 18:48 20.03.2021
1256 Rain 21 1017 64 10000 3.09 60 18:25 20.03.2021
1257 Rain 23 1016 53 10000 4.12 60 17:53 20.03.2021
1258 Rain 23 1016 53 10000 4.12 60 17:29 20.03.2021
1259 Rain 24 1016 46 10000 5.14 60 16:45 20.03.2021
1260 Clouds 24 1015 53 10000 10.29 120 16:21 20.03.2021
1261 Clouds 24 1015 53 10000 10.29 120 15:57 20.03.2021
1262 Clouds 24 1015 53 10000 10.29 120 15:39 20.03.2021
1263 Rain 27 1015 44 10000 5.14 90 14:46 20.03.2021
1264 Rain 27 1015 44 10000 5.14 90 14:28 20.03.2021
1265 Rain 26 1016 47 10000 6.69 90 13:40 20.03.2021
1266 Rain 26 1018 44 10000 5.14 70 12:52 20.03.2021
1267 Clouds 25 1019 50 10000 5.14 90 12:26 20.03.2021
1268 Clouds 25 1019 50 10000 5.14 90 11:47 20.03.2021
1269 Clouds 25 1019 50 10000 5.14 90 11:29 20.03.2021
1270 Clouds 24 1019 50 10000 5.14 60 10:55 20.03.2021
1271 Clouds 24 1019 50 10000 5.14 60 10:32 20.03.2021
1272 Clouds 23 1020 60 10000 4.12 90 09:58 20.03.2021
1273 Clouds 23 1020 60 10000 4.12 90 09:27 20.03.2021
1274 Clouds 21 1021 68 10000 5.14 60 08:57 20.03.2021
1275 Clouds 21 1021 68 10000 5.14 60 08:30 20.03.2021
1276 Clouds 20 1020 73 10000 5.14 90 07:53 20.03.2021
1277 Clouds 20 1020 73 10000 5.14 90 07:32 20.03.2021
1278 Clouds 18 1019 88 10000 4.12 90 06:54 20.03.2021
1279 Clouds 18 1019 82 10000 5.14 90 06:19 20.03.2021
1280 Clouds 18 1018 82 10000 4.12 60 04:00 20.03.2021
1281 Clouds 18 1018 82 10000 4.12 60 03:41 20.03.2021
1282 Clouds 20 1020 64 10000 4.12 60 00:18 20.03.2021
1283 Clouds 20 1019 68 10000 4.12 60 23:31 19.03.2021
1284 Clouds 20 1019 68 10000 4.12 60 22:50 19.03.2021
1285 Clouds 20 1019 68 10000 4.12 60 22:29 19.03.2021
1286 Clouds 21 1020 60 10000 3.6 70 21:58 19.03.2021
1287 Rain 21 1020 60 10000 3.6 70 21:22 19.03.2021
1288 Rain 22 1020 56 10000 5.14 70 20:59 19.03.2021
1289 Rain 23 1018 56 10000 4.12 90 20:40 19.03.2021
1290 Rain 23 1018 56 10000 4.12 90 20:21 19.03.2021
1291 Rain 23 1018 56 10000 4.12 90 19:46 19.03.2021
1292 Rain 23 1017 49 10000 5.14 90 19:20 19.03.2021
1293 Rain 23 1017 49 10000 5.14 90 18:40 19.03.2021
1294 Clouds 24 1018 43 10000 4.12 100 18:20 19.03.2021
1295 Clouds 24 1018 43 10000 4.12 100 17:55 19.03.2021
1296 Clouds 25 1016 38 10000 4.12 90 17:31 19.03.2021
1297 Clouds 26 1016 38 10000 4.12 90 16:55 19.03.2021
1298 Rain 26 1016 38 10000 4.12 90 16:29 19.03.2021
1299 Rain 27 1016 32 10000 5.14 60 15:56 19.03.2021
1300 Clouds 27 1016 32 10000 5.14 60 15:27 19.03.2021
1301 Clouds 27 1016 32 10000 5.14 110 14:47 19.03.2021
1302 Clouds 27 1017 39 10000 5.14 90 14:28 19.03.2021
1303 Clouds 27 1017 39 10000 5.14 90 13:42 19.03.2021
1304 Clouds 26 1018 38 10000 6.17 90 12:57 19.03.2021
1305 Clouds 26 1018 38 10000 6.17 90 12:37 19.03.2021
1306 Clouds 25 1019 44 10000 7.72 90 11:49 19.03.2021
1307 Clouds 25 1019 47 10000 5.14 40 10:57 19.03.2021
1308 Clouds 25 1019 47 10000 5.14 40 10:39 19.03.2021
1309 Clouds 23 1021 56 10000 5.14 30 10:18 19.03.2021
1310 Clouds 23 1021 56 10000 5.14 30 09:41 19.03.2021
1311 Clouds 21 1021 68 10000 4.12 30 09:22 19.03.2021
1312 Clouds 21 1021 68 10000 4.12 30 08:41 19.03.2021
1313 Clouds 19 1021 77 10000 5.14 60 08:22 19.03.2021
1314 Clouds 19 1021 77 10000 5.14 60 07:42 19.03.2021
1315 Clouds 18 1020 82 10000 3.36 68 06:56 19.03.2021
1316 Clouds 14 1009 83 10000 3.13 114 03:57 19.03.2021
1317 Clouds 19 1020 68 10000 2.57 10 00:58 19.03.2021
1318 Clouds 19 1020 68 10000 3.6 50 23:50 18.03.2021
1319 Clouds 20 1020 64 10000 3.09 70 23:26 18.03.2021
1320 Clouds 19 1020 64 10000 3.09 70 22:44 18.03.2021
1321 Clouds 19 1020 64 10000 3.09 70 22:25 18.03.2021
1322 Clouds 20 1020 60 10000 3.09 80 21:40 18.03.2021
1323 Clouds 21 1019 60 10000 3.09 90 21:20 18.03.2021
1324 Clouds 21 1019 60 10000 3.09 90 20:36 18.03.2021
1325 Clouds 22 1018 49 10000 3.6 70 19:59 18.03.2021
1326 Clouds 22 1018 49 10000 3.6 70 19:59 18.03.2021
1327 Clouds 22 1018 49 10000 3.6 70 19:41 18.03.2021
1328 Clouds 23 1017 46 10000 2.06 90 19:21 18.03.2021
1329 Clouds 23 1017 46 10000 2.06 90 18:39 18.03.2021
1330 Clouds 24 1017 41 10000 4.63 90 17:51 18.03.2021
1331 Clouds 25 1017 41 10000 4.63 90 17:26 18.03.2021
1332 Clouds 25 1017 38 10000 8.23 70 16:51 18.03.2021
1333 Clouds 25 1017 38 10000 8.23 70 16:32 18.03.2021
1334 Clouds 26 1016 38 10000 5.14 80 15:56 18.03.2021
1335 Clouds 26 1016 38 10000 5.14 80 15:37 18.03.2021
1336 Clouds 27 1017 32 10000 7.72 90 15:18 18.03.2021
1337 Clouds 27 1017 32 10000 7.72 90 14:41 18.03.2021
1338 Clouds 26 1018 34 10000 4.63 90 13:57 18.03.2021
1339 Clouds 26 1018 34 10000 4.63 90 13:37 18.03.2021
1340 Clouds 26 1019 44 10000 4.63 80 13:19 18.03.2021
1341 Clouds 25 1019 44 10000 4.63 80 12:37 18.03.2021
1342 Clouds 25 1020 47 10000 3.09 90 12:18 18.03.2021
1343 Clouds 25 1020 47 10000 3.09 90 11:43 18.03.2021
1344 Clouds 25 1021 44 10000 5.14 90 10:58 18.03.2021
1345 Clouds 25 1021 44 10000 5.14 90 10:39 18.03.2021
1346 Clouds 24 1021 53 10000 4.12 110 10:20 18.03.2021
1347 Clouds 24 1021 53 10000 4.12 110 09:45 18.03.2021
1348 Clouds 23 1021 53 10000 4.12 110 09:26 18.03.2021
1349 Clouds 22 1021 60 10000 3.09 50 08:45 18.03.2021
1350 Clouds 20 1021 73 10000 5.14 90 08:23 18.03.2021
1351 Clouds 20 1021 73 10000 5.14 90 07:45 18.03.2021
1352 Clouds 18 1020 82 10000 3.09 60 06:44 18.03.2021
1353 Clouds 18 1020 82 10000 3.09 60 06:25 18.03.2021
1354 Clouds 18 1020 82 10000 2.57 90 05:26 18.03.2021
1355 Clouds 14 1009 84 10000 3.58 80 00:44 18.03.2021
1356 Clouds 19 1021 68 10000 3.09 50 23:37 17.03.2021
1357 Clouds 19 1021 68 10000 3.6 40 22:42 17.03.2021
1358 Clouds 20 1019 64 10000 2.57 70 22:23 17.03.2021
1359 Clouds 20 1019 64 10000 2.57 70 21:51 17.03.2021
1360 Clouds 20 1019 64 10000 2.57 70 21:32 17.03.2021
1361 Clouds 21 1019 56 10000 2.57 90 20:54 17.03.2021
1362 Clouds 21 1019 56 10000 2.57 90 20:54 17.03.2021
1363 Clouds 22 1018 53 10000 3.09 90 20:36 17.03.2021
1364 Clouds 22 1018 53 10000 3.09 90 20:18 17.03.2021
1365 Clouds 22 1018 53 10000 3.09 90 19:41 17.03.2021
1366 Clouds 22 1016 49 10000 3.6 90 19:20 17.03.2021
1367 Clouds 22 1016 49 10000 3.6 90 18:52 17.03.2021
1368 Clouds 22 1016 49 10000 3.6 90 18:32 17.03.2021
1369 Clouds 23 1016 46 10000 2.57 70 17:42 17.03.2021
1370 Clouds 23 1016 46 10000 2.57 70 17:23 17.03.2021
1371 Clouds 24 1016 46 10000 5.14 70 16:43 17.03.2021
1372 Rain 24 1016 60 10000 5.14 40 16:21 17.03.2021
1373 Rain 24 1016 60 10000 5.14 40 15:49 17.03.2021
1374 Rain 26 1017 47 10000 5.14 50 15:29 17.03.2021
1375 Rain 26 1017 47 10000 5.14 50 14:40 17.03.2021
1376 Rain 26 1018 41 10000 6.17 90 14:20 17.03.2021
1377 Rain 26 1018 41 10000 6.17 90 13:55 17.03.2021
1378 Rain 26 1018 41 10000 6.17 90 13:26 17.03.2021
1379 Clouds 26 1018 41 10000 5.14 90 12:50 17.03.2021
1380 Clouds 25 1019 47 10000 9.26 90 12:29 17.03.2021
1381 Clouds 25 1019 47 10000 9.26 90 11:43 17.03.2021
1382 Clouds 25 1019 47 10000 9.26 90 11:23 17.03.2021
1383 Clouds 23 1020 56 10000 5.14 60 10:53 17.03.2021
1384 Clouds 23 1020 56 10000 5.14 60 10:25 17.03.2021
1385 Clouds 23 1020 56 10000 5.14 70 09:48 17.03.2021
1386 Clouds 23 1020 56 10000 5.14 70 09:48 17.03.2021
1387 Clouds 21 1021 64 10000 6.17 70 09:21 17.03.2021
1388 Clouds 21 1021 64 10000 6.17 70 08:56 17.03.2021
1389 Clouds 21 1021 64 10000 6.17 70 08:36 17.03.2021
1390 Clouds 19 1020 77 10000 5.14 90 07:48 17.03.2021
1391 Clouds 19 1020 77 10000 5.14 90 07:30 17.03.2021
1392 Clouds 18 1020 88 10000 4.12 70 06:39 17.03.2021
1393 Clouds 18 1018 77 10000 3.09 60 04:20 17.03.2021
1394 Clouds 17 1019 88 10000 3.09 40 02:50 17.03.2021
1395 Clouds 19 1019 82 10000 3.6 70 00:40 17.03.2021
1396 Clouds 19 1019 82 10000 2.57 50 23:29 16.03.2021
1397 Clouds 19 1019 82 10000 2.57 50 22:51 16.03.2021
1398 Clouds 19 1018 77 10000 2.57 90 22:33 16.03.2021
1399 Clouds 19 1018 77 10000 2.57 90 21:49 16.03.2021
1400 Clouds 19 1018 77 10000 2.57 90 21:31 16.03.2021
1401 Clouds 19 1018 72 10000 3.09 90 20:59 16.03.2021
1402 Clouds 19 1018 72 10000 3.09 90 20:59 16.03.2021
1403 Clouds 19 1018 72 10000 3.09 90 20:38 16.03.2021
1404 Rain 20 1017 68 10000 4.12 40 20:18 16.03.2021
1405 Rain 20 1017 68 10000 4.12 40 19:42 16.03.2021
1406 Rain 20 1016 68 10000 3.09 30 19:23 16.03.2021
1407 Clouds 20 1016 68 10000 3.09 30 18:44 16.03.2021
1408 Clouds 20 1016 68 10000 3.09 30 18:26 16.03.2021
1409 Clouds 21 1016 64 10000 3.09 30 17:48 16.03.2021
1410 Clouds 21 1016 64 10000 3.09 30 17:30 16.03.2021
1411 Clouds 22 1016 60 10000 6.17 30 16:53 16.03.2021
1412 Clouds 22 1016 60 10000 6.17 30 16:30 16.03.2021
1413 Clouds 21 1015 64 10000 7.72 60 15:47 16.03.2021
1414 Clouds 24 1016 47 10000 7.72 110 15:22 16.03.2021
1415 Clouds 24 1016 47 10000 7.72 110 14:59 16.03.2021
1416 Clouds 24 1016 47 10000 7.72 110 14:40 16.03.2021
1417 Clouds 24 1016 47 10000 7.72 110 14:21 16.03.2021
1418 Clouds 26 1016 44 10000 6.17 90 13:54 16.03.2021
1419 Clouds 25 1016 44 10000 6.17 90 13:27 16.03.2021
1420 Rain 25 1017 47 10000 6.17 90 12:54 16.03.2021
1421 Rain 25 1017 47 10000 6.17 90 12:35 16.03.2021
1422 Rain 24 1019 56 10000 6.17 120 11:54 16.03.2021
1423 Clouds 24 1020 64 10000 5.14 90 11:28 16.03.2021
1424 Clouds 23 1020 64 10000 5.14 90 10:45 16.03.2021
1425 Clouds 22 1020 64 10000 5.14 100 10:20 16.03.2021
1426 Clouds 22 1020 64 10000 5.14 100 09:39 16.03.2021
1427 Rain 20 1021 73 10000 4.12 60 09:19 16.03.2021
1428 Clouds 20 1021 73 10000 4.12 60 08:51 16.03.2021
1429 Clouds 19 1021 77 10000 4.12 40 08:32 16.03.2021
1430 Clouds 19 1021 77 10000 4.12 40 07:50 16.03.2021
1431 Rain 17 1020 82 10000 5.14 70 06:57 16.03.2021
1432 Rain 16 1020 82 10000 5.14 70 06:37 16.03.2021
1433 Clouds 16 1019 88 10000 4.12 60 05:35 16.03.2021
1434 Rain 17 1018 94 10000 3.09 20 02:46 16.03.2021
1435 Clouds 17 1018 88 10000 3.09 40 02:25 16.03.2021
1436 Rain 20 1018 64 10000 5.14 30 00:25 16.03.2021
1437 Rain 20 1018 64 10000 5.14 30 23:37 15.03.2021
1438 Rain 21 1020 60 10000 4.63 50 23:18 15.03.2021
1439 Rain 22 1019 53 10000 5.14 60 22:42 15.03.2021
1440 Rain 22 1019 53 10000 5.14 60 22:23 15.03.2021
1441 Rain 22 1019 53 10000 5.14 60 21:47 15.03.2021
1442 Rain 22 1019 53 10000 5.14 60 21:27 15.03.2021
1443 Rain 17 1008 71 10000 3.13 97 20:47 15.03.2021
1444 Clouds 23 1018 46 10000 5.14 80 20:27 15.03.2021
1445 Clouds 23 1018 46 10000 5.14 80 19:57 15.03.2021
1446 Clouds 24 1016 41 10000 5.14 90 19:39 15.03.2021
1447 Clouds 24 1016 41 10000 5.14 90 19:21 15.03.2021
1448 Clouds 24 1016 41 10000 5.14 90 18:41 15.03.2021
1449 Clouds 26 1016 36 10000 5.14 110 18:22 15.03.2021
1450 Clouds 26 1016 36 10000 5.14 110 17:49 15.03.2021
1451 Clouds 27 1015 34 10000 5.14 90 17:22 15.03.2021
1452 Clouds 27 1015 34 10000 5.14 90 16:44 15.03.2021
1453 Clouds 28 1015 26 10000 6.17 90 15:56 15.03.2021
1454 Clouds 28 1016 34 10000 5.14 90 15:28 15.03.2021
1455 Clouds 28 1016 34 10000 5.14 90 14:56 15.03.2021
1456 Clouds 28 1016 34 10000 5.14 90 14:38 15.03.2021
1457 Clouds 28 1016 32 10000 4.12 40 14:19 15.03.2021
1458 Clouds 28 1016 32 10000 4.12 40 13:44 15.03.2021
1459 Clouds 28 1017 32 10000 7.72 100 13:23 15.03.2021
1460 Clouds 28 1017 32 10000 7.72 100 12:46 15.03.2021
1461 Clouds 27 1018 41 10000 5.14 90 12:18 15.03.2021
1462 Clouds 27 1018 41 10000 5.14 90 11:45 15.03.2021
1463 Clouds 26 1018 41 10000 5.14 90 11:26 15.03.2021
1464 Clouds 25 1020 41 10000 3.6 90 10:44 15.03.2021
1465 Clouds 25 1020 41 10000 3.6 90 10:24 15.03.2021
1466 Clouds 24 1019 46 10000 5.14 120 09:48 15.03.2021
1467 Clouds 24 1019 46 10000 5.14 120 09:29 15.03.2021
1468 Clouds 23 1020 56 10000 2.57 90 08:46 15.03.2021
1469 Clouds 23 1020 56 10000 2.57 90 08:27 15.03.2021
1470 Clouds 21 1020 68 10000 3.09 80 07:43 15.03.2021
1471 Clouds 17 1019 77 10000 3.84 55 07:22 15.03.2021
1472 Clouds 16 1019 88 10000 3.1 51 06:21 15.03.2021
1473 Clouds 16 1018 82 10000 2.55 51 03:36 15.03.2021
1474 Clouds 19 1019 59 10000 4.12 70 00:50 15.03.2021
1475 Clouds 19 1019 56 10000 4.12 90 23:24 14.03.2021
1476 Clouds 20 1019 56 10000 4.12 90 22:59 14.03.2021
1477 Clouds 20 1019 56 10000 4.12 90 22:38 14.03.2021
1478 Clouds 21 1020 52 10000 3.6 70 22:18 14.03.2021
1479 Clouds 21 1020 52 10000 3.6 70 21:39 14.03.2021
1480 Clouds 21 1020 49 10000 4.63 80 21:18 14.03.2021
1481 Clouds 21 1020 49 10000 4.63 80 20:42 14.03.2021
1482 Clouds 22 1018 38 10000 5.14 90 20:23 14.03.2021
1483 Clouds 22 1018 38 10000 5.14 90 19:42 14.03.2021
1484 Clouds 24 1017 38 10000 5.14 90 19:20 14.03.2021
1485 Clouds 24 1017 38 10000 5.14 90 18:41 14.03.2021
1486 Clouds 26 1016 34 10000 5.14 90 17:56 14.03.2021
1487 Clouds 26 1016 34 10000 5.14 90 17:37 14.03.2021
1488 Clouds 27 1016 26 10000 5.14 80 17:19 14.03.2021
1489 Clouds 27 1016 26 10000 5.14 80 16:41 14.03.2021
1490 Clouds 28 1016 28 10000 6.17 90 16:21 14.03.2021
1491 Clouds 28 1016 28 10000 6.17 90 15:48 14.03.2021
1492 Clouds 28 1016 30 10000 6.17 70 14:59 14.03.2021
1493 Clouds 28 1016 30 10000 6.17 70 14:40 14.03.2021
1494 Clouds 29 1016 30 10000 5.14 90 14:20 14.03.2021
1495 Clouds 29 1016 30 10000 5.14 90 13:43 14.03.2021
1496 Clouds 29 1016 30 10000 5.14 90 13:24 14.03.2021
1497 Clouds 28 1018 28 10000 7.72 70 12:42 14.03.2021
1498 Clouds 28 1018 28 10000 7.72 70 12:23 14.03.2021
1499 Clouds 28 1018 28 10000 5.14 70 11:41 14.03.2021
1500 Clouds 26 1020 34 10000 5.14 90 11:22 14.03.2021
1501 Clouds 26 1020 34 10000 5.14 90 10:38 14.03.2021
1502 Clouds 25 1021 36 10000 5.14 90 10:20 14.03.2021
1503 Clouds 25 1021 36 10000 5.14 90 09:59 14.03.2021
1504 Clouds 25 1021 36 10000 5.14 90 09:40 14.03.2021
1505 Clouds 23 1021 46 10000 5.14 110 09:20 14.03.2021
1506 Clouds 22 1021 46 10000 5.14 110 08:39 14.03.2021
1507 Clouds 20 1021 68 10000 4.63 90 07:59 14.03.2021
1508 Clouds 20 1021 68 10000 4.63 90 07:33 14.03.2021
1509 Clouds 15 1020 88 10000 2.57 170 05:38 14.03.2021
1510 Clear 18 1020 77 10000 3.09 60 01:34 14.03.2021
1511 Clouds 18 1021 68 10000 2.57 30 00:49 14.03.2021
1512 Clear 19 1020 59 10000 2.57 90 00:18 14.03.2021
1513 Clear 19 1020 59 10000 2.57 90 23:42 13.03.2021
1514 Clear 20 1021 56 10000 3.6 70 23:19 13.03.2021
1515 Clear 20 1021 56 10000 3.6 70 23:19 13.03.2021
1516 Clear 20 1021 56 10000 3.6 70 22:47 13.03.2021
1517 Clear 19 1021 52 10000 3.09 80 22:24 13.03.2021
1518 Clear 19 1021 52 10000 3.09 80 21:36 13.03.2021
1519 Clear 20 1019 49 10000 4.63 70 21:18 13.03.2021
1520 Clear 20 1019 49 10000 4.63 70 20:48 13.03.2021
1521 Clear 21 1019 46 10000 4.63 80 20:26 13.03.2021
1522 Clear 21 1019 46 10000 4.63 80 19:45 13.03.2021
1523 Clear 21 1019 46 10000 4.63 80 19:26 13.03.2021
1524 Rain 23 1018 40 10000 5.14 90 18:43 13.03.2021
1525 Rain 24 1018 41 10000 6.69 110 18:21 13.03.2021
1526 Rain 24 1018 41 10000 6.69 110 17:52 13.03.2021
1527 Clouds 24 1018 41 10000 6.69 110 17:32 13.03.2021
1528 Clouds 26 1017 34 10000 10.8 90 16:57 13.03.2021
1529 Clouds 26 1017 34 10000 10.8 90 16:38 13.03.2021
1530 Clouds 27 1016 31 10000 6.17 50 15:58 13.03.2021
1531 Clouds 27 1016 29 10000 5.14 70 15:22 13.03.2021
1532 Clouds 27 1016 29 10000 5.14 70 14:43 13.03.2021
1533 Clouds 27 1016 29 10000 5.14 70 14:24 13.03.2021
1534 Clouds 27 1017 26 10000 5.66 80 13:45 13.03.2021
1535 Clouds 27 1018 26 10000 4.12 90 13:21 13.03.2021
1536 Clouds 27 1018 26 10000 4.12 90 12:42 13.03.2021
1537 Clouds 27 1019 29 10000 4.63 70 11:59 13.03.2021
1538 Clouds 27 1019 29 10000 4.63 70 11:40 13.03.2021
1539 Clouds 27 1019 29 10000 4.63 70 11:22 13.03.2021
1540 Clouds 26 1020 31 10000 5.14 80 10:46 13.03.2021
1541 Clouds 26 1020 31 10000 5.14 80 10:24 13.03.2021
1542 Clouds 24 1021 33 10000 6.69 80 09:38 13.03.2021
1543 Clouds 23 1022 46 10000 5.14 60 08:58 13.03.2021
1544 Clouds 23 1022 46 10000 5.14 60 08:38 13.03.2021
1545 Clouds 20 1021 68 10000 3.09 20 08:18 13.03.2021
1546 Clouds 20 1021 68 10000 3.09 20 07:39 13.03.2021
1547 Clouds 15 1020 88 10000 3.61 49 05:31 13.03.2021
1548 Clear 16 1020 82 10000 2.06 350 02:42 13.03.2021
1549 Clouds 16 1020 82 10000 3.09 30 00:44 13.03.2021
1550 Clouds 14 1009 82 10000 5.81 84 23:49 12.03.2021
1551 Clear 19 1020 68 10000 4.12 90 23:30 12.03.2021
1552 Clear 19 1020 68 10000 4.12 90 22:42 12.03.2021
1553 Clear 19 1020 68 10000 4.12 90 22:22 12.03.2021
1554 Clear 18 1021 72 10000 2.57 40 21:42 12.03.2021
1555 Clear 20 1019 46 10000 2.57 80 21:21 12.03.2021
1556 Clear 20 1019 46 10000 2.57 80 20:55 12.03.2021
1557 Clear 21 1019 46 10000 2.57 80 20:32 12.03.2021
1558 Clear 22 1019 43 10000 4.12 90 19:55 12.03.2021
1559 Clear 22 1019 43 10000 4.12 90 19:36 12.03.2021
1560 Clouds 23 1018 31 10000 4.12 90 18:55 12.03.2021
1561 Clouds 23 1018 31 10000 4.12 90 18:34 12.03.2021
1562 Clouds 25 1017 25 10000 7.2 90 17:49 12.03.2021
1563 Clouds 26 1017 25 10000 7.2 90 17:30 12.03.2021
1564 Clouds 26 1016 25 10000 6.17 90 16:55 12.03.2021
1565 Clouds 26 1016 25 10000 6.17 90 16:34 12.03.2021
1566 Clouds 27 1016 24 10000 9.26 100 15:51 12.03.2021
1567 Clouds 27 1016 24 10000 9.26 100 15:27 12.03.2021
1568 Clouds 27 1017 26 10000 10.29 110 14:48 12.03.2021
1569 Clouds 27 1018 29 10000 6.17 90 14:20 12.03.2021
1570 Clouds 27 1018 29 10000 6.17 90 13:43 12.03.2021
1571 Clouds 26 1018 31 10000 6.17 70 13:21 12.03.2021
1572 Clouds 26 1018 31 10000 6.17 70 12:56 12.03.2021
1573 Clouds 22 1007 48 10000 1.79 136 12:37 12.03.2021
1574 Clouds 22 1008 48 10000 1.34 126 12:19 12.03.2021
1575 Clouds 22 1009 44 10000 1.79 146 11:48 12.03.2021
1576 Clouds 22 1009 35 10000 2.24 134 11:20 12.03.2021
1577 Clouds 22 1010 35 10000 2.24 69 10:48 12.03.2021
1578 Clouds 22 1010 38 10000 2.24 187 10:23 12.03.2021
1579 Clouds 21 1011 42 10000 2.24 119 09:49 12.03.2021
1580 Clouds 21 1011 39 10000 0.89 89 09:19 12.03.2021
1581 Clouds 19 1011 45 10000 1.34 186 08:43 12.03.2021
1582 Clouds 19 1011 47 10000 0.89 80 07:54 12.03.2021
1583 Clear 18 1020 72 10000 4.82 61 07:31 12.03.2021
1584 Clear 18 1020 72 10000 4.46 51 06:45 12.03.2021
1585 Clouds 14 1020 88 10000 4.01 46 05:57 12.03.2021
1586 Clear 19 1018 63 10000 4.08 54 01:42 12.03.2021
1587 Clouds 18 1020 63 10000 3.6 60 23:59 11.03.2021
1588 Clouds 20 1020 52 10000 5.14 90 23:19 11.03.2021
1589 Clouds 20 1020 52 10000 5.14 90 22:42 11.03.2021
1590 Clouds 21 1020 49 10000 4.12 80 22:22 11.03.2021
1591 Clouds 21 1020 49 10000 4.12 80 21:46 11.03.2021
1592 Clouds 21 1020 49 10000 4.12 80 21:26 11.03.2021
1593 Clear 21 1019 43 10000 6.17 70 20:49 11.03.2021
1594 Clear 22 1018 38 10000 5.14 90 20:27 11.03.2021
1595 Clear 22 1018 38 10000 5.14 90 19:57 11.03.2021
1596 Clear 22 1018 38 10000 5.14 90 19:38 11.03.2021
1597 Clouds 23 1018 40 10000 5.14 80 18:55 11.03.2021
1598 Clouds 24 1017 33 10000 7.2 90 18:35 11.03.2021
1599 Clouds 25 1017 33 10000 7.2 90 17:57 11.03.2021
1600 Clouds 25 1017 33 10000 7.2 90 17:39 11.03.2021
1601 Clouds 26 1016 29 10000 9.26 90 16:42 11.03.2021
1602 Clouds 28 1016 23 10000 6.17 50 16:24 11.03.2021
1603 Clouds 28 1016 23 10000 6.17 50 15:44 11.03.2021
1604 Clouds 28 1017 26 10000 7.2 50 15:21 11.03.2021
1605 Clouds 28 1017 26 10000 7.2 50 14:45 11.03.2021
1606 Clouds 28 1017 26 10000 7.2 50 14:45 11.03.2021
1607 Clouds 28 1017 23 10000 9.26 110 14:19 11.03.2021
1608 Clouds 29 1018 21 10000 6.69 80 13:46 11.03.2021
1609 Clouds 29 1018 21 10000 10.29 110 13:23 11.03.2021
1610 Clouds 29 1018 21 10000 10.29 110 12:57 11.03.2021
1611 Clouds 29 1018 21 10000 10.29 110 12:36 11.03.2021
1612 Clouds 28 1019 21 10000 8.23 70 12:18 11.03.2021
1613 Clouds 28 1019 21 10000 8.23 70 11:42 11.03.2021
1614 Clouds 27 1020 22 10000 5.14 50 11:19 11.03.2021
1615 Clouds 27 1020 22 10000 5.14 50 10:28 11.03.2021
1616 Clouds 27 1022 21 10000 7.2 60 09:53 11.03.2021
1617 Clear 25 1021 36 10000 7.2 50 09:34 11.03.2021
1618 Clear 25 1021 36 10000 7.2 50 08:59 11.03.2021
1619 Clear 25 1021 36 10000 7.2 50 08:41 11.03.2021
1620 Clouds 21 1021 68 10000 3.09 30 08:18 11.03.2021
1621 Clouds 19 1021 77 10000 5.14 20 07:22 11.03.2021
1622 Clouds 19 1021 77 10000 5.14 20 06:49 11.03.2021
1623 Clouds 19 1021 77 10000 5.14 20 06:23 11.03.2021
1624 Clear 15 1020 88 10000 2.57 360 02:48 11.03.2021
1625 Clouds 14 1008 83 10000 5.36 93 00:47 11.03.2021
1626 Clouds 14 1008 83 10000 5.36 93 00:46 11.03.2021
1627 Clouds 19 1021 60 10000 2.06 60 23:27 10.03.2021
1628 Clouds 19 1021 60 10000 2.06 60 23:26 10.03.2021
1629 Clouds 19 1021 60 10000 2.06 60 23:25 10.03.2021
1630 -273 0 0 0 0 0 22:46 10.03.2021
1631 -273 0 0 0 0 0 22:46 10.03.2021
1632 -273 0 0 0 0 0 22:46 10.03.2021
1633 Clouds 19 1021 60 10000 2.06 60 22:45 10.03.2021
1634 -273 0 0 0 0 0 22:27 10.03.2021
1635 Clouds 19 1021 60 10000 2.06 60 22:26 10.03.2021
1636 Clouds 19 1021 60 10000 2.06 30 21:45 10.03.2021
1637 Clear 19 1021 55 10000 3.6 80 21:23 10.03.2021
1638 Clear 19 1021 55 10000 3.6 80 20:46 10.03.2021
1639 Clear 21 1019 43 10000 5.14 90 20:27 10.03.2021
1640 Clear 22 1019 43 10000 5.14 90 19:49 10.03.2021
1641 Clear 22 1019 43 10000 5.14 90 19:28 10.03.2021
1642 Clouds 23 1018 38 10000 4.12 50 18:46 10.03.2021
1643 Clouds 25 1018 33 10000 5.14 70 18:24 10.03.2021
1644 Clouds 25 1018 33 10000 5.14 70 17:56 10.03.2021
1645 Clouds 25 1018 33 10000 5.14 70 17:37 10.03.2021
1646 Clouds 26 1018 31 10000 6.17 60 17:19 10.03.2021
1647 Clouds 26 1018 31 10000 6.17 60 16:42 10.03.2021
1648 Clouds 27 1018 28 10000 6.17 80 16:23 10.03.2021
1649 Clouds 27 1018 26 10000 7.2 70 15:46 10.03.2021
1650 Clouds 28 1018 24 10000 7.2 90 15:23 10.03.2021
1651 Clouds 28 1018 24 10000 7.2 90 14:56 10.03.2021
1652 Clouds 27 1018 34 10000 6.17 40 14:20 10.03.2021
1653 Clouds 27 1018 34 10000 6.17 40 13:52 10.03.2021
1654 Clouds 27 1018 34 10000 6.17 40 13:30 10.03.2021
1655 Clouds 27 1019 34 10000 5.14 60 12:46 10.03.2021
1656 Clouds 27 1019 34 10000 5.14 60 12:46 10.03.2021
1657 Clouds 25 1020 41 10000 7.2 70 12:21 10.03.2021
1658 Clouds 25 1020 41 10000 7.2 70 11:47 10.03.2021
1659 Clouds 25 1020 41 10000 7.2 70 11:21 10.03.2021
1660 Clouds 25 1021 41 10000 8.23 30 10:50 10.03.2021
1661 Clouds 25 1021 41 10000 8.23 30 10:31 10.03.2021
1662 Clouds 23 1023 49 10000 6.17 50 09:52 10.03.2021
1663 Clouds 23 1023 49 10000 6.17 50 09:32 10.03.2021
1664 Clouds 22 1021 56 10000 7.2 90 08:59 10.03.2021
1665 Clouds 21 1021 56 10000 7.2 90 08:40 10.03.2021
1666 Clouds 19 1022 68 10000 4.63 80 08:21 10.03.2021
1667 Clouds 19 1022 68 10000 4.63 80 07:42 10.03.2021
1668 Clouds 17 1022 82 10000 3.45 62 07:20 10.03.2021
1669 Clouds 17 1022 82 10000 3.47 56 06:49 10.03.2021
1670 Clouds 13 1010 84 10000 4.47 77 02:42 10.03.2021
1671 Clouds 18 1022 77 10000 4.12 50 23:59 09.03.2021
1672 Clear 19 1021 68 10000 3.6 80 23:27 09.03.2021
1673 Clear 19 1021 68 10000 3.6 80 22:49 09.03.2021
1674 Clear 19 1021 68 10000 3.6 80 22:28 09.03.2021
1675 Clear 20 1022 60 10000 3.6 70 21:57 09.03.2021
1676 Clear 20 1022 60 10000 3.6 70 21:37 09.03.2021
1677 Clear 21 1021 56 10000 4.12 60 21:18 09.03.2021
1678 Clear 21 1021 56 10000 4.12 60 20:43 09.03.2021
1679 Clear 21 1021 56 10000 4.12 60 20:22 09.03.2021
1680 Clear 22 1020 46 10000 3.09 80 20:22 09.03.2021
1681 Clear 22 1020 46 10000 3.09 80 19:56 09.03.2021
1682 Clear 22 1020 46 10000 3.09 80 19:29 09.03.2021
1683 Clouds 23 1019 40 10000 6.17 80 18:54 09.03.2021
1684 Clouds 24 1019 35 10000 4.12 80 18:29 09.03.2021
1685 Clouds 24 1019 35 10000 4.12 80 17:57 09.03.2021
1686 Clouds 24 1019 35 10000 4.12 80 17:37 09.03.2021
1687 Clouds 26 1018 34 10000 6.17 90 16:57 09.03.2021
1688 Clouds 26 1018 34 10000 6.17 90 16:39 09.03.2021
1689 Clouds 26 1018 34 10000 7.2 90 16:19 09.03.2021
1690 Clouds 26 1018 34 10000 7.2 90 15:47 09.03.2021
1691 Clouds 26 1018 34 10000 7.2 90 15:24 09.03.2021
1692 Clouds 27 1018 29 10000 3.09 50 14:42 09.03.2021
1693 Clouds 27 1018 29 10000 3.09 50 14:22 09.03.2021
1694 Clouds 27 1018 34 10000 9.26 80 13:39 09.03.2021
1695 Clouds 26 1019 38 10000 6.17 80 13:21 09.03.2021
1696 Clouds 26 1019 38 10000 6.17 80 12:44 09.03.2021
1697 Clouds 26 1020 41 10000 5.14 90 12:25 09.03.2021
1698 Clouds 26 1020 41 10000 5.14 90 11:42 09.03.2021
1699 Clouds 24 1021 50 10000 4.12 90 11:21 09.03.2021
1700 Clouds 24 1021 50 10000 4.12 90 10:57 09.03.2021
1701 Clouds 24 1021 50 10000 4.12 90 10:38 09.03.2021
1702 Clouds 22 1023 56 10000 6.69 50 10:20 09.03.2021
1703 Clouds 22 1023 56 10000 6.69 50 10:20 09.03.2021
1704 Clouds 22 1023 56 10000 6.69 50 10:20 09.03.2021
1705 Clouds 22 1023 56 10000 6.69 50 09:44 09.03.2021
1706 Clouds 22 1023 56 10000 6.69 50 09:26 09.03.2021
1707 Clouds 21 1023 60 10000 5.14 40 08:48 09.03.2021
1708 Clouds 21 1023 60 10000 5.14 40 08:29 09.03.2021
1709 Clouds 19 1022 77 10000 5.14 120 07:40 09.03.2021
1710 Clouds 19 1022 77 10000 5.14 120 07:21 09.03.2021
1711 Clouds 18 1021 77 10000 3.05 44 06:38 09.03.2021
1712 Clouds 16 1020 88 10000 2.06 50 05:48 09.03.2021
1713 Clouds 13 1010 86 10000 4.02 115 00:38 09.03.2021
1714 Clouds 17 1014 68 10000 3.12 30 23:45 08.03.2021
1715 Clouds 14 1011 86 10000 4.02 113 23:27 08.03.2021
1716 Clouds 14 1011 86 10000 4.02 48 22:58 08.03.2021
1717 Clouds 21 1020 64 10000 5.14 50 22:39 08.03.2021
1718 Clouds 21 1020 64 10000 5.14 50 22:20 08.03.2021
1719 Clouds 14 1011 85 10000 5.36 63 21:40 08.03.2021
1720 Clouds 15 1011 85 10000 4.92 80 21:20 08.03.2021
1721 Clear 22 1019 56 10000 5.14 40 20:38 08.03.2021
1722 Clear 22 1019 56 10000 5.14 40 20:18 08.03.2021
1723 Clear 22 1019 56 10000 5.14 40 19:38 08.03.2021
1724 Clouds 23 1017 49 10000 7.72 60 18:48 08.03.2021
1725 Clouds 24 1016 43 10000 7.72 60 18:23 08.03.2021
1726 Clouds 24 1016 43 10000 7.72 60 17:58 08.03.2021
1727 Clouds 24 1016 43 10000 7.72 60 17:39 08.03.2021
1728 Clouds 26 1016 38 10000 5.14 90 16:59 08.03.2021
1729 Clouds 26 1016 38 10000 5.14 90 16:40 08.03.2021
1730 Clouds 26 1015 41 10000 5.14 70 16:21 08.03.2021
1731 Clouds 26 1015 41 10000 5.14 70 15:38 08.03.2021
1732 Clouds 27 1015 39 10000 6.17 70 15:20 08.03.2021
1733 Clouds 27 1016 41 10000 5.14 120 14:21 08.03.2021
1734 Clouds 27 1016 41 10000 5.14 120 13:48 08.03.2021
1735 Clouds 27 1016 41 10000 5.14 120 13:23 08.03.2021
1736 Clouds 27 1017 41 10000 6.17 60 12:56 08.03.2021
1737 Clouds 27 1017 41 10000 6.17 60 12:29 08.03.2021
1738 Clouds 26 1018 38 10000 7.72 40 11:48 08.03.2021
1739 Clouds 26 1018 38 10000 7.72 40 11:29 08.03.2021
1740 Clouds 25 1019 50 10000 5.14 90 10:55 08.03.2021
1741 Clouds 25 1019 50 10000 5.14 90 10:37 08.03.2021
1742 Clouds 24 1020 46 10000 5.14 60 10:18 08.03.2021
1743 Clouds 24 1020 46 10000 5.14 60 09:26 08.03.2021
1744 Clouds 24 1020 46 10000 5.14 60 09:26 08.03.2021
1745 Clear 23 1020 56 10000 5.14 60 08:50 08.03.2021
1746 Clear 21 1021 64 10000 5.14 20 08:23 08.03.2021
1747 Clear 19 1020 72 10000 3.09 50 07:21 08.03.2021
1748 Clouds 18 1019 68 10000 2.57 80 05:23 08.03.2021
1749 Clouds 19 1018 64 10000 3.09 40 02:24 08.03.2021
1750 Clouds 19 1019 68 10000 3.09 20 00:42 08.03.2021
1751 Clouds 18 1020 68 10000 2.57 30 23:53 07.03.2021
1752 Clouds 21 1020 60 10000 3.09 60 23:21 07.03.2021
1753 Clouds 21 1020 60 10000 3.09 60 22:48 07.03.2021
1754 Clouds 21 1020 60 10000 3.09 40 22:28 07.03.2021
1755 Clouds 21 1020 60 10000 3.09 40 21:53 07.03.2021
1756 Clouds 21 1020 60 10000 3.09 40 21:33 07.03.2021
1757 Clouds 22 1019 53 10000 5.14 40 20:58 07.03.2021
1758 Clouds 22 1019 53 10000 5.14 40 20:58 07.03.2021
1759 Clear 23 1018 46 10000 4.12 40 20:40 07.03.2021
1760 Clear 23 1018 46 10000 4.12 40 20:18 07.03.2021
1761 Clear 23 1018 46 10000 4.12 40 19:40 07.03.2021
1762 Clear 23 1018 46 10000 4.12 40 19:22 07.03.2021
1763 Clear 24 1018 43 10000 3.09 50 18:54 07.03.2021
1764 Clouds 25 1016 41 10000 6.17 70 18:21 07.03.2021
1765 Clouds 25 1016 41 10000 6.17 70 17:59 07.03.2021
1766 Clouds 26 1016 38 10000 5.14 50 17:39 07.03.2021
1767 Clouds 26 1016 38 10000 5.14 50 17:19 07.03.2021
1768 Clouds 26 1016 38 10000 5.14 50 16:43 07.03.2021
1769 Clouds 28 1015 34 10000 6.17 90 16:21 07.03.2021
1770 Clouds 28 1015 34 10000 6.17 90 15:51 07.03.2021
1771 Clouds 28 1015 34 10000 6.17 90 15:31 07.03.2021
1772 Clouds 28 1016 34 10000 7.2 70 14:56 07.03.2021
1773 Clouds 28 1016 34 10000 7.2 70 14:29 07.03.2021
1774 Clouds 28 1011 39 10000 5.14 60 13:51 07.03.2021
1775 Clouds 28 1011 39 10000 5.14 60 13:30 07.03.2021
1776 Clouds 27 1018 41 10000 3.09 70 12:56 07.03.2021
1777 Clouds 27 1018 41 10000 3.09 70 12:37 07.03.2021
1778 Clouds 27 1018 41 10000 3.09 70 12:18 07.03.2021
1779 Clouds 26 1020 41 10000 4.12 90 11:24 07.03.2021
1780 Clouds 26 1020 41 10000 4.12 90 10:55 07.03.2021
1781 Clouds 26 1020 41 10000 4.12 90 10:37 07.03.2021
1782 Clouds 25 1021 41 10000 3.09 190 09:54 07.03.2021
1783 Clouds 24 1021 41 10000 3.09 190 09:29 07.03.2021
1784 Clear 24 1021 46 10000 3.09 140 08:59 07.03.2021
1785 Clear 23 1021 46 10000 3.09 140 08:40 07.03.2021
1786 Clear 23 1021 46 10000 3.09 140 08:21 07.03.2021
1787 Clear 17 1021 77 10000 4.12 48 06:51 07.03.2021
1788 Clear 17 1014 63 10000 3.51 70 02:40 07.03.2021
1789 Clouds 18 1013 63 10000 3.45 34 00:34 07.03.2021
1790 Clear 21 1020 49 10000 4.18 42 23:40 06.03.2021
1791 Clear 21 1020 49 10000 4.7 50 23:20 06.03.2021
1792 Clear 21 1020 49 10000 4.7 50 22:45 06.03.2021
1793 Clear 21 1020 49 10000 4.31 57 22:21 06.03.2021
1794 Clear 21 1020 49 10000 4.31 57 21:49 06.03.2021
1795 Clear 22 1020 43 10000 3.6 50 21:21 06.03.2021
1796 Clear 22 1020 43 10000 3.6 50 20:43 06.03.2021
1797 Clear 23 1019 40 10000 6.17 60 20:19 06.03.2021
1798 Clear 23 1019 40 10000 6.17 60 19:40 06.03.2021
1799 Clear 23 1018 38 10000 3.6 70 19:18 06.03.2021
1800 Clear 24 1018 38 10000 3.6 70 18:42 06.03.2021
1801 Clouds 25 1018 36 10000 5.14 60 18:22 06.03.2021
1802 Clouds 25 1018 36 10000 5.14 60 17:55 06.03.2021
1803 Clouds 25 1018 36 10000 5.14 60 17:33 06.03.2021
1804 Clouds 26 1017 36 10000 4.63 70 16:59 06.03.2021
1805 Clouds 26 1017 36 10000 4.63 70 16:37 06.03.2021
1806 Clouds 27 1016 34 10000 4.63 80 16:18 06.03.2021
1807 Clouds 27 1017 34 10000 6.69 50 15:39 06.03.2021
1808 Clouds 21 1007 62 10000 3.58 128 15:21 06.03.2021
1809 Clouds 26 1018 36 10000 5.14 110 14:33 06.03.2021
1810 Clouds 22 1008 61 10000 0.89 113 13:56 06.03.2021
1811 Clouds 26 1019 38 10000 10.29 50 13:37 06.03.2021
1812 Clouds 26 1019 38 10000 10.29 50 13:19 06.03.2021
1813 Clouds 22 1008 62 10000 2.24 86 12:42 06.03.2021
1814 Clouds 25 1020 41 10000 5.66 90 12:19 06.03.2021
1815 Clouds 22 1009 61 10000 1.79 78 11:44 06.03.2021
1816 Clouds 24 1021 46 10000 4.12 70 11:20 06.03.2021
1817 Clouds 21 1011 62 10000 1.34 244 10:44 06.03.2021
1818 Clouds 19 1012 65 10000 3.13 115 09:58 06.03.2021
1819 Clouds 21 1023 52 10000 5.14 60 09:28 06.03.2021
1820 Clouds 24 1014 46 10000 5.78 58 08:58 06.03.2021
1821 Clouds 20 1023 60 10000 3.09 70 08:33 06.03.2021
1822 Clouds 22 1015 51 10000 5.64 55 07:56 06.03.2021
1823 Clouds 16 1012 81 10000 4.92 79 07:23 06.03.2021
1824 Clouds 14 1012 86 10000 5.81 107 06:44 06.03.2021
1825 Clouds 17 1014 71 10000 2.98 76 03:49 06.03.2021
1826 Clouds 18 1014 63 10000 2.59 42 02:24 06.03.2021
1827 Clouds 18 1013 65 10000 2.96 22 00:47 06.03.2021
1828 Clouds 18 1014 67 10000 3.68 33 23:51 05.03.2021
1829 Clouds 21 1020 64 10000 3.09 50 23:24 05.03.2021
1830 Clouds 18 1014 66 10000 3.96 51 22:45 05.03.2021
1831 Clouds 23 1020 56 10000 2.06 60 22:22 05.03.2021
1832 Clouds 19 1014 64 10000 4.51 52 21:52 05.03.2021
1833 Clouds 22 1020 56 10000 2.06 20 21:33 05.03.2021
1834 Clouds 22 1020 56 10000 2.06 20 20:54 05.03.2021
1835 Clouds 23 1019 53 10000 2.06 60 20:27 05.03.2021
1836 Clouds 23 1019 53 10000 2.06 60 19:56 05.03.2021
1837 Rain 23 1019 53 10000 2.06 60 19:26 05.03.2021
1838 Clouds 23 1018 56 10000 6.17 60 18:58 05.03.2021
1839 Clouds 23 1018 56 10000 6.17 60 18:40 05.03.2021
1840 Clouds 24 1018 53 10000 5.14 50 18:19 05.03.2021
1841 Clouds 24 1018 53 10000 5.14 50 17:36 05.03.2021
1842 Clouds 25 1017 47 10000 4.12 90 16:50 05.03.2021
1843 Rain 26 1016 41 10000 5.14 80 16:25 05.03.2021
1844 Rain 26 1016 41 10000 5.14 80 15:59 05.03.2021
1845 Rain 26 1016 41 10000 5.14 80 15:40 05.03.2021
1846 Rain 26 1017 44 10000 5.14 70 15:21 05.03.2021
1847 Rain 26 1017 44 10000 5.14 70 14:38 05.03.2021
1848 Rain 26 1017 47 10000 7.2 110 13:59 05.03.2021
1849 Rain 26 1017 47 10000 7.2 110 13:59 05.03.2021
1850 Rain 26 1018 44 10000 6.17 50 13:22 05.03.2021
1851 Rain 26 1018 44 10000 6.17 50 12:56 05.03.2021
1852 Rain 26 1019 44 10000 8.23 70 12:23 05.03.2021
1853 Rain 26 1019 44 10000 8.23 70 11:37 05.03.2021
1854 Rain 25 1020 47 10000 7.2 90 11:18 05.03.2021
1855 Rain 25 1020 47 10000 7.2 90 10:41 05.03.2021
1856 Clouds 25 1020 47 10000 7.2 90 10:23 05.03.2021
1857 Clouds 24 1020 56 10000 6.17 50 09:49 05.03.2021
1858 Clouds 21 1021 68 10000 5.14 60 09:27 05.03.2021
1859 Clouds 23 1022 60 10000 4.63 10 08:45 05.03.2021
1860 Clouds 21 1021 68 10000 5.14 50 08:26 05.03.2021
1861 Clouds 20 1021 68 10000 5.14 50 07:44 05.03.2021
1862 Clouds 17 1021 88 10000 4.16 41 07:24 05.03.2021
1863 Clouds 17 1021 88 10000 4.48 46 06:32 05.03.2021
1864 Clear 17 1020 77 10000 2.06 350 02:51 05.03.2021
1865 Clouds 17 1014 76 10000 3.36 43 00:49 05.03.2021
1866 Clouds 20 1021 68 10000 3.09 50 23:37 04.03.2021
1867 Clouds 20 1021 68 10000 3.09 50 22:47 04.03.2021
1868 Clouds 20 1021 68 10000 3.09 50 22:25 04.03.2021
1869 Clouds 20 1021 68 10000 4.12 50 21:47 04.03.2021
1870 Clouds 20 1021 68 10000 4.12 50 21:28 04.03.2021
1871 Clouds 20 1020 64 10000 2.06 70 20:41 04.03.2021
1872 Clouds 21 1019 60 10000 5.14 40 20:23 04.03.2021
1873 Clouds 21 1019 60 10000 5.14 40 19:58 04.03.2021
1874 Clouds 21 1019 60 10000 5.14 40 19:39 04.03.2021
1875 Clouds 21 1019 60 10000 5.14 60 19:19 04.03.2021
1876 Clouds 21 1019 60 10000 5.14 60 18:41 04.03.2021
1877 Clouds 21 1019 60 10000 5.14 60 18:23 04.03.2021
1878 Clouds 21 1018 64 10000 6.17 50 17:46 04.03.2021
1879 Rain 23 1017 56 10000 7.2 70 17:27 04.03.2021
1880 Rain 23 1017 56 10000 7.2 70 16:46 04.03.2021
1881 Rain 23 1017 56 10000 7.2 70 16:25 04.03.2021
1882 Rain 25 1017 50 10000 8.23 70 15:50 04.03.2021
1883 Rain 25 1017 50 10000 8.23 70 15:31 04.03.2021
1884 Rain 26 1017 47 10000 8.23 90 14:48 04.03.2021
1885 Rain 26 1017 47 10000 8.23 90 14:26 04.03.2021
1886 Rain 25 1018 47 10000 6.17 70 13:47 04.03.2021
1887 Rain 25 1018 47 10000 6.17 70 13:29 04.03.2021
1888 Rain 25 1018 47 10000 7.2 70 12:49 04.03.2021
1889 Rain 25 1018 47 10000 7.2 70 12:31 04.03.2021
1890 Rain 24 1019 50 10000 4.12 60 11:43 04.03.2021
1891 Clouds 24 1019 50 10000 4.12 60 11:23 04.03.2021
1892 Clouds 23 1020 60 10000 5.14 90 10:47 04.03.2021
1893 Clouds 20 1021 68 10000 5.66 40 10:26 04.03.2021
1894 Clouds 20 1021 68 10000 5.66 40 09:39 04.03.2021
1895 Clouds 19 1021 77 10000 5.14 20 08:59 04.03.2021
1896 Clouds 19 1021 77 10000 5.14 20 08:35 04.03.2021
1897 Clouds 19 1021 68 10000 7.2 50 07:53 04.03.2021
1898 Clouds 19 1021 68 10000 7.2 50 07:28 04.03.2021
1899 Clear 18 1020 72 10000 4.12 50 06:24 04.03.2021
1900 Clear 17 1018 68 10000 1.87 15 03:25 04.03.2021
1901 Clear 18 1018 68 10000 1.57 21 01:41 04.03.2021
1902 Clear 19 1020 60 10000 2.6 50 22:44 03.03.2021
1903 Clear 19 1020 60 10000 3.43 50 22:26 03.03.2021
1904 Clear 20 1020 60 10000 3.09 90 21:44 03.03.2021
1905 Clear 20 1020 60 10000 3.09 90 21:24 03.03.2021
1906 Clear 21 1019 56 10000 6.69 70 20:59 03.03.2021
1907 Clear 21 1019 56 10000 6.69 70 20:41 03.03.2021
1908 Clear 22 1018 49 10000 7.2 50 19:59 03.03.2021
1909 Clear 22 1018 49 10000 7.2 50 19:40 03.03.2021
1910 Clear 23 1017 46 10000 6.69 60 19:22 03.03.2021
1911 Clear 23 1017 46 10000 6.69 60 18:47 03.03.2021
1912 Clear 23 1017 46 10000 6.69 60 18:26 03.03.2021
1913 Clouds 24 1016 43 10000 5.14 70 17:54 03.03.2021
1914 Clouds 26 1016 36 10000 6.17 80 17:19 03.03.2021
1915 Clouds 26 1016 36 10000 6.17 80 16:44 03.03.2021
1916 Clouds 26 1016 36 10000 6.17 80 16:24 03.03.2021
1917 Clouds 27 1015 34 10000 7.2 50 15:35 03.03.2021
1918 Clouds 28 1015 36 10000 7.2 30 14:59 03.03.2021
1919 Clouds 28 1015 36 10000 7.2 30 14:31 03.03.2021
1920 Clouds 28 1016 34 10000 2.57 90 13:53 03.03.2021
1921 Clouds 28 1016 34 10000 2.57 90 13:33 03.03.2021
1922 Clouds 27 1017 32 10000 8.23 60 12:58 03.03.2021
1923 Clouds 27 1017 32 10000 8.23 60 12:39 03.03.2021
1924 Clouds 27 1018 29 10000 7.72 90 12:19 03.03.2021
1925 Clouds 27 1018 29 10000 7.72 90 11:42 03.03.2021
1926 Clear 25 1019 41 10000 5.66 50 11:21 03.03.2021
1927 Clear 25 1019 41 10000 5.66 50 10:41 03.03.2021
1928 Clear 23 1020 49 10000 4.12 80 10:19 03.03.2021
1929 Clear 23 1020 49 10000 4.12 80 09:40 03.03.2021
1930 Clear 21 1020 56 10000 5.14 70 08:46 03.03.2021
1931 Clouds 20 1020 56 10000 5.14 30 08:23 03.03.2021
1932 Clouds 20 1020 56 10000 5.14 30 07:52 03.03.2021
1933 Clouds 16 1021 77 10000 2.57 70 06:55 03.03.2021
1934 Clouds 16 1018 77 10000 5.75 46 06:18 03.03.2021
1935 Clouds 16 1018 77 10000 5.05 56 05:29 03.03.2021
1936 Clouds 16 1018 77 10000 4.3 49 04:35 03.03.2021
1937 Clear 16 1017 77 10000 3.45 39 03:52 03.03.2021
1938 Clear 17 1020 63 10000 3.6 20 00:18 03.03.2021
1939 Clear 18 1019 59 10000 2.57 60 23:32 02.03.2021
1940 Clear 18 1019 59 10000 2.57 60 22:44 02.03.2021
1941 Clear 19 1019 52 10000 4.12 50 22:21 02.03.2021
1942 Clear 18 1021 59 10000 2.57 10 21:46 02.03.2021
1943 Clear 18 1021 59 10000 2.57 10 21:28 02.03.2021
1944 Clear 19 1020 52 10000 4.12 40 20:55 02.03.2021
1945 Clouds 21 1018 43 10000 4.12 60 20:36 02.03.2021
1946 Clouds 22 1018 43 10000 4.12 60 20:18 02.03.2021
1947 Clouds 22 1018 43 10000 4.12 60 19:43 02.03.2021
1948 Clouds 22 1018 43 10000 4.12 60 19:24 02.03.2021
1949 Clouds 23 1018 40 10000 2.57 90 18:41 02.03.2021
1950 Clouds 24 1017 38 10000 5.14 70 18:21 02.03.2021
1951 Clouds 24 1017 38 10000 5.14 70 17:54 02.03.2021
1952 Clouds 24 1017 38 10000 5.14 70 17:36 02.03.2021
1953 Clouds 24 1017 38 10000 5.14 70 17:36 02.03.2021
1954 Clouds 25 1016 38 10000 10.29 90 17:18 02.03.2021
1955 Clouds 25 1016 38 10000 10.29 90 16:40 02.03.2021
1956 Clouds 26 1016 38 10000 4.12 90 15:54 02.03.2021
1957 Clouds 26 1016 38 10000 4.12 90 15:26 02.03.2021
1958 Clouds 26 1016 41 10000 5.14 90 14:42 02.03.2021
1959 Clouds 26 1016 44 10000 5.14 90 14:18 02.03.2021
1960 Clouds 26 1016 44 10000 5.14 90 13:42 02.03.2021
1961 Clouds 25 1018 44 10000 5.14 60 13:23 02.03.2021
1962 Clouds 26 1018 44 10000 7.2 50 12:45 02.03.2021
1963 Clouds 25 1019 47 10000 9.26 60 12:24 02.03.2021
1964 Clouds 25 1019 47 10000 9.26 60 11:44 02.03.2021
1965 Clouds 24 1020 50 10000 7.72 90 11:22 02.03.2021
1966 Clouds 24 1020 50 10000 7.72 90 10:43 02.03.2021
1967 Clouds 23 1021 56 10000 7.72 60 10:24 02.03.2021
1968 Clouds 23 1021 56 10000 7.72 60 09:41 02.03.2021
1969 Clouds 21 1021 68 10000 6.17 60 09:22 02.03.2021
1970 Clouds 21 1021 68 10000 6.17 60 08:40 02.03.2021
1971 Clouds 19 1021 77 10000 5.14 90 08:22 02.03.2021
1972 Clouds 19 1021 77 10000 5.14 90 07:40 02.03.2021
1973 Clouds 18 1021 88 10000 5.14 40 06:36 02.03.2021
1974 Clouds 18 1020 82 10000 4.12 70 05:46 02.03.2021
1975 Clouds 18 1020 82 10000 4.12 70 05:46 02.03.2021
1976 Clouds 18 1020 82 10000 4.12 70 05:28 02.03.2021
1977 Clouds 20 1019 73 10000 4.12 90 02:35 02.03.2021
1978 Clouds 20 1019 73 10000 4.12 90 01:42 02.03.2021
1979 Clouds 20 1020 73 10000 2.57 50 01:18 02.03.2021
1980 Clouds 14 1010 84 10000 5.81 96 23:29 01.03.2021
1981 Clouds 21 1020 64 10000 4.12 60 22:43 01.03.2021
1982 Clouds 21 1020 64 10000 4.12 60 22:24 01.03.2021
1983 Clouds 20 1021 73 10000 3.6 80 21:52 01.03.2021
1984 Clouds 20 1021 73 10000 3.6 80 21:24 01.03.2021
1985 Clouds 17 1010 77 10000 2.68 103 20:55 01.03.2021
1986 Clouds 23 1019 53 10000 5.14 60 20:37 01.03.2021
1987 Clouds 23 1019 53 10000 5.14 60 20:18 01.03.2021
1988 Clouds 23 1019 53 10000 5.14 60 19:41 01.03.2021
1989 Clouds 24 1018 46 10000 5.14 90 19:18 01.03.2021
1990 Clouds 24 1018 46 10000 5.14 90 18:37 01.03.2021
1991 Clouds 25 1017 47 10000 5.14 90 18:19 01.03.2021
1992 Clouds 18 1007 70 10000 3.13 84 17:42 01.03.2021
1993 Clouds 26 1016 38 10000 6.17 60 17:19 01.03.2021
1994 Clouds 26 1016 38 10000 6.17 60 16:45 01.03.2021
1995 Clouds 26 1016 38 10000 6.17 60 16:26 01.03.2021
1996 Clouds 27 1016 39 10000 10.29 90 15:42 01.03.2021
1997 Clouds 28 1016 34 10000 5.14 90 15:21 01.03.2021
1998 Clouds 28 1016 34 10000 5.14 90 14:49 01.03.2021
1999 Clouds 28 1016 34 10000 5.14 90 14:30 01.03.2021
2000 Clouds 27 1016 34 10000 5.14 60 13:43 01.03.2021
2001 Clouds 27 1017 39 10000 9.26 90 13:25 01.03.2021
2002 Clouds 27 1017 39 10000 9.26 90 13:24 01.03.2021
2003 Clouds 27 1017 39 10000 9.26 90 12:58 01.03.2021
2004 Clouds 27 1017 39 10000 9.26 90 12:38 01.03.2021
2005 Clouds 27 1019 39 10000 7.72 40 12:19 01.03.2021
2006 Clouds 27 1019 39 10000 7.72 40 11:42 01.03.2021
2007 Clouds 25 1020 41 10000 7.72 90 10:45 01.03.2021
2008 Clouds 25 1021 50 10000 5.14 50 10:23 01.03.2021
2009 Clouds 25 1021 50 10000 5.14 50 09:59 01.03.2021
2010 Clouds 25 1021 50 10000 5.14 50 09:41 01.03.2021
2011 Clouds 23 1021 53 10000 5.14 40 09:21 01.03.2021
2012 Clouds 23 1021 53 10000 5.14 40 08:52 01.03.2021
2013 Clouds 21 1021 68 10000 4.12 50 08:20 01.03.2021
2014 Clouds 17 1020 77 10000 3.47 46 06:53 01.03.2021
2015 Clouds 16 1019 77 10000 2.06 300 05:39 01.03.2021
2016 Clouds 14 1007 81 10000 4.92 80 01:48 01.03.2021
2017 Clouds 15 1008 71 10000 4.02 108 23:40 28.02.2021
2018 Clear 21 1020 49 10000 3.09 70 22:52 28.02.2021
2019 Clear 21 1020 49 10000 3.09 70 22:25 28.02.2021
2020 Clear 22 1020 38 10000 2.57 40 21:54 28.02.2021
2021 Clear 23 1020 38 10000 2.57 40 21:32 28.02.2021
2022 Clear 23 1018 38 10000 2.06 50 20:58 28.02.2021
2023 Clear 23 1018 38 10000 2.06 50 20:38 28.02.2021
2024 Clouds 23 1017 41 10000 3.09 50 19:57 28.02.2021
2025 Clouds 23 1017 41 10000 3.09 50 19:38 28.02.2021
2026 Clear 24 1017 31 10000 4.12 60 19:20 28.02.2021
2027 Clear 25 1017 31 10000 4.12 60 18:43 28.02.2021
2028 Clear 25 1017 31 10000 4.12 60 18:24 28.02.2021
2029 Clear 26 1016 29 10000 4.12 60 17:48 28.02.2021
2030 Clear 26 1016 29 10000 4.12 60 17:28 28.02.2021
2031 Clouds 27 1016 26 10000 7.2 70 16:54 28.02.2021
2032 Clouds 27 1016 26 10000 7.2 70 16:36 28.02.2021
2033 Clouds 28 1015 26 10000 7.72 90 15:57 28.02.2021
2034 Clouds 28 1015 26 10000 7.72 90 15:37 28.02.2021
2035 Clouds 28 1016 23 10000 8.23 70 15:18 28.02.2021
2036 Clouds 28 1016 23 10000 8.23 70 14:48 28.02.2021
2037 Clouds 28 1016 23 10000 8.23 70 14:26 28.02.2021
2038 Clouds 29 1016 23 10000 5.14 70 13:52 28.02.2021
2039 Clouds 28 1017 26 10000 6.17 70 13:21 28.02.2021
2040 Clouds 28 1017 26 10000 6.17 70 12:56 28.02.2021
2041 Clouds 28 1017 26 10000 6.17 70 12:38 28.02.2021
2042 Clouds 28 1018 28 10000 7.2 50 12:19 28.02.2021
2043 Clouds 28 1018 28 10000 7.2 50 12:19 28.02.2021
2044 Clouds 28 1018 28 10000 7.2 50 11:44 28.02.2021
2045 Clouds 28 1018 28 10000 7.2 50 11:26 28.02.2021
2046 Clouds 26 1019 34 10000 6.17 90 10:55 28.02.2021
2047 Clouds 25 1021 33 10000 5.14 70 10:29 28.02.2021
2048 Clouds 25 1021 33 10000 5.14 70 09:54 28.02.2021
2049 Clouds 25 1021 33 10000 5.14 70 09:34 28.02.2021
2050 Clear 24 1020 31 10000 3.09 20 08:52 28.02.2021
2051 Clear 23 1020 31 10000 3.09 20 08:32 28.02.2021
2052 Clear 22 1020 43 10000 4.12 30 07:57 28.02.2021
2053 Clear 22 1020 43 10000 4.12 30 07:38 28.02.2021
2054 Clear 17 1020 67 10000 2.01 59 06:55 28.02.2021
2055 Clear 14 1019 72 10000 0.9 30 06:21 28.02.2021
2056 Mist 14 1019 67 3000 1.54 250 03:45 28.02.2021
2057 Clouds 18 1013 47 10000 2.31 15 02:19 28.02.2021
2058 Clouds 18 1013 49 10000 2.36 24 00:58 28.02.2021
2059 Clouds 18 1013 49 10000 2.36 24 00:58 28.02.2021
2060 Clouds 18 1013 50 10000 2.39 25 00:37 28.02.2021
2061 Clouds 18 1014 49 10000 2.53 33 23:48 27.02.2021
2062 Clear 17 1020 63 10000 2.79 39 23:20 27.02.2021
2063 Clear 17 1020 63 10000 2.79 39 22:49 27.02.2021
2064 Clear 18 1019 55 10000 2.6 50 22:23 27.02.2021
2065 Clear 18 1019 55 10000 2.6 50 21:51 27.02.2021
2066 Clear 18 1021 55 10000 1.03 20 21:33 27.02.2021
2067 Clear 20 1020 45 10000 2.06 60 20:54 27.02.2021
2068 Clear 21 1018 40 10000 3.36 66 20:34 27.02.2021
2069 Clear 22 1018 40 10000 4.08 71 19:56 27.02.2021
2070 Clear 22 1018 40 10000 4.04 71 19:37 27.02.2021
2071 Clear 24 1017 27 10000 2.06 70 19:19 27.02.2021
2072 Clear 24 1017 27 10000 2.06 70 18:37 27.02.2021
2073 Clouds 25 1016 25 10000 5.14 90 18:18 27.02.2021
2074 Clouds 25 1016 25 10000 5.14 90 17:43 27.02.2021
2075 Clouds 27 1016 19 10000 5.14 90 17:20 27.02.2021
2076 Clouds 27 1016 19 10000 5.14 90 16:50 27.02.2021
2077 Clouds 27 1016 19 10000 5.14 90 16:30 27.02.2021
2078 Clouds 28 1016 17 10000 5.14 110 15:49 27.02.2021
2079 Clouds 28 1016 17 10000 5.14 110 15:30 27.02.2021
2080 Clouds 29 1016 16 10000 3.09 80 14:41 27.02.2021
2081 Clouds 29 1016 16 10000 3.09 80 14:23 27.02.2021
2082 Clouds 29 1016 16 10000 2.57 90 13:47 27.02.2021
2083 Clouds 29 1016 16 10000 2.57 90 13:26 27.02.2021
2084 Clouds 28 1018 17 10000 7.2 70 12:51 27.02.2021
2085 Clouds 28 1018 17 10000 7.2 70 12:27 27.02.2021
2086 Clouds 27 1019 18 10000 7.2 90 11:55 27.02.2021
2087 Clouds 27 1021 26 10000 4.12 50 11:31 27.02.2021
2088 Clouds 27 1021 26 10000 4.12 50 10:59 27.02.2021
2089 Clouds 27 1021 26 10000 4.12 50 10:41 27.02.2021
2090 Clear 25 1021 31 10000 4.12 30 10:18 27.02.2021
2091 Clear 24 1021 49 10000 2.06 20 09:37 27.02.2021
2092 Clear 23 1021 49 10000 2.06 20 08:58 27.02.2021
2093 Clear 22 1021 49 10000 2.06 20 08:39 27.02.2021
2094 Clear 20 1021 64 10000 2.57 340 08:18 27.02.2021
2095 Clear 19 1021 64 10000 2.57 340 07:34 27.02.2021
2096 Clear 15 1019 77 10000 1.54 330 02:56 27.02.2021
2097 Clear 18 1019 55 10000 2.57 20 00:35 27.02.2021
2098 Clear 18 1019 55 10000 2.57 20 23:48 26.02.2021
2099 Clear 18 1019 55 10000 3.6 40 23:25 26.02.2021
2100 Clear 18 1019 55 10000 3.6 40 22:42 26.02.2021
2101 Clear 19 1019 52 10000 3.09 30 22:23 26.02.2021
2102 Clear 19 1019 52 10000 3.09 30 21:37 26.02.2021
2103 Clear 20 1018 46 10000 2.57 40 20:59 26.02.2021
2104 Clear 20 1018 46 10000 2.57 40 20:41 26.02.2021
2105 Clouds 16 1008 63 10000 5.36 85 20:20 26.02.2021
2106 Clouds 19 1013 56 10000 4.4 60 19:40 26.02.2021
2107 Clouds 20 1013 49 10000 4.78 59 19:18 26.02.2021
2108 Clouds 20 1013 49 10000 4.79 59 18:41 26.02.2021
2109 Clouds 17 1008 57 10000 4.02 108 18:21 26.02.2021
2110 Clouds 20 1012 46 10000 4.79 55 17:39 26.02.2021
2111 Clouds 18 1007 57 10000 3.13 111 17:21 26.02.2021
2112 Clouds 18 1007 55 10000 3.13 96 16:50 26.02.2021
2113 Clouds 20 1007 52 10000 1.34 124 16:31 26.02.2021
2114 Clouds 21 1006 53 10000 2.68 134 15:56 26.02.2021
2115 Clouds 21 1006 51 10000 3.58 117 15:36 26.02.2021
2116 Clouds 22 1006 47 10000 2.24 148 15:18 26.02.2021
2117 Clouds 23 1006 42 10000 2.24 153 14:42 26.02.2021
2118 Clouds 23 1006 41 10000 1.34 161 14:24 26.02.2021
2119 Clouds 24 1007 38 10000 1.79 169 13:39 26.02.2021
2120 Clouds 24 1007 37 10000 2.24 115 13:20 26.02.2021
2121 Clouds 26 1019 29 10000 6.17 100 12:38 26.02.2021
2122 Clouds 23 1008 44 10000 0.45 316 11:51 26.02.2021
2123 Clouds 23 1009 45 10000 0.89 316 11:33 26.02.2021
2124 Clouds 22 1010 44 10000 0.89 51 10:46 26.02.2021
2125 Clouds 22 1011 44 10000 4.18 62 09:55 26.02.2021
2126 Clouds 21 1012 44 10000 0.89 57 09:31 26.02.2021
2127 Clouds 21 1012 48 10000 0.89 59 08:54 26.02.2021
2128 Clear 19 1021 63 10000 4.38 53 08:25 26.02.2021
2129 Clear 19 1021 63 10000 4.35 53 07:49 26.02.2021
2130 Clouds 18 1012 58 10000 3.7 48 06:36 26.02.2021
2131 Clouds 12 1020 82 10000 1.54 290 05:27 26.02.2021
2132 Clouds 15 1019 77 10000 2.57 330 03:47 26.02.2021
2133 Clear 17 1019 67 10000 1.71 39 02:35 26.02.2021
2134 Clouds 13 1010 80 10000 3.58 102 23:56 25.02.2021
2135 Clouds 14 1010 78 10000 4.47 103 23:28 25.02.2021
2136 Clouds 17 1015 61 10000 3.95 49 22:49 25.02.2021
2137 Clouds 14 1011 75 10000 4.02 122 22:19 25.02.2021
2138 Clouds 18 1015 60 10000 3.86 48 21:41 25.02.2021
2139 Clouds 18 1015 61 10000 3.81 50 21:23 25.02.2021
2140 Clouds 18 1015 61 10000 3.81 50 20:41 25.02.2021
2141 Clouds 18 1014 59 10000 4.79 54 20:22 25.02.2021
2142 Clouds 18 1014 59 10000 4.79 54 19:52 25.02.2021
2143 Clouds 16 1010 69 10000 4.47 109 19:22 25.02.2021
2144 Clouds 16 1010 71 10000 3.58 111 18:57 25.02.2021
2145 Clouds 17 1009 71 10000 4.02 96 18:24 25.02.2021
2146 Clouds 17 1009 73 10000 4.92 67 17:49 25.02.2021
2147 Clouds 17 1008 74 10000 4.47 120 17:26 25.02.2021
2148 Clouds 18 1008 75 10000 3.13 116 16:43 25.02.2021
2149 Clouds 18 1008 74 10000 3.58 103 16:25 25.02.2021
2150 Clouds 19 1007 71 10000 1.79 112 15:30 25.02.2021
2151 Clouds 19 1007 69 10000 5.8 67 14:57 25.02.2021
2152 Clouds 21 1007 67 10000 5.71 68 14:22 25.02.2021
2153 Clouds 21 1007 65 10000 0.45 270 13:53 25.02.2021
2154 Clouds 22 1008 63 10000 5.23 69 13:26 25.02.2021
2155 Clouds 23 1008 59 10000 5.22 69 12:53 25.02.2021
2156 Clouds 21 1009 59 10000 5.13 69 12:21 25.02.2021
2157 Clouds 21 1009 64 10000 5.13 70 11:47 25.02.2021
2158 Clouds 21 1010 62 10000 0.45 322 11:19 25.02.2021
2159 Clouds 20 1011 59 10000 4.67 71 10:45 25.02.2021
2160 Clouds 21 1011 57 10000 4.1 67 10:23 25.02.2021
2161 Clouds 21 1011 58 10000 4.11 67 09:42 25.02.2021
2162 Clouds 19 1011 62 10000 3.53 60 08:55 25.02.2021
2163 Clouds 19 1012 62 10000 0.45 86 08:25 25.02.2021
2164 Clouds 19 1012 64 10000 0.45 86 07:56 25.02.2021
2165 Clouds 17 1012 72 10000 1.34 96 07:31 25.02.2021
2166 Clouds 14 1012 82 10000 2.68 92 06:53 25.02.2021
2167 Clouds 13 1009 89 10000 0.45 79 01:59 25.02.2021
2168 Clouds 13 1010 89 10000 1.79 78 01:37 25.02.2021
2169 Clouds 16 1015 80 10000 1.19 11 00:41 25.02.2021
2170 Clouds 14 1011 87 10000 2.24 86 23:52 24.02.2021
2171 Clouds 17 1015 80 10000 1.84 41 23:27 24.02.2021
2172 Clouds 17 1015 80 10000 1.84 41 22:44 24.02.2021
2173 Clouds 14 1012 87 10000 3.13 80 22:25 24.02.2021
2174 Clouds 17 1015 79 10000 2.45 40 21:45 24.02.2021
2175 Clouds 17 1016 79 10000 2.97 45 20:59 24.02.2021
2176 Clouds 20 1019 73 10000 2.96 45 20:40 24.02.2021
2177 Clouds 18 1015 79 10000 3.79 53 20:20 24.02.2021
2178 Rain 16 1010 87 10000 3.58 103 19:29 24.02.2021
2179 Rain 16 1010 88 10000 1.79 102 18:59 24.02.2021
2180 Rain 16 1010 88 10000 2.68 111 18:39 24.02.2021
2181 Rain 16 1010 88 10000 3.13 103 18:21 24.02.2021
2182 Rain 16 1009 89 10000 3.13 97 17:37 24.02.2021
2183 Rain 16 1009 90 10000 3.13 96 17:18 24.02.2021
2184 Rain 16 1009 92 10000 0.89 109 16:43 24.02.2021
2185 Rain 16 1009 92 10000 5.5 59 16:19 24.02.2021
2186 Rain 16 1008 93 10000 5.53 58 15:40 24.02.2021
2187 Clouds 24 1009 47 10000 4.54 63 14:55 24.02.2021
2188 Clouds 25 1018 53 10000 4.12 90 14:35 24.02.2021
2189 Clouds 25 1018 53 10000 4.12 90 13:58 24.02.2021
2190 Clouds 25 1018 50 10000 2.57 50 13:39 24.02.2021
2191 Clouds 25 1018 50 10000 2.57 50 13:21 24.02.2021
2192 Clouds 23 1009 54 10000 0.45 215 12:44 24.02.2021
2193 Clouds 24 1009 48 10000 3.93 59 12:23 24.02.2021
2194 Clouds 23 1010 51 10000 3.93 59 11:46 24.02.2021
2195 Clouds 22 1011 54 10000 0.45 203 10:52 24.02.2021
2196 Clouds 21 1011 53 10000 1.79 202 10:30 24.02.2021
2197 Clouds 19 1012 62 10000 0.45 171 09:44 24.02.2021
2198 Clouds 19 1013 59 10000 3.28 51 09:20 24.02.2021
2199 Clouds 19 1013 57 10000 0.89 79 08:34 24.02.2021
2200 Clouds 19 1013 55 10000 2.94 48 07:57 24.02.2021
2201 Clouds 18 1013 55 10000 2.68 57 07:20 24.02.2021
2202 Clouds 15 1012 67 10000 1.62 43 06:31 24.02.2021
2203 Clear 17 1018 94 10000 1.26 25 03:31 24.02.2021
2204 Clouds 14 1011 86 10000 0.89 99 00:26 24.02.2021
2205 Clouds 14 1011 86 10000 3.58 84 23:24 23.02.2021
2206 Clouds 14 1012 87 10000 4.92 110 22:40 23.02.2021
2207 Clouds 15 1012 87 10000 3.58 89 22:19 23.02.2021
2208 Clouds 18 1016 76 10000 3.65 52 21:44 23.02.2021
2209 Clouds 18 1016 75 10000 4.36 58 21:22 23.02.2021
2210 Clouds 18 1016 75 10000 4.36 58 20:48 23.02.2021
2211 Rain 16 1012 87 10000 4.02 111 20:29 23.02.2021
2212 Rain 16 1012 86 10000 2.68 94 19:48 23.02.2021
2213 Rain 16 1012 86 10000 3.58 98 19:27 23.02.2021
2214 Rain 16 1011 85 10000 1.79 80 18:56 23.02.2021
2215 Rain 17 1011 84 10000 2.68 82 18:32 23.02.2021
2216 Rain 17 1010 87 10000 2.68 108 17:54 23.02.2021
2217 Rain 17 1010 87 10000 3.58 107 17:33 23.02.2021
2218 Clouds 17 1010 83 10000 3.58 121 16:56 23.02.2021
2219 Clouds 17 1010 85 10000 3.13 109 16:28 23.02.2021
2220 Clouds 18 1010 81 10000 2.24 98 15:58 23.02.2021
2221 Clouds 23 1010 50 10000 3.7 67 15:38 23.02.2021
2222 Clouds 25 1009 44 10000 2.79 63 15:18 23.02.2021
2223 Clouds 25 1009 44 10000 2.79 63 14:43 23.02.2021
2224 Clouds 25 1009 44 10000 2.33 55 14:25 23.02.2021
2225 Clouds 25 1009 44 10000 2.33 55 13:44 23.02.2021
2226 Clouds 25 1018 50 10000 5.14 110 13:26 23.02.2021
2227 Rain 25 1018 50 10000 5.14 110 12:51 23.02.2021
2228 Clouds 25 1019 53 10000 2.57 70 12:20 23.02.2021
2229 Clouds 25 1019 53 10000 2.57 70 11:48 23.02.2021
2230 Clouds 22 1012 67 10000 0.45 68 11:22 23.02.2021
2231 Clouds 22 1013 66 10000 1.34 69 10:51 23.02.2021
2232 Clouds 20 1014 67 10000 2.94 46 10:32 23.02.2021
2233 Clouds 20 1015 73 10000 0.45 71 09:45 23.02.2021
2234 Clouds 19 1015 74 10000 0.89 71 09:25 23.02.2021
2235 Clouds 18 1016 76 10000 0.45 73 08:51 23.02.2021
2236 Clouds 16 1016 85 10000 3.43 33 08:24 23.02.2021
2237 Clouds 15 1016 86 10000 3.43 33 07:58 23.02.2021
2238 Clouds 12 1015 95 10000 0.89 28 05:40 23.02.2021
2239 Clouds 11 1014 95 10000 0.89 11 04:58 23.02.2021
2240 Clouds 11 1013 95 10000 1.1 32 02:34 23.02.2021
2241 Rain 12 1013 95 10000 1.64 13 00:20 23.02.2021
2242 Rain 12 1014 95 10000 1.64 13 23:57 22.02.2021
2243 Rain 12 1014 95 10000 0.45 11 23:21 22.02.2021
2244 Rain 12 1015 95 10000 2.01 12 22:41 22.02.2021
2245 Rain 12 1015 95 10000 2.39 23 22:20 22.02.2021
2246 Rain 12 1015 95 10000 2.39 23 21:45 22.02.2021
2247 Rain 12 1015 95 10000 2.86 34 21:23 22.02.2021
2248 Rain 12 1015 95 10000 2.86 34 20:52 22.02.2021
2249 Rain 12 1014 95 10000 3.16 31 20:29 22.02.2021
2250 Rain 12 1014 95 10000 3.19 31 19:54 22.02.2021
2251 Rain 12 1014 95 10000 3.19 31 19:35 22.02.2021
2252 Rain 12 1013 94 10000 4.07 39 18:57 22.02.2021
2253 Rain 12 1013 94 10000 4.07 39 18:39 22.02.2021
2254 Rain 12 1013 95 10000 4.7 50 18:20 22.02.2021
2255 Rain 13 1013 94 10000 4.43 60 17:26 22.02.2021
2256 Rain 13 1013 94 10000 4.43 60 16:55 22.02.2021
2257 Rain 13 1012 94 10000 4.43 60 16:35 22.02.2021
2258 Rain 13 1012 94 7781 4.42 66 15:47 22.02.2021
2259 Rain 17 1018 77 10000 4.63 270 15:28 22.02.2021
2260 Rain 21 1010 69 8849 4.65 73 14:48 22.02.2021
2261 Rain 22 1018 68 10000 5.14 280 14:28 22.02.2021
2262 Rain 23 1010 59 6099 3.9 83 13:47 22.02.2021
2263 Rain 24 1011 54 7660 3.08 76 12:59 22.02.2021
2264 Rain 24 1011 54 7660 3.08 76 12:40 22.02.2021
2265 Rain 24 1011 54 10000 2.97 84 12:20 22.02.2021
2266 Rain 24 1011 54 10000 2.97 84 11:42 22.02.2021
2267 Rain 24 1013 54 10000 3.16 78 11:24 22.02.2021
2268 Rain 24 1013 54 10000 3.16 78 10:46 22.02.2021
2269 Rain 24 1014 55 10000 3.21 69 10:26 22.02.2021
2270 Rain 24 1014 54 10000 3.23 69 09:43 22.02.2021
2271 Rain 23 1015 56 9621 2.39 70 09:25 22.02.2021
2272 Rain 23 1015 56 9621 2.39 70 08:50 22.02.2021
2273 Rain 16 1013 90 10000 1.48 61 08:29 22.02.2021
2274 Rain 16 1014 89 10000 0.45 350 07:57 22.02.2021
2275 Rain 18 1022 94 10000 2.06 190 07:26 22.02.2021
2276 Rain 14 1013 91 10000 0.96 14 06:44 22.02.2021
2277 Rain 17 1020 88 10000 1.07 3 05:42 22.02.2021
2278 Rain 18 1020 94 10000 3.6 200 03:29 22.02.2021
2279 Rain 18 1020 94 10000 2.06 200 02:49 22.02.2021
2280 Rain 13 1012 91 10000 1.12 332 00:45 22.02.2021
2281 Rain 13 1011 91 6252 1.34 334 00:22 22.02.2021
2282 Rain 14 1012 89 6416 1.51 360 23:30 21.02.2021
2283 Rain 14 1012 87 6417 1.5 360 22:51 21.02.2021
2284 Rain 14 1012 85 5379 2.17 36 22:22 21.02.2021
2285 Rain 14 1013 90 5379 2.17 36 21:43 21.02.2021
2286 Rain 19 1021 88 10000 2.57 220 21:24 21.02.2021
2287 Rain 19 1021 88 10000 2.57 220 20:43 21.02.2021
2288 Rain 18 1021 88 10000 4.12 270 20:20 21.02.2021
2289 Rain 18 1021 88 10000 4.12 270 19:51 21.02.2021
2290 Rain 18 1021 88 10000 4.12 270 19:32 21.02.2021
2291 Rain 19 1018 77 10000 2.06 240 18:49 21.02.2021
2292 Rain 19 1018 77 10000 2.06 240 18:25 21.02.2021
2293 Rain 22 1016 64 10000 10.29 210 17:30 21.02.2021
2294 Rain 22 1016 64 10000 10.29 210 16:58 21.02.2021
2295 Rain 24 1016 64 10000 10.29 210 16:39 21.02.2021
2296 Rain 26 1016 53 10000 4.12 330 16:20 21.02.2021
2297 Rain 26 1016 53 10000 4.12 330 15:23 21.02.2021
2298 Rain 27 1016 36 10000 5.14 60 14:56 21.02.2021
2299 Rain 27 1016 36 10000 5.14 60 14:37 21.02.2021
2300 Rain 20 1008 68 10000 4.13 61 13:49 21.02.2021
2301 Rain 26 1018 50 10000 5.14 330 13:28 21.02.2021
2302 Rain 25 1019 47 10000 5.14 120 12:32 21.02.2021
2303 Rain 25 1019 47 10000 5.14 120 11:59 21.02.2021
2304 Rain 25 1019 47 10000 5.14 120 11:40 21.02.2021
2305 Rain 24 1020 53 10000 3.67 61 10:46 21.02.2021
2306 Rain 23 1021 64 10000 2.57 360 10:21 21.02.2021
2307 Rain 23 1021 64 10000 2.57 360 09:43 21.02.2021
2308 Rain 23 1021 64 10000 2.57 360 09:24 21.02.2021
2309 Rain 20 1022 73 10000 2.88 57 08:36 21.02.2021
2310 Rain 19 1022 82 10000 1.54 180 07:57 21.02.2021
2311 Clouds 19 1022 82 10000 1.54 180 07:22 21.02.2021
2312 Clouds 17 1021 88 10000 2.21 31 06:24 21.02.2021
2313 Rain 19 1020 68 10000 1.64 22 02:42 21.02.2021
2314 Rain 20 1020 68 10000 2.12 30 01:22 21.02.2021
2315 Clear 19 1021 77 10000 1.54 60 00:22 21.02.2021
2316 Clear 19 1021 77 10000 1.54 60 23:48 20.02.2021
2317 Clouds 20 1020 73 10000 2.77 43 22:58 20.02.2021
2318 Clouds 21 1020 64 10000 2.73 43 22:34 20.02.2021
2319 Rain 22 1020 64 10000 3.39 50 21:59 20.02.2021
2320 Rain 21 1020 60 10000 3.39 50 21:41 20.02.2021
2321 Clouds 21 1020 60 10000 3.89 48 21:18 20.02.2021
2322 Clouds 21 1020 60 10000 3.89 48 20:40 20.02.2021
2323 Clouds 22 1019 56 10000 4.32 47 20:19 20.02.2021
2324 Clouds 22 1019 56 10000 4.32 47 19:42 20.02.2021
2325 Rain 23 1019 53 10000 4.85 52 18:58 20.02.2021
2326 Rain 23 1019 53 10000 4.85 52 18:37 20.02.2021
2327 Rain 24 1018 50 10000 4.95 61 18:18 20.02.2021
2328 Rain 24 1018 50 10000 4.95 61 17:36 20.02.2021
2329 Clouds 26 1017 44 10000 5.14 70 16:54 20.02.2021
2330 Clouds 27 1016 41 10000 5.14 90 16:27 20.02.2021
2331 Clouds 27 1016 41 10000 5.14 90 15:44 20.02.2021
2332 Clouds 26 1016 44 10000 5.14 90 15:18 20.02.2021
2333 Clouds 26 1016 44 10000 5.14 90 14:43 20.02.2021
2334 Clouds 27 1016 44 10000 5.14 90 14:22 20.02.2021
2335 Clouds 28 1018 39 10000 5.14 90 13:41 20.02.2021
2336 Clouds 27 1018 44 10000 5.14 120 13:22 20.02.2021
2337 Clouds 27 1018 44 10000 5.14 120 12:49 20.02.2021
2338 Clouds 26 1019 44 10000 5.14 50 12:22 20.02.2021
2339 Clouds 26 1019 44 10000 5.14 50 11:42 20.02.2021
2340 Clouds 25 1021 50 10000 5.14 60 11:23 20.02.2021
2341 Clouds 25 1021 50 10000 5.14 60 10:43 20.02.2021
2342 Clouds 24 1021 53 10000 4.12 60 09:50 20.02.2021
2343 Clouds 23 1021 56 10000 2.57 60 09:20 20.02.2021
2344 Clouds 23 1021 56 10000 2.57 60 08:34 20.02.2021
2345 Clouds 20 1021 68 10000 5.14 90 07:55 20.02.2021
2346 Clouds 18 1020 68 10000 2 27 02:46 20.02.2021
2347 Clouds 18 1020 68 10000 2.57 80 02:22 20.02.2021
2348 Clouds 18 1020 68 10000 2.57 80 01:47 20.02.2021
2349 Clouds 19 1021 55 10000 3.52 54 00:45 20.02.2021
2350 Clouds 18 1015 62 10000 4.2 61 23:46 19.02.2021
2351 Clouds 19 1015 58 10000 4.21 73 22:56 19.02.2021
2352 Clouds 16 1010 67 10000 4.02 80 22:27 19.02.2021
2353 Clouds 16 1011 65 10000 3.58 118 21:50 19.02.2021
2354 Clear 22 1020 43 10000 4.77 68 21:30 19.02.2021
2355 Clear 22 1020 43 10000 4.77 68 20:48 19.02.2021
2356 Clear 22 1020 38 10000 4.65 75 20:28 19.02.2021
2357 Clear 22 1020 38 10000 4.65 75 19:55 19.02.2021
2358 Clear 22 1020 38 10000 4.56 92 19:27 19.02.2021
2359 Clouds 24 1019 33 10000 4.58 91 18:56 19.02.2021
2360 Clouds 24 1019 33 10000 4.5 92 18:33 19.02.2021
2361 Clouds 25 1018 27 10000 3.6 80 17:51 19.02.2021
2362 Clouds 27 1018 22 10000 2.57 90 16:53 19.02.2021
2363 Clouds 27 1018 22 10000 2.57 90 16:28 19.02.2021
2364 Clouds 27 1017 22 10000 5.14 110 15:58 19.02.2021
2365 Clouds 27 1017 22 10000 5.14 110 15:31 19.02.2021
2366 Clouds 28 1017 24 10000 5.14 80 14:59 19.02.2021
2367 Clouds 28 1017 24 10000 5.14 80 14:38 19.02.2021
2368 Clouds 28 1018 23 10000 3.09 70 14:18 19.02.2021
2369 Clouds 28 1018 23 10000 3.09 70 13:42 19.02.2021
2370 Clouds 28 1019 24 10000 5.14 90 13:24 19.02.2021
2371 Clouds 28 1019 24 10000 5.14 90 12:42 19.02.2021
2372 Clouds 28 1019 24 10000 5.14 90 12:23 19.02.2021
2373 Clouds 27 1019 24 10000 3.6 80 11:51 19.02.2021
2374 Clouds 27 1019 24 10000 3.6 80 11:23 19.02.2021
2375 Clouds 26 1020 27 10000 5.14 60 10:50 19.02.2021
2376 Clouds 25 1020 27 10000 5.14 60 10:22 19.02.2021
2377 Clouds 24 1021 46 10000 2.57 90 09:47 19.02.2021
2378 Clouds 23 1021 53 10000 4.12 40 09:25 19.02.2021
2379 Clouds 23 1021 53 10000 4.12 40 08:50 19.02.2021
2380 Clouds 20 1021 64 10000 5.14 20 08:24 19.02.2021
2381 Clouds 20 1021 64 10000 5.14 20 07:48 19.02.2021
2382 Clouds 19 1021 64 10000 5.14 20 07:29 19.02.2021
2383 Clouds 18 1021 72 10000 2.57 20 06:53 19.02.2021
2384 Clear 15 1020 82 10000 1.48 13 05:28 19.02.2021
2385 Clear 15 1019 82 10000 1.71 27 04:41 19.02.2021
2386 Clear 15 1020 82 10000 1.48 13 04:41 19.02.2021
2387 Clear 16 1019 82 10000 2.11 50 01:47 19.02.2021
2388 Clear 18 1019 68 10000 2.13 51 00:37 19.02.2021
2389 Clear 18 1020 68 10000 3.6 30 23:56 18.02.2021
2390 Clear 18 1020 68 10000 3.6 30 23:35 18.02.2021
2391 Clear 18 1021 68 10000 2.57 40 22:50 18.02.2021
2392 Clear 19 1021 68 10000 2.57 40 22:30 18.02.2021
2393 Clear 19 1020 60 10000 2.57 80 21:51 18.02.2021
2394 Clear 20 1020 60 10000 2.57 80 21:25 18.02.2021
2395 Clear 20 1020 60 10000 2.57 80 20:44 18.02.2021
2396 Clear 21 1019 52 10000 5.14 90 20:24 18.02.2021
2397 Clear 21 1019 52 10000 5.14 90 19:48 18.02.2021
2398 Clear 21 1019 52 10000 5.14 90 19:28 18.02.2021
2399 Clouds 24 1018 33 10000 4.12 100 18:55 18.02.2021
2400 Clouds 24 1018 33 10000 4.12 100 18:32 18.02.2021
2401 Clouds 24 1018 31 10000 5.14 80 17:59 18.02.2021
2402 Clouds 24 1018 31 10000 5.14 80 17:41 18.02.2021
2403 Clouds 26 1018 31 10000 6.17 60 17:19 18.02.2021
2404 Clouds 26 1018 31 10000 6.17 60 16:41 18.02.2021
2405 Clouds 27 1017 24 10000 6.17 60 16:21 18.02.2021
2406 Clouds 27 1017 24 10000 6.17 60 15:39 18.02.2021
2407 Clouds 27 1017 29 10000 6.17 90 15:21 18.02.2021
2408 Clouds 27 1017 29 10000 6.17 90 14:49 18.02.2021
2409 Clouds 27 1017 29 10000 6.17 90 14:29 18.02.2021
2410 Clouds 27 1018 21 10000 10.29 90 13:46 18.02.2021
2411 Clouds 26 1019 25 10000 4.12 90 13:20 18.02.2021
2412 Clouds 26 1019 25 10000 4.12 90 12:47 18.02.2021
2413 Clouds 26 1019 25 10000 4.12 90 12:23 18.02.2021
2414 Clouds 26 1020 27 10000 7.2 90 11:46 18.02.2021
2415 Clouds 26 1020 27 10000 7.2 90 11:27 18.02.2021
2416 Clouds 25 1020 33 10000 6.17 70 10:48 18.02.2021
2417 Clouds 25 1020 33 10000 6.17 70 10:29 18.02.2021
2418 Clear 24 1020 43 10000 5.14 90 09:50 18.02.2021
2419 Clear 23 1020 43 10000 5.14 90 09:24 18.02.2021
2420 Clouds 22 1021 60 10000 3.6 60 08:48 18.02.2021
2421 Clear 20 1021 64 10000 5.14 60 08:25 18.02.2021
2422 Clear 20 1021 64 10000 5.14 60 07:35 18.02.2021
2423 Clouds 18 1020 77 10000 3.28 40 06:58 18.02.2021
2424 Clear 16 1020 88 10000 2.57 20 03:52 18.02.2021
2425 Clear 16 1020 88 10000 2.57 20 03:52 18.02.2021
2426 Clouds 14 1008 80 10000 4.47 65 23:56 17.02.2021
2427 Clear 19 1019 68 10000 3.73 49 23:30 17.02.2021
2428 Clear 19 1019 68 10000 3.69 49 22:54 17.02.2021
2429 Clear 19 1019 64 10000 4.45 52 22:27 17.02.2021
2430 Clouds 15 1009 79 10000 4.92 82 21:57 17.02.2021
2431 Clouds 15 1009 79 10000 4.92 82 21:23 17.02.2021
2432 Clouds 16 1009 78 10000 4.47 100 20:53 17.02.2021
2433 Clouds 20 1018 60 10000 4.12 60 20:33 17.02.2021
2434 Clouds 20 1018 60 10000 4.12 60 19:52 17.02.2021
2435 Clouds 20 1018 60 10000 4.12 60 19:34 17.02.2021
2436 Clouds 22 1018 53 10000 4.12 60 18:50 17.02.2021
2437 Clouds 23 1018 53 10000 4.12 60 18:31 17.02.2021
2438 Clouds 23 1017 49 10000 10 90 17:46 17.02.2021
2439 Clouds 25 1016 38 10000 7.72 90 17:21 17.02.2021
2440 Clouds 25 1016 38 10000 7.72 90 16:50 17.02.2021
2441 Clouds 25 1016 38 10000 7.72 90 16:29 17.02.2021
2442 Clouds 26 1016 41 10000 5.14 90 15:46 17.02.2021
2443 Clouds 26 1016 41 10000 5.14 90 15:27 17.02.2021
2444 Clouds 27 1016 32 10000 5.14 120 14:51 17.02.2021
2445 Clouds 27 1016 32 10000 5.14 120 14:29 17.02.2021
2446 Clouds 27 1017 32 10000 5.14 60 13:52 17.02.2021
2447 Clouds 27 1017 32 10000 5.14 60 13:33 17.02.2021
2448 Clouds 27 1018 34 10000 5.14 50 12:58 17.02.2021
2449 Clouds 27 1018 34 10000 5.14 50 12:26 17.02.2021
2450 Clouds 23 1008 53 10000 5.74 65 11:48 17.02.2021
2451 Clouds 24 1020 46 10000 4.12 90 11:29 17.02.2021
2452 Clouds 24 1020 46 10000 4.12 90 10:56 17.02.2021
2453 Clouds 24 1020 46 10000 4.12 90 10:38 17.02.2021
2454 Clouds 24 1020 53 10000 5.14 90 10:19 17.02.2021
2455 Clouds 23 1020 53 10000 5.14 90 09:38 17.02.2021
2456 Clear 22 1021 60 10000 5.14 50 08:56 17.02.2021
2457 Clear 22 1021 60 10000 5.14 50 08:36 17.02.2021
2458 Clear 20 1021 64 10000 3.6 50 08:18 17.02.2021
2459 Clear 17 1020 82 10000 2.3 55 06:37 17.02.2021
2460 Clear 17 1020 82 10000 2.3 55 06:37 17.02.2021
2461 Clear 16 1019 88 10000 2.06 330 03:53 17.02.2021
2462 Clear 17 1017 77 10000 2.57 60 02:32 17.02.2021
2463 Clear 17 1017 77 10000 2.57 60 01:36 17.02.2021
2464 Clear 18 1018 72 10000 3.6 60 00:28 17.02.2021
2465 Clear 19 1018 72 10000 3.6 60 23:39 16.02.2021
2466 Clear 19 1019 72 10000 3.6 80 22:58 16.02.2021
2467 Clear 19 1019 72 10000 3.6 80 22:39 16.02.2021
2468 Clear 20 1019 68 10000 3.68 58 22:21 16.02.2021
2469 Clear 20 1019 68 10000 3.68 58 21:40 16.02.2021
2470 Clear 20 1019 68 10000 4.23 61 21:22 16.02.2021
2471 Clear 21 1019 64 10000 4.12 50 20:57 16.02.2021
2472 Clear 21 1019 64 10000 4.12 50 20:38 16.02.2021
2473 Clear 21 1018 56 10000 2.57 80 20:19 16.02.2021
2474 Clear 21 1018 56 10000 2.57 80 19:39 16.02.2021
2475 Clouds 22 1018 53 10000 2.57 70 19:20 16.02.2021
2476 Clouds 22 1018 53 10000 2.57 70 18:38 16.02.2021
2477 Clouds 24 1016 43 10000 6.17 90 18:19 16.02.2021
2478 Clouds 24 1016 43 10000 6.17 90 17:48 16.02.2021
2479 Clouds 24 1016 43 10000 6.17 90 17:23 16.02.2021
2480 Clouds 25 1016 38 10000 5.14 60 16:45 16.02.2021
2481 Clouds 25 1016 38 10000 5.14 60 16:24 16.02.2021
2482 Clouds 26 1015 41 10000 7.72 60 15:44 16.02.2021
2483 Clouds 26 1015 41 10000 7.72 60 15:26 16.02.2021
2484 Clouds 26 1016 44 10000 6.69 70 14:47 16.02.2021
2485 Clouds 26 1016 44 10000 6.69 70 14:28 16.02.2021
2486 Clouds 26 1016 41 10000 5.14 60 13:53 16.02.2021
2487 Clouds 26 1016 41 10000 5.14 60 13:30 16.02.2021
2488 Clouds 27 1017 34 10000 7.72 120 12:44 16.02.2021
2489 Clouds 25 1018 44 10000 4.12 80 12:22 16.02.2021
2490 Clouds 25 1018 44 10000 4.12 80 11:49 16.02.2021
2491 Clouds 24 1019 50 10000 4.63 60 11:23 16.02.2021
2492 Clouds 24 1019 50 10000 4.63 60 10:54 16.02.2021
2493 Clouds 24 1019 50 10000 4.63 60 10:36 16.02.2021
2494 Clouds 23 1020 56 10000 4.12 50 10:18 16.02.2021
2495 Clouds 23 1020 56 10000 4.12 50 09:44 16.02.2021
2496 Clouds 23 1020 56 10000 4.12 50 09:25 16.02.2021
2497 Clouds 22 1020 60 10000 3.6 60 08:42 16.02.2021
2498 Clouds 20 1020 68 10000 5.14 30 08:19 16.02.2021
2499 Clouds 19 1019 68 10000 5.14 60 07:21 16.02.2021
2500 Clouds 17 1017 82 10000 2.57 30 04:39 16.02.2021
2501 Clouds 14 1006 86 10000 3.13 61 00:45 16.02.2021
2502 Clouds 20 1020 73 10000 2.06 70 23:39 15.02.2021
2503 Clouds 20 1020 73 10000 2.06 70 23:20 15.02.2021
2504 Clouds 20 1020 73 10000 2.06 70 22:43 15.02.2021
2505 Clouds 20 1019 73 10000 3.09 70 22:20 15.02.2021
2506 Clouds 20 1019 73 10000 3.09 70 21:38 15.02.2021
2507 Clouds 21 1018 64 10000 3.09 50 21:20 15.02.2021
2508 Clouds 21 1018 64 10000 3.09 50 20:45 15.02.2021
2509 Clouds 21 1018 64 10000 3.09 50 20:45 15.02.2021
2510 Clouds 21 1018 64 10000 3.09 50 20:26 15.02.2021
2511 Clouds 22 1017 60 10000 4.12 70 19:44 15.02.2021
2512 Clouds 22 1017 60 10000 4.12 90 19:23 15.02.2021
2513 Clouds 22 1017 60 10000 4.12 90 18:46 15.02.2021
2514 Clouds 22 1017 60 10000 4.12 90 18:26 15.02.2021
2515 Clouds 23 1016 53 10000 5.14 90 17:42 15.02.2021
2516 Clouds 24 1016 53 10000 5.14 90 17:24 15.02.2021
2517 Clouds 25 1016 53 10000 5.14 50 16:55 15.02.2021
2518 Clouds 25 1016 53 10000 5.14 50 16:27 15.02.2021
2519 Clouds 26 1016 50 10000 4.12 70 15:51 15.02.2021
2520 Clouds 27 1016 44 10000 6.17 90 15:23 15.02.2021
2521 Clouds 27 1016 44 10000 6.17 90 14:55 15.02.2021
2522 Clouds 27 1016 44 10000 6.17 90 14:36 15.02.2021
2523 Clouds 26 1016 38 10000 7.2 90 14:18 15.02.2021
2524 Clouds 26 1016 38 10000 7.2 90 13:45 15.02.2021
2525 Clouds 25 1018 57 10000 4.12 50 13:18 15.02.2021
2526 Clouds 25 1018 57 10000 4.12 50 12:43 15.02.2021
2527 Clouds 23 1007 61 10000 5.78 64 12:19 15.02.2021
2528 Clouds 23 1008 61 10000 5.78 64 11:42 15.02.2021
2529 Clouds 23 1008 56 10000 3.13 327 11:19 15.02.2021
2530 Clouds 22 1009 52 10000 0.45 328 10:46 15.02.2021
2531 Clouds 23 1009 52 10000 1.34 328 10:23 15.02.2021
2532 Clouds 22 1010 54 10000 0.89 329 09:54 15.02.2021
2533 Clouds 22 1021 68 10000 5.14 30 09:33 15.02.2021
2534 Clouds 22 1021 68 10000 5.14 30 08:44 15.02.2021
2535 Clouds 20 1021 77 10000 5.14 70 07:39 15.02.2021
2536 Clouds 19 1020 82 10000 4.12 70 06:53 15.02.2021
2537 Clouds 19 1020 82 10000 4.12 70 06:34 15.02.2021
2538 Clouds 17 1019 94 10000 2.25 34 02:29 15.02.2021
2539 Clouds 17 1013 79 10000 2.58 37 00:41 15.02.2021
2540 Clouds 16 1010 85 10000 3.58 63 23:33 14.02.2021
2541 Clouds 17 1015 86 10000 3.56 33 22:55 14.02.2021
2542 Clouds 17 1021 82 10000 3.56 33 22:36 14.02.2021
2543 Clouds 17 1021 82 10000 4.06 35 22:18 14.02.2021
2544 Clouds 16 1012 85 10000 3.58 81 21:47 14.02.2021
2545 Rain 18 1020 82 10000 5.14 50 21:28 14.02.2021
2546 Rain 18 1020 82 10000 5.14 50 20:42 14.02.2021
2547 Rain 18 1020 88 10000 4.12 90 20:22 14.02.2021
2548 Rain 18 1020 88 10000 4.12 90 19:46 14.02.2021
2549 Rain 17 1014 87 10000 6.18 73 18:51 14.02.2021
2550 Rain 22 1019 68 10000 6.69 80 18:29 14.02.2021
2551 Rain 22 1019 68 10000 6.69 80 17:56 14.02.2021
2552 Rain 23 1017 46 10000 3.09 30 17:35 14.02.2021
2553 Rain 24 1017 46 10000 3.09 30 16:52 14.02.2021
2554 Rain 24 1017 46 10000 3.09 30 16:26 14.02.2021
2555 Rain 24 1017 50 10000 5.14 70 15:49 14.02.2021
2556 Rain 24 1017 50 10000 5.14 70 15:30 14.02.2021
2557 Rain 25 1017 47 10000 4.12 90 14:48 14.02.2021
2558 Clouds 25 1017 47 10000 4.12 90 14:26 14.02.2021
2559 Clouds 25 1018 53 10000 4.12 140 13:48 14.02.2021
2560 Rain 25 1018 53 10000 4.12 140 13:27 14.02.2021
2561 Rain 25 1019 47 10000 1.89 90 12:38 14.02.2021
2562 Rain 21 1021 60 10000 2.21 98 12:18 14.02.2021
2563 Rain 21 1021 60 10000 2.21 98 11:47 14.02.2021
2564 Rain 21 1021 60 10000 4.12 190 11:20 14.02.2021
2565 Rain 21 1021 60 10000 4.12 190 10:34 14.02.2021
2566 Rain 19 1021 77 10000 0.82 90 09:54 14.02.2021
2567 Rain 19 1021 77 10000 0.82 90 09:36 14.02.2021
2568 Rain 17 1021 88 10000 5.14 300 09:18 14.02.2021
2569 Rain 16 1021 94 10000 4.12 290 08:21 14.02.2021
2570 Rain 16 1021 94 10000 4.12 290 07:48 14.02.2021
2571 Rain 16 1021 94 8000 4.12 290 06:26 14.02.2021
2572 Rain 16 1021 94 8000 4.12 300 04:35 14.02.2021
2573 Rain 12 1013 95 10000 1.98 56 02:50 14.02.2021
2574 Rain 16 1020 94 10000 3.09 300 01:29 14.02.2021
2575 Rain 13 1012 94 10000 2.57 36 00:42 14.02.2021
2576 Rain 13 1012 94 10000 3.01 46 23:58 13.02.2021
2577 Rain 16 1021 94 10000 5.14 310 23:25 13.02.2021
2578 Rain 16 1021 94 10000 5.14 310 22:59 13.02.2021
2579 Rain 17 1021 94 10000 5.14 310 22:26 13.02.2021
2580 Rain 19 1020 77 10000 5.14 70 21:49 13.02.2021
2581 Rain 19 1020 77 10000 5.14 70 21:27 13.02.2021
2582 Rain 21 1018 73 10000 3.21 47 20:45 13.02.2021
2583 Rain 21 1018 73 10000 3.24 45 20:27 13.02.2021
2584 Rain 21 1018 73 10000 3.24 45 19:48 13.02.2021
2585 Rain 21 1018 73 10000 3.24 45 19:48 13.02.2021
2586 Rain 21 1019 78 10000 3.75 45 19:24 13.02.2021
2587 Rain 21 1019 78 10000 3.75 45 18:50 13.02.2021
2588 Rain 21 1019 78 10000 4.19 43 18:27 13.02.2021
2589 Rain 21 1018 73 10000 4.19 43 17:44 13.02.2021
2590 Rain 21 1018 73 10000 4.07 48 17:25 13.02.2021
2591 Rain 22 1018 68 10000 3.6 80 16:53 13.02.2021
2592 Rain 23 1016 64 10000 5.14 110 16:35 13.02.2021
2593 Rain 23 1016 64 10000 5.14 110 15:45 13.02.2021
2594 Rain 23 1016 64 10000 6.17 60 15:26 13.02.2021
2595 Rain 23 1016 64 10000 6.17 60 15:26 13.02.2021
2596 Rain 23 1016 64 10000 6.17 60 14:41 13.02.2021
2597 Rain 23 1017 64 10000 5.14 70 13:50 13.02.2021
2598 Rain 23 1017 64 10000 5.14 70 13:28 13.02.2021
2599 Rain 23 1018 64 10000 5.14 70 12:57 13.02.2021
2600 Rain 22 1020 68 10000 2.57 70 12:21 13.02.2021
2601 Rain 22 1020 68 10000 2.57 70 11:58 13.02.2021
2602 Rain 22 1020 68 10000 2.57 70 11:39 13.02.2021
2603 Rain 22 1021 68 10000 6.17 90 11:18 13.02.2021
2604 Rain 22 1021 68 10000 6.17 90 10:43 13.02.2021
2605 Rain 20 1021 88 10000 3.09 110 10:22 13.02.2021
2606 Rain 20 1021 88 10000 3.09 110 09:46 13.02.2021
2607 Rain 20 1021 88 10000 3.09 110 09:28 13.02.2021
2608 Rain 19 1021 88 10000 2.06 130 08:47 13.02.2021
2609 Rain 19 1021 82 10000 0.39 111 08:18 13.02.2021
2610 Rain 18 1020 88 8000 1.02 112 06:59 13.02.2021
2611 Rain 18 1020 88 8000 1.33 80 06:24 13.02.2021
2612 Rain 17 1019 94 10000 1.74 77 04:31 13.02.2021
2613 Rain 18 1018 88 10000 2.18 67 02:37 13.02.2021
2614 Rain 18 1020 94 10000 4.12 80 00:54 13.02.2021
2615 Rain 18 1020 94 10000 4.12 80 00:54 13.02.2021
2616 Rain 19 1020 88 10000 2.06 110 00:18 13.02.2021
2617 Rain 19 1020 88 10000 2.06 110 23:44 12.02.2021
2618 Rain 19 1020 88 10000 3.62 76 23:18 12.02.2021
2619 Rain 19 1020 88 10000 4.34 78 22:32 12.02.2021
2620 Rain 22 1020 73 10000 4.37 77 21:58 12.02.2021
2621 Rain 22 1020 73 10000 4.37 77 21:38 12.02.2021
2622 Rain 16 1011 87 7449 2.68 116 21:20 12.02.2021
2623 Rain 21 1018 73 10000 4.4 74 20:40 12.02.2021
2624 Rain 21 1018 73 10000 4.11 66 20:21 12.02.2021
2625 Rain 21 1018 73 10000 4.12 65 19:49 12.02.2021
2626 Rain 21 1018 73 10000 3.79 73 19:27 12.02.2021
2627 Rain 22 1017 78 10000 4.12 30 18:32 12.02.2021
2628 Rain 22 1017 78 10000 4.12 30 17:53 12.02.2021
2629 Rain 22 1017 78 10000 4.12 30 17:35 12.02.2021
2630 Rain 23 1015 64 10000 5.14 20 16:44 12.02.2021
2631 Rain 24 1015 57 10000 5.14 60 16:18 12.02.2021
2632 Rain 24 1015 57 10000 5.14 60 15:41 12.02.2021
2633 Rain 17 1007 87 10000 2.71 49 15:19 12.02.2021
2634 Rain 19 1007 76 10000 2.24 85 14:34 12.02.2021
2635 Rain 19 1007 76 10000 1.79 107 13:48 12.02.2021
2636 Rain 20 1007 77 10000 0.89 90 13:29 12.02.2021
2637 Rain 25 1009 48 10000 4.25 72 12:53 12.02.2021
2638 Rain 19 1008 78 10000 1.34 75 12:35 12.02.2021
2639 Rain 19 1009 80 10000 0.45 95 11:47 12.02.2021
2640 Rain 18 1010 80 10000 0.45 95 11:21 12.02.2021
2641 Rain 19 1010 79 10000 0.45 95 10:48 12.02.2021
2642 Clouds 20 1011 78 10000 3.38 65 09:59 12.02.2021
2643 Clouds 21 1020 73 10000 3.38 65 09:39 12.02.2021
2644 Clouds 21 1020 73 10000 2.71 57 09:21 12.02.2021
2645 Clouds 21 1020 73 10000 2.71 57 08:44 12.02.2021
2646 Clouds 18 1020 88 10000 1.75 61 08:21 12.02.2021
2647 Clouds 18 1020 88 10000 1.75 61 07:51 12.02.2021
2648 Clouds 18 1020 88 10000 0.99 65 07:21 12.02.2021
2649 Clouds 17 1020 94 10000 0.41 34 06:18 12.02.2021
2650 Clouds 17 1020 94 10000 0.39 296 05:27 12.02.2021
2651 Rain 18 1019 94 10000 1.03 250 03:32 12.02.2021
2652 Clouds 19 1019 88 10000 1.96 45 00:28 12.02.2021
2653 Rain 19 1020 82 10000 2.1 42 23:23 11.02.2021
2654 Rain 19 1020 82 10000 2.1 42 22:59 11.02.2021
2655 Clouds 19 1020 82 10000 2.09 41 22:41 11.02.2021
2656 Rain 19 1020 88 10000 2.2 37 22:21 11.02.2021
2657 Rain 19 1020 88 10000 2.2 37 21:43 11.02.2021
2658 Rain 20 1020 77 10000 2.49 38 21:24 11.02.2021
2659 Rain 20 1020 77 10000 2.49 38 20:47 11.02.2021
2660 Rain 20 1019 77 10000 2.57 70 20:23 11.02.2021
2661 Rain 20 1019 77 10000 2.57 70 19:52 11.02.2021
2662 Rain 14 1012 95 10000 3.54 59 19:34 11.02.2021
2663 Rain 14 1011 94 10000 4.28 52 18:59 11.02.2021
2664 Rain 15 1011 94 10000 4.26 53 18:37 11.02.2021
2665 Rain 15 1011 94 9755 4.17 55 18:18 11.02.2021
2666 Rain 23 1017 56 10000 2.57 120 17:39 11.02.2021
2667 Rain 23 1017 56 10000 2.57 120 17:19 11.02.2021
2668 Rain 23 1017 56 10000 2.57 120 16:42 11.02.2021
2669 Rain 24 1016 53 10000 3.09 120 16:24 11.02.2021
2670 Rain 24 1016 53 10000 3.09 120 15:45 11.02.2021
2671 Rain 24 1016 53 10000 3.09 120 15:26 11.02.2021
2672 Rain 23 1017 60 10000 4.12 90 14:53 11.02.2021
2673 Rain 23 1018 53 10000 2.05 101 14:30 11.02.2021
2674 Rain 23 1018 53 10000 2.05 101 13:42 11.02.2021
2675 Clouds 23 1019 60 10000 2.3 94 13:19 11.02.2021
2676 Clouds 23 1019 60 10000 2.3 94 12:56 11.02.2021
2677 Clouds 23 1019 60 10000 2.35 93 12:32 11.02.2021
2678 Clouds 21 1020 60 10000 3.01 88 11:47 11.02.2021
2679 Clouds 20 1021 64 10000 3.21 80 11:27 11.02.2021
2680 Clouds 20 1021 64 10000 3.2 80 10:45 11.02.2021
2681 Clouds 20 1022 73 10000 2.06 150 10:26 11.02.2021
2682 Clouds 20 1022 73 10000 2.06 150 09:56 11.02.2021
2683 Clouds 21 1021 60 10000 3.6 150 09:26 11.02.2021
2684 Clouds 21 1021 60 10000 3.6 150 08:55 11.02.2021
2685 Clouds 21 1021 60 10000 3.6 150 08:31 11.02.2021
2686 Clouds 20 1021 68 10000 3 68 07:42 11.02.2021
2687 Clouds 15 1013 85 10000 0.45 139 06:43 11.02.2021
2688 Clouds 14 1012 86 10000 1.92 27 05:54 11.02.2021
2689 Clouds 14 1010 87 10000 2.68 78 02:49 11.02.2021
2690 Clouds 18 1018 82 10000 1.25 33 02:21 11.02.2021
2691 Clouds 14 1010 88 10000 4.02 107 00:23 11.02.2021
2692 Clouds 14 1011 88 10000 4.47 98 23:47 10.02.2021
2693 Clouds 19 1021 77 10000 2.57 40 23:19 10.02.2021
2694 Clouds 19 1021 77 10000 2.57 40 22:43 10.02.2021
2695 Clouds 19 1020 77 10000 2.57 60 22:23 10.02.2021
2696 Clouds 19 1020 77 10000 2.57 60 21:39 10.02.2021
2697 Clouds 19 1019 77 10000 5.14 60 21:20 10.02.2021
2698 Clouds 19 1019 77 10000 5.14 60 20:50 10.02.2021
2699 Clouds 19 1019 77 10000 5.14 60 20:28 10.02.2021
2700 Clouds 20 1019 73 10000 5.14 60 19:50 10.02.2021
2701 Clouds 20 1019 73 10000 5.14 60 19:27 10.02.2021
2702 Clouds 20 1018 77 10000 5.14 30 18:48 10.02.2021
2703 Clouds 20 1018 77 10000 5.14 30 18:26 10.02.2021
2704 Clouds 20 1017 77 10000 7.72 20 17:59 10.02.2021
2705 Clouds 20 1017 77 10000 7.72 20 17:26 10.02.2021
2706 Clouds 22 1016 64 10000 5.14 70 16:59 10.02.2021
2707 Clouds 22 1016 64 10000 5.14 70 16:41 10.02.2021
2708 Clouds 22 1016 64 10000 5.14 70 16:22 10.02.2021
2709 Rain 23 1016 60 10000 5.14 90 15:24 10.02.2021
2710 Rain 23 1016 60 10000 5.14 70 14:53 10.02.2021
2711 Rain 23 1016 60 10000 5.14 70 14:34 10.02.2021
2712 Rain 24 1016 53 10000 7.2 60 13:55 10.02.2021
2713 Clouds 23 1018 56 10000 7.72 90 13:30 10.02.2021
2714 Clouds 23 1018 56 10000 7.72 90 12:54 10.02.2021
2715 Clouds 23 1018 56 10000 7.72 90 12:31 10.02.2021
2716 Clouds 22 1019 64 10000 5.14 90 11:59 10.02.2021
2717 Clouds 22 1019 64 10000 5.14 90 11:39 10.02.2021
2718 Clouds 21 1020 68 10000 7.2 60 11:21 10.02.2021
2719 Clouds 21 1021 73 10000 6.69 70 10:25 10.02.2021
2720 Clouds 21 1021 73 10000 6.69 70 09:57 10.02.2021
2721 Clouds 19 1022 82 10000 4.63 60 09:33 10.02.2021
2722 Clouds 19 1022 82 10000 4.63 60 08:57 10.02.2021
2723 Clouds 19 1021 77 10000 3.6 70 08:39 10.02.2021
2724 Clouds 19 1021 77 10000 3.6 70 07:41 10.02.2021
2725 Rain 17 1020 94 10000 2.24 44 06:33 10.02.2021
2726 Rain 17 1020 88 10000 2.57 30 01:56 10.02.2021
2727 Rain 17 1020 94 10000 4.98 36 00:24 10.02.2021
2728 Rain 14 1012 88 9432 4.92 103 23:34 09.02.2021
2729 Rain 14 1012 87 9432 4.47 125 22:54 09.02.2021
2730 Rain 14 1012 86 10000 5.81 75 22:24 09.02.2021
2731 Rain 14 1012 87 10000 4.02 79 21:52 09.02.2021
2732 Rain 19 1021 82 10000 5.14 40 21:27 09.02.2021
2733 Rain 19 1021 82 10000 5.14 40 20:49 09.02.2021
2734 Rain 19 1021 82 10000 5.14 40 20:26 09.02.2021
2735 Rain 20 1019 77 10000 5.14 80 19:58 09.02.2021
2736 Rain 20 1019 77 10000 5.14 80 19:35 09.02.2021
2737 Rain 20 1019 77 10000 7.72 80 18:58 09.02.2021
2738 Rain 20 1019 77 10000 7.72 80 18:58 09.02.2021
2739 Rain 20 1019 77 10000 7.72 80 18:58 09.02.2021
2740 Rain 20 1019 77 10000 7.72 80 18:58 09.02.2021
2741 Rain 20 1019 77 10000 7.72 80 18:36 09.02.2021
2742 Rain 21 1018 68 10000 5.14 90 17:57 09.02.2021
2743 Rain 21 1018 68 10000 5.14 90 17:37 09.02.2021
2744 Rain 21 1017 73 10000 6.69 70 17:18 09.02.2021
2745 Rain 21 1017 73 10000 6.69 70 16:41 09.02.2021
2746 Rain 22 1016 64 10000 6.17 80 16:18 09.02.2021
2747 Rain 22 1016 64 10000 6.17 80 15:48 09.02.2021
2748 Rain 22 1016 64 10000 6.17 80 15:25 09.02.2021
2749 Rain 23 1017 64 10000 6.17 90 14:53 09.02.2021
2750 Clouds 23 1017 64 10000 6.17 90 14:27 09.02.2021
2751 Clouds 24 1017 57 10000 5.14 60 13:51 09.02.2021
2752 Rain 22 1018 60 10000 4.12 90 13:25 09.02.2021
2753 Rain 22 1018 60 10000 4.12 90 12:51 09.02.2021
2754 Rain 22 1018 60 10000 4.12 90 12:32 09.02.2021
2755 Rain 21 1019 68 10000 5.14 90 11:57 09.02.2021
2756 Rain 21 1019 68 10000 5.14 90 11:38 09.02.2021
2757 Clouds 21 1021 68 10000 6.17 70 11:20 09.02.2021
2758 Clouds 21 1021 68 10000 6.17 70 11:20 09.02.2021
2759 Clouds 21 1021 68 10000 6.17 70 10:49 09.02.2021
2760 Clouds 21 1021 68 10000 5.14 40 10:18 09.02.2021
2761 Clouds 21 1021 68 10000 5.14 40 09:43 09.02.2021
2762 Clouds 21 1021 68 10000 5.14 40 09:24 09.02.2021
2763 Clouds 20 1021 77 10000 5.66 60 08:44 09.02.2021
2764 Clouds 20 1021 77 10000 5.66 60 08:25 09.02.2021
2765 Clouds 18 1021 82 10000 2.59 67 06:49 09.02.2021
2766 Clouds 17 1019 94 10000 1.29 15 04:52 09.02.2021
2767 Clouds 17 1018 94 10000 2.57 60 03:38 09.02.2021
2768 Clouds 17 1020 94 10000 2.32 5 00:34 09.02.2021
2769 Clouds 17 1020 94 10000 2.34 6 23:57 08.02.2021
2770 Clouds 17 1020 94 10000 2.7 30 23:21 08.02.2021
2771 Clouds 14 1013 88 10000 2.24 80 22:44 08.02.2021
2772 Clouds 14 1012 87 10000 3.36 41 22:25 08.02.2021
2773 Clouds 14 1013 87 10000 3.39 42 21:57 08.02.2021
2774 Clouds 17 1020 94 10000 2.57 30 21:33 08.02.2021
2775 Rain 17 1020 94 10000 2.57 30 20:59 08.02.2021
2776 Rain 17 1020 94 10000 2.57 30 20:40 08.02.2021
2777 Rain 18 1019 88 10000 2.57 50 20:21 08.02.2021
2778 Rain 18 1019 88 10000 2.57 50 19:44 08.02.2021
2779 Rain 18 1019 88 10000 3.6 30 19:25 08.02.2021
2780 Rain 18 1019 88 10000 3.6 30 18:49 08.02.2021
2781 Rain 19 1019 88 10000 4.12 70 18:24 08.02.2021
2782 Rain 19 1019 88 10000 4.12 70 17:47 08.02.2021
2783 Rain 19 1019 82 10000 5.14 80 17:26 08.02.2021
2784 Rain 19 1019 82 10000 5.14 80 16:47 08.02.2021
2785 Rain 19 1019 82 10000 5.14 80 16:23 08.02.2021
2786 Rain 20 1017 83 10000 3.6 80 15:49 08.02.2021
2787 Rain 20 1017 68 10000 3.09 60 15:21 08.02.2021
2788 Rain 20 1017 68 10000 3.09 60 14:59 08.02.2021
2789 Rain 20 1017 68 10000 3.09 60 14:41 08.02.2021
2790 Rain 21 1018 73 10000 2.43 93 14:22 08.02.2021
2791 Rain 21 1018 73 10000 2.43 93 13:42 08.02.2021
2792 Rain 20 1020 82 10000 3.25 97 13:23 08.02.2021
2793 Rain 20 1020 82 10000 3.25 97 12:38 08.02.2021
2794 Rain 19 1020 82 10000 2.57 90 11:58 08.02.2021
2795 Clouds 19 1020 82 10000 2.57 90 11:32 08.02.2021
2796 Clouds 19 1021 88 10000 3.09 90 10:46 08.02.2021
2797 Clouds 19 1021 88 10000 3.09 90 10:26 08.02.2021
2798 Clouds 18 1021 94 10000 2.57 90 09:55 08.02.2021
2799 Clouds 18 1021 94 10000 2.57 90 09:36 08.02.2021
2800 Rain 18 1021 94 10000 1.73 72 08:55 08.02.2021
2801 Rain 18 1021 94 10000 1.41 45 08:26 08.02.2021
2802 Rain 17 1021 100 10000 1.4 45 07:40 08.02.2021
2803 Rain 17 1020 94 10000 1.22 50 06:33 08.02.2021
2804 Rain 17 1019 94 10000 1.83 0 04:56 08.02.2021
2805 Rain 17 1018 100 10000 3.09 130 02:26 08.02.2021
2806 Rain 18 1018 100 10000 2.57 60 00:25 08.02.2021
2807 Rain 18 1018 100 10000 2.57 60 23:54 07.02.2021
2808 Rain 18 1018 100 10000 2.57 60 23:28 07.02.2021
2809 Rain 18 1019 100 10000 3.6 80 22:57 07.02.2021
2810 Rain 18 1019 100 10000 3.6 80 22:38 07.02.2021
2811 Rain 18 1019 94 10000 4.63 70 22:20 07.02.2021
2812 Rain 18 1019 94 10000 4.63 70 21:49 07.02.2021
2813 Rain 18 1019 100 10000 5.14 80 21:25 07.02.2021
2814 Rain 18 1019 100 10000 5.14 80 21:25 07.02.2021
2815 Rain 18 1019 100 10000 5.14 80 20:50 07.02.2021
2816 Rain 19 1019 100 10000 5.14 80 20:29 07.02.2021
2817 Rain 22 1018 68 10000 4.63 150 19:52 07.02.2021
2818 Rain 22 1018 68 10000 4.63 150 19:29 07.02.2021
2819 Rain 22 1017 68 10000 2.06 50 18:49 07.02.2021
2820 Rain 23 1016 60 10000 3.6 30 18:29 07.02.2021
2821 Rain 23 1016 60 10000 3.6 30 17:58 07.02.2021
2822 Rain 23 1016 60 10000 3.6 30 17:39 07.02.2021
2823 Rain 23 1015 64 10000 3.09 50 17:18 07.02.2021
2824 Rain 23 1015 64 10000 3.09 50 16:42 07.02.2021
2825 Rain 23 1015 64 10000 4.12 150 16:21 07.02.2021
2826 Rain 23 1015 64 10000 4.12 150 15:44 07.02.2021
2827 Rain 24 1015 57 10000 4.63 50 15:22 07.02.2021
2828 Rain 24 1015 57 10000 4.63 50 14:46 07.02.2021
2829 Rain 24 1015 57 10000 4.63 50 14:27 07.02.2021
2830 Rain 24 1015 60 10000 3.6 20 13:52 07.02.2021
2831 Rain 24 1015 60 10000 3.6 20 13:30 07.02.2021
2832 Rain 22 1016 64 10000 5.14 300 12:43 07.02.2021
2833 Rain 25 1018 57 10000 4.12 40 12:22 07.02.2021
2834 Rain 25 1018 57 10000 4.12 40 11:46 07.02.2021
2835 Rain 25 1018 57 10000 4.12 40 11:46 07.02.2021
2836 Rain 24 1018 57 10000 2.57 110 11:26 07.02.2021
2837 Rain 24 1018 57 10000 2.57 110 10:44 07.02.2021
2838 Rain 24 1018 57 10000 2.57 110 10:24 07.02.2021
2839 Rain 23 1019 60 10000 3.6 100 09:46 07.02.2021
2840 Rain 21 1020 73 10000 2.19 70 09:21 07.02.2021
2841 Rain 19 1020 82 10000 4.12 150 08:22 07.02.2021
2842 Clouds 19 1019 88 10000 2.15 51 06:34 07.02.2021
2843 Clouds 18 1018 88 10000 2.32 38 05:57 07.02.2021
2844 Clouds 17 1019 94 10000 1.03 350 03:50 07.02.2021
2845 Clouds 14 1008 89 10000 2.53 40 01:24 07.02.2021
2846 Clouds 18 1020 94 10000 3.09 10 00:32 07.02.2021
2847 Clouds 18 1020 94 10000 3.09 10 23:44 06.02.2021
2848 Clouds 18 1020 88 10000 2.93 37 22:40 06.02.2021
2849 Clouds 18 1021 88 10000 3.17 38 21:40 06.02.2021
2850 Rain 19 1020 88 10000 1.03 0 21:21 06.02.2021
2851 Rain 19 1020 88 10000 1.03 0 20:51 06.02.2021
2852 Rain 18 1019 88 10000 3.68 56 20:25 06.02.2021
2853 Rain 18 1019 88 10000 3.68 56 19:57 06.02.2021
2854 Clouds 18 1019 88 10000 3.56 62 19:31 06.02.2021
2855 Rain 18 1019 88 10000 3.56 62 18:49 06.02.2021
2856 Rain 19 1019 88 10000 3.71 66 18:31 06.02.2021
2857 Clouds 19 1018 82 10000 5.14 130 17:48 06.02.2021
2858 Clouds 24 1016 60 10000 5.14 360 17:22 06.02.2021
2859 Clouds 24 1016 60 10000 5.14 360 16:59 06.02.2021
2860 Clouds 24 1016 60 10000 5.14 360 16:41 06.02.2021
2861 Clouds 26 1015 41 10000 5.14 70 16:22 06.02.2021
2862 Clouds 26 1015 41 10000 5.14 70 15:48 06.02.2021
2863 Clouds 28 1016 39 10000 5.14 120 15:22 06.02.2021
2864 Clouds 28 1016 39 10000 5.14 120 14:45 06.02.2021
2865 Clouds 28 1016 39 10000 5.14 120 14:27 06.02.2021
2866 Clouds 27 1016 39 10000 5.14 210 13:51 06.02.2021
2867 Clouds 27 1016 39 10000 5.14 210 13:32 06.02.2021
2868 Clouds 27 1017 44 10000 2.57 360 12:23 06.02.2021
2869 Clouds 27 1018 47 10000 2.57 120 11:57 06.02.2021
2870 Clouds 27 1018 47 10000 2.57 120 11:38 06.02.2021
2871 Clouds 26 1019 44 10000 4.12 90 11:19 06.02.2021
2872 Clouds 26 1019 44 10000 4.12 90 10:42 06.02.2021
2873 Clouds 25 1020 47 10000 4.12 120 10:23 06.02.2021
2874 Clouds 25 1020 47 10000 4.12 120 09:37 06.02.2021
2875 Clouds 24 1020 50 10000 3.09 30 09:18 06.02.2021
2876 Clouds 24 1020 50 10000 3.09 30 08:49 06.02.2021
2877 Clouds 24 1020 50 10000 3.09 30 08:28 06.02.2021
2878 Clouds 19 1020 72 10000 0.91 20 06:40 06.02.2021
2879 Clouds 18 1019 72 10000 0.9 354 04:45 06.02.2021
2880 Clouds 19 1019 72 10000 1.53 24 02:43 06.02.2021
2881 Clear 16 1014 76 10000 1.79 32 00:49 06.02.2021
2882 Clouds 16 1014 76 10000 2.19 30 00:21 06.02.2021
2883 Clouds 16 1014 76 10000 2.19 30 23:59 05.02.2021
2884 Clouds 21 1020 64 10000 3.6 60 23:29 05.02.2021
2885 Clouds 21 1020 64 10000 3.6 60 22:49 05.02.2021
2886 Clouds 21 1020 64 10000 3.6 60 22:24 05.02.2021
2887 Clouds 18 1015 74 10000 3.57 43 21:52 05.02.2021
2888 Clear 22 1021 56 10000 4.63 30 21:30 05.02.2021
2889 Clear 22 1021 56 10000 4.63 30 20:52 05.02.2021
2890 Clouds 23 1019 49 10000 5.14 60 19:57 05.02.2021
2891 Clouds 23 1019 49 10000 5.14 60 19:25 05.02.2021
2892 Clouds 24 1018 43 10000 5.14 60 18:55 05.02.2021
2893 Clouds 24 1018 43 10000 5.14 60 18:29 05.02.2021
2894 Clouds 26 1018 36 10000 5.14 70 17:56 05.02.2021
2895 Clouds 27 1018 36 10000 5.14 70 17:34 05.02.2021
2896 Clouds 27 1017 32 10000 5.14 30 16:58 05.02.2021
2897 Clouds 27 1017 32 10000 5.14 30 16:39 05.02.2021
2898 Clouds 29 1017 28 10000 6.69 50 16:20 05.02.2021
2899 Clouds 29 1017 28 10000 6.69 50 15:40 05.02.2021
2900 Clouds 30 1019 28 10000 5.14 50 15:20 05.02.2021
2901 Clouds 30 1019 28 10000 5.14 50 14:38 05.02.2021
2902 Clouds 30 1019 28 10000 5.14 50 14:38 05.02.2021
2903 Clouds 21 1007 62 10000 1.79 107 14:19 05.02.2021
2904 Clouds 22 1008 58 10000 1.79 123 13:43 05.02.2021
2905 Clear 23 1008 54 10000 1.34 132 13:24 05.02.2021
2906 Clear 23 1008 52 10000 0.89 132 12:42 05.02.2021
2907 Clear 24 1009 50 10000 0.45 137 12:20 05.02.2021
2908 Clouds 26 1021 41 10000 5.14 90 11:39 05.02.2021
2909 Clouds 26 1021 41 10000 5.14 90 11:19 05.02.2021
2910 Clouds 26 1022 44 10000 3.6 40 10:48 05.02.2021
2911 Clouds 23 1022 53 10000 4.12 90 10:25 05.02.2021
2912 Clear 22 1012 52 10000 0.45 198 09:43 05.02.2021
2913 Clouds 22 1023 53 10000 5.14 70 09:24 05.02.2021
2914 Clouds 22 1023 53 10000 5.14 70 08:42 05.02.2021
2915 Clear 19 1022 68 10000 3.6 53 07:43 05.02.2021
2916 Clear 18 1022 68 10000 3.6 55 07:24 05.02.2021
2917 Clear 18 1022 68 10000 3.04 46 06:34 05.02.2021
2918 Clear 16 1020 72 10000 2.57 330 05:35 05.02.2021
2919 Clear 13 1010 80 10000 4.02 71 02:26 05.02.2021
2920 Clear 13 1010 80 10000 3.13 47 01:43 05.02.2021
2921 Clouds 16 1015 77 10000 2.76 30 00:37 05.02.2021
2922 Clouds 16 1016 76 10000 3.13 31 00:19 05.02.2021
2923 Clouds 16 1016 76 10000 3.15 31 23:43 04.02.2021
2924 Clear 19 1022 59 10000 3.6 30 23:25 04.02.2021
2925 Clear 19 1022 59 10000 3.6 30 22:55 04.02.2021
2926 Clear 20 1021 49 10000 4.12 70 22:37 04.02.2021
2927 Clouds 17 1016 75 10000 4.04 48 21:58 04.02.2021
2928 Clouds 17 1016 75 10000 4.04 48 21:40 04.02.2021
2929 Clouds 18 1016 73 10000 4.6 56 20:58 04.02.2021
2930 Clouds 23 1020 38 10000 3.09 50 20:34 04.02.2021
2931 Clouds 23 1020 38 10000 3.09 50 20:34 04.02.2021
2932 Clouds 23 1020 38 10000 3.09 50 19:53 04.02.2021
2933 Clouds 23 1020 38 10000 3.09 50 19:32 04.02.2021
2934 Clouds 19 1014 63 10000 5.51 69 18:51 04.02.2021
2935 Clouds 25 1018 31 10000 6.17 60 18:24 04.02.2021
2936 Clouds 25 1018 31 10000 6.17 60 17:50 04.02.2021
2937 Clouds 27 1018 24 10000 6.17 90 17:24 04.02.2021
2938 Clouds 27 1018 24 10000 6.17 90 16:51 04.02.2021
2939 Clouds 28 1018 20 10000 6.17 90 16:21 04.02.2021
2940 Clouds 28 1018 20 10000 6.17 90 16:21 04.02.2021
2941 Clouds 28 1018 20 10000 6.17 90 15:58 04.02.2021
2942 Clouds 28 1018 20 10000 6.17 90 15:38 04.02.2021
2943 Clouds 29 1018 15 10000 6.17 100 15:20 04.02.2021
2944 Clouds 29 1018 15 10000 6.17 100 14:40 04.02.2021
2945 Clouds 29 1018 16 10000 6.17 120 14:20 04.02.2021
2946 Clouds 30 1019 17 10000 6.17 70 13:44 04.02.2021
2947 Clouds 30 1019 17 10000 5.66 50 12:58 04.02.2021
2948 Clouds 28 1020 19 10000 5.14 90 12:34 04.02.2021
2949 Clouds 27 1020 19 10000 5.14 90 11:53 04.02.2021
2950 Clouds 27 1020 19 10000 5.14 90 11:33 04.02.2021
2951 Clear 21 1011 49 10000 4.09 63 10:50 04.02.2021
2952 Clouds 25 1023 38 10000 3.6 40 10:21 04.02.2021
2953 Clouds 25 1023 38 10000 3.6 40 09:44 04.02.2021
2954 Clear 23 1023 49 10000 3.09 30 09:19 04.02.2021
2955 Clear 23 1023 49 10000 3.09 30 08:48 04.02.2021
2956 Clouds 20 1023 60 10000 2.57 30 08:24 04.02.2021
2957 Clouds 20 1023 60 10000 2.57 30 07:43 04.02.2021
2958 Clouds 19 1023 63 10000 3.09 20 07:24 04.02.2021
2959 Clouds 19 1023 63 10000 3.09 20 06:43 04.02.2021
2960 Clouds 17 1021 82 10000 1.2 9 04:31 04.02.2021
2961 Clouds 18 1021 77 10000 2.57 60 02:29 04.02.2021
2962 Clear 18 1021 77 10000 2.57 50 00:59 04.02.2021
2963 Clear 19 1021 72 10000 5.14 60 23:52 03.02.2021
2964 Clear 19 1021 72 10000 5.14 60 23:27 03.02.2021
2965 Clear 19 1021 68 10000 3.09 40 22:36 03.02.2021
2966 Clouds 20 1021 68 10000 5.14 60 22:18 03.02.2021
2967 Clouds 20 1021 68 10000 5.14 60 21:41 03.02.2021
2968 Clouds 22 1021 46 10000 2.57 60 21:21 03.02.2021
2969 Clouds 22 1021 46 10000 2.57 60 20:48 03.02.2021
2970 Clouds 22 1021 46 10000 2.57 60 20:28 03.02.2021
2971 Clouds 22 1020 43 10000 2.57 70 19:52 03.02.2021
2972 Clouds 22 1020 43 10000 2.57 70 19:23 03.02.2021
2973 Clouds 23 1020 43 10000 5.14 60 18:51 03.02.2021
2974 Clouds 25 1019 36 10000 5.66 70 18:22 03.02.2021
2975 Clouds 25 1019 36 10000 5.66 70 17:57 03.02.2021
2976 Clouds 25 1019 36 10000 5.66 70 17:37 03.02.2021
2977 Clouds 26 1018 34 10000 5.14 70 17:18 03.02.2021
2978 Clouds 26 1018 34 10000 5.14 70 16:36 03.02.2021
2979 Clouds 27 1018 31 10000 5.14 80 15:51 03.02.2021
2980 Clouds 27 1018 31 10000 5.14 80 15:31 03.02.2021
2981 Clouds 28 1018 28 10000 5.14 100 14:59 03.02.2021
2982 Clouds 28 1018 28 10000 5.14 100 14:41 03.02.2021
2983 Clouds 27 1019 32 10000 5.14 30 14:19 03.02.2021
2984 Clouds 27 1019 32 10000 5.14 30 13:43 03.02.2021
2985 Clouds 27 1019 34 10000 5.14 70 13:18 03.02.2021
2986 Clouds 26 1019 34 10000 5.14 70 12:39 03.02.2021
2987 Clouds 26 1020 34 10000 7.72 30 12:19 03.02.2021
2988 Clouds 26 1020 34 10000 7.72 30 11:41 03.02.2021
2989 Clouds 25 1021 41 10000 5.14 80 11:21 03.02.2021
2990 Clouds 25 1021 41 10000 5.14 80 10:27 03.02.2021
2991 Clouds 24 1023 50 10000 5.14 80 09:58 03.02.2021
2992 Clouds 24 1023 50 10000 5.14 80 09:58 03.02.2021
2993 Clouds 24 1023 50 10000 5.14 80 09:38 03.02.2021
2994 Clouds 23 1023 53 10000 5.14 30 09:19 03.02.2021
2995 Clouds 23 1023 53 10000 5.14 30 08:43 03.02.2021
2996 Clear 21 1024 60 10000 5.14 40 07:54 03.02.2021
2997 Clouds 19 1023 68 10000 4.12 30 06:42 03.02.2021
2998 Clear 18 1021 68 10000 2.57 30 04:56 03.02.2021
2999 Clear 18 1021 68 10000 2.57 30 04:37 03.02.2021
3000 Clear 18 1022 63 10000 2.57 360 03:49 03.02.2021
3001 Clear 19 1022 59 10000 2.06 20 02:39 03.02.2021
3002 Clear 19 1022 59 10000 3.54 39 01:47 03.02.2021
3003 Clear 20 1022 60 10000 3.6 50 00:24 03.02.2021
3004 Clouds 21 1023 56 10000 7.2 60 23:43 02.02.2021
3005 Clouds 21 1023 56 10000 7.2 60 23:25 02.02.2021
3006 Clouds 21 1023 56 10000 7.2 60 22:43 02.02.2021
3007 Clear 21 1023 56 10000 6.69 70 22:20 02.02.2021
3008 Clouds 22 1023 53 10000 4.59 58 21:46 02.02.2021
3009 Clouds 22 1023 53 10000 4.59 58 21:46 02.02.2021
3010 Clouds 22 1023 53 10000 5.17 64 21:24 02.02.2021
3011 Clouds 22 1023 53 10000 5.17 64 20:49 02.02.2021
3012 Clouds 22 1022 53 10000 6.69 90 20:21 02.02.2021
3013 Clouds 22 1022 53 10000 6.69 90 19:52 02.02.2021
3014 Clouds 22 1022 53 10000 6.69 90 19:34 02.02.2021
3015 Clouds 24 1021 43 10000 5.14 80 18:57 02.02.2021
3016 Clouds 25 1020 27 10000 4.12 60 18:38 02.02.2021
3017 Rain 26 1020 27 10000 4.12 60 18:20 02.02.2021
3018 Rain 26 1020 27 10000 4.12 60 17:38 02.02.2021
3019 Rain 27 1019 26 10000 7.72 60 17:19 02.02.2021
3020 Rain 27 1019 26 10000 7.72 60 16:48 02.02.2021
3021 Clouds 28 1019 28 10000 6.17 80 16:27 02.02.2021
3022 Clouds 28 1019 28 10000 6.17 80 15:56 02.02.2021
3023 Clouds 28 1018 24 10000 6.17 60 15:30 02.02.2021
3024 Clouds 28 1018 24 10000 6.17 60 14:53 02.02.2021
3025 Clouds 28 1018 24 10000 6.17 60 14:34 02.02.2021
3026 Clouds 28 1019 24 10000 7.72 60 13:58 02.02.2021
3027 Clouds 28 1019 28 10000 4.12 0 13:40 02.02.2021
3028 Clouds 28 1021 26 10000 4.63 50 13:22 02.02.2021
3029 Clouds 28 1021 26 10000 4.63 50 12:47 02.02.2021
3030 Clouds 27 1021 22 10000 2.57 60 11:55 02.02.2021
3031 Clouds 27 1021 22 10000 2.57 60 11:36 02.02.2021
3032 Clouds 26 1022 27 10000 5.14 60 11:18 02.02.2021
3033 Clouds 26 1022 27 10000 5.14 60 10:42 02.02.2021
3034 Clear 24 1023 35 10000 5.14 60 10:22 02.02.2021
3035 Clear 24 1023 35 10000 5.14 60 09:39 02.02.2021
3036 Clouds 22 1024 49 10000 4.63 20 09:20 02.02.2021
3037 Clear 20 1024 56 10000 5.14 10 08:34 02.02.2021
3038 Clear 18 1024 56 10000 5.14 10 07:42 02.02.2021
3039 Clear 15 1023 77 10000 2.77 46 06:47 02.02.2021
3040 Clear 15 1023 77 10000 2.29 32 06:29 02.02.2021
3041 Clear 13 1023 82 10000 2.29 32 05:50 02.02.2021
3042 Clear 15 1021 63 10000 1.88 16 02:53 02.02.2021
3043 Clear 15 1021 63 10000 1.86 14 02:24 02.02.2021
3044 Clear 16 1023 63 10000 2.06 350 00:37 02.02.2021
3045 Clouds 15 1018 71 10000 2.45 33 23:47 01.02.2021
3046 Clear 17 1023 52 10000 3.32 50 22:53 01.02.2021
3047 Clear 17 1023 52 10000 3.27 50 22:35 01.02.2021
3048 Clear 18 1023 48 10000 4.37 59 21:57 01.02.2021
3049 Clear 18 1023 48 10000 4.43 59 21:39 01.02.2021
3050 Clear 19 1022 45 10000 4.63 60 21:20 01.02.2021
3051 Clear 19 1022 45 10000 4.63 60 20:41 01.02.2021
3052 Clear 21 1021 40 10000 3.6 50 20:23 01.02.2021
3053 Clear 21 1021 40 10000 3.6 50 19:42 01.02.2021
3054 Clear 21 1021 40 10000 3.6 50 19:21 01.02.2021
3055 Clear 22 1020 33 10000 4.63 30 18:51 01.02.2021
3056 Clear 22 1020 33 10000 4.63 30 18:29 01.02.2021
3057 Clear 24 1020 27 10000 6.17 60 17:48 01.02.2021
3058 Clear 24 1020 27 10000 6.17 60 17:26 01.02.2021
3059 Clouds 25 1019 27 10000 7.72 50 16:58 01.02.2021
3060 Clouds 25 1019 27 10000 7.72 50 16:32 01.02.2021
3061 Clouds 24 1018 24 10000 5.14 80 15:48 01.02.2021
3062 Clouds 27 1019 22 10000 4.63 50 15:20 01.02.2021
3063 Clouds 27 1019 22 10000 4.63 50 14:53 01.02.2021
3064 Clouds 27 1019 22 10000 4.63 50 14:34 01.02.2021
3065 Clouds 26 1019 25 10000 5.66 50 13:55 01.02.2021
3066 Clouds 26 1019 25 10000 5.66 50 13:37 01.02.2021
3067 Clouds 26 1020 22 10000 8.23 90 13:19 01.02.2021
3068 Clouds 25 1021 27 10000 7.72 70 12:42 01.02.2021
3069 Clouds 22 1011 37 10000 0.89 54 12:22 01.02.2021
3070 Clouds 21 1012 34 10000 1.79 355 11:40 01.02.2021
3071 Clear 24 1022 33 10000 2.57 90 11:19 01.02.2021
3072 Clear 24 1022 33 10000 2.57 90 10:45 01.02.2021
3073 Clear 23 1022 40 10000 5.66 60 10:20 01.02.2021
3074 Clear 23 1022 40 10000 5.66 60 09:44 01.02.2021
3075 Clear 22 1023 37 10000 4.12 70 09:21 01.02.2021
3076 Clear 22 1023 37 10000 4.12 70 08:44 01.02.2021
3077 Clouds 20 1022 40 10000 5.14 60 07:50 01.02.2021
3078 Clouds 13 1021 71 10000 3.09 300 06:20 01.02.2021
3079 Clouds 16 1016 55 10000 3.78 34 03:21 01.02.2021
3080 Clouds 16 1016 56 10000 4.03 38 01:30 01.02.2021
3081 Clouds 15 1016 64 10000 4.1 47 23:42 31.01.2021
3082 Clear 17 1021 51 10000 2.57 10 22:44 31.01.2021
3083 Clear 17 1021 51 10000 2.57 10 22:24 31.01.2021
3084 Clear 17 1021 51 10000 2.57 20 21:52 31.01.2021
3085 Clear 17 1021 51 10000 2.57 20 21:25 31.01.2021
3086 Clear 18 1021 45 10000 2.57 10 20:57 31.01.2021
3087 Clouds 20 1019 37 10000 4.12 60 20:37 31.01.2021
3088 Clouds 21 1019 37 10000 4.12 60 20:18 31.01.2021
3089 Clouds 17 1016 61 10000 6.07 60 19:37 31.01.2021
3090 Clouds 18 1014 51 10000 6.34 52 19:19 31.01.2021
3091 Clouds 18 1014 51 10000 6.34 52 19:19 31.01.2021
3092 Clouds 24 1018 27 10000 8.23 60 18:41 31.01.2021
3093 Clouds 24 1018 27 10000 8.23 60 18:23 31.01.2021
3094 Clouds 24 1018 27 10000 8.23 60 17:49 31.01.2021
3095 Clouds 25 1016 25 10000 6.72 64 17:24 31.01.2021
3096 Clouds 25 1016 25 10000 6.69 64 16:52 31.01.2021
3097 Clouds 25 1016 25 10000 6.72 64 16:34 31.01.2021
3098 Clouds 19 1007 64 10000 5.36 74 15:54 31.01.2021
3099 Clouds 27 1016 26 10000 10.29 90 15:35 31.01.2021
3100 Clouds 27 1016 26 10000 10.29 90 14:50 31.01.2021
3101 Clouds 27 1016 26 10000 10.29 90 14:26 31.01.2021
3102 Clouds 27 1018 29 10000 5.14 60 13:57 31.01.2021
3103 Clouds 26 1018 29 10000 5.14 60 13:38 31.01.2021
3104 Clouds 27 1009 22 10000 6.72 62 12:56 31.01.2021
3105 Clouds 24 1020 35 10000 5.14 40 12:37 31.01.2021
3106 Clouds 24 1020 35 10000 5.14 40 12:19 31.01.2021
3107 Clouds 24 1020 35 10000 5.14 40 11:38 31.01.2021
3108 Clouds 23 1020 43 10000 9.26 90 11:19 31.01.2021
3109 Clouds 23 1020 43 10000 9.26 90 10:44 31.01.2021
3110 Clouds 23 1021 46 10000 6.17 50 10:25 31.01.2021
3111 Clouds 22 1021 49 10000 7.2 60 09:33 31.01.2021
3112 Clouds 21 1021 49 10000 7.2 60 08:34 31.01.2021
3113 Clouds 19 1021 63 10000 2.57 90 07:50 31.01.2021
3114 Clouds 14 1021 94 10000 0.51 0 05:54 31.01.2021
3115 Clouds 14 1021 94 10000 0.51 0 05:54 31.01.2021
3116 Clouds 15 1014 71 10000 3.12 43 01:55 31.01.2021
3117 Clouds 13 1010 85 10000 4.47 74 00:28 31.01.2021
3118 Clear 18 1021 72 10000 1.54 70 23:42 30.01.2021
3119 Clear 18 1021 72 10000 1.54 70 23:20 30.01.2021
3120 Clouds 13 1010 82 10000 4.92 94 22:37 30.01.2021
3121 Clouds 13 1010 82 10000 4.92 94 22:37 30.01.2021
3122 Clouds 17 1015 78 10000 3.81 55 21:43 30.01.2021
3123 Clouds 14 1011 85 10000 4.47 92 21:24 30.01.2021
3124 Clouds 14 1011 85 10000 4.92 81 20:55 30.01.2021
3125 Clear 21 1020 56 10000 5.14 40 20:35 30.01.2021
3126 Clear 21 1020 56 10000 5.14 40 19:58 30.01.2021
3127 Clouds 15 1010 86 10000 6.26 113 19:39 30.01.2021
3128 Clouds 15 1010 86 10000 5.36 117 19:19 30.01.2021
3129 Clouds 23 1018 49 10000 7.2 50 18:40 30.01.2021
3130 Clouds 23 1018 49 10000 7.2 50 18:19 30.01.2021
3131 Clouds 23 1018 49 10000 7.2 50 17:45 30.01.2021
3132 Clouds 25 1018 44 10000 7.2 50 17:18 30.01.2021
3133 Clouds 27 1017 39 10000 7.2 40 16:40 30.01.2021
3134 Clouds 27 1017 39 10000 7.2 40 16:21 30.01.2021
3135 Clouds 27 1017 39 10000 7.2 40 15:47 30.01.2021
3136 Clouds 27 1016 39 10000 10.29 70 15:24 30.01.2021
3137 Clouds 27 1018 39 10000 7.2 60 14:52 30.01.2021
3138 Clouds 28 1018 36 10000 6.17 70 14:28 30.01.2021
3139 Clouds 26 1010 36 10000 5.85 70 13:53 30.01.2021
3140 Clouds 27 1010 33 10000 5.21 69 13:20 30.01.2021
3141 Clouds 27 1010 30 10000 5.16 70 12:43 30.01.2021
3142 Clouds 27 1011 33 10000 4.89 65 12:23 30.01.2021
3143 Clouds 20 1010 66 10000 4.89 65 11:43 30.01.2021
3144 Clouds 24 1021 46 10000 7.72 60 10:56 30.01.2021
3145 Clouds 21 1011 55 10000 4.82 58 10:27 30.01.2021
3146 Clouds 21 1012 55 10000 4.82 58 09:41 30.01.2021
3147 Clouds 20 1012 57 10000 0.45 360 09:22 30.01.2021
3148 Clouds 19 1013 63 10000 1.34 5 08:44 30.01.2021
3149 Clouds 17 1013 72 10000 0.89 10 07:42 30.01.2021
3150 Clouds 14 1012 76 10000 0.89 333 06:32 30.01.2021
3151 Clouds 15 1016 75 10000 2.17 33 03:51 30.01.2021
3152 Clouds 13 1011 85 10000 1.79 82 03:31 30.01.2021
3153 Clouds 13 1010 85 10000 2.24 76 02:22 30.01.2021
3154 Clouds 14 1010 84 10000 4.47 93 00:56 30.01.2021
3155 Clouds 14 1011 85 10000 4.47 103 00:27 30.01.2021
3156 Clouds 14 1011 85 10000 5.36 92 23:54 29.01.2021
3157 Rain 14 1011 84 10000 4.47 79 23:28 29.01.2021
3158 Rain 14 1011 83 10000 4.47 118 22:47 29.01.2021
3159 Rain 14 1012 84 10000 4.47 96 22:28 29.01.2021
3160 Rain 15 1012 85 10000 4.47 112 21:59 29.01.2021
3161 Rain 15 1012 85 10000 5.36 78 21:27 29.01.2021
3162 Rain 15 1012 84 10000 4.92 86 20:43 29.01.2021
3163 Rain 15 1012 85 8415 5.36 111 20:23 29.01.2021
3164 Rain 16 1011 85 8967 4.92 92 19:40 29.01.2021
3165 Rain 15 1011 85 10000 4.02 87 19:21 29.01.2021
3166 Rain 16 1011 86 10000 4.92 101 18:55 29.01.2021
3167 Rain 16 1010 78 10000 4.47 71 17:50 29.01.2021
3168 Rain 17 1010 71 9678 4.02 77 17:23 29.01.2021
3169 Rain 17 1010 66 9944 3.13 83 16:54 29.01.2021
3170 Rain 16 1009 70 6002 2.68 50 16:28 29.01.2021
3171 Rain 14 1010 77 6329 3.13 77 15:59 29.01.2021
3172 Rain 13 1010 84 6325 3.13 42 15:41 29.01.2021
3173 Clouds 26 1010 41 10000 7.08 71 15:21 29.01.2021
3174 Clouds 27 1018 29 10000 7.72 70 14:23 29.01.2021
3175 Clouds 27 1018 29 10000 7.72 70 13:50 29.01.2021
3176 Clouds 28 1019 36 10000 7.2 60 13:31 29.01.2021
3177 Clouds 27 1020 32 10000 5.14 90 12:43 29.01.2021
3178 Clouds 27 1020 32 10000 5.14 90 12:19 29.01.2021
3179 Clouds 27 1020 32 10000 5.14 90 11:45 29.01.2021
3180 Clouds 26 1020 44 10000 6.17 90 11:18 29.01.2021
3181 Clouds 26 1020 44 10000 6.17 90 10:47 29.01.2021
3182 Clouds 25 1021 43 10000 6.17 60 10:25 29.01.2021
3183 Clouds 25 1022 47 10000 6.17 50 09:41 29.01.2021
3184 Clouds 23 1023 56 10000 5.66 20 08:52 29.01.2021
3185 Clouds 21 1022 68 10000 4.12 60 08:27 29.01.2021
3186 Clouds 20 1022 68 10000 4.12 60 07:54 29.01.2021
3187 Clouds 20 1022 68 10000 4.12 60 07:35 29.01.2021
3188 Clear 17 1022 82 10000 4.67 46 06:50 29.01.2021
3189 Clear 15 1021 88 10000 0.89 346 05:19 29.01.2021
3190 Clear 16 1019 88 10000 1.23 16 02:48 29.01.2021
3191 Clear 17 1021 72 10000 2.57 40 00:38 29.01.2021
3192 Clear 17 1021 72 10000 2.57 40 00:19 29.01.2021
3193 Clear 17 1021 72 10000 2.57 40 23:41 28.01.2021
3194 Clear 17 1021 72 10000 2.57 40 23:41 28.01.2021
3195 Clear 18 1021 77 10000 3.09 30 23:23 28.01.2021
3196 Clear 18 1021 77 10000 3.09 30 22:45 28.01.2021
3197 Clear 18 1021 77 10000 3.09 30 22:25 28.01.2021
3198 Clear 19 1021 77 10000 2.57 60 21:53 28.01.2021
3199 Clear 20 1021 64 10000 3.6 60 21:33 28.01.2021
3200 Clear 20 1021 64 10000 3.6 60 20:55 28.01.2021
3201 Clear 20 1021 64 10000 3.6 60 20:37 28.01.2021
3202 Clear 21 1020 56 10000 5.14 60 20:18 28.01.2021
3203 Clear 21 1020 56 10000 5.14 60 19:40 28.01.2021
3204 Clouds 22 1019 49 10000 5.14 40 19:19 28.01.2021
3205 Clouds 22 1019 49 10000 5.14 40 18:43 28.01.2021
3206 Clouds 24 1018 33 10000 5.14 70 18:20 28.01.2021
3207 Clouds 24 1018 33 10000 5.14 70 17:45 28.01.2021
3208 Clouds 24 1018 33 10000 5.14 70 17:26 28.01.2021
3209 Clouds 26 1018 29 10000 5.14 60 16:44 28.01.2021
3210 Clouds 27 1018 28 10000 4.12 60 16:23 28.01.2021
3211 Clouds 27 1018 28 10000 4.12 60 15:43 28.01.2021
3212 Clouds 28 1018 26 10000 3.09 90 15:18 28.01.2021
3213 Clouds 28 1018 26 10000 3.09 90 14:42 28.01.2021
3214 Clouds 28 1018 26 10000 3.09 90 14:42 28.01.2021
3215 Clouds 28 1018 26 10000 3.09 90 14:23 28.01.2021
3216 Clouds 27 1018 28 10000 5.14 90 13:48 28.01.2021
3217 Clouds 27 1019 32 10000 3.6 60 12:59 28.01.2021
3218 Clouds 27 1019 32 10000 3.6 60 12:40 28.01.2021
3219 Clouds 27 1019 32 10000 3.6 60 12:21 28.01.2021
3220 Clouds 26 1020 29 10000 5.14 90 11:43 28.01.2021
3221 Clouds 25 1020 33 10000 7.72 30 11:20 28.01.2021
3222 Clouds 25 1020 33 10000 7.72 30 10:54 28.01.2021
3223 Clouds 25 1020 33 10000 7.72 30 10:34 28.01.2021
3224 Clouds 24 1021 41 10000 3.6 30 09:50 28.01.2021
3225 Clouds 22 1021 49 10000 6.69 60 09:25 28.01.2021
3226 Clouds 22 1021 49 10000 6.69 60 08:56 28.01.2021
3227 Clouds 22 1021 49 10000 6.69 60 08:38 28.01.2021
3228 Clear 20 1021 60 10000 3.6 40 07:45 28.01.2021
3229 Clear 16 1021 82 10000 3.75 43 06:50 28.01.2021
3230 Clear 15 1021 82 10000 3.11 38 06:30 28.01.2021
3231 Clear 15 1020 88 10000 2 20 04:30 28.01.2021
3232 Clear 17 1019 77 10000 2.99 34 01:39 28.01.2021
3233 Clouds 16 1015 79 10000 3.58 40 23:54 27.01.2021
3234 Clear 18 1021 63 10000 3.6 60 23:24 27.01.2021
3235 Clear 18 1021 63 10000 3.6 60 23:24 27.01.2021
3236 Clear 18 1021 63 10000 3.6 60 22:43 27.01.2021
3237 Clear 18 1021 63 10000 3.6 60 22:24 27.01.2021
3238 Clear 19 1021 59 10000 3.09 60 21:44 27.01.2021
3239 Clear 20 1021 56 10000 3.09 50 21:24 27.01.2021
3240 Clear 20 1021 56 10000 3.09 50 20:55 27.01.2021
3241 Clear 20 1021 56 10000 3.09 50 20:30 27.01.2021
3242 Clear 21 1020 46 10000 4.12 70 19:56 27.01.2021
3243 Clear 21 1020 46 10000 4.12 70 19:37 27.01.2021
3244 Clouds 22 1019 40 10000 4.63 70 19:18 27.01.2021
3245 Clouds 22 1019 40 10000 4.63 70 18:40 27.01.2021
3246 Clouds 23 1018 33 10000 7.72 50 18:21 27.01.2021
3247 Clouds 23 1018 33 10000 7.72 50 17:40 27.01.2021
3248 Clouds 26 1018 27 10000 5.14 60 17:18 27.01.2021
3249 Clouds 26 1018 27 10000 5.14 60 16:44 27.01.2021
3250 Clouds 26 1018 27 10000 5.14 60 16:26 27.01.2021
3251 Clouds 26 1017 27 10000 5.66 100 15:49 27.01.2021
3252 Clouds 26 1017 27 10000 5.66 100 15:30 27.01.2021
3253 Clouds 27 1017 28 10000 7.2 100 14:41 27.01.2021
3254 Clouds 27 1017 32 10000 8.23 90 14:20 27.01.2021
3255 Clouds 27 1017 32 10000 8.23 90 13:42 27.01.2021
3256 Clouds 27 1018 34 10000 8.75 80 12:47 27.01.2021
3257 Clouds 27 1018 34 10000 8.75 80 12:26 27.01.2021
3258 Clouds 26 1019 44 10000 6.69 100 11:53 27.01.2021
3259 Clouds 26 1019 44 10000 6.69 100 11:26 27.01.2021
3260 Clouds 25 1020 43 10000 5.66 60 11:00 27.01.2021
3261 Clouds 25 1020 43 10000 5.66 60 10:36 27.01.2021
3262 Clear 23 1021 49 10000 5.14 90 10:18 27.01.2021
3263 Clear 23 1021 49 10000 5.14 90 09:34 27.01.2021
3264 Clear 22 1021 56 10000 4.22 59 08:48 27.01.2021
3265 Clear 19 1021 68 10000 3.87 53 07:59 27.01.2021
3266 Clear 19 1021 68 10000 3.85 53 07:40 27.01.2021
3267 Clear 14 1021 82 10000 3.6 300 06:48 27.01.2021
3268 Clouds 13 1020 88 10000 3.09 300 05:58 27.01.2021
3269 Clouds 13 1020 88 10000 3.09 300 05:35 27.01.2021
3270 Clear 15 1020 82 10000 1.03 360 02:46 27.01.2021
3271 Clouds 12 1010 64 10000 0.89 96 02:21 27.01.2021
3272 Clouds 13 1010 67 10000 0.45 96 01:47 27.01.2021
3273 Clouds 13 1010 84 10000 2.24 81 00:30 27.01.2021
3274 Clouds 13 1010 84 10000 2.24 81 00:30 27.01.2021
3275 Clear 17 1022 72 10000 3.09 30 23:44 26.01.2021
3276 Clear 17 1022 72 10000 3.09 30 23:22 26.01.2021
3277 Clear 17 1022 72 10000 3.09 30 22:46 26.01.2021
3278 Clear 18 1021 72 10000 4.12 50 22:20 26.01.2021
3279 Clear 18 1021 72 10000 4.12 50 21:53 26.01.2021
3280 Clear 18 1021 72 10000 4.12 50 21:27 26.01.2021
3281 Clear 19 1021 68 10000 4.12 50 20:57 26.01.2021
3282 Clear 19 1021 68 10000 4.12 50 20:38 26.01.2021
3283 Clear 21 1020 64 10000 3.09 60 20:20 26.01.2021
3284 Clear 21 1020 64 10000 3.09 60 19:43 26.01.2021
3285 Clear 22 1018 68 10000 5.14 60 19:20 26.01.2021
3286 Clear 22 1018 68 10000 5.14 60 18:46 26.01.2021
3287 Clear 22 1018 68 10000 5.14 60 18:24 26.01.2021
3288 Clear 18 1013 66 10000 6.31 62 17:49 26.01.2021
3289 Clouds 25 1018 61 10000 7.72 90 17:27 26.01.2021
3290 Clouds 25 1018 61 10000 7.72 90 16:55 26.01.2021
3291 Clouds 26 1017 65 10000 6.17 70 16:37 26.01.2021
3292 Clouds 26 1017 65 10000 6.17 70 16:18 26.01.2021
3293 Clouds 26 1017 65 10000 6.17 70 15:39 26.01.2021
3294 Clouds 27 1017 57 10000 7.72 90 15:19 26.01.2021
3295 Clouds 27 1018 57 10000 5.14 90 14:35 26.01.2021
3296 Clouds 27 1018 57 10000 5.14 90 14:35 26.01.2021
3297 Clouds 27 1018 57 10000 5.14 90 13:59 26.01.2021
3298 Clouds 26 1019 61 10000 5.14 90 13:33 26.01.2021
3299 Clouds 27 1020 28 10000 5.66 40 12:57 26.01.2021
3300 Clouds 26 1020 61 10000 5.14 30 12:38 26.01.2021
3301 Clouds 25 1020 61 10000 5.14 30 12:19 26.01.2021
3302 Clouds 25 1020 61 10000 5.14 30 11:49 26.01.2021
3303 Clouds 24 1021 53 10000 10.29 90 11:19 26.01.2021
3304 Clouds 24 1021 53 10000 10.29 90 10:34 26.01.2021
3305 Clouds 23 1022 60 10000 10.29 60 09:57 26.01.2021
3306 Clouds 23 1022 60 10000 10.29 60 09:39 26.01.2021
3307 Clouds 21 1022 68 10000 3.6 70 09:21 26.01.2021
3308 Clouds 21 1022 68 10000 3.6 70 08:44 26.01.2021
3309 Clouds 19 1022 72 10000 4.12 60 07:56 26.01.2021
3310 Clouds 17 1022 82 10000 2.57 30 07:19 26.01.2021
3311 Clouds 17 1022 77 10000 3.41 49 05:51 26.01.2021
3312 Clouds 16 1022 77 10000 3.38 49 05:32 26.01.2021
3313 Clouds 15 1017 86 10000 2.39 37 03:32 26.01.2021
3314 Clouds 13 1011 85 8595 1.79 84 00:59 26.01.2021
3315 Clouds 13 1011 85 10000 3.58 92 00:24 26.01.2021
3316 Clouds 19 1022 77 10000 5.14 50 23:31 25.01.2021
3317 Clouds 19 1022 77 10000 5.14 50 22:47 25.01.2021
3318 Clouds 19 1022 77 10000 5.14 50 22:29 25.01.2021
3319 Clouds 14 1012 85 10000 5.36 88 21:45 25.01.2021
3320 Rain 14 1012 84 10000 3.58 107 21:19 25.01.2021
3321 Rain 14 1012 85 10000 6.26 113 20:43 25.01.2021
3322 Clouds 21 1020 60 10000 6.69 90 20:23 25.01.2021
3323 Clouds 14 1011 83 10000 4.92 128 19:48 25.01.2021
3324 Rain 21 1019 60 10000 7.72 80 19:23 25.01.2021
3325 Rain 21 1019 60 10000 7.72 80 18:46 25.01.2021
3326 Clouds 15 1010 83 10000 5.36 113 18:24 25.01.2021
3327 Clouds 16 1009 81 10000 4.02 76 17:49 25.01.2021
3328 Clouds 24 1018 60 10000 5.66 60 17:25 25.01.2021
3329 Clouds 24 1018 60 10000 5.66 60 16:50 25.01.2021
3330 Clouds 25 1018 57 10000 7.2 70 16:26 25.01.2021
3331 Clouds 17 1008 76 10000 2.68 85 15:57 25.01.2021
3332 Clouds 26 1017 53 10000 6.17 90 15:39 25.01.2021
3333 Clouds 26 1017 53 10000 6.17 90 15:19 25.01.2021
3334 Clouds 26 1017 53 10000 6.17 90 14:39 25.01.2021
3335 Rain 26 1018 50 10000 6.17 90 14:18 25.01.2021
3336 Rain 26 1018 50 10000 6.17 90 13:44 25.01.2021
3337 Clouds 26 1019 53 10000 5.14 40 13:21 25.01.2021
3338 Clouds 26 1019 53 10000 5.14 40 12:44 25.01.2021
3339 Clouds 25 1020 53 10000 6.69 90 12:19 25.01.2021
3340 Clouds 25 1020 53 10000 6.69 90 11:31 25.01.2021
3341 Clouds 24 1020 57 10000 5.14 90 10:53 25.01.2021
3342 Clouds 22 1021 60 10000 5.14 40 10:22 25.01.2021
3343 Clouds 22 1021 60 10000 5.14 40 09:54 25.01.2021
3344 Clouds 22 1021 60 10000 5.14 40 09:31 25.01.2021
3345 Clouds 21 1022 64 10000 5.14 60 08:48 25.01.2021
3346 Clouds 18 1022 82 10000 4.12 60 08:23 25.01.2021
3347 Clouds 17 1021 88 10000 2.57 50 07:29 25.01.2021
3348 Clouds 17 1021 88 10000 2.57 50 06:39 25.01.2021
3349 Clouds 14 1009 82 10000 4.47 64 02:59 25.01.2021
3350 Clouds 14 1009 83 10000 4.02 93 00:48 25.01.2021
3351 Rain 19 1022 72 10000 5.14 40 23:40 24.01.2021
3352 Rain 19 1022 72 10000 5.14 40 23:18 24.01.2021
3353 Rain 19 1022 72 10000 5.14 40 22:41 24.01.2021
3354 Clouds 20 1022 68 10000 4.12 40 22:18 24.01.2021
3355 Clouds 20 1019 68 10000 3.09 60 21:44 24.01.2021
3356 Rain 20 1019 68 10000 3.09 60 21:21 24.01.2021
3357 Rain 20 1019 68 10000 3.09 60 20:43 24.01.2021
3358 Clouds 21 1019 64 10000 4.12 30 20:19 24.01.2021
3359 Clouds 21 1019 64 10000 4.12 30 19:50 24.01.2021
3360 Clouds 21 1019 64 10000 4.12 30 19:26 24.01.2021
3361 Clouds 22 1019 64 10000 5.14 60 18:57 24.01.2021
3362 Clouds 22 1019 64 10000 5.14 60 18:38 24.01.2021
3363 Rain 16 1010 71 10000 2.68 114 18:19 24.01.2021
3364 Rain 16 1009 68 10000 3.13 79 17:48 24.01.2021
3365 Rain 25 1017 53 10000 6.17 90 17:21 24.01.2021
3366 Rain 25 1017 53 10000 6.17 90 16:43 24.01.2021
3367 Rain 25 1017 53 10000 6.17 90 16:25 24.01.2021
3368 Rain 26 1017 53 10000 7.72 90 15:58 24.01.2021
3369 Rain 26 1017 53 10000 7.72 90 15:40 24.01.2021
3370 Clouds 26 1017 53 10000 9.26 90 15:18 24.01.2021
3371 Clouds 26 1017 53 10000 9.26 90 14:37 24.01.2021
3372 Clouds 23 1008 48 10000 3.58 117 13:42 24.01.2021
3373 Clouds 22 1008 49 10000 1.79 93 13:23 24.01.2021
3374 Clouds 23 1008 44 10000 2.24 92 12:43 24.01.2021
3375 Clouds 25 1019 53 10000 7.72 60 12:20 24.01.2021
3376 Clouds 25 1019 53 10000 7.72 60 11:49 24.01.2021
3377 Clouds 25 1019 53 10000 7.72 60 11:24 24.01.2021
3378 Clouds 22 1010 47 10000 1.34 40 10:45 24.01.2021
3379 Clouds 22 1010 47 10000 0.45 71 10:18 24.01.2021
3380 Clouds 20 1021 64 10000 6.17 30 09:22 24.01.2021
3381 Clouds 20 1021 64 10000 6.17 30 08:57 24.01.2021
3382 Clouds 18 1021 77 10000 4.12 60 08:22 24.01.2021
3383 Clouds 12 1010 86 10000 3.19 39 02:41 24.01.2021
3384 Clouds 13 1009 83 10000 1.34 69 01:49 24.01.2021
3385 Clouds 13 1010 81 10000 4.02 63 00:25 24.01.2021
3386 Clouds 16 1015 83 10000 4.58 42 23:53 23.01.2021
3387 Clouds 17 1021 82 10000 3.09 30 23:26 23.01.2021
3388 Clouds 17 1021 82 10000 3.09 30 22:51 23.01.2021
3389 Clouds 18 1020 77 10000 5.14 30 22:33 23.01.2021
3390 Clouds 18 1020 77 10000 5.14 30 21:53 23.01.2021
3391 Clouds 19 1020 72 10000 3.09 30 21:22 23.01.2021
3392 Clouds 14 1010 83 10000 4.47 92 20:48 23.01.2021
3393 Clouds 14 1010 83 10000 4.92 74 20:25 23.01.2021
3394 Clouds 14 1010 83 10000 5.36 117 19:47 23.01.2021
3395 Clouds 14 1010 82 10000 4.92 80 19:23 23.01.2021
3396 Clouds 15 1010 83 10000 4.47 98 18:51 23.01.2021
3397 Clouds 21 1018 64 10000 5.14 70 18:26 23.01.2021
3398 Clouds 21 1018 64 10000 5.14 70 17:55 23.01.2021
3399 Clouds 23 1017 56 10000 7.72 70 17:27 23.01.2021
3400 Clouds 16 1008 81 10000 5.36 92 16:51 23.01.2021
3401 Clouds 24 1017 53 10000 9.26 90 16:31 23.01.2021
3402 Clouds 24 1017 53 10000 9.26 90 15:48 23.01.2021
3403 Clouds 24 1017 53 10000 9.26 90 15:26 23.01.2021
3404 Clouds 25 1018 53 10000 10.29 90 14:37 23.01.2021
3405 Clouds 21 1007 63 10000 2.24 115 14:19 23.01.2021
3406 Clouds 24 1019 57 10000 9.26 70 13:40 23.01.2021
3407 Clouds 24 1019 57 10000 9.26 70 13:21 23.01.2021
3408 Clouds 24 1019 57 10000 9.26 70 12:42 23.01.2021
3409 Clouds 24 1019 57 10000 9.26 70 12:22 23.01.2021
3410 Clouds 23 1020 64 10000 6.17 70 11:34 23.01.2021
3411 Clouds 22 1020 68 10000 6.17 60 10:53 23.01.2021
3412 Clouds 21 1021 68 10000 5.14 60 10:22 23.01.2021
3413 Clouds 21 1021 68 10000 5.14 60 09:49 23.01.2021
3414 Clouds 20 1021 77 10000 5.14 70 09:24 23.01.2021
3415 Clouds 18 1022 88 10000 7.72 80 08:38 23.01.2021
3416 Clouds 18 1021 82 10000 4.63 70 07:38 23.01.2021
3417 Clouds 18 1021 82 10000 4.63 70 06:48 23.01.2021
3418 Clouds 13 1009 85 10000 0.89 107 01:44 23.01.2021
3419 Clouds 14 1009 83 10000 0.89 109 00:23 23.01.2021
3420 Clouds 18 1020 82 10000 2.57 60 23:35 22.01.2021
3421 Clouds 18 1020 82 10000 2.57 60 22:41 22.01.2021
3422 Clouds 14 1010 84 10000 1.79 332 21:56 22.01.2021
3423 Clear 19 1020 72 10000 5.66 50 21:37 22.01.2021
3424 Clear 19 1020 72 10000 5.66 50 21:19 22.01.2021
3425 Clear 19 1020 72 10000 5.66 50 20:44 22.01.2021
3426 Clouds 20 1020 68 10000 6.17 90 20:25 22.01.2021
3427 Clouds 20 1020 68 10000 6.17 90 19:37 22.01.2021
3428 Clouds 21 1019 68 10000 7.2 160 19:18 22.01.2021
3429 Clouds 22 1018 64 10000 12.35 80 18:43 22.01.2021
3430 Clouds 22 1018 64 10000 12.35 80 18:24 22.01.2021
3431 Clouds 22 1018 64 10000 12.35 80 17:44 22.01.2021
3432 Clouds 22 1018 64 10000 12.35 80 17:25 22.01.2021
3433 Clouds 24 1017 57 10000 6.17 40 16:45 22.01.2021
3434 Clouds 24 1017 57 10000 6.17 40 16:24 22.01.2021
3435 Clouds 25 1016 50 10000 9.77 50 15:44 22.01.2021
3436 Clouds 25 1016 50 10000 7.2 70 15:19 22.01.2021
3437 Clouds 25 1016 50 10000 7.2 70 14:31 22.01.2021
3438 Clouds 25 1017 50 10000 8.75 80 13:52 22.01.2021
3439 Rain 25 1017 50 10000 8.75 80 13:32 22.01.2021
3440 Rain 25 1018 50 10000 7.72 80 12:53 22.01.2021
3441 Rain 24 1019 60 10000 7.72 30 12:26 22.01.2021
3442 Rain 24 1019 60 10000 7.72 30 11:48 22.01.2021
3443 Rain 24 1019 60 10000 7.72 30 11:30 22.01.2021
3444 Rain 21 1020 68 10000 5.66 40 10:46 22.01.2021
3445 Rain 19 1021 82 10000 5.14 70 10:22 22.01.2021
3446 Rain 19 1021 82 10000 5.14 70 09:39 22.01.2021
3447 Rain 19 1021 88 10000 4.63 90 08:51 22.01.2021
3448 Clouds 19 1021 88 10000 4.63 90 08:30 22.01.2021
3449 Clouds 18 1021 82 10000 3.09 60 07:40 22.01.2021
3450 Clouds 12 1010 84 10000 1.68 39 03:41 22.01.2021
3451 Clouds 16 1015 89 10000 2.74 35 00:54 22.01.2021
3452 Clouds 17 1015 88 10000 3.24 48 00:25 22.01.2021
3453 Clear 18 1021 82 10000 2.57 350 23:42 21.01.2021
3454 Clear 18 1021 82 10000 2.57 350 22:59 21.01.2021
3455 Clear 18 1021 82 10000 2.57 350 22:41 21.01.2021
3456 Clear 19 1021 77 10000 3.09 30 21:44 21.01.2021
3457 Clear 19 1021 77 10000 3.09 30 21:23 21.01.2021
3458 Clouds 17 1015 83 10000 4.93 60 20:57 21.01.2021
3459 Clouds 21 1020 64 10000 3.09 30 20:39 21.01.2021
3460 Clouds 21 1020 64 10000 3.09 30 20:18 21.01.2021
3461 Clouds 21 1020 64 10000 3.09 30 19:46 21.01.2021
3462 Clouds 21 1020 64 10000 3.09 30 19:24 21.01.2021
3463 Clouds 21 1019 64 10000 3.09 30 18:42 21.01.2021
3464 Clouds 22 1018 60 10000 6.17 70 18:21 21.01.2021
3465 Clouds 16 1009 83 10000 4.02 111 17:57 21.01.2021
3466 Clouds 23 1017 56 10000 6.17 60 17:21 21.01.2021
3467 Clouds 23 1017 56 10000 6.17 60 16:55 21.01.2021
3468 Clouds 24 1017 56 10000 6.17 60 16:37 21.01.2021
3469 Clouds 25 1017 47 10000 7.72 60 16:18 21.01.2021
3470 Clouds 25 1017 47 10000 7.72 60 15:45 21.01.2021
3471 Clouds 25 1017 44 10000 8.23 60 15:22 21.01.2021
3472 Clouds 25 1017 44 10000 8.23 60 14:39 21.01.2021
3473 Clouds 25 1017 44 10000 9.26 90 14:21 21.01.2021
3474 Clouds 25 1017 44 10000 9.26 90 13:42 21.01.2021
3475 Clouds 26 1019 38 10000 6.17 30 13:22 21.01.2021
3476 Clouds 26 1019 38 10000 6.17 30 12:42 21.01.2021
3477 Clouds 26 1020 38 10000 7.2 60 12:23 21.01.2021
3478 Clouds 26 1020 38 10000 7.2 60 11:51 21.01.2021
3479 Clouds 25 1020 46 10000 7.72 90 11:28 21.01.2021
3480 Clouds 24 1020 46 10000 7.72 90 10:52 21.01.2021
3481 Clouds 24 1020 46 10000 7.72 90 10:33 21.01.2021
3482 Clouds 23 1020 53 10000 5.14 50 09:45 21.01.2021
3483 Clouds 22 1021 56 10000 5.14 30 09:25 21.01.2021
3484 Clouds 22 1021 56 10000 5.14 30 08:45 21.01.2021
3485 Clouds 22 1021 56 10000 5.14 30 08:45 21.01.2021
3486 Clouds 22 1021 56 10000 5.14 30 08:24 21.01.2021
3487 Clouds 21 1022 68 10000 5.14 50 07:28 21.01.2021
3488 Clouds 17 1021 82 10000 5.3 42 06:58 21.01.2021
3489 Clear 15 1020 88 10000 3.09 300 05:22 21.01.2021
3490 Clouds 15 1015 82 10000 1.75 25 02:58 21.01.2021
3491 Clouds 16 1015 81 10000 2.27 38 00:57 21.01.2021
3492 Clouds 16 1015 79 10000 2.79 50 23:56 20.01.2021
3493 Clear 18 1021 68 10000 2.79 50 23:36 20.01.2021
3494 Clouds 17 1015 78 10000 3.35 52 23:18 20.01.2021
3495 Clouds 17 1015 78 10000 3.35 52 22:46 20.01.2021
3496 Clouds 14 1011 82 10000 4.47 107 22:28 20.01.2021
3497 Clouds 17 1015 77 10000 3.93 59 21:41 20.01.2021
3498 Clouds 18 1015 75 10000 4.35 64 21:22 20.01.2021
3499 Clouds 18 1015 75 10000 4.35 64 20:50 20.01.2021
3500 Clouds 15 1011 81 10000 4.02 112 20:19 20.01.2021
3501 Clouds 16 1011 80 10000 4.02 111 19:46 20.01.2021
3502 Clouds 16 1011 80 10000 4.92 102 19:26 20.01.2021
3503 Clouds 16 1010 78 10000 4.47 106 18:42 20.01.2021
3504 Clouds 16 1009 75 10000 5.36 115 18:19 20.01.2021
3505 Clouds 17 1009 71 10000 4.02 108 17:42 20.01.2021
3506 Clouds 17 1008 68 10000 4.92 103 17:23 20.01.2021
3507 Clouds 18 1008 67 10000 3.13 96 16:44 20.01.2021
3508 Clouds 20 1008 63 10000 3.58 117 15:55 20.01.2021
3509 Clouds 20 1008 63 10000 3.58 72 15:36 20.01.2021
3510 Clouds 20 1008 66 10000 2.68 91 14:51 20.01.2021
3511 Clouds 21 1008 60 10000 1.79 109 14:28 20.01.2021
3512 Clouds 22 1008 58 10000 1.79 114 13:59 20.01.2021
3513 Clouds 22 1008 57 10000 0.89 281 13:36 20.01.2021
3514 Clouds 23 1008 50 10000 2.68 288 12:54 20.01.2021
3515 Clouds 23 1009 50 10000 5.34 65 12:22 20.01.2021
3516 Clouds 22 1010 53 10000 0.45 272 11:39 20.01.2021
3517 Clouds 22 1010 53 10000 0.45 272 11:39 20.01.2021
3518 Clouds 23 1010 49 10000 5.26 63 11:18 20.01.2021
3519 Clouds 21 1011 53 10000 0.45 258 10:44 20.01.2021
3520 Clouds 22 1011 50 10000 1.34 183 10:18 20.01.2021
3521 Clouds 22 1012 52 10000 5.41 60 09:38 20.01.2021
3522 Clouds 22 1012 50 10000 5.64 54 09:18 20.01.2021
3523 Clouds 21 1013 52 10000 0.89 146 08:41 20.01.2021
3524 Clouds 20 1013 53 10000 5.25 49 08:20 20.01.2021
3525 Clouds 18 1013 57 10000 0.89 86 07:37 20.01.2021
3526 Clouds 17 1013 58 10000 0.45 84 06:59 20.01.2021
3527 Clouds 13 1011 71 10000 0.45 76 03:37 20.01.2021
3528 Clouds 17 1014 61 10000 1.33 27 01:51 20.01.2021
3529 Clouds 14 1011 70 10000 3.13 106 00:52 20.01.2021
3530 Clouds 17 1015 66 10000 1.82 32 23:54 19.01.2021
3531 Clouds 17 1015 65 10000 2.71 38 23:34 19.01.2021
3532 Clouds 17 1015 65 10000 2.71 38 23:34 19.01.2021
3533 Clouds 17 1015 65 10000 2.71 38 22:58 19.01.2021
3534 Clouds 17 1015 65 10000 2.71 38 22:39 19.01.2021
3535 Clouds 17 1015 64 10000 3.52 49 22:21 19.01.2021
3536 Clouds 17 1015 64 10000 3.52 49 21:54 19.01.2021
3537 Clouds 17 1014 64 10000 4.2 61 21:34 19.01.2021
3538 Clouds 17 1014 64 10000 4.2 61 20:49 19.01.2021
3539 Clouds 18 1014 62 10000 4.84 68 20:28 19.01.2021
3540 Clouds 18 1014 62 10000 4.82 68 19:56 19.01.2021
3541 Clouds 18 1014 62 10000 4.78 68 19:36 19.01.2021
3542 Clouds 16 1011 77 10000 4.47 128 19:18 19.01.2021
3543 Clouds 16 1010 81 10000 4.02 79 18:38 19.01.2021
3544 Clouds 16 1010 81 10000 4.02 79 18:20 19.01.2021
3545 Clouds 16 1009 81 10000 4.92 108 17:42 19.01.2021
3546 Clouds 16 1008 81 10000 3.58 113 17:20 19.01.2021
3547 Clouds 16 1008 85 10000 5.87 65 16:40 19.01.2021
3548 Clouds 24 1009 41 10000 5.26 73 16:20 19.01.2021
3549 Clouds 17 1008 83 10000 5.26 73 15:50 19.01.2021
3550 Clouds 26 1008 36 10000 5.23 74 15:30 19.01.2021
3551 Clouds 26 1008 36 10000 5.23 74 14:44 19.01.2021
3552 Clouds 26 1008 38 10000 4.04 65 14:26 19.01.2021
3553 Clouds 19 1007 65 10000 0.45 74 13:49 19.01.2021
3554 Clouds 20 1007 66 10000 4.05 54 13:23 19.01.2021
3555 Clouds 18 1008 74 10000 2.24 78 12:51 19.01.2021
3556 Clouds 26 1010 40 10000 4.56 55 12:30 19.01.2021
3557 Clouds 26 1010 40 10000 4.58 55 11:52 19.01.2021
3558 Clouds 26 1011 42 10000 4.96 61 11:29 19.01.2021
3559 Clouds 19 1009 74 10000 4.96 61 10:59 19.01.2021
3560 Clouds 19 1009 71 10000 4.96 61 10:40 19.01.2021
3561 Clear 20 1009 70 10000 5.07 61 10:18 19.01.2021
3562 Clear 21 1010 69 10000 0.45 117 09:42 19.01.2021
3563 Clear 19 1011 73 10000 0.45 75 09:19 19.01.2021
3564 Clear 17 1011 82 10000 4.91 53 08:33 19.01.2021
3565 Clear 16 1012 88 10000 4.91 53 07:51 19.01.2021
3566 Clouds 15 1012 89 10000 5.11 50 06:59 19.01.2021
3567 Clouds 14 1011 92 10000 1.92 34 03:34 19.01.2021
3568 Clouds 14 1010 90 10000 1.88 35 02:21 19.01.2021
3569 Rain 17 1014 84 10000 2.72 43 00:34 19.01.2021
3570 Rain 17 1014 84 10000 2.72 43 23:47 18.01.2021
3571 Rain 17 1014 84 10000 3.09 42 23:23 18.01.2021
3572 Rain 17 1014 84 10000 3.09 42 22:41 18.01.2021
3573 Rain 17 1014 83 10000 3.4 44 22:21 18.01.2021
3574 Rain 17 1014 84 10000 3.44 44 21:47 18.01.2021
3575 Rain 17 1014 82 10000 3.61 47 21:22 18.01.2021
3576 Rain 17 1014 82 10000 3.54 47 20:54 18.01.2021
3577 Rain 17 1014 82 10000 3.61 47 20:33 18.01.2021
3578 Clouds 17 1014 82 10000 3.69 51 19:54 18.01.2021
3579 Rain 18 1013 79 10000 4.62 51 19:34 18.01.2021
3580 Rain 18 1013 79 10000 4.62 51 18:48 18.01.2021
3581 Rain 16 1009 89 10000 1.34 72 18:26 18.01.2021
3582 Rain 16 1008 90 10000 0.89 80 17:47 18.01.2021
3583 Rain 16 1008 91 10000 2.68 86 17:29 18.01.2021
3584 Rain 16 1008 91 10000 1.34 96 16:50 18.01.2021
3585 Rain 16 1008 91 10000 1.34 96 16:50 18.01.2021
3586 Clouds 17 1008 86 10000 1.34 95 16:27 18.01.2021
3587 Clouds 23 1009 54 10000 4.61 70 15:54 18.01.2021
3588 Clouds 19 1007 68 10000 0.45 72 15:29 18.01.2021
3589 Clouds 18 1007 76 10000 3.17 75 14:58 18.01.2021
3590 Clouds 17 1007 86 10000 0.45 72 14:38 18.01.2021
3591 Clouds 25 1008 44 10000 2.51 63 14:20 18.01.2021
3592 Clouds 25 1008 44 10000 2.45 64 13:44 18.01.2021
3593 Clouds 27 1016 36 10000 5.14 120 13:20 18.01.2021
3594 Rain 25 1008 45 10000 2.71 50 12:46 18.01.2021
3595 Rain 19 1008 72 10000 3.05 55 12:19 18.01.2021
3596 Rain 20 1008 67 10000 1.79 72 11:46 18.01.2021
3597 Clouds 22 1008 64 10000 3.05 57 11:25 18.01.2021
3598 Clouds 20 1009 71 10000 3.05 57 10:47 18.01.2021
3599 Clouds 19 1010 72 10000 0.45 81 10:26 18.01.2021
3600 Clouds 18 1010 79 10000 2.81 55 09:39 18.01.2021
3601 Clouds 21 1013 59 10000 3.05 46 09:18 18.01.2021
3602 Rain 16 1011 89 10000 0.89 81 08:26 18.01.2021
3603 Rain 19 1014 67 10000 3.34 40 07:54 18.01.2021
3604 Rain 14 1012 91 10000 3.25 48 06:35 18.01.2021
3605 Rain 11 1011 92 10000 1.4 51 04:43 18.01.2021
3606 Clouds 12 1011 92 10000 1.39 25 04:25 18.01.2021
3607 Clouds 12 1010 92 10000 1.39 25 03:50 18.01.2021
3608 Rain 12 1010 91 10000 1.74 25 03:27 18.01.2021
3609 Rain 12 1010 90 10000 1.7 24 02:57 18.01.2021
3610 Clouds 13 1009 89 10000 2.07 35 02:19 18.01.2021
3611 Rain 14 1009 87 10000 1.79 73 00:41 18.01.2021
3612 Rain 16 1013 87 10000 2.92 37 23:57 17.01.2021
3613 Rain 16 1013 87 10000 2.92 37 23:39 17.01.2021
3614 Rain 16 1013 89 10000 3.47 34 23:19 17.01.2021
3615 Rain 16 1014 89 10000 3.22 37 22:24 17.01.2021
3616 Rain 16 1014 90 10000 3.22 37 21:45 17.01.2021
3617 Rain 17 1014 89 10000 3.15 34 21:27 17.01.2021
3618 Rain 17 1014 89 10000 3.16 34 20:55 17.01.2021
3619 Rain 15 1010 86 10000 2.68 118 20:37 17.01.2021
3620 Rain 15 1010 85 10000 2.68 87 20:18 17.01.2021
3621 Rain 16 1010 83 10000 2.24 61 19:40 17.01.2021
3622 Rain 15 1009 82 10000 0.45 76 18:58 17.01.2021
3623 Rain 16 1009 79 10000 4.75 67 18:30 17.01.2021
3624 Rain 15 1008 78 10000 4.75 67 17:54 17.01.2021
3625 Rain 16 1008 78 10000 5.57 70 17:35 17.01.2021
3626 Rain 17 1008 73 10000 5.57 70 16:57 17.01.2021
3627 Rain 17 1007 74 10000 2.24 72 16:39 17.01.2021
3628 Rain 17 1007 74 10000 2.68 73 16:19 17.01.2021
3629 Rain 18 1007 73 10000 1.34 112 15:38 17.01.2021
3630 Rain 18 1007 74 10000 0.89 112 15:19 17.01.2021
3631 Rain 17 1006 81 10000 5.17 64 14:44 17.01.2021
3632 Clouds 19 1006 74 10000 4.58 67 14:25 17.01.2021
3633 Clouds 20 1006 72 10000 4.57 67 13:44 17.01.2021
3634 Clouds 19 1006 77 10000 4.82 64 13:26 17.01.2021
3635 Rain 26 1008 42 10000 3.77 70 12:47 17.01.2021
3636 Rain 26 1008 43 10000 3.72 66 12:28 17.01.2021
3637 Rain 19 1007 65 10000 3.82 58 11:26 17.01.2021
3638 Rain 20 1008 64 10000 1.34 312 10:57 17.01.2021
3639 Rain 22 1008 59 10000 0.45 235 10:39 17.01.2021
3640 Rain 21 1008 65 10000 3.87 59 10:18 17.01.2021
3641 Rain 21 1009 67 10000 3.2 58 09:19 17.01.2021
3642 Rain 18 1010 76 10000 3.2 58 08:42 17.01.2021
3643 Rain 18 1010 76 10000 3.2 58 08:42 17.01.2021
3644 Clouds 13 1010 91 10000 2.04 36 05:20 17.01.2021
3645 Clouds 13 1009 90 10000 2.21 37 04:27 17.01.2021
3646 Rain 14 1008 84 10000 0.45 80 02:30 17.01.2021
3647 Clouds 15 1008 85 10000 0.89 96 00:38 17.01.2021
3648 Rain 15 1008 85 10000 1.34 94 00:18 17.01.2021
3649 Rain 15 1009 85 10000 1.79 89 23:48 16.01.2021
3650 Rain 15 1009 85 10000 2.68 102 23:19 16.01.2021
3651 Rain 15 1009 83 10000 3.13 94 22:34 16.01.2021
3652 Clouds 15 1009 84 10000 4.47 111 21:58 16.01.2021
3653 Rain 15 1009 84 10000 3.58 105 21:24 16.01.2021
3654 Rain 17 1013 88 10000 3.69 50 20:53 16.01.2021
3655 Rain 17 1013 88 10000 3.69 50 20:30 16.01.2021
3656 Clouds 16 1009 79 10000 4.02 116 19:55 16.01.2021
3657 Clouds 17 1013 88 10000 3.85 49 19:37 16.01.2021
3658 Rain 17 1013 86 10000 4.58 63 19:18 16.01.2021
3659 Rain 17 1013 86 10000 4.54 64 18:40 16.01.2021
3660 Rain 18 1012 83 10000 5.13 71 18:20 16.01.2021
3661 Rain 18 1012 83 10000 5.12 71 17:41 16.01.2021
3662 Rain 17 1008 75 10000 3.13 84 17:21 16.01.2021
3663 Rain 19 1010 78 10000 4.71 76 16:45 16.01.2021
3664 Rain 18 1007 66 10000 2.68 109 16:21 16.01.2021
3665 Rain 19 1006 59 10000 2.68 115 15:43 16.01.2021
3666 Rain 20 1006 58 10000 2.24 91 14:53 16.01.2021
3667 Rain 21 1006 54 10000 2.68 112 14:18 16.01.2021
3668 Rain 24 1008 51 10000 4.64 77 13:47 16.01.2021
3669 Rain 22 1006 49 10000 0.45 131 13:19 16.01.2021
3670 Rain 22 1006 51 10000 0.45 168 12:39 16.01.2021
3671 Rain 22 1006 52 10000 1.34 161 12:20 16.01.2021
3672 Rain 25 1010 45 10000 3.92 76 11:46 16.01.2021
3673 Rain 25 1011 46 10000 4.04 73 11:24 16.01.2021
3674 Rain 22 1008 48 10000 2.24 170 10:43 16.01.2021
3675 Rain 24 1012 48 10000 3.53 71 10:19 16.01.2021
3676 Rain 20 1010 63 10000 3.06 64 09:32 16.01.2021
3677 Rain 19 1010 65 10000 0.89 77 08:35 16.01.2021
3678 Rain 17 1011 74 10000 2.63 60 07:31 16.01.2021
3679 Rain 15 1011 80 10000 1.96 70 06:43 16.01.2021
3680 Clouds 13 1009 84 10000 1.29 62 04:39 16.01.2021
3681 Rain 13 1008 86 10000 1.79 86 02:56 16.01.2021
3682 Rain 14 1008 84 10000 0.89 75 00:50 16.01.2021
3683 Clouds 14 1008 84 10000 0.45 75 00:28 16.01.2021
3684 Clouds 14 1008 84 10000 3.45 55 23:55 15.01.2021
3685 Clouds 14 1008 83 10000 4.47 124 22:56 15.01.2021
3686 Clouds 14 1009 84 9756 4.02 77 22:24 15.01.2021
3687 Clouds 14 1009 84 9756 3.58 117 21:46 15.01.2021
3688 Clouds 14 1009 84 10000 4.02 77 20:59 15.01.2021
3689 Clouds 14 1009 83 10000 4.47 86 20:40 15.01.2021
3690 Clouds 15 1009 84 10000 4.02 78 20:22 15.01.2021
3691 Clouds 17 1014 86 10000 4.5 45 19:41 15.01.2021
3692 Rain 16 1009 83 10000 4.47 84 19:22 15.01.2021
3693 Rain 16 1009 83 10000 4.47 70 18:44 15.01.2021
3694 Rain 16 1008 82 10000 4.47 76 18:19 15.01.2021
3695 Rain 18 1012 79 10000 5.2 54 17:52 15.01.2021
3696 Rain 20 1011 73 10000 5.24 66 17:26 15.01.2021
3697 Rain 20 1011 73 10000 5.24 66 16:55 15.01.2021
3698 Rain 18 1007 71 10000 3.58 103 16:26 15.01.2021
3699 Rain 22 1009 61 10000 5.73 75 15:44 15.01.2021
3700 Clouds 24 1008 49 10000 6.24 75 15:23 15.01.2021
3701 Clouds 24 1008 49 10000 6.23 75 14:56 15.01.2021
3702 Clouds 24 1008 49 10000 6.24 75 14:37 15.01.2021
3703 Clouds 22 1006 51 10000 2.24 102 14:18 15.01.2021
3704 Clouds 23 1006 49 10000 3.13 81 13:40 15.01.2021
3705 Clear 23 1007 47 10000 2.68 126 13:19 15.01.2021
3706 Clear 23 1008 46 10000 1.34 120 12:37 15.01.2021
3707 Clear 23 1008 44 10000 0.45 111 12:19 15.01.2021
3708 Clear 23 1008 42 10000 0.45 116 11:42 15.01.2021
3709 Clear 23 1009 37 10000 2.68 120 10:58 15.01.2021
3710 Clear 23 1009 37 10000 2.68 117 10:39 15.01.2021
3711 Clear 23 1009 36 10000 1.79 150 10:19 15.01.2021
3712 Clear 22 1010 58 10000 0.45 70 09:47 15.01.2021
3713 Clear 21 1010 60 10000 0.89 78 09:27 15.01.2021
3714 Clear 19 1011 65 10000 2.98 50 08:27 15.01.2021
3715 Clear 18 1011 61 10000 2.97 50 07:44 15.01.2021
3716 Clear 18 1011 64 10000 2.62 48 07:22 15.01.2021
3717 Clear 15 1011 75 10000 1.79 30 06:28 15.01.2021
3718 Clear 15 1015 84 10000 2.18 22 02:28 15.01.2021
3719 Clouds 16 1014 82 10000 2.31 26 00:41 15.01.2021
3720 Clouds 13 1010 86 10000 3.13 95 23:30 14.01.2021
3721 Clouds 14 1010 86 10000 4.47 71 22:56 14.01.2021
3722 Clouds 14 1010 86 10000 3.13 73 22:36 14.01.2021
3723 Clouds 14 1010 86 10000 3.13 73 22:36 14.01.2021
3724 Clouds 14 1010 85 10000 4.47 94 22:18 14.01.2021
3725 Clouds 14 1010 85 10000 4.47 113 21:39 14.01.2021
3726 Clouds 14 1010 85 10000 5.36 77 21:20 14.01.2021
3727 Clouds 14 1010 84 10000 4.02 92 20:44 14.01.2021
3728 Clouds 14 1010 83 10000 4.02 76 19:59 14.01.2021
3729 Clouds 14 1010 83 10000 4.02 102 19:38 14.01.2021
3730 Clouds 14 1010 82 10000 5.81 77 19:18 14.01.2021
3731 Clouds 15 1009 82 10000 3.58 54 18:42 14.01.2021
3732 Clouds 16 1008 83 10000 3.58 113 17:59 14.01.2021
3733 Clouds 16 1008 83 10000 3.58 113 17:59 14.01.2021
3734 Clouds 16 1008 83 10000 3.58 111 17:33 14.01.2021
3735 Clear 17 1007 80 10000 3.13 117 16:56 14.01.2021
3736 Clear 17 1007 80 10000 3.13 117 16:35 14.01.2021
3737 Clear 18 1007 78 10000 4.47 110 15:55 14.01.2021
3738 Clear 19 1006 72 10000 3.13 77 15:34 14.01.2021
3739 Clear 20 1006 67 10000 2.68 69 14:49 14.01.2021
3740 Clear 21 1006 67 10000 4.02 63 14:31 14.01.2021
3741 Clear 21 1007 63 10000 1.34 94 13:57 14.01.2021
3742 Clouds 21 1007 61 10000 4.02 103 13:26 14.01.2021
3743 Clouds 22 1008 56 10000 2.24 117 12:59 14.01.2021
3744 Clouds 22 1009 51 10000 3.13 126 12:24 14.01.2021
3745 Clouds 22 1009 54 10000 2.68 108 11:59 14.01.2021
3746 Clouds 22 1009 52 10000 6.01 67 11:41 14.01.2021
3747 Clouds 23 1010 51 10000 2.68 84 11:20 14.01.2021
3748 Clouds 23 1010 42 10000 1.34 74 10:43 14.01.2021
3749 Clouds 22 1010 46 10000 0.45 80 10:20 14.01.2021
3750 Clouds 21 1011 53 10000 1.34 121 09:44 14.01.2021
3751 Clouds 21 1011 52 10000 0.45 346 09:22 14.01.2021
3752 Clouds 19 1012 65 10000 0.45 287 08:40 14.01.2021
3753 Clouds 16 1013 75 10000 5.79 52 08:21 14.01.2021
3754 Clouds 15 1013 79 10000 5.79 52 07:42 14.01.2021
3755 Clouds 15 1013 77 10000 4.62 44 06:43 14.01.2021
3756 Clouds 13 1012 86 10000 3.17 42 05:34 14.01.2021
3757 Clouds 15 1015 81 10000 1.69 48 00:36 14.01.2021
3758 Clouds 15 1015 80 10000 1.86 54 23:49 13.01.2021
3759 Clouds 15 1015 81 10000 2.36 53 23:20 13.01.2021
3760 Clouds 14 1011 88 10000 4.02 93 22:28 13.01.2021
3761 Clouds 16 1015 80 10000 2.98 57 21:50 13.01.2021
3762 Clouds 14 1012 89 10000 3.13 77 21:28 13.01.2021
3763 Clouds 14 1011 88 10000 4.47 76 20:57 13.01.2021
3764 Clouds 15 1011 87 10000 4.47 95 20:29 13.01.2021
3765 Clouds 15 1011 88 10000 3.13 113 19:57 13.01.2021
3766 Clouds 15 1011 88 10000 4.02 103 19:37 13.01.2021
3767 Clouds 15 1011 87 10000 4.02 100 19:18 13.01.2021
3768 Clouds 16 1010 86 10000 5.81 117 18:37 13.01.2021
3769 Clouds 16 1009 84 10000 3.58 78 17:51 13.01.2021
3770 Clouds 16 1008 86 10000 4.02 98 17:24 13.01.2021
3771 Clouds 16 1009 85 10000 3.13 107 16:50 13.01.2021
3772 Clear 16 1009 85 10000 3.13 113 16:22 13.01.2021
3773 Clear 16 1009 82 10000 0.45 69 15:52 13.01.2021
3774 Clear 16 1009 79 10000 3.58 80 15:34 13.01.2021
3775 Clear 17 1008 77 10000 2.24 76 14:46 13.01.2021
3776 Clear 17 1009 86 10000 2.24 71 13:53 13.01.2021
3777 Clear 25 1010 44 10000 6.37 66 13:31 13.01.2021
3778 Clear 20 1009 70 10000 1.34 93 12:47 13.01.2021
3779 Clear 20 1009 70 10000 1.34 93 12:29 13.01.2021
3780 Clear 21 1010 65 10000 6.57 67 11:58 13.01.2021
3781 Clear 21 1010 65 10000 6.57 67 11:40 13.01.2021
3782 Clear 21 1010 66 10000 6.16 62 11:22 13.01.2021
3783 Clear 21 1011 64 10000 1.34 94 10:41 13.01.2021
3784 Clear 21 1011 67 10000 0.45 115 10:22 13.01.2021
3785 Clear 19 1013 72 10000 0.45 51 09:34 13.01.2021
3786 Clear 18 1013 72 10000 0.89 53 08:53 13.01.2021
3787 Clear 17 1013 75 10000 1.79 54 08:32 13.01.2021
3788 Clear 15 1014 81 10000 1.34 68 07:37 13.01.2021
3789 Clouds 14 1014 85 10000 1.34 116 06:58 13.01.2021
3790 Clouds 14 1012 86 10000 0.45 83 04:21 13.01.2021
3791 Clouds 14 1012 85 10000 0.89 65 03:48 13.01.2021
3792 Clouds 14 1012 86 10000 1.79 22 03:29 13.01.2021
3793 Clouds 14 1011 87 10000 1.79 78 01:44 13.01.2021
3794 Clouds 14 1011 87 10000 2.24 74 00:29 13.01.2021
3795 Clouds 14 1012 88 10000 2.68 78 23:29 12.01.2021
3796 Clouds 14 1012 89 10000 3.58 96 22:47 12.01.2021
3797 Clouds 14 1013 89 10000 3.58 110 22:25 12.01.2021
3798 Clouds 14 1013 89 10000 4.47 87 21:53 12.01.2021
3799 Clouds 14 1013 90 10000 2.68 101 21:35 12.01.2021
3800 Clouds 14 1013 90 10000 4.92 78 20:56 12.01.2021
3801 Clouds 14 1013 90 10000 4.47 113 20:37 12.01.2021
3802 Clouds 14 1013 89 10000 4.02 98 20:19 12.01.2021
3803 Clouds 15 1012 89 10000 3.13 98 19:37 12.01.2021
3804 Rain 15 1012 88 10000 3.58 109 18:52 12.01.2021
3805 Rain 15 1011 87 10000 4.47 82 18:25 12.01.2021
3806 Rain 15 1011 88 10000 3.58 107 17:55 12.01.2021
3807 Rain 15 1010 88 10000 2.24 98 17:32 12.01.2021
3808 Rain 16 1010 87 10000 0.45 92 16:44 12.01.2021
3809 Rain 16 1010 86 7303 1.79 92 16:25 12.01.2021
3810 Rain 16 1009 85 7303 3.13 86 15:48 12.01.2021
3811 Rain 16 1009 87 10000 2.68 91 15:27 12.01.2021
3812 Rain 16 1009 85 10000 2.24 93 14:49 12.01.2021
3813 Rain 15 1009 86 10000 1.79 91 14:26 12.01.2021
3814 Rain 14 1009 91 10000 2.68 80 13:55 12.01.2021
3815 Rain 14 1009 92 10000 0.45 75 13:36 12.01.2021
3816 Rain 15 1010 91 10000 0.89 78 12:38 12.01.2021
3817 Rain 18 1010 79 10000 4.71 72 11:45 12.01.2021
3818 Rain 18 1010 79 10000 4.54 70 11:27 12.01.2021
3819 Rain 17 1011 81 10000 0.45 78 10:44 12.01.2021
3820 Clouds 17 1011 79 10000 4.74 64 10:20 12.01.2021
3821 Clouds 18 1012 75 10000 2.24 78 09:52 12.01.2021
3822 Clouds 18 1012 75 10000 1.34 77 09:23 12.01.2021
3823 Clouds 17 1012 79 10000 0.89 71 08:27 12.01.2021
3824 Clouds 17 1012 80 10000 1.79 109 07:52 12.01.2021
3825 Clouds 16 1013 84 10000 1.79 88 07:32 12.01.2021
3826 Clouds 14 1012 90 10000 2.68 96 05:45 12.01.2021
3827 Clouds 16 1015 88 10000 2.69 52 03:46 12.01.2021
3828 Clouds 14 1011 90 10000 0.45 93 03:22 12.01.2021
3829 Clouds 14 1011 89 10000 3.13 93 02:18 12.01.2021
3830 Clouds 14 1011 90 10000 2.24 93 00:35 12.01.2021
3831 Clouds 14 1011 90 10000 2.24 94 23:43 11.01.2021
3832 Clouds 14 1012 91 10000 2.68 94 23:20 11.01.2021
3833 Clouds 14 1012 92 10000 3.58 89 22:47 11.01.2021
3834 Clouds 13 1012 92 10000 2.24 89 22:28 11.01.2021
3835 Clouds 14 1013 88 10000 2.68 88 21:46 11.01.2021
3836 Clouds 15 1013 87 10000 2.68 86 21:26 11.01.2021
3837 Clouds 15 1013 87 10000 2.24 87 20:59 11.01.2021
3838 Clouds 15 1013 88 10000 3.13 89 20:39 11.01.2021
3839 Rain 14 1012 88 10000 1.79 90 20:21 11.01.2021
3840 Rain 14 1012 89 10000 3.13 92 19:50 11.01.2021
3841 Rain 14 1012 89 10000 3.13 97 19:23 11.01.2021
3842 Rain 15 1011 88 10000 1.79 125 18:44 11.01.2021
3843 Rain 15 1011 88 10000 1.79 125 18:24 11.01.2021
3844 Rain 15 1010 87 10000 0.89 125 17:42 11.01.2021
3845 Rain 15 1010 87 10000 0.89 126 17:24 11.01.2021
3846 Rain 16 1009 86 10000 1.34 126 16:49 11.01.2021
3847 Rain 16 1009 82 10000 0.89 127 16:29 11.01.2021
3848 Rain 17 1009 81 10000 0.89 127 15:58 11.01.2021
3849 Rain 17 1008 80 10000 0.45 127 15:36 11.01.2021
3850 Rain 18 1008 76 10000 1.34 127 14:58 11.01.2021
3851 Rain 17 1008 80 10000 0.89 127 14:37 11.01.2021
3852 Rain 23 1009 57 10000 5.62 63 13:48 11.01.2021
3853 Rain 16 1009 84 10000 1.34 144 13:23 11.01.2021
3854 Rain 18 1010 80 10000 1.34 159 12:45 11.01.2021
3855 Rain 18 1010 81 10000 2.24 159 12:26 11.01.2021
3856 Rain 17 1011 90 10000 0.45 165 11:50 11.01.2021
3857 Rain 25 1011 47 10000 3.78 65 11:21 11.01.2021
3858 Rain 17 1012 83 10000 3.78 65 10:42 11.01.2021
3859 Clouds 18 1012 81 10000 1.34 169 10:24 11.01.2021
3860 Clouds 18 1012 78 10000 1.34 169 09:38 11.01.2021
3861 Clouds 18 1012 78 10000 0.45 169 09:19 11.01.2021
3862 Clouds 23 1014 51 10000 2.69 60 08:44 11.01.2021
3863 Clouds 16 1013 88 10000 1.95 64 07:58 11.01.2021
3864 Clouds 15 1014 92 10000 1.36 57 07:25 11.01.2021
3865 Clouds 14 1014 95 10000 1.46 64 06:57 11.01.2021
3866 Clouds 12 1012 95 10000 0.92 36 03:27 11.01.2021
3867 Clouds 12 1011 94 10000 1.52 48 01:29 11.01.2021
3868 Rain 12 1011 95 10000 1.34 62 23:59 10.01.2021
3869 Rain 12 1012 94 10000 1.01 59 23:30 10.01.2021
3870 Rain 12 1012 94 10000 1.01 59 22:48 10.01.2021
3871 Rain 12 1013 94 10000 0.95 45 22:23 10.01.2021
3872 Rain 12 1013 94 10000 0.95 45 21:44 10.01.2021
3873 Rain 12 1013 94 10000 1.63 44 21:20 10.01.2021
3874 Rain 12 1013 94 10000 1.63 44 20:53 10.01.2021
3875 Rain 12 1013 94 10000 1.63 44 20:32 10.01.2021
3876 Rain 13 1013 94 10000 2.83 45 19:43 10.01.2021
3877 Rain 13 1013 94 10000 3.39 50 19:25 10.01.2021
3878 Rain 13 1012 94 10000 3.38 50 18:49 10.01.2021
3879 Rain 13 1011 94 10000 4.87 59 18:21 10.01.2021
3880 Rain 13 1011 94 10000 4.89 59 17:41 10.01.2021
3881 Rain 14 1010 93 10000 4.86 59 17:20 10.01.2021
3882 Rain 14 1009 93 10000 5.13 60 16:32 10.01.2021
3883 Rain 14 1009 94 10000 4.86 59 16:32 10.01.2021
3884 Rain 16 1009 93 10000 5.13 60 15:56 10.01.2021
3885 Rain 15 1008 93 7873 4.85 59 15:25 10.01.2021
3886 Rain 15 1008 94 7866 4.88 59 14:50 10.01.2021
3887 Rain 15 1008 94 9102 4.7 60 14:31 10.01.2021
3888 Rain 15 1008 94 9102 4.7 60 13:55 10.01.2021
3889 Rain 15 1008 94 9102 4.7 60 13:55 10.01.2021
3890 Rain 14 1008 94 9140 4.71 60 13:37 10.01.2021
3891 Rain 14 1008 94 10000 4.78 61 13:18 10.01.2021
3892 Rain 14 1009 94 10000 4.63 53 12:47 10.01.2021
3893 Rain 14 1009 93 10000 4.73 57 12:27 10.01.2021
3894 Rain 14 1010 93 10000 4.73 57 11:39 10.01.2021
3895 Rain 23 1011 55 10000 4.28 59 11:18 10.01.2021
3896 Rain 22 1012 57 10000 3.89 55 10:36 10.01.2021
3897 Rain 22 1012 56 10000 3.89 55 10:18 10.01.2021
3898 Rain 21 1013 60 10000 3.78 57 09:27 10.01.2021
3899 Rain 20 1014 65 10000 3.45 59 08:21 10.01.2021
3900 Rain 14 1011 95 10000 2.48 59 07:29 10.01.2021
3901 Clouds 13 1011 95 10000 1.92 67 06:20 10.01.2021
3902 Clouds 13 1011 95 10000 1.92 67 05:36 10.01.2021
3903 Rain 13 1009 94 10000 1.67 99 02:58 10.01.2021
3904 Rain 13 1009 94 10000 1.21 98 01:22 10.01.2021
3905 Rain 13 1010 93 10000 1.64 23 23:51 09.01.2021
3906 Rain 13 1010 93 10000 1.64 23 23:33 09.01.2021
3907 Clouds 14 1011 93 10000 2.47 31 22:48 09.01.2021
3908 Rain 14 1011 93 10000 2.74 38 22:19 09.01.2021
3909 Rain 14 1011 92 10000 2.69 39 21:57 09.01.2021
3910 Rain 14 1011 92 10000 2.74 38 21:39 09.01.2021
3911 Rain 14 1011 92 10000 3.19 30 21:19 09.01.2021
3912 Rain 14 1011 91 10000 3.19 30 20:44 09.01.2021
3913 Rain 14 1011 91 10000 2.7 30 19:45 09.01.2021
3914 Rain 14 1010 91 7992 3.15 42 19:24 09.01.2021
3915 Rain 14 1010 91 10000 2.42 35 18:59 09.01.2021
3916 Rain 14 1009 91 7852 3.12 42 18:35 09.01.2021
3917 Rain 14 1009 91 10000 2.62 45 17:50 09.01.2021
3918 Rain 14 1009 91 10000 2.62 45 17:32 09.01.2021
3919 Rain 14 1008 90 7801 2.71 60 16:36 09.01.2021
3920 Rain 14 1008 90 7801 2.71 60 16:18 09.01.2021
3921 Rain 15 1008 89 7801 2.71 60 15:40 09.01.2021
3922 Rain 18 1007 74 10000 1.34 194 14:43 09.01.2021
3923 Rain 21 1008 65 10000 1.84 54 14:21 09.01.2021
3924 Rain 21 1008 65 10000 1.84 54 13:59 09.01.2021
3925 Rain 21 1008 65 10000 1.84 54 13:40 09.01.2021
3926 Rain 23 1008 54 10000 1.45 80 13:22 09.01.2021
3927 Clouds 20 1008 71 10000 0.89 63 12:27 09.01.2021
3928 Clouds 20 1008 74 10000 0.89 63 11:57 09.01.2021
3929 Clouds 19 1008 77 10000 0.89 63 11:36 09.01.2021
3930 Clouds 23 1010 49 10000 2.55 57 10:56 09.01.2021
3931 Clouds 23 1010 49 10000 2.54 57 10:37 09.01.2021
3932 Clouds 20 1011 61 10000 2.92 47 10:18 09.01.2021
3933 Clouds 20 1011 61 10000 2.9 47 09:42 09.01.2021
3934 Clouds 15 1010 89 10000 3.11 39 09:18 09.01.2021
3935 Clouds 16 1011 83 10000 3.32 33 07:48 09.01.2021
3936 Rain 14 1010 84 10000 2.17 57 06:42 09.01.2021
3937 Rain 15 1010 80 10000 1.52 59 06:23 09.01.2021
3938 Rain 13 1008 90 10000 1.22 99 03:49 09.01.2021
3939 Rain 13 1008 90 10000 0.81 90 02:40 09.01.2021
3940 Rain 13 1008 89 7543 1.07 71 02:22 09.01.2021
3941 Rain 14 1008 90 10000 1.48 59 01:24 09.01.2021
3942 Rain 14 1008 91 10000 2.62 47 00:28 09.01.2021
3943 Rain 14 1009 91 10000 2.62 47 23:41 08.01.2021
3944 Clouds 14 1009 90 10000 2.68 45 22:39 08.01.2021
3945 Clouds 15 1010 88 10000 2.8 45 21:52 08.01.2021
3946 Clouds 16 1009 85 10000 3.29 48 20:59 08.01.2021
3947 Rain 19 1018 88 10000 3.26 48 20:35 08.01.2021
3948 Rain 19 1018 88 10000 4.18 48 19:58 08.01.2021
3949 Rain 20 1018 88 10000 4.39 50 19:25 08.01.2021
3950 Rain 20 1017 88 10000 4.35 55 18:54 08.01.2021
3951 Rain 20 1017 88 10000 4.35 55 18:32 08.01.2021
3952 Rain 21 1016 73 10000 5.14 200 17:54 08.01.2021
3953 Rain 24 1014 57 10000 5.14 90 17:25 08.01.2021
3954 Rain 24 1014 57 10000 5.14 90 16:47 08.01.2021
3955 Clouds 26 1013 53 10000 7.72 60 15:49 08.01.2021
3956 Clouds 26 1013 53 10000 7.72 60 15:29 08.01.2021
3957 Clouds 26 1013 44 10000 5.14 120 14:40 08.01.2021
3958 Clouds 27 1014 47 10000 5.14 90 13:50 08.01.2021
3959 Clouds 27 1014 47 10000 5.14 90 13:21 08.01.2021
3960 Clouds 27 1015 39 10000 2.57 90 12:51 08.01.2021
3961 Clouds 26 1016 53 10000 5.14 90 12:22 08.01.2021
3962 Clouds 26 1016 53 10000 5.14 90 11:48 08.01.2021
3963 Clouds 26 1016 53 10000 5.14 90 11:29 08.01.2021
3964 Clouds 24 1017 50 10000 5.14 90 10:55 08.01.2021
3965 Clouds 24 1017 50 10000 5.14 90 10:37 08.01.2021
3966 Clouds 23 1018 53 10000 4.12 60 09:53 08.01.2021
3967 Clouds 23 1018 53 10000 4.12 60 09:32 08.01.2021
3968 Clouds 21 1019 60 10000 5.14 60 08:41 08.01.2021
3969 Clouds 20 1020 64 10000 5.14 50 07:29 08.01.2021
3970 Clear 18 1019 72 10000 3.09 37 06:40 08.01.2021
3971 Clear 18 1018 72 10000 3.6 80 00:32 08.01.2021
3972 Clear 18 1018 72 10000 3.6 80 23:41 07.01.2021
3973 Clear 19 1018 72 10000 2.57 60 22:51 07.01.2021
3974 Clear 19 1018 72 10000 2.57 60 22:32 07.01.2021
3975 Clear 19 1018 72 10000 3.09 60 21:49 07.01.2021
3976 Clear 19 1018 72 10000 3.09 60 21:29 07.01.2021
3977 Clear 20 1019 68 10000 3.6 30 20:48 07.01.2021
3978 Clear 20 1019 68 10000 3.6 30 20:29 07.01.2021
3979 Clear 21 1018 60 10000 4.63 30 19:47 07.01.2021
3980 Clear 21 1018 56 10000 7.2 80 19:23 07.01.2021
3981 Clear 21 1018 56 10000 7.2 80 18:46 07.01.2021
3982 Clouds 22 1017 53 10000 6.17 70 18:20 07.01.2021
3983 Clouds 22 1017 53 10000 6.17 70 17:32 07.01.2021
3984 Clouds 24 1016 43 10000 6.17 50 16:56 07.01.2021
3985 Clouds 26 1015 36 10000 7.2 90 16:32 07.01.2021
3986 Clouds 26 1015 36 10000 7.2 90 15:52 07.01.2021
3987 Clouds 26 1015 36 10000 4.12 110 15:30 07.01.2021
3988 Clouds 26 1015 36 10000 4.12 110 14:32 07.01.2021
3989 Clouds 27 1015 32 10000 5.14 90 13:58 07.01.2021
3990 Clouds 27 1015 32 10000 5.14 90 13:30 07.01.2021
3991 Clear 21 1007 63 10000 1.79 136 12:55 07.01.2021
3992 Clouds 25 1018 36 10000 7.2 100 12:23 07.01.2021
3993 Clouds 24 1019 44 10000 4.1 80 11:41 07.01.2021
3994 Clouds 24 1019 44 10000 4.1 80 11:23 07.01.2021
3995 Clouds 23 1020 49 10000 8.2 50 10:37 07.01.2021
3996 Clouds 23 1020 49 10000 8.2 50 10:18 07.01.2021
3997 Clouds 21 1021 60 10000 2.6 70 09:41 07.01.2021
3998 Clouds 20 1021 68 10000 4.1 70 08:40 07.01.2021
3999 Clouds 20 1021 68 10000 4.1 70 08:21 07.01.2021
4000 Clear 18 1012 68 10000 0.45 78 07:42 07.01.2021
4001 Clouds 18 1021 77 10000 4.1 20 06:46 07.01.2021
4002 Clouds 18 1019 82 10000 3.1 70 02:18 07.01.2021
4003 Clouds 18 1021 82 10000 3.1 50 00:22 07.01.2021
4004 Clouds 19 1020 77 10000 3.1 70 23:31 06.01.2021
4005 Clouds 19 1021 77 10000 3.1 40 22:29 06.01.2021
4006 Clouds 19 1021 72 10000 4.1 20 21:41 06.01.2021
4007 Clouds 19 1021 72 10000 4.1 20 21:22 06.01.2021
4008 Clouds 19 1021 72 10000 4.1 20 20:47 06.01.2021
4009 Clouds 20 1021 68 10000 5.1 70 20:22 06.01.2021
4010 Clouds 20 1021 68 10000 5.1 70 19:48 06.01.2021
4011 Clouds 20 1019 68 10000 5.1 50 19:28 06.01.2021
4012 Clouds 20 1019 68 10000 5.1 50 18:50 06.01.2021
4013 Clouds 22 1019 53 10000 5.1 90 18:31 06.01.2021
4014 Clouds 22 1019 53 10000 5.1 90 17:47 06.01.2021
4015 Clouds 24 1018 47 10000 5.1 50 17:28 06.01.2021
4016 Clouds 24 1018 47 10000 5.1 50 16:59 06.01.2021
4017 Clouds 26 1017 39 10000 6.2 70 16:36 06.01.2021
4018 Clouds 26 1017 39 10000 6.2 70 16:18 06.01.2021
4019 Clouds 26 1017 36 10000 6.2 90 15:43 06.01.2021
4020 Clouds 26 1017 36 10000 6.2 90 15:23 06.01.2021
4021 Clouds 27 1017 32 10000 4.1 70 14:32 06.01.2021
4022 Clouds 27 1017 32 10000 4.1 70 13:55 06.01.2021
4023 Clouds 27 1017 32 10000 4.1 70 13:27 06.01.2021
4024 Clouds 26 1018 39 10000 8.2 70 12:58 06.01.2021
4025 Clouds 26 1019 39 10000 2.1 50 12:30 06.01.2021
4026 Clouds 25 1020 47 10000 4.1 30 11:44 06.01.2021
4027 Clouds 25 1020 47 10000 4.1 30 11:21 06.01.2021
4028 Clouds 23 1021 49 10000 5.1 50 10:39 06.01.2021
4029 Clouds 23 1021 49 10000 5.1 50 09:52 06.01.2021
4030 Clouds 23 1022 53 10000 5.7 40 09:31 06.01.2021
4031 Clouds 23 1022 53 10000 5.7 40 08:52 06.01.2021
4032 Clear 17 1013 72 10000 5.71 47 08:19 06.01.2021
4033 Clear 17 1013 72 10000 5.71 47 08:19 06.01.2021
4034 Clear 18 1013 71 10000 5.71 47 07:52 06.01.2021
4035 Clouds 16 1014 75 10000 5.16 46 06:44 06.01.2021
4036 Clouds 16 1019 87 10000 1.73 25 05:29 06.01.2021
4037 Clouds 12 1012 87 10000 1.78 29 04:18 06.01.2021
4038 Clouds 15 1015 91 10000 2.27 40 02:43 06.01.2021
4039 Clouds 17 1020 88 10000 2.67 54 02:20 06.01.2021
4040 Clouds 17 1021 88 10000 3.1 20 23:51 05.01.2021
4041 Clouds 18 1021 88 10000 3.1 70 22:57 05.01.2021
4042 Clouds 18 1021 82 10000 4.1 50 22:38 05.01.2021
4043 Rain 18 1021 82 10000 4.1 50 22:19 05.01.2021
4044 Rain 19 1021 77 10000 4.1 50 21:27 05.01.2021
4045 Rain 19 1021 77 10000 4.1 50 20:31 05.01.2021
4046 Rain 20 1020 72 10000 3.1 70 19:59 05.01.2021
4047 Rain 20 1020 68 10000 5.1 50 19:40 05.01.2021
4048 Rain 20 1020 68 10000 5.1 50 19:20 05.01.2021
4049 Rain 15 1011 85 10000 5.81 92 18:42 05.01.2021
4050 Rain 21 1018 60 10000 8.2 60 18:19 05.01.2021
4051 Rain 23 1017 53 10000 6.2 70 17:42 05.01.2021
4052 Clouds 23 1017 53 10000 6.2 70 17:21 05.01.2021
4053 Clouds 16 1009 81 10000 4.92 123 16:45 05.01.2021
4054 Clouds 25 1016 44 10000 8.2 70 16:21 05.01.2021
4055 Clouds 18 1008 76 10000 3.13 75 15:49 05.01.2021
4056 Clear 21 1007 63 10000 2.68 108 14:49 05.01.2021
4057 Clouds 26 1017 34 10000 8.2 90 14:20 05.01.2021
4058 Clouds 26 1017 34 10000 8.2 90 13:46 05.01.2021
4059 Clouds 25 1017 44 10000 7.2 50 13:21 05.01.2021
4060 Clouds 25 1018 47 10000 6.2 70 12:47 05.01.2021
4061 Clouds 25 1018 47 10000 6.2 70 12:22 05.01.2021
4062 Clouds 23 1019 46 10000 3.1 70 11:39 05.01.2021
4063 Clouds 23 1019 46 10000 3.1 70 10:55 05.01.2021
4064 Clouds 22 1020 56 10000 5.1 90 10:36 05.01.2021
4065 Clouds 22 1020 56 10000 5.1 90 09:49 05.01.2021
4066 Clouds 22 1020 56 10000 5.1 90 09:29 05.01.2021
4067 Clouds 19 1021 72 10000 5.1 70 08:27 05.01.2021
4068 Clouds 19 1021 72 10000 5.1 70 07:45 05.01.2021
4069 Clouds 17 1020 82 10000 1.52 53 04:55 05.01.2021
4070 Clear 16 1020 82 10000 2.1 20 00:51 05.01.2021
4071 Clouds 13 1010 84 10000 3.58 78 23:59 04.01.2021
4072 Clouds 13 1010 85 10000 3.58 112 23:36 04.01.2021
4073 Clouds 13 1010 85 10000 4.47 96 23:18 04.01.2021
4074 Clouds 13 1010 85 10000 3.58 119 22:41 04.01.2021
4075 Clouds 14 1010 85 10000 3.13 104 21:52 04.01.2021
4076 Clouds 14 1011 85 10000 3.58 111 21:34 04.01.2021
4077 Clouds 14 1011 84 10000 4.02 99 20:51 04.01.2021
4078 Clouds 20 1020 64 10000 6.2 60 20:31 04.01.2021
4079 Clouds 20 1020 64 10000 6.2 60 19:53 04.01.2021
4080 Clouds 20 1020 64 10000 6.2 60 19:28 04.01.2021
4081 Clouds 14 1010 84 10000 3.58 78 18:58 04.01.2021
4082 Clouds 15 1010 82 10000 4.02 111 18:25 04.01.2021
4083 Clouds 23 1017 35 10000 8.2 70 17:44 04.01.2021
4084 Clouds 23 1017 35 10000 8.2 70 17:25 04.01.2021
4085 Clouds 17 1008 69 10000 3.58 104 16:48 04.01.2021
4086 Clouds 26 1016 36 10000 7.2 100 16:27 04.01.2021
4087 Clouds 26 1016 36 10000 7.2 100 15:50 04.01.2021
4088 Clouds 26 1016 36 10000 6.2 60 15:31 04.01.2021
4089 Clouds 21 1008 56 10000 0.89 84 14:46 04.01.2021
4090 Clouds 26 1016 34 10000 5.1 70 13:48 04.01.2021
4091 Clouds 25 1017 38 10000 4.1 70 13:25 04.01.2021
4092 Clouds 25 1018 41 10000 5.1 50 12:44 04.01.2021
4093 Clouds 25 1018 41 10000 5.1 50 11:58 04.01.2021
4094 Clouds 24 1019 44 10000 3.82 55 11:22 04.01.2021
4095 Clouds 24 1019 44 10000 3.82 55 10:53 04.01.2021
4096 Clouds 23 1021 60 10000 5.1 50 10:29 04.01.2021
4097 Clouds 22 1021 60 10000 5.1 50 09:53 04.01.2021
4098 Clouds 21 1021 60 10000 4.1 90 09:22 04.01.2021
4099 Clouds 21 1022 60 10000 4.1 30 08:46 04.01.2021
4100 Clouds 19 1021 77 10000 3.1 20 08:18 04.01.2021
4101 Clouds 19 1022 77 10000 1.5 60 07:42 04.01.2021
4102 Clouds 17 1021 88 10000 0.48 17 05:33 04.01.2021
4103 Clouds 17 1020 88 10000 0.92 29 04:30 04.01.2021
4104 Clouds 17 1021 82 10000 2.6 70 00:47 04.01.2021
4105 Clouds 16 1022 82 10000 2.6 40 23:49 03.01.2021
4106 Clear 18 1021 68 10000 3.6 70 23:24 03.01.2021
4107 Clear 18 1021 68 10000 3.6 70 22:56 03.01.2021
4108 Clear 19 1021 68 10000 3.1 80 22:33 03.01.2021
4109 Clear 19 1021 68 10000 3.1 80 21:56 03.01.2021
4110 Clear 19 1021 68 10000 4.1 80 21:29 03.01.2021
4111 Clear 19 1021 68 10000 4.1 80 20:50 03.01.2021
4112 Clear 20 1020 60 10000 5.1 70 20:32 03.01.2021
4113 Rain 20 1020 60 10000 5.1 70 19:57 03.01.2021
4114 Rain 21 1019 56 10000 4.6 60 19:35 03.01.2021
4115 Rain 21 1019 56 10000 4.6 60 18:58 03.01.2021
4116 Rain 21 1019 56 10000 4.6 60 18:39 03.01.2021
4117 Clouds 22 1018 46 10000 5.1 50 18:19 03.01.2021
4118 Clouds 22 1018 46 10000 5.1 50 18:19 03.01.2021
4119 Clouds 23 1019 43 10000 7.2 40 17:48 03.01.2021
4120 Clouds 23 1018 40 10000 4.1 60 17:23 03.01.2021
4121 Clouds 25 1018 38 10000 8.2 50 16:43 03.01.2021
4122 Clouds 25 1017 38 10000 7.2 70 16:20 03.01.2021
4123 Clouds 25 1017 38 10000 7.2 70 15:47 03.01.2021
4124 Clouds 25 1017 38 10000 7.2 70 15:28 03.01.2021
4125 Clouds 26 1017 39 10000 7.2 90 14:57 03.01.2021
4126 Clouds 25 1017 38 10000 5.1 60 14:29 03.01.2021
4127 Clouds 26 1018 36 10000 7.7 90 13:42 03.01.2021
4128 Clouds 26 1018 36 10000 7.7 90 13:23 03.01.2021
4129 Clouds 25 1019 41 10000 5.7 90 12:33 03.01.2021
4130 Clouds 25 1019 41 10000 5.7 90 11:42 03.01.2021
4131 Clouds 25 1019 41 10000 5.7 90 11:24 03.01.2021
4132 Clouds 23 1021 49 10000 3.1 40 10:45 03.01.2021
4133 Clouds 23 1021 49 10000 3.1 40 10:18 03.01.2021
4134 Clouds 22 1022 64 10000 2.1 10 09:41 03.01.2021
4135 Clouds 21 1021 64 10000 4.6 80 09:22 03.01.2021
4136 Clouds 18 1022 82 10000 4.64 48 07:42 03.01.2021
4137 Clouds 17 1021 88 10000 3.81 42 05:58 03.01.2021
4138 Rain 18 1020 82 10000 4.1 70 02:27 03.01.2021
4139 Rain 18 1020 82 10000 4.1 70 01:45 03.01.2021
4140 Clouds 18 1022 88 10000 3.6 50 00:19 03.01.2021
4141 Rain 18 1021 93 10000 3.64 59 23:30 02.01.2021
4142 Rain 18 1021 93 10000 3.81 62 22:55 02.01.2021
4143 Clouds 19 1021 77 10000 3.1 50 22:32 02.01.2021
4144 Clouds 19 1021 77 10000 3.1 50 21:52 02.01.2021
4145 Clouds 19 1021 72 10000 3.1 50 21:32 02.01.2021
4146 Clouds 19 1021 72 10000 3.1 50 20:55 02.01.2021
4147 Rain 20 1021 68 10000 3.1 70 20:36 02.01.2021
4148 Rain 20 1021 68 10000 3.1 70 20:18 02.01.2021
4149 Rain 21 1020 60 10000 3.1 90 19:20 02.01.2021
4150 Rain 21 1020 60 10000 3.1 90 18:58 02.01.2021
4151 Clouds 22 1020 46 10000 6.2 70 18:39 02.01.2021
4152 Clouds 22 1020 46 10000 6.2 70 18:19 02.01.2021
4153 Clouds 23 1020 46 10000 6.2 70 17:43 02.01.2021
4154 Clouds 23 1018 43 10000 7.2 70 16:58 02.01.2021
4155 Clouds 24 1018 41 10000 8.2 70 16:23 02.01.2021
4156 Clouds 24 1018 41 10000 8.2 70 15:54 02.01.2021
4157 Clouds 24 1018 41 10000 8.2 70 15:32 02.01.2021
4158 Clouds 24 1018 44 10000 6.2 90 14:55 02.01.2021
4159 Clouds 25 1018 36 10000 7.2 110 14:35 02.01.2021
4160 Clouds 25 1018 36 10000 7.2 110 13:51 02.01.2021
4161 Clouds 25 1019 36 10000 6.7 70 13:22 02.01.2021
4162 Clouds 24 1020 44 10000 7.2 70 12:48 02.01.2021
4163 Clouds 24 1020 44 10000 7.2 70 12:28 02.01.2021
4164 Clouds 24 1020 44 10000 7.2 70 11:44 02.01.2021
4165 Clouds 24 1020 44 10000 7.2 70 11:21 02.01.2021
4166 Clouds 22 1021 60 10000 5.1 90 10:46 02.01.2021
4167 Clouds 22 1021 60 10000 5.1 90 10:28 02.01.2021
4168 Clouds 22 1021 60 10000 5.1 90 09:43 02.01.2021
4169 Clouds 22 1021 60 10000 5.1 90 09:23 02.01.2021
4170 Clouds 20 1021 68 10000 5.1 30 08:49 02.01.2021
4171 Clouds 18 1022 82 10000 4.1 70 08:24 02.01.2021
4172 Clouds 18 1022 82 10000 3.1 30 07:43 02.01.2021
4173 Clouds 17 1021 88 10000 3.75 45 07:20 02.01.2021
4174 Clouds 16 1021 93 10000 3.17 47 06:28 02.01.2021
4175 Clouds 15 1021 100 10000 2.1 20 04:44 02.01.2021
4176 Rain 15 1022 100 10000 1 320 00:55 02.01.2021
4177 Rain 15 1022 100 10000 1 320 00:35 02.01.2021
4178 Drizzle 16 1022 93 10000 4.1 50 23:49 01.01.2021
4179 Clouds 17 1021 93 10000 2.1 70 23:20 01.01.2021
4180 Clouds 13 1013 84 10000 4.02 92 22:47 01.01.2021
4181 Clouds 17 1021 93 10000 4.88 53 22:22 01.01.2021
4182 Clouds 17 1021 93 10000 4.1 20 21:44 01.01.2021
4183 Clouds 17 1021 93 10000 4.1 20 21:22 01.01.2021
4184 Clouds 17 1021 93 10000 4.1 20 20:52 01.01.2021
4185 Clouds 17 1020 93 10000 3.1 50 20:20 01.01.2021
4186 Clouds 17 1021 93 10000 2.1 40 19:43 01.01.2021
4187 Clouds 18 1020 82 10000 3.1 60 19:24 01.01.2021
4188 Clouds 18 1020 82 10000 3.1 60 18:57 01.01.2021
4189 Clouds 18 1019 82 10000 4.1 30 18:39 01.01.2021
4190 Clouds 18 1019 82 10000 4.1 30 18:19 01.01.2021
4191 Clouds 15 1010 80 10000 4.47 89 17:41 01.01.2021
4192 Rain 21 1017 64 10000 6.2 50 17:18 01.01.2021
4193 Rain 22 1017 56 10000 9.3 70 16:38 01.01.2021
4194 Rain 22 1017 56 10000 9.3 70 15:56 01.01.2021
4195 Rain 23 1017 56 10000 5.1 70 15:36 01.01.2021
4196 Rain 24 1018 57 10000 6.2 60 14:41 01.01.2021
4197 Rain 23 1017 56 10000 3.1 60 13:54 01.01.2021
4198 Rain 23 1018 56 10000 5.1 70 13:36 01.01.2021
4199 Clouds 23 1020 60 10000 4.6 60 12:47 01.01.2021
4200 Clouds 22 1019 68 10000 6.2 70 12:25 01.01.2021
4201 Clouds 20 1021 64 10000 4.1 60 11:39 01.01.2021
4202 Clouds 20 1021 64 10000 4.1 60 11:18 01.01.2021
4203 Clouds 19 1021 72 10000 4.1 70 10:51 01.01.2021
4204 Rain 19 1021 72 10000 4.1 70 09:51 01.01.2021
4205 Rain 18 1021 77 10000 4.1 50 09:24 01.01.2021
4206 Rain 16 1021 87 10000 3.1 30 08:30 01.01.2021
4207 Clouds 14 1022 100 10000 4.1 30 06:24 01.01.2021
4208 Clouds 17 1021 93 10000 2.1 30 04:49 01.01.2021
4209 Clouds 16 1020 87 10000 2.6 10 01:40 01.01.2021
4210 Clouds 16 1021 93 10000 2.6 20 00:32 01.01.2021
4211 Clouds 17 1021 82 10000 10.3 70 23:38 31.12.2020
4212 Clouds 17 1021 82 10000 10.3 70 23:20 31.12.2020
4213 Clouds 18 1021 93 10000 7.2 60 22:42 31.12.2020
4214 Clouds 18 1020 88 10000 4.1 90 22:21 31.12.2020
4215 Clouds 18 1020 88 10000 4.1 90 21:55 31.12.2020
4216 Clouds 18 1021 88 10000 3.1 60 21:33 31.12.2020
4217 Clouds 18 1021 93 10000 3.1 60 20:58 31.12.2020
4218 Rain 18 1020 77 10000 3.1 90 20:27 31.12.2020
4219 Rain 18 1020 77 10000 3.1 90 19:50 31.12.2020
4220 Rain 19 1019 82 10000 3.1 90 19:32 31.12.2020
4221 Rain 19 1019 82 10000 3.1 90 18:53 31.12.2020
4222 Rain 19 1018 77 10000 6.2 90 18:25 31.12.2020
4223 Rain 21 1017 60 10000 5.1 70 17:48 31.12.2020
4224 Clouds 21 1017 60 10000 5.1 70 17:28 31.12.2020
4225 Clouds 22 1017 60 10000 5.1 70 16:57 31.12.2020
4226 Clouds 23 1016 60 10000 7.2 80 16:37 31.12.2020
4227 Clouds 23 1016 60 10000 7.2 80 16:19 31.12.2020
4228 Clouds 23 1016 60 10000 7.2 80 15:42 31.12.2020
4229 Clouds 23 1016 60 10000 7.2 80 15:19 31.12.2020
4230 Clouds 23 1017 56 10000 4.1 70 14:41 31.12.2020
4231 Clouds 23 1017 56 10000 4.1 70 14:23 31.12.2020
4232 Clouds 23 1017 56 10000 4.1 70 13:58 31.12.2020
4233 Clouds 23 1019 56 10000 8.2 70 13:37 31.12.2020
4234 Clouds 23 1019 56 10000 8.2 70 13:19 31.12.2020
4235 Clouds 23 1019 56 10000 8.2 70 12:46 31.12.2020
4236 Clouds 22 1019 64 10000 4.1 360 12:28 31.12.2020
4237 Clouds 20 1020 77 10000 3.1 20 11:47 31.12.2020
4238 Clouds 20 1020 77 10000 3.1 20 11:29 31.12.2020
4239 Clouds 17 1021 93 10000 4.1 20 10:42 31.12.2020
4240 Clouds 17 1021 93 10000 4.1 20 10:23 31.12.2020
4241 Clouds 17 1021 93 10000 4.1 20 09:49 31.12.2020
4242 Clouds 16 1022 93 10000 5.1 90 09:24 31.12.2020
4243 Clouds 17 1023 93 10000 5.1 40 08:48 31.12.2020
4244 Rain 16 1021 100 10000 5.1 90 08:30 31.12.2020
4245 Rain 16 1021 100 10000 5.1 90 07:55 31.12.2020
4246 Rain 17 1021 93 9000 4.1 90 07:24 31.12.2020
4247 Clouds 17 1019 93 10000 5.1 30 05:30 31.12.2020
4248 Clouds 18 1019 88 10000 3.1 60 03:36 31.12.2020
4249 Clouds 18 1018 88 10000 5.1 60 02:36 31.12.2020
4250 Clouds 18 1018 88 10000 5.1 60 01:58 31.12.2020
4251 Clouds 18 1018 88 10000 5.1 60 01:39 31.12.2020
4252 Clouds 18 1018 88 10000 5.1 60 01:19 31.12.2020
4253 Clouds 20 1020 72 10000 4.1 60 00:39 31.12.2020
4254 Clouds 20 1020 72 10000 4.6 70 23:41 30.12.2020
4255 Clouds 20 1019 72 10000 4.1 60 23:18 30.12.2020
4256 Clouds 20 1019 72 10000 4.1 60 22:43 30.12.2020
4257 Clouds 20 1019 72 10000 4.1 60 22:23 30.12.2020
4258 Clouds 20 1020 68 10000 3.6 30 21:38 30.12.2020
4259 Clouds 20 1020 68 10000 3.6 30 21:19 30.12.2020
4260 Clouds 17 1015 89 10000 4.38 52 20:41 30.12.2020
4261 Clear 21 1018 64 10000 5.1 60 20:20 30.12.2020
4262 Clouds 22 1018 49 10000 4.1 60 19:39 30.12.2020
4263 Rain 23 1018 49 10000 4.1 60 19:19 30.12.2020
4264 Rain 23 1018 49 10000 4.1 60 18:42 30.12.2020
4265 Rain 23 1018 49 10000 4.1 60 18:23 30.12.2020
4266 Rain 24 1018 47 10000 6.2 40 17:50 30.12.2020
4267 Rain 25 1016 50 10000 5.1 60 17:30 30.12.2020
4268 Rain 27 1017 36 10000 6.2 60 16:52 30.12.2020
4269 Rain 26 1016 47 10000 5.1 90 16:25 30.12.2020
4270 Rain 26 1016 47 10000 5.1 90 15:45 30.12.2020
4271 Clouds 26 1016 47 10000 5.1 90 15:24 30.12.2020
4272 Clouds 27 1016 44 10000 5.1 90 14:43 30.12.2020
4273 Clouds 27 1016 44 10000 5.1 90 14:22 30.12.2020
4274 Clouds 27 1017 42 10000 5.1 30 13:26 30.12.2020
4275 Clouds 25 1018 53 10000 10.3 90 12:28 30.12.2020
4276 Clouds 25 1018 53 10000 10.3 90 11:50 30.12.2020
4277 Clouds 25 1018 53 10000 10.3 90 11:24 30.12.2020
4278 Clouds 25 1019 41 10000 5.1 60 10:59 30.12.2020
4279 Clouds 25 1020 53 10000 5.1 30 10:39 30.12.2020
4280 Clouds 25 1020 53 10000 5.1 30 10:20 30.12.2020
4281 Clouds 24 1020 53 10000 5.1 30 09:47 30.12.2020
4282 Clouds 24 1020 53 10000 5.1 30 09:23 30.12.2020
4283 Clouds 22 1021 56 10000 5.1 90 08:24 30.12.2020
4284 Clouds 19 1020 68 10000 5.09 45 07:29 30.12.2020
4285 Clouds 15 1019 87 10000 4.75 45 06:44 30.12.2020
4286 Clouds 15 1019 87 10000 3.33 40 05:52 30.12.2020
4287 Clouds 16 1019 82 10000 1.85 27 05:31 30.12.2020
4288 Clear 17 1019 77 10000 1.98 32 04:29 30.12.2020
4289 Clear 17 1018 72 10000 2.19 39 03:28 30.12.2020
4290 Clouds 17 1019 72 10000 1.5 330 02:38 30.12.2020
4291 Clouds 17 1019 72 10000 1.5 340 01:50 30.12.2020
4292 Clouds 18 1018 68 10000 2.89 47 01:31 30.12.2020
4293 Clouds 16 1013 82 10000 2.89 47 00:47 30.12.2020
4294 Clear 17 1020 72 10000 39.1 30 00:29 30.12.2020
4295 Clear 17 1020 72 10000 39.1 30 23:53 29.12.2020
4296 Clear 17 1020 72 10000 39.1 30 23:35 29.12.2020
4297 Clear 18 1020 72 10000 3.1 50 22:50 29.12.2020
4298 Clouds 19 1019 64 10000 4 63 22:32 29.12.2020
4299 Clear 18 1020 68 10000 3.1 20 21:59 29.12.2020
4300 Clear 18 1020 68 10000 3.1 20 21:59 29.12.2020
4301 Clear 19 1020 68 10000 3.6 40 21:39 29.12.2020
4302 Clear 20 1020 64 10000 5.1 40 21:21 29.12.2020
4303 Clear 20 1020 64 10000 5.1 40 20:44 29.12.2020
4304 Clouds 21 1018 56 10000 5.1 60 20:25 29.12.2020
4305 Clouds 22 1019 49 10000 5.1 30 19:46 29.12.2020
4306 Clouds 22 1019 49 10000 5.1 30 19:23 29.12.2020
4307 Clouds 22 1019 49 10000 5.1 30 19:23 29.12.2020
4308 Clouds 22 1019 49 10000 5.1 30 18:54 29.12.2020
4309 Clouds 23 1017 46 10000 5.1 30 18:29 29.12.2020
4310 Clouds 23 1017 46 10000 5.1 30 17:55 29.12.2020
4311 Clouds 24 1016 44 10000 5.1 60 17:36 29.12.2020
4312 Clouds 24 1016 44 10000 5.1 60 17:18 29.12.2020
4313 Clouds 25 1016 47 10000 6.2 90 16:34 29.12.2020
4314 Clouds 27 1017 34 10000 5.7 60 15:53 29.12.2020
4315 Clouds 26 1016 41 10000 5.1 90 15:33 29.12.2020
4316 Clouds 26 1016 41 10000 5.1 90 14:55 29.12.2020
4317 Clouds 26 1017 34 10000 4.1 60 14:36 29.12.2020
4318 Clouds 26 1017 34 10000 4.1 60 14:18 29.12.2020
4319 Clouds 26 1017 34 10000 4.1 60 13:26 29.12.2020
4320 Clouds 25 1018 41 10000 5.1 90 12:59 29.12.2020
4321 Clouds 25 1019 44 10000 10.3 90 12:36 29.12.2020
4322 Clouds 24 1019 44 10000 10.3 90 12:18 29.12.2020
4323 Clouds 24 1019 44 10000 10.3 90 11:49 29.12.2020
4324 Clouds 24 1019 44 10000 10.3 90 11:27 29.12.2020
4325 Clouds 23 1020 53 10000 10.3 90 10:22 29.12.2020
4326 Clouds 22 1022 53 10000 6.7 40 09:41 29.12.2020
4327 Clouds 21 1021 56 10000 5.1 30 09:19 29.12.2020
4328 Clouds 20 1021 56 10000 5.1 30 09:19 29.12.2020
4329 Clouds 20 1021 56 10000 5.1 30 08:49 29.12.2020
4330 Clear 18 1022 72 10000 2.1 30 07:44 29.12.2020
4331 Clear 17 1021 77 10000 2.1 200 07:26 29.12.2020
4332 Clear 13 1020 87 10000 2.1 220 05:54 29.12.2020
4333 Clear 17 1019 72 10000 2.95 42 02:41 29.12.2020
4334 Clouds 16 1014 81 10000 3.41 44 00:44 29.12.2020
4335 Clear 18 1020 63 10000 2.1 40 23:39 28.12.2020
4336 Clear 18 1020 63 10000 2.1 40 22:56 28.12.2020
4337 Clear 19 1020 68 10000 3.1 60 22:23 28.12.2020
4338 Clouds 19 1021 68 10000 4.1 30 21:44 28.12.2020
4339 Clear 20 1020 64 10000 4.1 30 21:23 28.12.2020
4340 Clear 20 1019 64 10000 3.6 70 20:40 28.12.2020
4341 Clear 20 1019 64 10000 3.6 70 20:22 28.12.2020
4342 Clear 21 1020 56 10000 4.1 30 19:42 28.12.2020
4343 Clear 22 1018 49 10000 4.6 60 19:23 28.12.2020
4344 Clear 22 1018 49 10000 4.6 60 18:50 28.12.2020
4345 Clear 22 1018 49 10000 4.6 60 18:28 28.12.2020
4346 Clouds 23 1017 40 10000 6.2 70 17:43 28.12.2020
4347 Clouds 23 1017 40 10000 6.2 70 17:25 28.12.2020
4348 Clouds 24 1016 41 10000 3.6 80 16:43 28.12.2020
4349 Clouds 24 1016 41 10000 3.6 80 16:23 28.12.2020
4350 Clouds 26 1016 36 10000 5.1 60 15:46 28.12.2020
4351 Clouds 26 1016 36 10000 3.1 90 14:57 28.12.2020
4352 Clouds 26 1017 31 10000 5.7 80 13:59 28.12.2020
4353 Clouds 27 1017 29 10000 4.6 70 13:35 28.12.2020
4354 Clouds 27 1017 29 10000 4.6 70 12:55 28.12.2020
4355 Clouds 26 1019 33 10000 5.1 70 12:24 28.12.2020
4356 Clouds 26 1019 33 10000 5.1 70 11:47 28.12.2020
4357 Clouds 24 1020 43 10000 8.2 70 11:25 28.12.2020
4358 Clouds 22 1020 46 10000 7.2 60 10:49 28.12.2020
4359 Clouds 22 1020 46 10000 7.2 60 10:28 28.12.2020
4360 Clouds 22 1020 46 10000 7.2 60 09:49 28.12.2020
4361 Clear 21 1022 52 10000 5.7 50 09:21 28.12.2020
4362 Clear 20 1022 56 10000 5.1 30 08:52 28.12.2020
4363 Clear 16 1020 67 10000 5.75 48 06:51 28.12.2020
4364 Clear 14 1020 76 10000 2.6 320 04:41 28.12.2020
4365 Clear 15 1020 72 10000 2.1 350 02:59 28.12.2020
4366 Clear 15 1019 72 10000 2.6 360 01:46 28.12.2020
4367 Clear 16 1020 72 10000 3.1 10 23:50 27.12.2020
4368 Clear 17 1020 63 10000 3.17 50 23:20 27.12.2020
4369 Clouds 18 1020 72 10000 2.1 50 21:59 27.12.2020
4370 Clouds 19 1020 63 10000 3.1 50 21:27 27.12.2020
4371 Clouds 19 1020 63 10000 3.1 50 20:53 27.12.2020
4372 Clear 20 1020 64 10000 5.7 50 19:49 27.12.2020
4373 Clouds 20 1018 64 10000 7.2 60 19:23 27.12.2020
4374 Clouds 21 1017 56 10000 6.2 70 18:47 27.12.2020
4375 Clouds 21 1017 56 10000 6.2 70 18:20 27.12.2020
4376 Clear 22 1017 53 10000 6.2 50 17:52 27.12.2020
4377 Clear 23 1016 46 10000 7.2 70 17:34 27.12.2020
4378 Clear 23 1016 46 10000 7.2 70 16:54 27.12.2020
4379 Clouds 24 1016 47 10000 6.2 90 16:21 27.12.2020
4380 Clouds 26 1015 41 10000 5.1 70 15:22 27.12.2020
4381 Clouds 26 1015 41 10000 5.1 70 14:45 27.12.2020
4382 Clouds 26 1015 41 10000 5.1 70 14:27 27.12.2020
4383 Clouds 25 1017 38 10000 6.2 120 13:30 27.12.2020
4384 Clouds 25 1017 38 10000 6.2 120 12:52 27.12.2020
4385 Clouds 24 1018 44 10000 4.1 90 12:24 27.12.2020
4386 Clouds 25 1019 41 10000 8.2 50 11:41 27.12.2020
4387 Clouds 24 1019 41 10000 8.7 50 10:58 27.12.2020
4388 Clouds 23 1021 49 10000 5.1 50 10:39 27.12.2020
4389 Clouds 22 1021 49 10000 5.1 50 10:19 27.12.2020
4390 Clouds 21 1021 52 10000 8.2 90 08:53 27.12.2020
4391 Clouds 21 1021 52 10000 8.2 90 08:28 27.12.2020
4392 Clouds 18 1020 72 10000 2.1 70 07:28 27.12.2020
4393 Clouds 15 1019 82 10000 5.51 46 05:47 27.12.2020
4394 Clear 15 1019 82 10000 3.51 40 05:21 27.12.2020
4395 Clear 14 1019 93 10000 1.5 340 03:24 27.12.2020
4396 Clear 17 1018 77 10000 2.76 40 01:52 27.12.2020
4397 Clear 16 1020 82 10000 2.6 20 00:26 27.12.2020
4398 Clear 17 1020 77 10000 2.6 30 23:42 26.12.2020
4399 Clear 18 1020 68 10000 2.1 50 23:22 26.12.2020
4400 Clear 19 1020 72 10000 2.1 40 22:41 26.12.2020
4401 Clear 19 1020 72 10000 2.1 40 22:19 26.12.2020
4402 Clear 19 1020 72 10000 2.1 40 21:53 26.12.2020
4403 Clouds 20 1020 68 10000 5.1 50 21:24 26.12.2020
4404 Clear 20 1021 68 10000 4.6 30 20:44 26.12.2020
4405 Clear 21 1020 60 10000 4.1 40 20:22 26.12.2020
4406 Clouds 21 1018 60 10000 3.1 50 19:31 26.12.2020
4407 Clouds 21 1018 60 10000 3.1 50 18:57 26.12.2020
4408 Clouds 21 1018 60 10000 3.1 50 18:33 26.12.2020
4409 Clouds 23 1017 46 10000 7.7 50 17:47 26.12.2020
4410 Clouds 24 1016 47 10000 8.2 90 17:28 26.12.2020
4411 Clouds 24 1016 47 10000 8.2 90 16:40 26.12.2020
4412 Clouds 25 1015 44 10000 6.2 90 16:18 26.12.2020
4413 Clouds 27 1015 39 10000 8.2 70 15:21 26.12.2020
4414 Clouds 26 1015 36 10000 7.2 70 14:38 26.12.2020
4415 Clouds 26 1015 36 10000 7.2 70 14:20 26.12.2020
4416 Clouds 27 1016 36 10000 6.7 70 13:38 26.12.2020
4417 Clouds 27 1017 34 10000 7.7 60 13:18 26.12.2020
4418 Clouds 27 1017 34 10000 4.1 30 12:41 26.12.2020
4419 Clouds 27 1017 34 10000 4.1 30 12:19 26.12.2020
4420 Clouds 26 1018 41 10000 6.2 70 11:42 26.12.2020
4421 Clouds 25 1018 41 10000 6.2 70 11:20 26.12.2020
4422 Clouds 25 1018 41 10000 6.2 70 10:49 26.12.2020
4423 Clouds 25 1018 41 10000 6.2 70 10:26 26.12.2020
4424 Clouds 24 1019 50 10000 5.1 110 09:49 26.12.2020
4425 Clouds 23 1020 53 10000 5.1 70 08:56 26.12.2020
4426 Clouds 21 1020 68 10000 4.1 50 08:20 26.12.2020
4427 Clouds 19 1020 77 10000 3.1 70 07:21 26.12.2020
4428 Clouds 17 1019 88 10000 4.22 40 06:19 26.12.2020
4429 Clouds 17 1018 82 10000 2.1 20 02:48 26.12.2020
4430 Clouds 19 1019 77 10000 4.1 50 00:42 26.12.2020
4431 Clouds 19 1019 77 10000 4.1 50 23:58 25.12.2020
4432 Clouds 19 1019 77 10000 3.6 50 23:38 25.12.2020
4433 Clouds 19 1019 77 10000 3.6 50 23:20 25.12.2020
4434 Clouds 20 1018 88 10000 5.1 40 22:37 25.12.2020
4435 Clouds 20 1018 88 10000 5.1 40 21:49 25.12.2020
4436 Clouds 21 1019 73 10000 4.1 30 21:31 25.12.2020
4437 Clouds 21 1019 68 10000 4.6 30 20:48 25.12.2020
4438 Clouds 22 1018 68 10000 6.2 50 20:28 25.12.2020
4439 Clear 21 1018 68 10000 5.1 40 19:44 25.12.2020
4440 Clouds 22 1016 64 10000 4.1 60 18:58 25.12.2020
4441 Clouds 23 1016 53 10000 5.1 70 18:38 25.12.2020
4442 Clouds 25 1015 38 10000 5.1 70 17:35 25.12.2020
4443 Clouds 25 1015 38 10000 5.1 70 16:58 25.12.2020
4444 Clouds 27 1015 36 10000 8.2 50 16:32 25.12.2020
4445 Clouds 27 1015 36 10000 7.7 50 15:57 25.12.2020
4446 Clouds 27 1014 36 10000 8.2 90 15:35 25.12.2020
4447 Clouds 27 1014 36 10000 8.2 90 14:46 25.12.2020
4448 Clouds 28 1015 32 10000 4.1 40 14:25 25.12.2020
4449 Clouds 28 1016 37 10000 4.6 50 13:44 25.12.2020
4450 Clouds 28 1016 36 10000 5.1 50 13:25 25.12.2020
4451 Clouds 27 1017 36 10000 4.1 60 12:35 25.12.2020
4452 Clouds 27 1017 36 10000 4.1 60 11:54 25.12.2020
4453 Clouds 27 1017 36 10000 4.1 60 11:29 25.12.2020
4454 Clouds 25 1018 44 10000 6.2 50 10:53 25.12.2020
4455 Clouds 25 1019 44 10000 6.2 50 10:23 25.12.2020
4456 Clouds 25 1020 50 10000 4.1 50 09:32 25.12.2020
4457 Clouds 23 1021 56 10000 3.6 50 08:48 25.12.2020
4458 Clouds 21 1020 64 10000 4.1 30 07:58 25.12.2020
4459 Clouds 17 1019 88 10000 3.66 43 06:46 25.12.2020
4460 Clouds 18 1017 82 10000 2.2 29 02:51 25.12.2020
4461 Clouds 19 1017 77 10000 2.1 50 01:41 25.12.2020
4462 Clouds 18 1020 77 10000 3.1 10 00:18 25.12.2020
4463 Rain 19 1019 77 10000 3.1 40 23:23 24.12.2020
4464 Rain 19 1019 77 10000 2.6 50 22:41 24.12.2020
4465 Rain 19 1019 77 10000 2.6 50 22:20 24.12.2020
4466 Rain 20 1019 68 10000 3.1 360 21:34 24.12.2020
4467 Rain 20 1020 68 10000 3.1 10 20:36 24.12.2020
4468 Rain 22 1018 49 10000 4.1 20 18:51 24.12.2020
4469 Rain 23 1016 49 10000 5.1 70 18:18 24.12.2020
4470 Rain 25 1016 44 10000 5.1 70 17:37 24.12.2020
4471 Clouds 26 1016 39 10000 8.7 60 16:45 24.12.2020
4472 Rain 26 1017 39 10000 5.1 50 16:22 24.12.2020
4473 Rain 26 1016 39 10000 7.2 70 15:42 24.12.2020
4474 Rain 26 1016 39 10000 7.2 70 15:19 24.12.2020
4475 Rain 27 1016 39 10000 7.2 70 14:49 24.12.2020
4476 Rain 27 1016 36 10000 7.2 60 14:24 24.12.2020
4477 Rain 28 1017 37 10000 7.2 70 13:43 24.12.2020
4478 Clouds 27 1017 36 10000 5.1 90 13:25 24.12.2020
4479 Clouds 19 1007 66 10000 5.33 58 12:44 24.12.2020
4480 Clouds 26 1018 47 10000 5.1 70 12:21 24.12.2020
4481 Clouds 26 1018 47 10000 5.1 70 11:47 24.12.2020
4482 Clouds 26 1019 50 10000 4.1 70 11:21 24.12.2020
4483 Clouds 26 1019 50 10000 4.1 70 10:53 24.12.2020
4484 Clouds 26 1019 50 10000 4.1 70 10:34 24.12.2020
4485 Clouds 24 1021 57 10000 6.2 50 09:52 24.12.2020
4486 Clouds 24 1021 57 10000 6.2 50 09:52 24.12.2020
4487 Clouds 21 1021 77 10000 5.1 50 09:26 24.12.2020
4488 Clouds 20 1021 82 10000 2.1 20 08:39 24.12.2020
4489 Clouds 19 1021 88 10000 4.54 43 07:42 24.12.2020
4490 Clouds 19 1021 88 10000 3.84 46 07:20 24.12.2020
4491 Clouds 18 1020 88 10000 1.5 30 05:40 24.12.2020
4492 Clouds 18 1018 88 10000 2.6 60 01:57 24.12.2020
4493 Clouds 18 1018 88 10000 2.6 60 01:37 24.12.2020
4494 Clouds 14 1009 84 10000 1.79 74 01:18 24.12.2020
4495 Clouds 18 1019 82 10000 5.7 80 00:22 24.12.2020
4496 Clouds 18 1019 82 10000 5.7 80 23:49 23.12.2020
4497 Clouds 18 1019 82 10000 5.7 80 23:30 23.12.2020
4498 Clouds 19 1020 77 10000 6.2 60 22:57 23.12.2020
4499 Clouds 19 1020 77 10000 6.2 60 22:33 23.12.2020
4500 Clouds 19 1020 82 10000 3.1 90 21:57 23.12.2020
4501 Clouds 20 1020 72 10000 4.1 50 21:28 23.12.2020
4502 Clouds 20 1020 72 10000 4.1 50 20:56 23.12.2020
4503 Clouds 20 1019 72 10000 4.1 70 20:37 23.12.2020
4504 Rain 20 1019 72 10000 4.1 70 20:19 23.12.2020
4505 Rain 21 1019 68 10000 8.2 80 19:40 23.12.2020
4506 Rain 21 1019 68 10000 8.2 80 19:21 23.12.2020
4507 Rain 21 1019 68 10000 8.2 80 18:49 23.12.2020
4508 Rain 21 1019 68 10000 8.2 80 18:30 23.12.2020
4509 Rain 22 1018 64 10000 8.7 90 17:42 23.12.2020
4510 Rain 24 1016 44 10000 6.7 50 17:22 23.12.2020
4511 Rain 25 1016 44 10000 6.7 50 16:49 23.12.2020
4512 Rain 26 1016 41 10000 4.6 60 16:30 23.12.2020
4513 Rain 26 1016 41 10000 4.6 60 15:58 23.12.2020
4514 Rain 26 1016 41 10000 4.6 60 15:39 23.12.2020
4515 Rain 27 1016 39 10000 7.2 90 15:20 23.12.2020
4516 Rain 27 1017 34 10000 5.1 100 14:42 23.12.2020
4517 Clouds 27 1017 34 10000 5.1 100 14:21 23.12.2020
4518 Clouds 27 1017 34 10000 5.1 100 13:46 23.12.2020
4519 Clouds 27 1017 34 10000 5.1 100 13:20 23.12.2020
4520 Clouds 27 1018 36 10000 7.2 70 12:58 23.12.2020
4521 Clouds 26 1018 41 10000 4.1 100 12:37 23.12.2020
4522 Clouds 26 1018 41 10000 4.1 100 12:18 23.12.2020
4523 Clouds 25 1019 47 10000 5.1 70 11:43 23.12.2020
4524 Clouds 25 1019 47 10000 5.1 70 10:57 23.12.2020
4525 Clouds 24 1020 50 10000 8.2 60 10:39 23.12.2020
4526 Clouds 24 1021 50 10000 6.2 50 09:45 23.12.2020
4527 Clouds 23 1020 56 10000 7.7 50 09:25 23.12.2020
4528 Clouds 22 1020 56 10000 7.7 50 08:42 23.12.2020
4529 Clouds 22 1020 56 10000 5.1 60 07:51 23.12.2020
4530 Clouds 18 1021 63 10000 3.1 30 06:59 23.12.2020
4531 Clouds 18 1021 63 10000 3.1 30 06:37 23.12.2020
4532 Clouds 15 1020 82 10000 2.29 35 05:25 23.12.2020
4533 Clouds 15 1019 87 10000 2.42 40 04:28 23.12.2020
4534 Clouds 17 1020 82 10000 3.1 10 00:33 23.12.2020
4535 Clear 17 1021 82 10000 3.1 360 23:45 22.12.2020
4536 Clouds 17 1022 88 10000 3.1 10 23:26 22.12.2020
4537 Clear 18 1022 77 10000 2.6 10 22:43 22.12.2020
4538 Clouds 19 1020 72 10000 5.17 53 22:25 22.12.2020
4539 Clouds 14 1011 84 10000 4.92 107 21:54 22.12.2020
4540 Clouds 19 1020 68 10000 5.1 30 21:22 22.12.2020
4541 Clouds 19 1020 68 10000 5.1 30 20:57 22.12.2020
4542 Clouds 20 1020 64 10000 5.1 60 20:38 22.12.2020
4543 Clouds 20 1020 64 10000 5.1 60 20:20 22.12.2020
4544 Clouds 22 1019 49 10000 5.1 60 19:42 22.12.2020
4545 Clouds 22 1019 49 10000 5.1 60 19:20 22.12.2020
4546 Clouds 22 1019 49 10000 5.1 60 18:47 22.12.2020
4547 Clouds 22 1019 49 10000 5.1 60 18:27 22.12.2020
4548 Clouds 23 1018 46 10000 5.1 70 17:50 22.12.2020
4549 Clouds 25 1017 44 10000 6.2 90 17:23 22.12.2020
4550 Clouds 25 1017 44 10000 6.2 90 16:54 22.12.2020
4551 Clouds 26 1017 36 10000 5.1 90 16:36 22.12.2020
4552 Clouds 26 1017 36 10000 5.1 90 16:18 22.12.2020
4553 Clouds 26 1017 36 10000 5.1 60 15:41 22.12.2020
4554 Clouds 26 1017 36 10000 5.1 60 15:18 22.12.2020
4555 Clouds 27 1018 34 10000 5.1 120 14:43 22.12.2020
4556 Clouds 27 1018 34 10000 5.1 120 14:25 22.12.2020
4557 Clouds 26 1019 47 10000 7.7 90 13:47 22.12.2020
4558 Clouds 25 1019 47 10000 7.7 90 13:19 22.12.2020
4559 Clouds 26 1020 41 10000 7.2 40 12:55 22.12.2020
4560 Clouds 25 1019 50 10000 10.3 90 12:37 22.12.2020
4561 Clouds 25 1019 50 10000 10.3 90 12:18 22.12.2020
4562 Clouds 25 1019 50 10000 10.3 90 11:40 22.12.2020
4563 Clouds 25 1019 50 10000 10.3 90 11:21 22.12.2020
4564 Clouds 24 1020 47 10000 6.2 60 10:54 22.12.2020
4565 Clouds 24 1021 50 10000 7.7 60 10:26 22.12.2020
4566 Clouds 24 1021 50 10000 7.7 60 09:58 22.12.2020
4567 Clouds 21 1022 64 10000 5.1 90 09:29 22.12.2020
4568 Clouds 21 1022 64 10000 5.1 90 08:57 22.12.2020
4569 Clouds 21 1022 64 10000 5.1 90 08:38 22.12.2020
4570 Clouds 20 1022 72 10000 6.2 60 07:57 22.12.2020
4571 Clouds 18 1022 93 10000 6.2 90 07:27 22.12.2020
4572 Clouds 18 1021 93 10000 4.1 60 06:31 22.12.2020
4573 Clouds 18 1021 93 10000 2.6 60 05:30 22.12.2020
4574 Clouds 18 1021 93 10000 3.6 30 02:19 22.12.2020
4575 Clouds 18 1021 93 10000 2.6 40 00:23 22.12.2020
4576 Clouds 18 1021 93 10000 2.6 40 23:43 21.12.2020
4577 Clouds 18 1022 93 10000 3.6 70 23:19 21.12.2020
4578 Clouds 20 1022 77 10000 3.1 40 22:36 21.12.2020
4579 Clouds 20 1022 77 10000 3.1 40 22:18 21.12.2020
4580 Clouds 14 1012 83 10000 4.02 110 21:47 21.12.2020
4581 Clouds 20 1021 77 10000 7.7 60 21:28 21.12.2020
4582 Clouds 20 1022 72 10000 6.2 50 20:45 21.12.2020
4583 Clouds 20 1021 77 10000 5.1 60 20:21 21.12.2020
4584 Clouds 21 1021 68 10000 5.1 40 19:47 21.12.2020
4585 Clouds 21 1021 77 10000 5.1 60 19:47 21.12.2020
4586 Clouds 21 1020 68 10000 5.1 40 19:22 21.12.2020
4587 Clouds 21 1020 68 10000 5.1 40 18:59 21.12.2020
4588 Clouds 21 1020 68 10000 5.1 40 18:41 21.12.2020
4589 Clouds 21 1020 68 10000 5.1 40 18:23 21.12.2020
4590 Clouds 23 1019 56 10000 7.7 50 17:42 21.12.2020
4591 Clouds 24 1018 47 10000 8.7 70 17:23 21.12.2020
4592 Clouds 24 1018 47 10000 8.7 70 17:23 21.12.2020
4593 Clouds 24 1018 47 10000 8.7 70 16:45 21.12.2020
4594 Clouds 25 1018 41 10000 8.2 80 16:21 21.12.2020
4595 Clouds 26 1018 39 10000 6.2 80 15:43 21.12.2020
4596 Clouds 26 1018 39 10000 6.2 80 14:58 21.12.2020
4597 Clouds 26 1018 39 10000 7.7 60 14:36 21.12.2020
4598 Clouds 26 1018 39 10000 7.7 60 14:18 21.12.2020
4599 Clouds 26 1019 44 10000 7.7 80 13:41 21.12.2020
4600 Clouds 26 1019 44 10000 7.7 80 13:22 21.12.2020
4601 Clouds 26 1020 41 10000 7.2 60 12:42 21.12.2020
4602 Clouds 25 1020 44 10000 5.1 60 12:22 21.12.2020
4603 Clouds 25 1021 47 10000 6.7 50 11:43 21.12.2020
4604 Clouds 25 1021 47 10000 7.7 90 11:23 21.12.2020
4605 Clouds 25 1021 47 10000 7.7 90 11:23 21.12.2020
4606 Clouds 25 1021 47 10000 7.7 90 10:58 21.12.2020
4607 Clouds 25 1022 47 10000 8.2 70 10:40 21.12.2020
4608 Clouds 25 1022 47 10000 8.2 70 09:59 21.12.2020
4609 Clouds 21 1022 64 10000 7.2 60 09:40 21.12.2020
4610 Clouds 21 1022 64 10000 7.2 60 09:22 21.12.2020
4611 Clouds 21 1022 64 10000 7.2 60 08:47 21.12.2020
4612 Clouds 18 1021 77 10000 3.6 70 07:37 21.12.2020
4613 Clouds 16 1021 87 10000 3.86 46 06:21 21.12.2020
4614 Clear 15 1022 93 10000 1.5 50 04:31 21.12.2020
4615 Clear 15 1021 93 10000 2.1 40 00:51 21.12.2020
4616 Clear 17 1022 88 10000 3.1 40 00:30 21.12.2020
4617 Clear 18 1022 82 10000 3.1 20 23:24 20.12.2020
4618 Clear 18 1022 88 10000 3.1 20 22:58 20.12.2020
4619 Clouds 18 1021 82 10000 2.6 30 22:39 20.12.2020
4620 Clouds 18 1021 82 10000 2.6 30 22:21 20.12.2020
4621 Clouds 18 1021 82 10000 2.6 30 21:39 20.12.2020
4622 Clouds 19 1021 77 10000 4.1 30 21:20 20.12.2020
4623 Clouds 19 1021 77 10000 4.1 30 20:48 20.12.2020
4624 Rain 19 1021 77 10000 5.1 60 20:23 20.12.2020
4625 Rain 19 1021 77 10000 5.1 60 19:46 20.12.2020
4626 Rain 20 1020 72 10000 7.7 60 19:26 20.12.2020
4627 Rain 20 1020 72 10000 7.7 60 18:56 20.12.2020
4628 Rain 22 1018 56 10000 7.7 70 18:38 20.12.2020
4629 Rain 22 1018 56 10000 7.7 70 18:19 20.12.2020
4630 Rain 22 1018 56 10000 7.7 70 17:42 20.12.2020
4631 Rain 22 1018 56 10000 7.7 70 17:18 20.12.2020
4632 Rain 26 1019 50 10000 8.2 80 16:44 20.12.2020
4633 Clouds 25 1018 44 10000 12.3 90 16:24 20.12.2020
4634 Clouds 27 1018 39 10000 7.7 40 15:41 20.12.2020
4635 Clouds 26 1017 41 10000 7.7 90 15:23 20.12.2020
4636 Clouds 27 1018 39 10000 6.7 50 14:49 20.12.2020
4637 Clouds 26 1018 41 10000 7.7 90 14:29 20.12.2020
4638 Clouds 26 1018 41 10000 7.7 90 13:46 20.12.2020
4639 Clouds 26 1018 41 10000 5.1 100 13:23 20.12.2020
4640 Clouds 26 1018 41 10000 5.1 100 12:54 20.12.2020
4641 Clouds 24 1020 47 10000 8.2 90 12:36 20.12.2020
4642 Clouds 24 1020 47 10000 8.2 90 12:18 20.12.2020
4643 Clouds 24 1021 50 10000 7.7 90 11:42 20.12.2020
4644 Clouds 24 1021 50 10000 7.7 90 10:55 20.12.2020
4645 Clouds 24 1021 50 10000 5.1 100 10:37 20.12.2020
4646 Clouds 24 1021 50 10000 5.1 100 10:19 20.12.2020
4647 Clouds 23 1023 60 10000 5.7 20 09:42 20.12.2020
4648 Clouds 21 1022 64 10000 5.1 60 09:24 20.12.2020
4649 Clouds 21 1022 64 10000 5.1 60 08:50 20.12.2020
4650 Clouds 21 1022 68 10000 5.1 40 08:32 20.12.2020
4651 Clouds 18 1022 82 10000 4.26 49 07:23 20.12.2020
4652 Clouds 16 1021 93 10000 4.06 50 05:44 20.12.2020
4653 Clouds 18 1020 82 10000 2.6 60 01:33 20.12.2020
4654 Clouds 18 1020 82 10000 2.6 60 01:33 20.12.2020
4655 Clouds 18 1021 82 10000 2.6 30 00:32 20.12.2020
4656 Clouds 18 1021 77 10000 3.1 60 23:19 19.12.2020
4657 Clouds 18 1021 77 10000 3.1 60 22:56 19.12.2020
4658 Clouds 19 1021 72 10000 3.1 30 22:37 19.12.2020
4659 Clouds 19 1021 72 10000 3.1 30 22:18 19.12.2020
4660 Clouds 20 1021 72 10000 3.1 30 21:41 19.12.2020
4661 Rain 20 1021 72 10000 3.1 30 21:23 19.12.2020
4662 Rain 21 1022 68 10000 6.2 30 20:42 19.12.2020
4663 Clouds 20 1020 68 10000 5.1 30 20:19 19.12.2020
4664 Clouds 21 1019 60 10000 5.1 70 19:50 19.12.2020
4665 Clouds 21 1019 60 10000 5.1 70 19:31 19.12.2020
4666 Clear 22 1020 53 10000 5.7 50 18:41 19.12.2020
4667 Clouds 22 1018 49 10000 5.1 70 18:20 19.12.2020
4668 Clouds 23 1019 49 10000 6.7 40 17:46 19.12.2020
4669 Clouds 23 1017 46 10000 6.2 90 17:24 19.12.2020
4670 Clouds 24 1018 44 10000 7.7 40 16:45 19.12.2020
4671 Clouds 24 1017 44 10000 6.2 90 16:26 19.12.2020
4672 Clouds 24 1017 44 10000 6.2 90 15:58 19.12.2020
4673 Clouds 26 1016 36 10000 6.2 70 15:39 19.12.2020
4674 Clouds 26 1016 36 10000 6.2 70 14:43 19.12.2020
4675 Clouds 26 1016 36 10000 6.2 70 14:22 19.12.2020
4676 Clouds 26 1018 39 10000 6.7 70 13:41 19.12.2020
4677 Clouds 26 1018 39 10000 9.3 70 13:20 19.12.2020
4678 Clouds 26 1019 39 10000 7.7 40 12:45 19.12.2020
4679 Clouds 25 1019 41 10000 7.7 60 12:26 19.12.2020
4680 Clouds 25 1019 41 10000 7.7 60 11:58 19.12.2020
4681 Clouds 25 1019 41 10000 7.7 90 11:40 19.12.2020
4682 Clouds 26 1020 41 10000 6.7 60 10:47 19.12.2020
4683 Clouds 23 1020 53 10000 6.2 70 10:27 19.12.2020
4684 Clouds 23 1020 53 10000 6.2 70 09:58 19.12.2020
4685 Clouds 23 1021 56 10000 4.6 30 09:38 19.12.2020
4686 Clouds 22 1021 56 10000 4.6 30 08:52 19.12.2020
4687 Clouds 20 1021 72 10000 3.1 20 07:55 19.12.2020
4688 Clouds 18 1021 77 10000 4.5 46 07:18 19.12.2020
4689 Clouds 17 1020 82 10000 4.44 45 06:39 19.12.2020
4690 Clouds 17 1020 82 10000 1.73 28 05:19 19.12.2020
4691 Rain 17 1019 82 10000 1.5 30 03:29 19.12.2020
4692 Rain 18 1021 77 10000 3.1 20 00:41 19.12.2020
4693 Clouds 18 1020 77 10000 2.6 60 00:19 19.12.2020
4694 Clouds 18 1021 77 10000 3.1 20 23:49 18.12.2020
4695 Clouds 19 1020 72 10000 4.1 40 23:24 18.12.2020
4696 Clouds 19 1020 72 10000 4.1 40 22:49 18.12.2020
4697 Clouds 19 1020 72 10000 4.1 40 22:25 18.12.2020
4698 Clouds 19 1020 72 10000 3.6 50 21:59 18.12.2020
4699 Clear 19 1020 68 10000 3.6 40 21:38 18.12.2020
4700 Clear 19 1020 68 10000 3.6 40 21:20 18.12.2020
4701 Clear 20 1020 64 10000 4.1 50 20:24 18.12.2020
4702 Clouds 20 1020 60 10000 4.1 30 19:47 18.12.2020
4703 Clear 21 1018 56 10000 4.6 30 19:23 18.12.2020
4704 Clouds 21 1019 56 10000 4.6 30 18:46 18.12.2020
4705 Clouds 22 1018 49 10000 4.6 60 18:26 18.12.2020
4706 Clouds 22 1018 49 10000 4.6 60 17:50 18.12.2020
4707 Clouds 23 1018 46 10000 4.1 70 17:20 18.12.2020
4708 Clouds 23 1018 46 10000 4.1 70 16:45 18.12.2020
4709 Clouds 24 1016 44 10000 5.1 50 16:21 18.12.2020
4710 Clouds 24 1016 44 10000 5.1 50 15:52 18.12.2020
4711 Clouds 24 1016 44 10000 5.1 50 15:34 18.12.2020
4712 Clouds 25 1017 38 10000 5.1 90 14:57 18.12.2020
4713 Clouds 24 1017 44 10000 5.7 80 14:26 18.12.2020
4714 Clouds 24 1017 44 10000 5.7 80 13:53 18.12.2020
4715 Clouds 24 1017 44 10000 5.7 80 13:33 18.12.2020
4716 Clouds 25 1018 41 10000 4.1 60 12:58 18.12.2020
4717 Clouds 25 1018 41 10000 4.1 60 12:38 18.12.2020
4718 Clouds 24 1020 49 10000 8.2 60 11:29 18.12.2020
4719 Clouds 24 1020 49 10000 8.2 60 10:45 18.12.2020
4720 Clouds 24 1020 49 10000 8.2 60 10:24 18.12.2020
4721 Clouds 22 1020 56 10000 6.7 90 10:00 18.12.2020
4722 Clouds 21 1021 60 10000 5.7 50 09:37 18.12.2020
4723 Clouds 21 1021 60 10000 5.7 50 09:19 18.12.2020
4724 Clouds 21 1022 60 10000 5.1 60 08:46 18.12.2020
4725 Clouds 21 1021 56 10000 5.1 70 08:21 18.12.2020
4726 Clouds 19 1020 68 10000 3.1 60 07:20 18.12.2020
4727 Clouds 19 1020 68 10000 3.1 60 06:59 18.12.2020
4728 Clouds 15 1020 87 10000 1.5 20 05:45 18.12.2020
4729 Clouds 16 1019 87 10000 2.39 40 05:26 18.12.2020
4730 Clouds 15 1020 87 10000 2.1 360 04:42 18.12.2020
4731 Clouds 18 1019 77 10000 4.1 60 01:47 18.12.2020
4732 Clouds 17 1020 82 10000 3.6 60 01:47 18.12.2020
4733 Clouds 18 1020 77 10000 3.6 40 00:38 18.12.2020
4734 Clouds 18 1020 77 10000 3.6 30 23:54 17.12.2020
4735 Clouds 18 1019 77 10000 5.1 60 23:25 17.12.2020
4736 Clouds 18 1019 77 10000 5.1 60 22:49 17.12.2020
4737 Clouds 19 1019 72 10000 3.1 60 22:28 17.12.2020
4738 Clouds 19 1019 72 10000 3.1 60 21:47 17.12.2020
4739 Clouds 19 1019 72 10000 3.1 60 21:47 17.12.2020
4740 Clouds 19 1020 72 10000 4.1 40 21:22 17.12.2020
4741 Clouds 19 1020 72 10000 4.1 40 20:55 17.12.2020
4742 Clouds 19 1020 72 10000 4.1 40 20:37 17.12.2020
4743 Rain 20 1019 68 10000 4.1 30 20:18 17.12.2020
4744 Rain 20 1019 68 10000 4.1 30 19:44 17.12.2020
4745 Rain 21 1018 60 10000 5.1 60 19:22 17.12.2020
4746 Rain 21 1018 60 10000 5.1 60 18:41 17.12.2020
4747 Rain 21 1018 60 10000 5.1 60 18:22 17.12.2020
4748 Rain 21 1018 60 10000 5.1 60 18:22 17.12.2020
4749 Rain 22 1018 56 10000 5.1 60 17:51 17.12.2020
4750 Clouds 22 1018 56 10000 5.1 60 17:32 17.12.2020
4751 Clouds 23 1018 53 10000 7.7 40 16:44 17.12.2020
4752 Clouds 23 1018 53 10000 7.7 40 16:24 17.12.2020
4753 Clouds 25 1016 44 10000 6.2 90 15:52 17.12.2020
4754 Rain 25 1016 44 10000 6.2 90 15:30 17.12.2020
4755 Rain 25 1016 44 10000 6.2 70 14:54 17.12.2020
4756 Clouds 25 1017 44 10000 5.1 30 14:30 17.12.2020
4757 Clouds 25 1017 44 10000 5.1 30 13:51 17.12.2020
4758 Clouds 25 1018 47 10000 5.1 70 13:28 17.12.2020
4759 Rain 25 1019 47 10000 6.7 50 12:44 17.12.2020
4760 Clouds 24 1019 50 10000 6.2 60 12:25 17.12.2020
4761 Clouds 24 1019 50 10000 6.2 60 11:45 17.12.2020
4762 Clouds 24 1021 53 10000 6.2 50 11:24 17.12.2020
4763 Clouds 24 1021 53 10000 6.7 50 10:55 17.12.2020
4764 Clouds 22 1021 60 10000 6.2 70 10:19 17.12.2020
4765 Clouds 20 1021 68 10000 5.1 70 09:28 17.12.2020
4766 Clouds 19 1021 72 10000 5.1 40 07:54 17.12.2020
4767 Clouds 18 1021 82 10000 5.1 90 07:35 17.12.2020
4768 Clouds 18 1021 82 10000 5.1 90 06:54 17.12.2020
4769 Clouds 18 1021 77 10000 2.1 70 06:32 17.12.2020
4770 Clouds 17 1021 77 10000 2.1 70 05:58 17.12.2020
4771 Clouds 17 1021 88 10000 2.1 40 00:40 17.12.2020
4772 Clouds 18 1021 82 10000 2.1 60 23:54 16.12.2020
4773 Clouds 19 1020 77 10000 2.6 60 23:21 16.12.2020
4774 Clouds 18 1020 77 10000 2.6 60 22:56 16.12.2020
4775 Clouds 19 1020 72 10000 2.6 80 22:35 16.12.2020
4776 Clouds 19 1021 77 10000 2.6 90 21:52 16.12.2020
4777 Clear 20 1020 68 10000 3.6 50 21:34 16.12.2020
4778 Clear 20 1020 68 10000 3.6 50 20:56 16.12.2020
4779 Clear 21 1020 56 10000 3.1 460 20:37 16.12.2020
4780 Clear 21 1020 56 10000 3.1 460 20:18 16.12.2020
4781 Clouds 21 1019 60 10000 3.1 60 19:20 16.12.2020
4782 Clouds 22 1019 60 10000 3.1 60 18:54 16.12.2020
4783 Clouds 22 1018 56 10000 5.1 60 18:29 16.12.2020
4784 Clouds 22 1018 56 10000 5.1 60 17:47 16.12.2020
4785 Clouds 22 1018 56 10000 5.1 60 17:28 16.12.2020
4786 Clouds 25 1017 38 10000 6.2 80 16:40 16.12.2020
4787 Clouds 25 1017 38 10000 6.2 80 16:21 16.12.2020
4788 Clouds 25 1017 38 10000 6.2 80 15:51 16.12.2020
4789 Clouds 25 1017 38 10000 6.2 80 15:28 16.12.2020
4790 Clouds 26 1017 41 10000 5.1 90 14:47 16.12.2020
4791 Clouds 26 1017 41 10000 5.1 90 14:28 16.12.2020
4792 Clouds 26 1018 39 10000 5.1 40 13:49 16.12.2020
4793 Clouds 26 1018 39 10000 5.1 40 13:30 16.12.2020
4794 Clouds 26 1018 39 10000 2.6 60 12:56 16.12.2020
4795 Clouds 26 1018 39 10000 2.6 60 12:35 16.12.2020
4796 Clouds 24 1020 47 10000 6.2 90 11:40 16.12.2020
4797 Clouds 24 1020 47 10000 6.2 90 11:22 16.12.2020
4798 Clouds 24 1020 47 10000 6.2 90 10:49 16.12.2020
4799 Clouds 22 1021 60 10000 5.1 80 10:25 16.12.2020
4800 Clear 22 1010 54 10000 4.46 57 09:43 16.12.2020
4801 Clouds 21 1022 56 10000 5.1 50 08:42 16.12.2020
4802 Clouds 20 1022 60 10000 5.1 40 07:57 16.12.2020
4803 Clear 19 1021 68 10000 1.5 30 07:38 16.12.2020
4804 Clear 19 1021 68 10000 1.5 30 06:52 16.12.2020
4805 Clear 16 1020 82 10000 3.17 42 02:26 16.12.2020
4806 Clear 17 1021 77 10000 3.24 44 01:20 16.12.2020
4807 Clouds 17 1021 72 10000 2.1 10 23:45 15.12.2020
4808 Clear 18 1021 59 10000 2.6 40 22:48 15.12.2020
4809 Clear 18 1021 59 10000 2.6 40 22:25 15.12.2020
4810 Clear 19 1021 59 10000 2.6 40 21:57 15.12.2020
4811 Clear 19 1021 59 10000 2.6 40 21:37 15.12.2020
4812 Clear 20 1020 56 10000 2.6 40 21:19 15.12.2020
4813 Clear 20 1020 56 10000 2.6 40 20:44 15.12.2020
4814 Clear 20 1020 56 10000 2.6 40 20:25 15.12.2020
4815 Clear 20 1019 52 10000 5.1 40 19:51 15.12.2020
4816 Clear 21 1019 49 10000 7.2 40 19:26 15.12.2020
4817 Clouds 22 1018 46 10000 5.1 70 18:39 15.12.2020
4818 Clouds 22 1018 46 10000 5.1 70 18:21 15.12.2020
4819 Clouds 22 1018 46 10000 5.1 70 18:21 15.12.2020
4820 Clouds 23 1018 46 10000 5.7 40 17:44 15.12.2020
4821 Clouds 24 1017 38 10000 7.7 60 17:23 15.12.2020
4822 Clouds 26 1017 39 10000 5.1 70 16:40 15.12.2020
4823 Clouds 26 1017 39 10000 5.1 70 16:21 15.12.2020
4824 Clouds 27 1017 34 10000 5.31 62 15:37 15.12.2020
4825 Clouds 27 1017 34 10000 5.5 61 15:18 15.12.2020
4826 Clouds 27 1017 34 10000 5.5 61 14:41 15.12.2020
4827 Clouds 26 1017 41 10000 2.6 60 14:20 15.12.2020
4828 Clouds 27 1018 36 10000 3.1 0 13:49 15.12.2020
4829 Clouds 26 1018 39 10000 4.1 70 13:25 15.12.2020
4830 Clouds 26 1018 39 10000 4.1 70 12:46 15.12.2020
4831 Clouds 25 1019 41 10000 4.1 60 12:19 15.12.2020
4832 Clouds 25 1019 41 10000 4.1 60 11:52 15.12.2020
4833 Clouds 24 1020 50 10000 4.1 90 11:24 15.12.2020
4834 Clouds 24 1020 50 10000 4.1 90 10:49 15.12.2020
4835 Clouds 24 1020 50 10000 4.1 90 10:20 15.12.2020
4836 Clouds 21 1021 60 10000 3.1 90 09:44 15.12.2020
4837 Clouds 21 1021 60 10000 3.1 90 09:26 15.12.2020
4838 Clouds 21 1023 60 10000 4.1 30 08:47 15.12.2020
4839 Clouds 20 1021 64 10000 5.1 30 08:24 15.12.2020
4840 Clouds 20 1021 64 10000 5.1 30 07:49 15.12.2020
4841 Clouds 19 1021 72 10000 3.1 70 07:23 15.12.2020
4842 Clear 16 1021 82 10000 2.51 41 06:26 15.12.2020
4843 Clouds 16 1021 93 10000 1.5 30 00:54 15.12.2020
4844 Clear 17 1020 68 10000 2.1 60 00:34 15.12.2020
4845 Clear 17 1021 72 10000 3.42 50 23:23 14.12.2020
4846 Clear 17 1021 72 10000 3.42 50 22:47 14.12.2020
4847 Clear 17 1021 72 10000 3.9 50 22:26 14.12.2020
4848 Clear 18 1021 63 10000 3.6 20 21:42 14.12.2020
4849 Clear 18 1021 63 10000 3.6 20 21:19 14.12.2020
4850 Clear 19 1020 52 10000 2.6 60 20:48 14.12.2020
4851 Clear 19 1020 52 10000 2.6 60 20:28 14.12.2020
4852 Clear 19 1020 52 10000 2.6 60 19:49 14.12.2020
4853 Clear 21 1019 43 10000 2.6 30 19:28 14.12.2020
4854 Clouds 22 1018 37 10000 4.1 60 18:44 14.12.2020
4855 Clouds 22 1018 37 10000 4.1 60 18:24 14.12.2020
4856 Clouds 23 1018 31 10000 6.7 40 17:45 14.12.2020
4857 Clouds 24 1017 38 10000 5.7 80 17:22 14.12.2020
4858 Clouds 25 1018 33 10000 6.2 50 16:50 14.12.2020
4859 Clouds 25 1017 36 10000 6.7 100 16:28 14.12.2020
4860 Clouds 26 1017 34 10000 5.1 90 15:33 14.12.2020
4861 Clouds 26 1017 34 10000 5.1 90 14:54 14.12.2020
4862 Clouds 26 1018 31 10000 2.6 40 14:36 14.12.2020
4863 Clouds 26 1018 31 10000 5.1 60 14:18 14.12.2020
4864 Clouds 26 1019 31 10000 5.1 60 13:39 14.12.2020
4865 Clouds 27 1019 30 10000 5.1 60 13:18 14.12.2020
4866 Clouds 27 1019 30 10000 5.1 60 12:44 14.12.2020
4867 Clouds 27 1019 30 10000 5.1 60 12:23 14.12.2020
4868 Clouds 25 1021 38 10000 5.7 30 11:31 14.12.2020
4869 Clouds 23 1022 49 10000 6.2 50 10:37 14.12.2020
4870 Clouds 23 1022 49 10000 6.2 50 10:19 14.12.2020
4871 Clouds 22 1023 53 10000 4.1 60 09:29 14.12.2020
4872 Clouds 22 1023 53 10000 4.1 60 08:46 14.12.2020
4873 Clouds 20 1022 63 10000 4.1 60 08:27 14.12.2020
4874 Clouds 18 1022 72 10000 3.51 46 07:27 14.12.2020
4875 Clear 17 1022 82 10000 1.5 30 06:44 14.12.2020
4876 Clouds 16 1021 87 10000 1.5 40 04:28 14.12.2020
4877 Clouds 17 1019 82 10000 3.6 30 02:26 14.12.2020
4878 Clouds 17 1020 82 10000 3.6 50 00:54 14.12.2020
4879 Clouds 18 1021 77 10000 4.1 50 00:31 14.12.2020
4880 Clouds 18 1021 77 10000 4.1 40 23:46 13.12.2020
4881 Clouds 18 1021 77 10000 5.7 50 23:46 13.12.2020
4882 Clouds 18 1020 77 10000 5.1 90 23:25 13.12.2020
4883 Clouds 19 1022 77 10000 4.1 60 22:46 13.12.2020
4884 Clouds 19 1020 72 10000 4.1 60 22:19 13.12.2020
4885 Clouds 19 1022 72 10000 4.6 60 21:42 13.12.2020
4886 Clouds 19 1021 72 10000 4.6 50 21:23 13.12.2020
4887 Clouds 20 1019 60 10000 5.1 30 20:35 13.12.2020
4888 Clouds 20 1019 60 10000 5.1 30 19:53 13.12.2020
4889 Clouds 21 1019 56 10000 4.1 40 19:32 13.12.2020
4890 Clouds 21 1019 56 10000 4.1 40 18:58 13.12.2020
4891 Clear 21 1019 56 10000 5.7 40 18:39 13.12.2020
4892 Clouds 22 1018 46 10000 7.2 40 18:19 13.12.2020
4893 Clouds 22 1018 46 10000 7.2 40 17:46 13.12.2020
4894 Clouds 23 1018 43 10000 5.1 60 17:21 13.12.2020
4895 Clouds 25 1018 33 10000 8.2 40 16:54 13.12.2020
4896 Clouds 24 1017 36 10000 7.7 60 16:36 13.12.2020
4897 Clouds 25 1017 36 10000 7.7 60 15:58 13.12.2020
4898 Clouds 25 1017 31 10000 7.7 120 15:38 13.12.2020
4899 Clouds 25 1017 31 10000 7.7 120 15:20 13.12.2020
4900 Clouds 26 1018 29 10000 7.7 60 14:43 13.12.2020
4901 Clouds 25 1017 31 10000 10.3 120 14:20 13.12.2020
4902 Clouds 26 1019 31 10000 8.2 50 13:42 13.12.2020
4903 Clouds 25 1018 29 10000 5.1 90 13:22 13.12.2020
4904 Clouds 25 1018 29 10000 5.1 90 13:22 13.12.2020
4905 Clouds 27 1020 26 10000 8.7 40 12:42 13.12.2020
4906 Clouds 26 1019 29 10000 5.1 60 12:22 13.12.2020
4907 Clouds 24 1020 49 10000 5.1 60 11:36 13.12.2020
4908 Clouds 23 1020 49 10000 5.1 60 10:55 13.12.2020
4909 Clouds 22 1021 60 10000 5.1 20 10:37 13.12.2020
4910 Clouds 22 1021 60 10000 5.1 20 09:54 13.12.2020
4911 Clouds 21 1021 60 10000 5.1 50 08:58 13.12.2020
4912 Clouds 19 1021 72 10000 5.1 70 08:33 13.12.2020
4913 Clouds 19 1021 72 10000 5.1 70 07:47 13.12.2020
4914 Clouds 17 1021 93 10000 2.1 50 04:29 13.12.2020
4915 Clouds 17 1019 93 10000 5.1 40 02:41 13.12.2020
4916 Clouds 18 1020 88 10000 4.1 60 01:57 13.12.2020
4917 Clouds 18 1021 88 10000 5.7 70 00:49 13.12.2020
4918 Clouds 18 1021 93 10000 3.1 80 23:55 12.12.2020
4919 Clouds 19 1021 82 10000 4.1 90 23:31 12.12.2020
4920 Clouds 19 1021 82 10000 4.1 90 22:49 12.12.2020
4921 Clouds 19 1022 88 10000 4.6 80 21:59 12.12.2020
4922 Clouds 19 1022 82 10000 3.1 80 21:34 12.12.2020
4923 Clouds 19 1022 72 10000 2.6 50 20:55 12.12.2020
4924 Clouds 20 1019 77 10000 3.1 50 20:29 12.12.2020
4925 Clouds 20 1019 77 10000 3.1 50 19:57 12.12.2020
4926 Clouds 20 1019 77 10000 3.1 50 19:39 12.12.2020
4927 Clouds 20 1019 77 10000 3.1 50 19:20 12.12.2020
4928 Clouds 22 1019 60 10000 5.1 60 18:42 12.12.2020
4929 Clouds 22 1019 60 10000 5.1 60 18:23 12.12.2020
4930 Clouds 22 1019 60 10000 5.1 60 17:47 12.12.2020
4931 Clouds 24 1018 50 10000 5.1 70 16:56 12.12.2020
4932 Clouds 24 1018 50 10000 7.7 60 16:21 12.12.2020
4933 Clouds 24 1018 50 10000 7.7 60 15:45 12.12.2020
4934 Rain 24 1018 50 10000 7.7 60 15:27 12.12.2020
4935 Rain 26 1018 44 10000 6.7 70 14:48 12.12.2020
4936 Clouds 26 1018 44 10000 6.2 60 13:56 12.12.2020
4937 Clouds 25 1018 44 10000 7.7 90 13:37 12.12.2020
4938 Clouds 25 1018 44 10000 7.7 90 12:58 12.12.2020
4939 Clouds 25 1020 50 10000 5.1 60 11:48 12.12.2020
4940 Clouds 25 1021 47 10000 6.2 70 10:53 12.12.2020
4941 Clouds 22 1022 60 10000 3.1 60 09:46 12.12.2020
4942 Clouds 21 1022 60 10000 3.1 40 08:54 12.12.2020
4943 Clouds 17 1020 93 10000 1.48 37 02:57 12.12.2020
4944 Clear 17 1022 82 10000 2.6 20 23:55 11.12.2020
4945 Clear 17 1022 82 10000 3.6 20 22:30 11.12.2020
4946 Clear 18 1023 77 10000 3.1 30 20:48 11.12.2020
4947 Clouds 21 1019 56 10000 5.1 60 18:26 11.12.2020
4948 Clouds 25 1018 36 10000 6.2 90 16:27 11.12.2020
4949 Clouds 26 1019 29 10000 5.7 60 14:18 11.12.2020
4950 Clouds 26 1020 29 10000 7.2 80 13:25 11.12.2020
4951 Clouds 25 1021 33 10000 4.6 80 12:19 11.12.2020
4952 Clouds 26 1022 27 10000 7.7 50 11:51 11.12.2020
4953 Clouds 24 1023 47 10000 6.7 30 10:46 11.12.2020
4954 Clouds 22 1023 56 10000 5.1 90 08:53 11.12.2020
4955 Clouds 17 1021 88 10000 2.73 42 05:43 11.12.2020
4956 Clouds 13 1013 81 10000 2.68 78 05:18 11.12.2020
4957 Clouds 17 1019 88 10000 1.8 42 02:28 11.12.2020
4958 Clouds 13 1011 88 10000 2.24 94 00:31 11.12.2020
4959 Clouds 18 1021 82 10000 4.1 60 22:55 10.12.2020
4960 Clouds 18 1021 82 10000 3.1 50 21:36 10.12.2020
4961 Clouds 19 1021 77 10000 3.1 50 20:46 10.12.2020
4962 Clouds 14 1013 88 10000 4.92 67 19:44 10.12.2020
4963 Clouds 20 1021 72 10000 7.7 60 18:57 10.12.2020
4964 Clouds 20 1021 72 10000 7.7 60 18:24 10.12.2020
4965 Clouds 23 1018 60 10000 7.7 70 16:40 10.12.2020
4966 Clouds 13 1010 90 10000 0.89 70 15:44 10.12.2020
4967 Clouds 25 1018 47 10000 7.7 70 14:58 10.12.2020
4968 Clouds 25 1018 47 10000 7.7 70 14:37 10.12.2020
4969 Rain 24 1019 50 10000 7.7 70 13:20 10.12.2020
4970 Clouds 22 1011 56 10000 6.22 69 11:43 10.12.2020
4971 Clouds 20 1023 72 10000 4.1 60 09:21 10.12.2020
4972 Clouds 18 1023 88 10000 2.6 30 07:59 10.12.2020
4973 Clouds 15 1014 88 10000 4.72 51 06:46 10.12.2020
4974 Clouds 13 1012 91 10000 1.34 86 03:40 10.12.2020
4975 Rain 17 1020 93 10000 2.9 58 02:24 10.12.2020
4976 Clouds 17 1021 93 10000 2.6 80 00:28 10.12.2020
4977 Rain 17 1021 93 10000 6.7 70 22:58 09.12.2020
4978 Clouds 19 1021 82 10000 4.6 90 20:37 09.12.2020
4979 Clouds 20 1020 64 10000 8.7 90 19:37 09.12.2020
4980 Rain 15 1010 90 10000 2.68 115 17:53 09.12.2020
4981 Clouds 22 1018 60 10000 7.2 80 16:54 09.12.2020
4982 Rain 23 1018 53 10000 6.2 80 16:24 09.12.2020
4983 Rain 23 1018 53 10000 6.2 80 15:37 09.12.2020
4984 Rain 24 1017 50 10000 5.7 60 14:43 09.12.2020
4985 Rain 24 1017 50 10000 5.7 60 14:23 09.12.2020
4986 Rain 24 1018 50 10000 5.1 110 13:19 09.12.2020
4987 Rain 24 1018 50 10000 5.1 110 12:46 09.12.2020
4988 Rain 24 1020 50 10000 6.7 70 11:55 09.12.2020
4989 Clouds 23 1021 53 10000 5.7 80 11:27 09.12.2020
4990 Clouds 23 1021 53 10000 6.7 80 09:39 09.12.2020
4991 Clouds 19 1022 82 10000 4.1 60 08:26 09.12.2020
4992 Clouds 17 1021 93 10000 4.62 52 05:57 09.12.2020
4993 Clouds 17 1020 93 10000 4.1 90 04:46 09.12.2020
4994 Clouds 18 1020 88 10000 4.1 30 02:22 09.12.2020
4995 Clouds 14 1011 83 10000 4.02 104 23:45 08.12.2020
4996 Clouds 19 1021 82 10000 3.91 43 23:21 08.12.2020
4997 Clouds 14 1012 83 10000 2.68 55 21:35 08.12.2020
4998 Clouds 20 1021 68 10000 5.1 60 19:46 08.12.2020
4999 Clouds 20 1021 68 10000 5.1 60 19:46 08.12.2020
5000 Clouds 20 1021 68 10000 5.1 60 18:59 08.12.2020
5001 Clouds 21 1020 68 10000 5.1 90 18:27 08.12.2020
5002 Rain 18 1010 67 10000 4.02 127 15:54 08.12.2020
5003 Rain 25 1019 53 10000 5.1 60 14:34 08.12.2020
5004 Rain 25 1020 50 10000 5.1 90 13:36 08.12.2020
5005 Rain 24 1021 53 10000 5.1 50 12:32 08.12.2020
5006 Rain 24 1021 53 10000 5.1 50 11:52 08.12.2020
5007 Rain 24 1022 57 10000 5.1 60 10:50 08.12.2020
5008 Rain 23 1023 60 10000 5.1 90 10:31 08.12.2020
5009 Rain 23 1016 55 10000 5.85 48 08:57 08.12.2020
5010 Clouds 16 1023 93 10000 3.6 360 07:25 08.12.2020
5011 Rain 18 1022 93 10000 2.1 80 03:43 08.12.2020
5012 Clouds 18 1021 88 10000 3.1 70 01:36 08.12.2020
5013 Clouds 15 1011 84 10000 3.14 41 00:43 08.12.2020
5014 Rain 15 1012 84 10000 3.13 69 22:48 07.12.2020
5015 Rain 20 1022 77 10000 3.1 60 21:58 07.12.2020
5016 Clouds 20 1022 82 10000 4.1 70 20:32 07.12.2020
5017 Rain 23 1020 56 10000 5.1 90 18:48 07.12.2020
5018 Clouds 24 1020 41 10000 7.7 70 17:31 07.12.2020
5019 Clouds 24 1020 41 10000 7.7 70 16:56 07.12.2020
5020 Clear 22 1013 54 10000 4.94 81 15:57 07.12.2020
5021 Clear 19 1009 72 10000 0.45 80 15:23 07.12.2020
5022 Clear 21 1009 66 10000 0.45 178 14:24 07.12.2020
5023 Clear 22 1009 55 10000 2.24 178 13:34 07.12.2020
5024 Clear 23 1010 50 10000 4.02 95 11:46 07.12.2020
5025 Clear 23 1010 49 10000 1.79 110 11:27 07.12.2020
5026 Clear 22 1011 46 10000 1.79 123 10:20 07.12.2020
5027 Clouds 20 1023 72 10000 3.6 90 08:30 07.12.2020
5028 Clouds 17 1012 77 10000 1.79 101 06:51 07.12.2020
5029 Clouds 16 1017 90 10000 1.8 58 05:21 07.12.2020
5030 Clouds 17 1020 93 10000 3.4 53 02:18 07.12.2020
5031 Clouds 16 1016 89 10000 3.2 46 00:31 07.12.2020
5032 Clouds 16 1016 89 10000 3.38 44 22:45 06.12.2020
5033 Clouds 16 1016 87 10000 3.44 50 21:44 06.12.2020
5034 Clouds 17 1016 85 10000 3.33 54 20:35 06.12.2020
5035 Clouds 15 1011 83 10000 4.92 79 19:57 06.12.2020
5036 Clouds 18 1016 82 10000 4.37 60 18:53 06.12.2020
5037 Clear 19 1013 73 10000 4.35 66 17:24 06.12.2020
5038 Clear 18 1009 70 10000 2.68 89 16:27 06.12.2020
5039 Rain 22 1008 49 10000 1.34 112 14:21 06.12.2020
5040 Rain 23 1009 51 10000 1.34 94 12:52 06.12.2020
5041 Rain 22 1010 54 10000 2.24 153 12:27 06.12.2020
5042 Rain 22 1011 54 10000 0.89 185 11:40 06.12.2020
5043 Rain 23 1011 53 10000 0.45 146 11:21 06.12.2020
5044 Rain 21 1012 52 10000 1.79 128 10:31 06.12.2020
5045 Clouds 22 1013 57 10000 0.89 107 08:50 06.12.2020
5046 Clouds 18 1013 72 10000 1.79 96 07:20 06.12.2020
5047 Clouds 13 1012 86 10000 1.79 78 03:50 06.12.2020
5048 Clouds 16 1016 90 10000 2.23 46 00:43 06.12.2020
5049 Clouds 16 1016 91 10000 2.39 45 00:25 06.12.2020
5050 Clouds 16 1016 91 10000 2.39 45 23:44 05.12.2020
5051 Clouds 14 1012 86 10000 3.13 74 22:23 05.12.2020
5052 Clouds 14 1012 85 10000 3.58 111 21:51 05.12.2020
5053 Clouds 20 1021 72 10000 2.6 60 21:27 05.12.2020
5054 Clouds 21 1020 64 10000 3.1 30 19:49 05.12.2020
5055 Clouds 16 1011 84 10000 4.47 114 18:45 05.12.2020
5056 Clouds 16 1010 83 10000 4.02 103 17:35 05.12.2020
5057 Clouds 19 1013 74 10000 5.4 58 16:43 05.12.2020
5058 Clouds 18 1010 78 10000 2.24 75 16:20 05.12.2020
5059 Rain 22 1009 60 10000 2.24 123 14:30 05.12.2020
5060 Clouds 24 1011 51 10000 4.62 70 12:32 05.12.2020
5061 Clouds 22 1011 54 10000 0.89 82 11:49 05.12.2020
5062 Clouds 21 1013 60 10000 3.34 64 10:34 05.12.2020
5063 Clouds 20 1017 69 10000 4.15 43 07:50 05.12.2020
5064 Clouds 18 1014 60 10000 0.45 56 07:26 05.12.2020
5065 Clouds 13 1013 81 10000 0.89 53 05:22 05.12.2020
5066 Clouds 14 1012 68 10000 4.47 119 23:56 04.12.2020
5067 Clouds 14 1013 67 10000 4.92 109 22:47 04.12.2020
5068 Clouds 14 1014 82 10000 4.02 102 20:35 04.12.2020
5069 Rain 14 1013 85 10000 4.47 77 18:54 04.12.2020
5070 Rain 15 1012 81 10000 4.47 117 18:21 04.12.2020
5071 Rain 16 1012 81 10000 4.47 121 17:41 04.12.2020
5072 Clouds 17 1011 76 10000 2.68 111 15:54 04.12.2020
5073 Clouds 18 1010 73 10000 2.24 65 15:20 04.12.2020
5074 Clouds 19 1010 62 10000 2.68 131 13:35 04.12.2020
5075 Clouds 21 1010 61 10000 0.89 76 12:55 04.12.2020
5076 Clouds 21 1011 63 10000 1.79 141 12:19 04.12.2020
5077 Clouds 22 1023 56 10000 7.7 60 10:35 04.12.2020
5078 Clouds 18 1014 66 10000 2.24 104 08:29 04.12.2020
5079 Clouds 16 1014 71 10000 2.24 85 06:40 04.12.2020
5080 Clouds 16 1014 71 10000 2.24 85 06:40 04.12.2020
5081 Clouds 13 1013 82 10000 1.79 103 04:52 04.12.2020
5082 Clouds 14 1011 86 10000 3.58 102 00:24 04.12.2020
5083 Clouds 14 1012 84 10000 4.47 108 22:47 03.12.2020
5084 Clouds 14 1013 87 10000 3.58 107 21:22 03.12.2020
5085 Clouds 14 1013 86 10000 4.02 79 20:41 03.12.2020
5086 Clouds 15 1012 85 10000 4.47 113 19:22 03.12.2020
5087 Clouds 15 1012 85 10000 4.92 111 18:40 03.12.2020
5088 Clouds 16 1010 84 10000 4.47 88 17:21 03.12.2020
5089 Clouds 17 1009 79 10000 4.92 75 15:59 03.12.2020
5090 Clouds 18 1009 76 10000 3.13 107 15:32 03.12.2020
5091 Clouds 19 1009 72 10000 3.58 113 14:48 03.12.2020
5092 Clouds 21 1009 62 10000 3.13 112 13:55 03.12.2020
5093 Clouds 22 1010 55 10000 1.34 252 12:44 03.12.2020
5094 Clouds 22 1010 51 10000 0.45 253 12:22 03.12.2020
5095 Clouds 21 1012 56 10000 0.45 96 10:40 03.12.2020
5096 Clouds 18 1023 82 10000 3.1 70 08:41 03.12.2020
5097 Clouds 15 1016 80 10000 2.82 36 03:57 03.12.2020
5098 Clouds 12 1010 83 10000 0.45 89 01:54 03.12.2020
5099 Clouds 13 1009 84 10000 3.13 109 00:19 03.12.2020
5100 Clouds 14 1010 84 10000 4.92 75 22:46 02.12.2020
5101 Clouds 14 1011 85 10000 5.36 76 21:46 02.12.2020
5102 Clouds 14 1011 85 10000 4.47 137 20:51 02.12.2020
5103 Clouds 19 1020 72 10000 5.1 70 20:32 02.12.2020
5104 Clouds 19 1020 72 10000 5.1 70 19:50 02.12.2020
5105 Rain 21 1018 64 10000 7.2 60 17:51 02.12.2020
5106 Rain 21 1018 64 10000 7.2 60 17:31 02.12.2020
5107 Rain 24 1016 44 10000 8.2 70 16:42 02.12.2020
5108 Clouds 26 1018 44 10000 5.1 50 13:48 02.12.2020
5109 Clouds 24 1021 53 10000 7.2 60 11:33 02.12.2020
5110 Clouds 23 1021 53 10000 5.1 70 10:25 02.12.2020
5111 Clouds 19 1012 54 10000 0.45 315 07:51 02.12.2020
5112 Clouds 14 1010 87 10000 4.47 79 23:42 01.12.2020
5113 Clouds 14 1010 87 10000 4.92 90 22:20 01.12.2020
5114 Clouds 16 1010 86 10000 3.58 104 19:45 01.12.2020
5115 Clouds 16 1010 86 10000 3.58 73 18:56 01.12.2020
5116 Rain 16 1009 85 10000 4.02 84 17:27 01.12.2020
5117 Rain 26 1016 47 10000 4.1 70 15:24 01.12.2020
5118 Rain 21 1008 69 10000 5.27 48 13:37 01.12.2020
5119 Rain 19 1009 81 10000 4.33 53 11:43 01.12.2020
5120 Clouds 24 1020 57 10000 4.1 30 10:55 01.12.2020
5121 Clouds 23 1021 60 10000 5.1 30 10:32 01.12.2020
5122 Clear 20 1012 67 10000 0.45 78 08:18 01.12.2020
5123 Clouds 19 1021 88 10000 2.1 50 06:46 01.12.2020
5124 Clouds 14 1010 87 10000 1.34 80 01:44 01.12.2020
5125 Clouds 18 1020 88 10000 2.88 44 00:52 01.12.2020
5126 Clouds 18 1021 93 10000 3.1 50 23:21 30.11.2020
5127 Clouds 15 1012 87 10000 2.24 90 22:42 30.11.2020
5128 Rain 18 1021 82 10000 2.6 50 22:22 30.11.2020
5129 Rain 19 1021 82 10000 3.1 20 20:47 30.11.2020
5130 Rain 15 1012 88 10000 2.68 79 19:41 30.11.2020
5131 Rain 21 1021 73 10000 4.1 50 18:22 30.11.2020
5132 Rain 22 1019 64 10000 4.1 70 17:47 30.11.2020
5133 Rain 24 1018 53 10000 7.2 90 16:54 30.11.2020
5134 Rain 25 1017 53 10000 5.1 70 15:46 30.11.2020
5135 Rain 19 1009 72 10000 1.79 132 14:24 30.11.2020
5136 Rain 21 1009 70 10000 1.34 146 13:42 30.11.2020
5137 Rain 25 1019 47 10000 4.1 110 12:26 30.11.2020
5138 Rain 25 1019 47 10000 4.1 110 11:57 30.11.2020
5139 Clouds 24 1021 57 10000 5.1 60 10:26 30.11.2020
5140 Clouds 22 1022 64 10000 3.1 70 09:43 30.11.2020
5141 Clouds 18 1022 82 10000 2.87 49 07:18 30.11.2020
5142 Clouds 13 1012 90 10000 2.24 74 23:39 29.11.2020
5143 Clouds 14 1013 89 10000 3.58 79 21:49 29.11.2020
5144 Clouds 14 1014 90 10000 2.24 98 21:28 29.11.2020
5145 Clouds 13 1013 93 10000 3.13 77 19:49 29.11.2020
5146 Clouds 14 1012 93 10000 0.89 72 17:47 29.11.2020
5147 Clouds 20 1019 77 10000 5.74 66 15:25 29.11.2020
5148 Rain 19 1020 82 10000 5.1 90 13:23 29.11.2020
5149 Rain 16 1022 100 10000 5.1 60 11:41 29.11.2020
5150 Rain 19 1022 82 10000 4.1 120 10:22 29.11.2020
5151 Clouds 20 1022 72 10000 5.1 120 08:38 29.11.2020
5152 Clouds 16 1020 93 10000 3.66 52 05:19 29.11.2020
5153 Clouds 14 1010 87 10000 1.34 49 23:48 28.11.2020
5154 Clouds 17 1021 93 10000 4.1 30 22:56 28.11.2020
5155 Clouds 18 1021 88 10000 4.1 90 20:47 28.11.2020
5156 Clouds 20 1020 77 10000 5.1 120 19:47 28.11.2020
5157 Clouds 20 1020 77 10000 5.1 120 19:21 28.11.2020
5158 Clouds 20 1018 77 10000 4.1 90 18:27 28.11.2020
5159 Rain 16 1009 83 10000 4.02 92 17:47 28.11.2020
5160 Clouds 23 1017 56 10000 5.1 90 16:44 28.11.2020
5161 Clouds 23 1017 60 10000 5.1 60 14:54 28.11.2020
5162 Clouds 20 1020 77 10000 5.1 90 12:35 28.11.2020
5163 Rain 25 1012 50 10000 4.36 69 10:46 28.11.2020
5164 Rain 17 1021 93 8000 4.3 54 06:42 28.11.2020
5165 Clouds 14 1010 86 10000 3.69 54 03:32 28.11.2020
5166 Clouds 18 1018 93 10000 3.98 50 01:50 28.11.2020
5167 Clouds 19 1021 88 10000 2.1 30 23:18 27.11.2020
5168 Rain 18 1021 93 10000 5.1 100 21:33 27.11.2020
5169 Clouds 20 1021 77 10000 5.1 80 20:36 27.11.2020
5170 Clouds 21 1020 73 10000 4.6 100 19:30 27.11.2020
5171 Clouds 21 1020 73 10000 4.6 100 18:44 27.11.2020
5172 Clouds 25 1017 50 10000 6.2 60 15:19 27.11.2020
5173 Clouds 26 1018 47 10000 3.1 40 13:44 27.11.2020
5174 Clouds 25 1019 53 10000 4.6 40 12:48 27.11.2020
5175 Clouds 25 1019 53 10000 4.6 40 11:55 27.11.2020
5176 Clouds 23 1021 60 10000 5.1 60 10:51 27.11.2020
5177 Clouds 21 1022 73 10000 6.7 10 10:24 27.11.2020
5178 Clouds 17 1012 75 10000 1.34 292 07:30 27.11.2020
5179 Clouds 17 1012 75 10000 1.34 292 07:30 27.11.2020
5180 Clouds 17 1014 87 10000 3.64 51 22:43 26.11.2020
5181 Clouds 15 1011 85 10000 5.81 112 22:22 26.11.2020
5182 Clouds 20 1021 77 10000 3.1 60 21:39 26.11.2020
5183 Rain 16 1010 82 10000 4.02 128 19:41 26.11.2020
5184 Clouds 22 1019 53 10000 3.1 90 18:34 26.11.2020
5185 Clouds 26 1017 44 10000 8.2 90 16:32 26.11.2020
5186 Clouds 27 1018 42 10000 2.1 100 13:43 26.11.2020
5187 Clouds 27 1018 42 10000 2.1 100 12:49 26.11.2020
5188 Clouds 25 1019 50 10000 4.1 90 12:29 26.11.2020
5189 Clouds 24 1021 53 10000 5.1 60 10:38 26.11.2020
5190 Clouds 24 1021 53 10000 5.1 60 09:59 26.11.2020
5191 Clouds 22 1021 64 10000 2.6 70 09:31 26.11.2020
5192 Clouds 20 1012 70 10000 2.49 87 08:43 26.11.2020
5193 Clouds 19 1021 82 10000 3.1 80 07:49 26.11.2020
5194 Clear 18 1019 82 10000 2.03 17 00:46 26.11.2020
5195 Clouds 20 1021 68 10000 2.85 65 21:36 25.11.2020
5196 Clouds 21 1020 60 10000 3.1 60 20:19 25.11.2020
5197 Clouds 22 1020 56 10000 4.1 60 18:58 25.11.2020
5198 Clouds 25 1017 50 10000 6.2 90 17:27 25.11.2020
5199 Thunderstorm 27 1017 36 10000 7.7 160 15:43 25.11.2020
5200 Clouds 28 1017 34 10000 5.1 120 14:46 25.11.2020
5201 Clouds 28 1017 34 10000 5.1 120 13:45 25.11.2020
5202 Clouds 27 1018 36 10000 5.1 160 12:47 25.11.2020
5203 Clouds 24 1021 57 10000 3.33 109 11:22 25.11.2020
5204 Clouds 21 1022 73 10000 2.6 110 09:20 25.11.2020
5205 Clouds 21 1022 73 10000 2.6 110 08:50 25.11.2020
5206 Clouds 17 1021 100 10000 1.99 56 07:20 25.11.2020
5207 Clouds 16 1019 93 10000 1.59 14 03:49 25.11.2020
5208 Clear 17 1019 88 10000 2.43 41 01:34 25.11.2020
5209 Clear 14 1008 83 10000 4.02 110 00:18 25.11.2020
5210 Clear 18 1020 82 10000 2.44 43 23:35 24.11.2020
5211 Clear 15 1009 82 10000 4.47 112 22:38 24.11.2020
5212 Rain 16 1010 84 10000 4.02 115 21:34 24.11.2020
5213 Rain 16 1010 84 10000 4.02 98 20:58 24.11.2020
5214 Rain 16 1009 84 10000 5.81 92 19:48 24.11.2020
5215 Clouds 20 1018 77 10000 5.1 240 17:32 24.11.2020
5216 Clouds 20 1018 77 10000 5.1 240 16:58 24.11.2020
5217 Clouds 25 1016 50 10000 5.1 120 16:37 24.11.2020
5218 Clouds 25 1016 50 10000 5.1 120 15:56 24.11.2020
5219 Clouds 27 1016 42 10000 5.1 90 15:19 24.11.2020
5220 Clouds 26 1017 47 10000 5.1 80 14:44 24.11.2020
5221 Clouds 26 1018 47 10000 5.1 90 13:36 24.11.2020
5222 Clouds 25 1019 57 10000 4.1 30 12:39 24.11.2020
5223 Clouds 25 1019 57 10000 4.1 30 11:59 24.11.2020
5224 Clouds 24 1020 60 10000 5.1 90 11:25 24.11.2020
5225 Clouds 23 1021 64 10000 5.1 90 10:25 24.11.2020
5226 Clouds 22 1021 64 10000 5.1 60 09:40 24.11.2020
5227 Clouds 22 1021 64 10000 5.1 60 08:59 24.11.2020
5228 Clouds 18 1021 93 10000 3.1 90 06:20 24.11.2020
5229 Clear 18 1021 88 10000 3.35 44 00:41 24.11.2020
5230 Clear 19 1022 82 10000 3.87 55 22:24 23.11.2020
5231 Clear 20 1022 77 10000 2.1 50 21:32 23.11.2020
5232 Clear 21 1021 73 10000 3.6 60 20:31 23.11.2020
5233 Clear 21 1021 73 10000 3.6 60 19:59 23.11.2020
5234 Clouds 23 1019 56 10000 4.1 70 17:57 23.11.2020
5235 Clouds 22 1019 68 10000 4.97 61 16:56 23.11.2020
5236 Clouds 23 1018 60 10000 6.2 230 15:33 23.11.2020
5237 Clouds 26 1018 50 10000 8.2 60 14:37 23.11.2020
5238 Clouds 27 1020 47 10000 3.6 70 12:41 23.11.2020
5239 Clouds 25 1020 57 10000 2.1 360 12:20 23.11.2020
5240 Clouds 26 1021 50 10000 2.6 110 11:42 23.11.2020
5241 Clouds 24 1022 53 10000 2.6 120 10:45 23.11.2020
5242 Clouds 22 1023 68 10000 3.81 57 09:31 23.11.2020
5243 Clouds 20 1023 72 10000 3.1 70 08:37 23.11.2020
5244 Clouds 19 1021 77 10000 3.1 70 06:57 23.11.2020
5245 Clouds 19 1022 77 10000 4.6 30 00:21 23.11.2020
5246 Clouds 19 1023 72 10000 2.6 30 22:46 22.11.2020
5247 Clouds 20 1023 60 10000 4.85 56 21:37 22.11.2020
5248 Clouds 21 1022 60 10000 3.1 50 20:43 22.11.2020
5249 Clouds 21 1022 56 10000 3.1 30 19:52 22.11.2020
5250 Clouds 22 1021 53 10000 4.6 30 18:40 22.11.2020
5251 Clouds 24 1018 47 10000 5.1 70 16:50 22.11.2020
5252 Clouds 26 1018 41 10000 6.2 50 15:30 22.11.2020
5253 Clouds 26 1018 44 10000 8.2 70 14:28 22.11.2020
5254 Clouds 27 1020 42 10000 5.7 60 12:49 22.11.2020
5255 Clouds 26 1021 47 10000 5.1 40 11:56 22.11.2020
5256 Clouds 24 1021 60 10000 5.1 90 11:20 22.11.2020
5257 Clouds 23 1021 64 10000 4.1 20 10:38 22.11.2020
5258 Clouds 19 1022 77 10000 5.1 70 08:36 22.11.2020
5259 Clouds 17 1019 93 10000 4.1 60 01:47 22.11.2020
5260 Clouds 18 1021 93 10000 2.6 60 23:21 21.11.2020
5261 Clouds 18 1022 93 10000 4.6 60 21:47 21.11.2020
5262 Rain 19 1021 72 10000 5.1 90 21:18 21.11.2020
5263 Clouds 20 1020 60 10000 3.6 60 20:33 21.11.2020
5264 Clouds 21 1020 60 10000 3.6 60 19:52 21.11.2020
5265 Clouds 21 1019 56 10000 3.1 60 19:26 21.11.2020
5266 Clouds 22 1018 49 10000 5.1 70 17:57 21.11.2020
5267 Clouds 24 1018 44 10000 2.6 60 16:48 21.11.2020
5268 Clouds 26 1018 44 10000 7.2 60 16:48 21.11.2020
5269 Clouds 25 1016 41 10000 7.2 90 15:51 21.11.2020
5270 Clouds 27 1017 36 10000 5.1 90 15:21 21.11.2020
5271 Clouds 27 1017 39 10000 7.2 80 14:43 21.11.2020
5272 Clouds 26 1017 39 10000 5.1 90 13:58 21.11.2020
5273 Clear 21 1009 63 10000 5.91 62 12:27 21.11.2020
5274 Clear 21 1009 64 10000 5.91 62 11:56 21.11.2020
5275 Clouds 22 1021 60 10000 4.1 40 10:39 21.11.2020
5276 Clouds 21 1021 72 10000 5.1 60 09:32 21.11.2020
5277 Clear 19 1012 68 10000 0.45 106 08:51 21.11.2020
5278 Clouds 17 1020 93 10000 4.28 53 06:34 21.11.2020
5279 Clouds 17 1019 93 10000 3.1 60 04:33 21.11.2020
5280 Clouds 19 1020 77 10000 4.6 50 00:38 21.11.2020
5281 Clouds 19 1020 77 10000 4.44 52 23:25 20.11.2020
5282 Clouds 19 1020 77 10000 4.66 53 22:25 20.11.2020
5283 Clouds 20 1020 64 10000 4.1 70 21:38 20.11.2020
5284 Clouds 20 1020 64 10000 4.1 70 21:20 20.11.2020
5285 Clouds 20 1020 56 10000 3.6 80 19:44 20.11.2020
5286 Clouds 21 1018 60 10000 3.1 50 18:36 20.11.2020
5287 Clouds 21 1018 60 10000 3.1 50 17:51 20.11.2020
5288 Clouds 21 1018 60 10000 3.1 50 17:24 20.11.2020
5289 Clouds 24 1016 50 10000 7.2 70 16:38 20.11.2020
5290 Clouds 24 1016 50 10000 7.2 70 15:56 20.11.2020
5291 Clouds 26 1017 50 10000 3.1 90 14:58 20.11.2020
5292 Clouds 24 1019 57 10000 4.6 60 13:45 20.11.2020
5293 Clouds 24 1019 57 10000 4.6 60 13:18 20.11.2020
5294 Clouds 23 1019 60 10000 4.1 60 12:34 20.11.2020
5295 Clouds 23 1020 60 10000 4.6 50 11:45 20.11.2020
5296 Clouds 22 1020 73 10000 3.1 70 10:55 20.11.2020
5297 Clouds 19 1021 88 10000 3.1 70 08:53 20.11.2020
5298 Clouds 18 1021 93 10000 3.1 90 08:25 20.11.2020
5299 Clouds 17 1021 100 8000 3.1 70 07:32 20.11.2020
5300 Clouds 17 1019 93 10000 5.1 40 03:44 20.11.2020
5301 Clouds 19 1021 88 10000 4.1 40 22:42 19.11.2020
5302 Clouds 19 1020 72 10000 5.1 30 21:55 19.11.2020
5303 Clouds 20 1020 68 10000 6.2 60 21:36 19.11.2020
5304 Clouds 20 1020 68 10000 5.1 70 20:32 19.11.2020
5305 Clouds 20 1020 68 10000 5.1 70 19:49 19.11.2020
5306 Clouds 20 1018 72 10000 4.1 50 19:24 19.11.2020
5307 Clouds 22 1018 64 10000 8.2 70 17:40 19.11.2020
5308 Clouds 24 1016 50 10000 9.3 70 16:54 19.11.2020
5309 Clouds 27 1016 34 10000 6.2 70 15:36 19.11.2020
5310 Clouds 27 1016 34 10000 6.2 70 15:18 19.11.2020
5311 Clouds 27 1016 34 10000 6.2 70 15:18 19.11.2020
5312 Clouds 27 1017 42 10000 5.1 90 13:46 19.11.2020
5313 Clouds 27 1017 42 10000 5.1 90 13:19 19.11.2020
5314 Clouds 26 1018 41 10000 5.1 50 12:35 19.11.2020
5315 Clouds 26 1019 47 10000 4.1 90 11:50 19.11.2020
5316 Clouds 26 1019 47 10000 4.1 90 11:32 19.11.2020
5317 Clouds 25 1019 47 10000 4.1 90 10:52 19.11.2020
5318 Clouds 24 1020 53 10000 5.1 20 10:18 19.11.2020
5319 Clouds 22 1021 68 10000 5.1 30 09:38 19.11.2020
5320 Clouds 22 1021 68 10000 5.1 30 09:18 19.11.2020
5321 Clouds 19 1021 82 10000 3.6 50 08:19 19.11.2020
5322 Clouds 18 1019 82 10000 2.1 60 02:44 19.11.2020
5323 Clouds 18 1018 82 10000 2.1 60 01:45 19.11.2020
5324 Clouds 18 1020 82 10000 3.69 51 23:52 18.11.2020
5325 Clouds 19 1020 77 10000 2.6 20 23:24 18.11.2020
5326 Clear 19 1020 72 10000 2.6 50 22:36 18.11.2020
5327 Clear 19 1020 72 10000 2.6 50 22:18 18.11.2020
5328 Clear 19 1020 72 10000 2.6 50 21:38 18.11.2020
5329 Clear 19 1020 72 10000 2.6 50 21:19 18.11.2020
5330 Clear 20 1020 60 10000 3.6 60 19:46 18.11.2020
5331 Clear 21 1018 49 10000 4.6 40 19:25 18.11.2020
5332 Clear 21 1018 49 10000 4.6 40 18:49 18.11.2020
5333 Clouds 22 1018 40 10000 7.7 60 17:55 18.11.2020
5334 Clouds 22 1018 40 10000 7.7 60 17:35 18.11.2020
5335 Clouds 25 1016 31 10000 8.2 60 16:22 18.11.2020
5336 Clouds 26 1016 31 10000 6.7 80 15:21 18.11.2020
5337 Clouds 27 1016 28 10000 9.8 80 14:40 18.11.2020
5338 Clouds 27 1017 24 10000 6.7 70 13:42 18.11.2020
5339 Clouds 27 1017 24 10000 6.7 70 12:54 18.11.2020
5340 Clouds 26 1019 27 10000 9.3 70 12:27 18.11.2020
5341 Clouds 26 1020 29 10000 4.1 50 11:27 18.11.2020
5342 Clouds 25 1020 41 10000 3.1 60 10:31 18.11.2020
5343 Clouds 24 1020 41 10000 3.1 60 09:52 18.11.2020
5344 Clouds 20 1022 72 10000 5.1 30 07:40 18.11.2020
5345 Clouds 17 1020 88 10000 3.1 90 06:30 18.11.2020
5346 Clouds 18 1020 82 10000 5.1 60 00:25 18.11.2020
5347 Clouds 19 1020 77 10000 4.1 70 23:34 17.11.2020
5348 Clouds 19 1020 77 10000 5.1 50 22:46 17.11.2020
5349 Clouds 19 1020 77 10000 5.1 50 22:28 17.11.2020
5350 Clouds 19 1021 77 10000 4.6 20 21:50 17.11.2020
5351 Clouds 19 1020 77 10000 5.1 50 21:30 17.11.2020
5352 Clouds 19 1020 77 10000 5.1 50 20:47 17.11.2020
5353 Clouds 20 1019 72 10000 6.2 30 20:24 17.11.2020
5354 Clouds 20 1020 72 10000 5.1 40 19:54 17.11.2020
5355 Clouds 20 1019 72 10000 6.2 30 19:54 17.11.2020
5356 Clouds 22 1017 53 10000 5.1 70 18:24 17.11.2020
5357 Clouds 22 1017 53 10000 5.1 70 18:24 17.11.2020
5358 Clouds 22 1017 53 10000 5.1 70 17:33 17.11.2020
5359 Clouds 23 1017 46 10000 5.1 60 16:49 17.11.2020
5360 Clouds 24 1016 38 10000 9.3 50 16:18 17.11.2020
5361 Clouds 25 1016 47 10000 6.2 90 15:39 17.11.2020
5362 Clouds 25 1016 47 10000 6.2 90 15:21 17.11.2020
5363 Clouds 26 1016 41 10000 10.3 70 14:41 17.11.2020
5364 Clouds 26 1016 41 10000 10.3 70 13:59 17.11.2020
5365 Clouds 26 1017 47 10000 10.3 70 13:30 17.11.2020
5366 Clouds 25 1018 44 10000 6.7 60 12:43 17.11.2020
5367 Clouds 24 1020 56 10000 8.2 80 11:46 17.11.2020
5368 Clouds 24 1020 56 10000 8.2 80 11:28 17.11.2020
5369 Clouds 22 1020 68 10000 5.1 70 10:39 17.11.2020
5370 Clouds 22 1020 68 10000 5.1 70 10:20 17.11.2020
5371 Clouds 21 1021 72 10000 4.1 90 09:43 17.11.2020
5372 Clouds 20 1021 72 10000 4.1 90 08:43 17.11.2020
5373 Clouds 19 1021 77 10000 5.1 60 07:59 17.11.2020
5374 Clouds 17 1021 93 10000 4.1 80 07:32 17.11.2020
5375 Clouds 17 1019 93 10000 3.1 80 04:31 17.11.2020
5376 Clouds 17 1019 88 10000 3.6 40 03:25 17.11.2020
5377 Clouds 18 1019 82 10000 2.6 60 02:29 17.11.2020
5378 Clouds 17 1021 82 10000 2.1 10 00:56 17.11.2020
5379 Clouds 18 1020 82 10000 3.1 70 23:54 16.11.2020
5380 Clouds 19 1021 77 10000 5.1 70 23:32 16.11.2020
5381 Clouds 19 1021 77 10000 5.1 70 22:58 16.11.2020
5382 Clouds 19 1022 77 10000 3.6 60 22:24 16.11.2020
5383 Clouds 19 1022 77 10000 3.6 60 21:56 16.11.2020
5384 Clouds 19 1022 77 10000 2.6 60 21:37 16.11.2020
5385 Clouds 19 1022 77 10000 2.6 60 21:19 16.11.2020
5386 Clouds 19 1021 77 10000 4.1 60 20:26 16.11.2020
5387 Clouds 19 1021 77 10000 4.1 60 19:53 16.11.2020
5388 Clouds 20 1020 60 10000 5.1 70 19:29 16.11.2020
5389 Clouds 20 1020 60 10000 5.1 70 18:51 16.11.2020
5390 Clouds 21 1019 56 10000 2.6 60 18:18 16.11.2020
5391 Clouds 22 1018 43 10000 5.1 60 17:36 16.11.2020
5392 Clouds 22 1018 43 10000 5.1 60 17:18 16.11.2020
5393 Clouds 23 1018 49 10000 8.2 50 16:49 16.11.2020
5394 Clouds 24 1017 47 10000 6.2 80 16:24 16.11.2020
5395 Clouds 24 1017 44 10000 7.2 50 15:44 16.11.2020
5396 Clouds 24 1017 50 10000 4.1 90 15:26 16.11.2020
5397 Clouds 24 1017 50 10000 4.1 90 14:47 16.11.2020
5398 Clouds 24 1018 50 10000 6.2 100 13:44 16.11.2020
5399 Clouds 24 1018 50 10000 6.2 100 12:59 16.11.2020
5400 Clouds 24 1020 50 10000 5.1 70 12:29 16.11.2020
5401 Clouds 23 1021 56 10000 6.7 90 11:40 16.11.2020
5402 Clouds 23 1021 56 10000 6.7 90 11:21 16.11.2020
5403 Clouds 23 1022 60 10000 6.7 50 10:44 16.11.2020
5404 Clouds 22 1021 64 10000 6.2 90 10:25 16.11.2020
5405 Clouds 20 1022 72 10000 5.1 60 09:49 16.11.2020
5406 Clouds 20 1022 72 10000 5.1 60 09:23 16.11.2020
5407 Clouds 18 1022 88 10000 6.2 50 08:41 16.11.2020
5408 Clouds 18 1022 88 10000 6.2 50 07:48 16.11.2020
5409 Clouds 18 1022 88 10000 5.1 70 06:54 16.11.2020
5410 Clouds 17 1021 93 10000 4.6 70 06:35 16.11.2020
5411 Clouds 17 1020 93 10000 4.1 90 04:53 16.11.2020
5412 Clouds 17 1020 93 10000 2.6 60 03:52 16.11.2020
5413 Clouds 18 1019 88 10000 4.1 40 01:44 16.11.2020
5414 Clouds 18 1021 88 10000 2.1 10 00:20 16.11.2020
5415 Clouds 18 1020 88 10000 3.1 70 23:28 15.11.2020
5416 Clouds 18 1021 88 10000 3.1 70 22:54 15.11.2020
5417 Clouds 19 1020 77 10000 5.1 60 22:22 15.11.2020
5418 Clouds 19 1021 82 10000 3.6 50 21:51 15.11.2020
5419 Clouds 20 1020 77 10000 5.1 70 21:27 15.11.2020
5420 Clouds 20 1020 77 10000 5.1 70 20:48 15.11.2020
5421 Clouds 20 1020 68 10000 4.1 30 20:28 15.11.2020
5422 Clouds 20 1020 68 10000 4.1 30 19:54 15.11.2020
5423 Clear 20 1020 64 10000 3.6 30 19:36 15.11.2020
5424 Clear 20 1020 64 10000 3.6 30 19:18 15.11.2020
5425 Clouds 22 1019 56 10000 5.7 40 18:41 15.11.2020
5426 Clouds 22 1018 49 10000 5.1 70 18:23 15.11.2020
5427 Clouds 23 1018 53 10000 7.2 40 17:47 15.11.2020
5428 Clouds 23 1017 53 10000 8.2 90 17:26 15.11.2020
5429 Clouds 23 1017 53 10000 8.2 90 16:52 15.11.2020
5430 Clouds 25 1016 38 10000 8.2 90 16:23 15.11.2020
5431 Clouds 25 1016 38 10000 8.2 90 15:58 15.11.2020
5432 Clouds 26 1016 41 10000 6.2 90 15:39 15.11.2020
5433 Clouds 26 1016 41 10000 6.2 90 15:21 15.11.2020
5434 Clouds 27 1017 42 10000 7.2 50 14:45 15.11.2020
5435 Clouds 26 1016 44 10000 9.3 110 14:22 15.11.2020
5436 Clouds 26 1018 39 10000 8.2 70 13:41 15.11.2020
5437 Clouds 26 1018 39 10000 8.2 70 12:53 15.11.2020
5438 Clouds 25 1019 53 10000 6.2 110 12:29 15.11.2020
5439 Clouds 25 1019 53 10000 6.2 110 11:58 15.11.2020
5440 Clouds 23 1020 56 10000 4.1 70 11:40 15.11.2020
5441 Clouds 23 1020 56 10000 4.1 70 11:18 15.11.2020
5442 Clouds 23 1021 56 10000 4.6 60 10:49 15.11.2020
5443 Clouds 22 1021 60 10000 5.1 50 10:29 15.11.2020
5444 Clouds 20 1020 72 10000 4.1 20 09:45 15.11.2020
5445 Clouds 20 1020 72 10000 4.1 20 09:22 15.11.2020
5446 Clouds 20 1020 72 10000 4.1 20 08:54 15.11.2020
5447 Clouds 19 1021 77 10000 3.1 40 08:31 15.11.2020
5448 Clouds 18 1020 82 10000 5.1 50 07:43 15.11.2020
5449 Clouds 17 1019 88 10000 2.37 48 05:30 15.11.2020
5450 Clouds 17 1019 88 10000 2.37 48 04:50 15.11.2020
5451 Clear 16 1020 93 10000 2.6 20 00:56 15.11.2020
5452 Clear 16 1020 87 10000 3.68 53 00:29 15.11.2020
5453 Clear 17 1022 93 10000 2.1 360 23:41 14.11.2020
5454 Clear 17 1022 93 10000 2.6 360 22:51 14.11.2020
5455 Clear 17 1022 93 10000 2.6 20 22:32 14.11.2020
5456 Clear 17 1022 93 10000 2.6 20 21:45 14.11.2020
5457 Clouds 18 1022 93 10000 3.6 20 21:23 14.11.2020
5458 Clouds 18 1022 93 10000 3.6 10 20:59 14.11.2020
5459 Clouds 19 1020 82 10000 4.1 60 20:30 14.11.2020
5460 Clouds 19 1020 82 10000 4.1 60 19:58 14.11.2020
5461 Clouds 19 1019 82 10000 5.1 60 19:36 14.11.2020
5462 Clouds 19 1019 82 10000 5.1 60 18:55 14.11.2020
5463 Clouds 20 1018 77 10000 4.1 60 18:36 14.11.2020
5464 Clouds 20 1018 77 10000 4.1 60 18:18 14.11.2020
5465 Clouds 21 1017 73 10000 7.7 90 17:42 14.11.2020
5466 Clouds 21 1017 73 10000 7.7 90 17:23 14.11.2020
5467 Clouds 23 1018 64 10000 8.7 60 16:46 14.11.2020
5468 Clouds 22 1017 64 10000 6.2 90 16:26 14.11.2020
5469 Clouds 24 1017 60 10000 6.7 70 15:53 14.11.2020
5470 Clouds 24 1017 53 10000 5.1 90 15:30 14.11.2020
5471 Clouds 24 1017 53 10000 5.1 90 14:50 14.11.2020
5472 Clouds 24 1017 57 10000 5.1 70 14:28 14.11.2020
5473 Clouds 24 1017 57 10000 5.1 70 13:49 14.11.2020
5474 Clouds 23 1018 56 10000 5.1 60 13:27 14.11.2020
5475 Clouds 24 1018 56 10000 5.1 60 12:49 14.11.2020
5476 Clouds 23 1020 68 10000 3.1 30 12:30 14.11.2020
5477 Clouds 22 1021 68 10000 5.1 40 11:48 14.11.2020
5478 Clouds 21 1021 77 10000 5.1 60 11:30 14.11.2020
5479 Clouds 21 1021 77 10000 5.1 60 10:51 14.11.2020
5480 Clouds 18 1021 88 10000 3.1 60 10:27 14.11.2020
5481 Clouds 18 1021 88 10000 3.1 60 09:58 14.11.2020
5482 Clouds 18 1022 88 10000 4.1 30 09:39 14.11.2020
5483 Clouds 18 1022 88 10000 4.1 30 09:21 14.11.2020
5484 Clouds 17 1022 93 10000 5.1 60 08:40 14.11.2020
5485 Clouds 17 1022 93 10000 5.1 60 08:18 14.11.2020
5486 Rain 17 1021 88 9000 4.1 60 07:41 14.11.2020
5487 Clouds 17 1021 88 10000 4.1 40 06:38 14.11.2020
5488 Clouds 17 1021 88 10000 4.1 40 06:20 14.11.2020
5489 Clouds 17 1020 88 10000 4.1 40 04:39 14.11.2020
5490 Clouds 17 1020 93 10000 3.1 50 01:29 14.11.2020
5491 Clouds 18 1021 88 10000 3.6 30 23:54 13.11.2020
5492 Clouds 18 1021 88 10000 5.1 50 23:33 13.11.2020
5493 Clouds 18 1021 88 10000 5.1 50 22:58 13.11.2020
5494 Clouds 18 1021 88 10000 5.1 40 22:39 13.11.2020
5495 Clouds 14 1011 88 10000 4.02 94 22:19 13.11.2020
5496 Clouds 18 1023 88 10000 3.6 10 21:43 13.11.2020
5497 Clouds 18 1023 88 10000 3.6 10 21:22 13.11.2020
5498 Clouds 18 1023 82 10000 5.1 20 20:51 13.11.2020
5499 Clouds 19 1021 82 10000 4.1 30 20:23 13.11.2020
5500 Clouds 19 1021 82 10000 4.1 30 19:47 13.11.2020
5501 Clouds 19 1020 82 10000 5.1 60 19:24 13.11.2020
5502 Clouds 19 1020 82 10000 5.1 60 18:59 13.11.2020
5503 Clouds 20 1019 72 10000 5.1 30 18:32 13.11.2020
5504 Clouds 21 1018 64 10000 7.7 70 17:43 13.11.2020
5505 Clouds 21 1018 64 10000 7.7 70 17:21 13.11.2020
5506 Clouds 23 1019 56 10000 7.7 60 16:50 13.11.2020
5507 Clouds 23 1018 60 10000 7.7 90 16:25 13.11.2020
5508 Clouds 23 1018 60 10000 7.7 90 15:58 13.11.2020
5509 Clouds 24 1018 57 10000 10.3 120 15:33 13.11.2020
5510 Clouds 24 1018 57 10000 10.3 120 14:55 13.11.2020
5511 Clouds 24 1018 57 10000 10.3 120 14:36 13.11.2020
5512 Clouds 24 1018 57 10000 10.3 120 14:18 13.11.2020
5513 Clouds 24 1018 57 10000 10.3 120 14:18 13.11.2020
5514 Clouds 24 1018 57 10000 10.3 120 14:18 13.11.2020
5515 Clouds 25 1018 50 10000 5.1 70 14:18 13.11.2020
5516 Clouds 26 1019 50 10000 5.1 60 13:31 13.11.2020
5517 Clouds 25 1019 50 10000 5.1 60 12:52 13.11.2020
5518 Clouds 24 1020 60 10000 5.1 90 12:27 13.11.2020
5519 Clouds 23 1020 60 10000 5.1 90 11:58 13.11.2020
5520 Clouds 23 1021 64 10000 5.1 90 11:39 13.11.2020
5521 Clouds 23 1021 64 10000 5.1 90 11:19 13.11.2020
5522 Clouds 22 1023 68 10000 5.7 50 10:41 13.11.2020
5523 Clouds 21 1022 68 10000 5.1 50 10:23 13.11.2020
5524 Clouds 21 1022 68 10000 5.1 50 09:47 13.11.2020
5525 Clouds 20 1023 72 10000 5.1 60 09:25 13.11.2020
5526 Clouds 20 1023 72 10000 5.1 60 08:53 13.11.2020
5527 Clouds 19 1023 77 10000 3.6 60 08:23 13.11.2020
5528 Clouds 19 1023 77 10000 3.6 60 07:49 13.11.2020
5529 Clouds 18 1022 88 10000 5.1 100 07:27 13.11.2020
5530 Clouds 18 1022 88 10000 5.1 100 06:55 13.11.2020
5531 Clouds 17 1021 93 10000 3.1 90 06:34 13.11.2020
5532 Clouds 17 1021 93 10000 3.1 90 06:34 13.11.2020
5533 Clouds 17 1021 93 10000 3.6 70 05:40 13.11.2020
5534 Rain 13 1012 91 10000 5.16 51 03:41 13.11.2020
5535 Clouds 14 1011 86 10000 4.92 109 01:42 13.11.2020
5536 Clouds 14 1011 86 10000 1.34 65 00:35 13.11.2020
5537 Clouds 14 1012 85 10000 3.58 98 23:49 12.11.2020
5538 Clouds 14 1012 85 10000 4.02 116 23:21 12.11.2020
5539 Clouds 14 1012 85 10000 3.58 88 22:54 12.11.2020
5540 Clouds 14 1012 85 10000 4.47 87 22:36 12.11.2020
5541 Clouds 14 1012 85 10000 4.92 115 21:57 12.11.2020
5542 Clouds 14 1012 85 10000 4.92 103 21:39 12.11.2020
5543 Clouds 14 1013 85 10000 4.47 107 21:19 12.11.2020
5544 Clouds 15 1013 85 10000 4.92 90 20:41 12.11.2020
5545 Rain 14 1013 85 10000 4.47 117 20:23 12.11.2020
5546 Rain 14 1013 84 10000 4.92 129 19:52 12.11.2020
5547 Rain 15 1013 84 10000 4.47 104 19:34 12.11.2020
5548 Rain 15 1012 84 10000 5.36 54 18:58 12.11.2020
5549 Clear 15 1012 85 10000 3.58 83 18:39 12.11.2020
5550 Clear 15 1012 86 10000 4.92 115 18:19 12.11.2020
5551 Clear 14 1011 86 10000 4.92 98 17:40 12.11.2020
5552 Clear 14 1011 86 10000 4.92 98 17:22 12.11.2020
5553 Clear 15 1010 85 10000 4.02 86 16:44 12.11.2020
5554 Clear 16 1010 81 10000 4.02 123 16:23 12.11.2020
5555 Clear 17 1009 81 10000 4.47 96 15:47 12.11.2020
5556 Clear 17 1009 79 10000 4.47 68 15:28 12.11.2020
5557 Clear 18 1009 72 10000 2.24 351 14:47 12.11.2020
5558 Clear 18 1009 76 10000 7.41 59 14:28 12.11.2020
5559 Clear 18 1009 75 10000 0.45 292 13:58 12.11.2020
5560 Clear 18 1009 76 10000 1.34 313 13:40 12.11.2020
5561 Clear 17 1009 76 10000 7.46 59 13:19 12.11.2020
5562 Clear 18 1009 72 10000 2.24 309 12:44 12.11.2020
5563 Clear 19 1009 70 10000 7.4 61 12:24 12.11.2020
5564 Clear 20 1009 66 10000 7.4 61 11:53 12.11.2020
5565 Clear 21 1010 64 10000 7.4 61 11:30 12.11.2020
5566 Clear 21 1011 66 10000 1.34 306 10:49 12.11.2020
5567 Clear 22 1011 59 10000 3.13 163 10:29 12.11.2020
5568 Clear 19 1012 69 10000 6.62 63 09:51 12.11.2020
5569 Clear 19 1013 68 10000 6.08 59 09:27 12.11.2020
5570 Clear 19 1013 67 10000 6.08 59 08:58 12.11.2020
5571 Clear 19 1013 68 10000 6.08 59 08:40 12.11.2020
5572 Clear 20 1014 65 10000 0.45 85 08:20 12.11.2020
5573 Clear 19 1014 68 10000 5.23 56 07:54 12.11.2020
5574 Clouds 18 1014 71 10000 4.31 53 07:31 12.11.2020
5575 Clouds 17 1014 73 10000 4.63 49 06:51 12.11.2020
5576 Clouds 18 1022 82 10000 3.6 70 06:25 12.11.2020
5577 Clouds 13 1013 87 10000 1.34 89 03:45 12.11.2020
5578 Clouds 13 1013 86 10000 4.66 53 03:19 12.11.2020
5579 Clouds 14 1011 86 10000 4.47 105 00:32 12.11.2020
5580 Clouds 14 1012 85 10000 4.02 75 23:43 11.11.2020
5581 Clouds 18 1022 82 10000 2.6 40 23:24 11.11.2020
5582 Clouds 18 1022 82 10000 2.6 40 23:24 11.11.2020
5583 Clouds 14 1013 85 10000 3.58 80 22:47 11.11.2020
5584 Clear 14 1013 85 10000 4.02 99 22:22 11.11.2020
5585 Clear 14 1013 84 10000 4.02 86 21:57 11.11.2020
5586 Clear 14 1013 84 10000 4.02 80 21:38 11.11.2020
5587 Clear 14 1013 84 10000 4.47 111 21:20 11.11.2020
5588 Clear 19 1023 82 10000 3.6 20 20:43 11.11.2020
5589 Clouds 19 1021 72 10000 5.1 80 20:22 11.11.2020
5590 Clouds 19 1021 72 10000 5.1 80 19:57 11.11.2020
5591 Clouds 20 1021 68 10000 3.6 90 19:38 11.11.2020
5592 Clouds 20 1021 68 10000 3.6 90 19:20 11.11.2020
5593 Clouds 20 1020 68 10000 5.1 90 18:41 11.11.2020
5594 Clouds 20 1020 68 10000 5.1 90 18:22 11.11.2020
5595 Clouds 22 1018 56 10000 6.2 90 17:39 11.11.2020
5596 Clouds 22 1018 56 10000 6.2 90 17:21 11.11.2020
5597 Clouds 23 1018 46 10000 6.2 40 16:40 11.11.2020
5598 Clouds 23 1018 46 10000 6.2 40 16:21 11.11.2020
5599 Clouds 23 1018 46 10000 6.2 40 15:43 11.11.2020
5600 Clouds 23 1018 46 10000 6.2 40 15:23 11.11.2020
5601 Clouds 24 1018 47 10000 6.7 90 14:49 11.11.2020
5602 Clouds 24 1018 47 10000 7.2 60 14:30 11.11.2020
5603 Clouds 24 1018 47 10000 7.2 60 13:50 11.11.2020
5604 Clouds 23 1019 53 10000 7.7 60 13:32 11.11.2020
5605 Clouds 23 1021 56 10000 5.1 80 12:38 11.11.2020
5606 Clouds 22 1021 56 10000 5.1 80 12:20 11.11.2020
5607 Clouds 22 1021 56 10000 5.1 80 11:47 11.11.2020
5608 Clouds 22 1021 60 10000 7.7 70 11:25 11.11.2020
5609 Clouds 21 1023 72 10000 3.1 70 10:39 11.11.2020
5610 Clouds 20 1023 72 10000 3.1 70 10:20 11.11.2020
5611 Clouds 19 1024 82 10000 5.7 40 09:44 11.11.2020
5612 Clouds 18 1023 82 10000 6.7 70 09:24 11.11.2020
5613 Clouds 17 1024 93 10000 5.7 40 08:46 11.11.2020
5614 Rain 17 1023 93 6000 5.1 60 08:27 11.11.2020
5615 Rain 17 1023 93 6000 5.1 60 07:49 11.11.2020
5616 Rain 17 1023 93 6000 5.1 60 07:49 11.11.2020
5617 Clouds 17 1022 93 10000 5.1 60 06:51 11.11.2020
5618 Clouds 17 1021 93 10000 3.1 70 06:25 11.11.2020
5619 Clouds 17 1020 93 10000 3.6 70 03:40 11.11.2020
5620 Clouds 18 1022 88 10000 3.1 30 00:59 11.11.2020
5621 Clouds 18 1022 88 10000 3.6 20 00:28 11.11.2020
5622 Clouds 18 1022 88 10000 3.6 30 23:43 10.11.2020
5623 Clouds 18 1022 88 10000 3.6 30 23:24 10.11.2020
5624 Clouds 18 1022 93 10000 4.6 40 22:56 10.11.2020
5625 Clouds 19 1021 77 10000 3.1 70 22:27 10.11.2020
5626 Clouds 19 1021 77 10000 3.1 70 21:44 10.11.2020
5627 Clouds 19 1021 77 10000 3.1 70 21:25 10.11.2020
5628 Clouds 19 1021 77 10000 4.1 70 20:59 10.11.2020
5629 Clouds 20 1021 72 10000 5.1 70 20:41 10.11.2020
5630 Clouds 20 1021 72 10000 5.1 70 20:22 10.11.2020
5631 Clouds 20 1021 72 10000 5.1 70 19:49 10.11.2020
5632 Clouds 20 1021 68 10000 5.1 60 19:30 10.11.2020
5633 Clouds 20 1021 68 10000 5.1 60 18:59 10.11.2020
5634 Clouds 21 1019 60 10000 6.2 90 18:40 10.11.2020
5635 Clouds 21 1019 60 10000 6.2 90 18:19 10.11.2020
5636 Clouds 21 1019 60 10000 6.2 90 17:43 10.11.2020
5637 Clouds 21 1019 60 10000 6.2 90 17:25 10.11.2020
5638 Clouds 22 1019 56 10000 6.2 60 16:57 10.11.2020
5639 Clouds 22 1019 56 10000 6.2 60 16:57 10.11.2020
5640 Clouds 24 1018 50 10000 7.7 60 16:37 10.11.2020
5641 Clouds 24 1018 50 10000 7.7 60 16:18 10.11.2020
5642 Clouds 24 1018 50 10000 7.7 60 15:45 10.11.2020
5643 Clouds 24 1017 47 10000 7.7 60 15:23 10.11.2020
5644 Clouds 25 1018 50 10000 7.7 60 14:41 10.11.2020
5645 Clouds 25 1018 50 10000 7.7 60 14:22 10.11.2020
5646 Clouds 24 1018 50 10000 7.7 60 13:54 10.11.2020
5647 Clouds 24 1018 50 10000 7.7 60 13:36 10.11.2020
5648 Clouds 23 1019 53 10000 10.3 50 13:18 10.11.2020
5649 Clouds 24 1020 53 10000 8.2 70 12:44 10.11.2020
5650 Clouds 24 1020 53 10000 8.2 70 12:23 10.11.2020
5651 Clouds 22 1021 56 10000 7.2 60 11:39 10.11.2020
5652 Clouds 22 1021 56 10000 7.2 60 11:20 10.11.2020
5653 Clouds 23 1022 56 10000 7.2 40 10:44 10.11.2020
5654 Clouds 22 1022 68 10000 7.2 90 10:26 10.11.2020
5655 Clouds 22 1022 68 10000 7.2 90 09:51 10.11.2020
5656 Clouds 21 1023 72 10000 5.1 90 09:27 10.11.2020
5657 Clouds 20 1023 72 10000 5.1 90 08:59 10.11.2020
5658 Clouds 19 1022 88 10000 3.1 70 08:38 10.11.2020
5659 Clouds 19 1022 88 10000 3.1 70 08:19 10.11.2020
5660 Clouds 17 1022 93 10000 4.1 60 07:38 10.11.2020
5661 Clouds 17 1022 93 10000 4.1 60 07:18 10.11.2020
5662 Clouds 17 1021 93 10000 3.1 60 06:38 10.11.2020
5663 Clouds 18 1020 93 10000 2.6 70 05:33 10.11.2020
5664 Clouds 17 1021 93 10000 5.1 70 03:36 10.11.2020
5665 Clouds 18 1021 93 10000 3.6 70 01:41 10.11.2020
5666 Clouds 18 1021 93 10000 3.6 70 00:52 10.11.2020
5667 Clouds 18 1022 93 10000 4.6 60 23:47 09.11.2020
5668 Rain 18 1022 88 10000 2.6 40 23:23 09.11.2020
5669 Clouds 18 1022 93 10000 3.1 40 22:42 09.11.2020
5670 Clouds 18 1023 93 10000 3.1 60 22:22 09.11.2020
5671 Clouds 18 1023 88 10000 3.6 20 21:44 09.11.2020
5672 Clouds 19 1022 82 10000 3.1 60 21:26 09.11.2020
5673 Clouds 19 1022 82 10000 3.1 60 20:42 09.11.2020
5674 Clouds 19 1021 82 10000 5.1 30 20:22 09.11.2020
5675 Clouds 19 1021 82 10000 5.1 30 19:49 09.11.2020
5676 Clouds 19 1021 82 10000 3.1 60 19:24 09.11.2020
5677 Clouds 19 1021 82 10000 3.1 60 18:59 09.11.2020
5678 Clouds 19 1021 82 10000 3.1 60 18:40 09.11.2020
5679 Clouds 20 1019 77 10000 2.6 60 18:19 09.11.2020
5680 Clouds 22 1019 64 10000 5.1 90 17:44 09.11.2020
5681 Clouds 22 1019 64 10000 5.1 90 17:26 09.11.2020
5682 Clouds 22 1019 64 10000 5.1 90 16:44 09.11.2020
5683 Clouds 22 1019 64 10000 5.1 90 16:26 09.11.2020
5684 Clouds 23 1018 56 10000 5.1 70 15:48 09.11.2020
5685 Clouds 23 1018 56 10000 7.7 110 15:29 09.11.2020
5686 Clouds 23 1018 56 10000 7.7 110 14:56 09.11.2020
5687 Clouds 24 1019 56 10000 6.2 70 14:37 09.11.2020
5688 Clouds 23 1019 56 10000 6.2 70 14:19 09.11.2020
5689 Rain 18 1010 72 10000 5.6 75 13:42 09.11.2020
5690 Clouds 23 1020 53 10000 5.1 60 13:19 09.11.2020
5691 Clouds 21 1022 73 10000 5.1 60 12:45 09.11.2020
5692 Clouds 21 1022 73 10000 5.1 60 12:21 09.11.2020
5693 Clouds 20 1023 77 10000 5.1 60 11:43 09.11.2020
5694 Clouds 20 1023 77 10000 5.1 60 11:24 09.11.2020
5695 Clouds 20 1023 77 10000 5.1 60 10:58 09.11.2020
5696 Rain 19 1023 82 10000 3.1 60 10:40 09.11.2020
5697 Rain 19 1023 82 10000 3.1 60 10:21 09.11.2020
5698 Clouds 19 1024 88 10000 2.6 60 09:30 09.11.2020
5699 Clouds 18 1024 88 10000 2.6 60 08:55 09.11.2020
5700 Clouds 17 1024 88 10000 2.1 30 08:28 09.11.2020
5701 Clouds 17 1024 88 10000 2.1 30 07:57 09.11.2020
5702 Clouds 16 1024 93 10000 3.1 50 07:24 09.11.2020
5703 Clouds 16 1024 93 10000 3.1 50 06:55 09.11.2020
5704 Clouds 16 1023 93 10000 3.1 30 05:38 09.11.2020
5705 Clouds 17 1021 93 10000 2.72 70 02:22 09.11.2020
5706 Clouds 17 1022 93 10000 2.6 170 01:41 09.11.2020
5707 Rain 16 1022 93 10000 3.32 67 00:56 09.11.2020
5708 Clouds 17 1022 93 10000 3.6 150 23:48 08.11.2020
5709 Clouds 17 1023 93 10000 3.62 63 23:28 08.11.2020
5710 Clear 18 1023 72 10000 3.62 63 22:43 08.11.2020
5711 Clear 18 1023 72 10000 3.59 69 22:22 08.11.2020
5712 Clear 18 1023 72 10000 3.59 69 21:48 08.11.2020
5713 Clear 20 1023 68 10000 5.1 90 21:24 08.11.2020
5714 Clear 20 1023 68 10000 5.1 90 20:57 08.11.2020
5715 Clear 20 1023 68 10000 2.6 90 20:38 08.11.2020
5716 Clear 20 1023 68 10000 2.6 90 20:20 08.11.2020
5717 Clear 20 1022 64 10000 4.1 70 19:46 08.11.2020
5718 Clouds 21 1021 60 10000 3.6 90 19:24 08.11.2020
5719 Clouds 21 1021 60 10000 3.6 90 18:59 08.11.2020
5720 Clouds 21 1021 60 10000 3.6 100 18:40 08.11.2020
5721 Clouds 21 1021 60 10000 3.6 100 18:21 08.11.2020
5722 Clouds 21 1021 60 10000 3.6 100 17:56 08.11.2020
5723 Clouds 23 1019 53 10000 3.1 90 17:36 08.11.2020
5724 Clouds 23 1019 53 10000 3.1 90 17:18 08.11.2020
5725 Clouds 23 1019 49 10000 4.6 90 16:38 08.11.2020
5726 Clouds 23 1019 49 10000 4.6 90 16:20 08.11.2020
5727 Clouds 23 1019 49 10000 4.6 90 15:46 08.11.2020
5728 Clouds 24 1019 47 10000 4.6 100 15:27 08.11.2020
5729 Clouds 25 1020 50 10000 4.1 120 14:44 08.11.2020
5730 Clouds 25 1020 50 10000 4.1 120 14:24 08.11.2020
5731 Clouds 25 1020 50 10000 4.1 120 13:56 08.11.2020
5732 Clouds 24 1021 50 10000 6.7 90 13:38 08.11.2020
5733 Clouds 24 1021 50 10000 6.7 90 13:18 08.11.2020
5734 Clouds 24 1021 53 10000 7.7 90 12:40 08.11.2020
5735 Clouds 24 1021 53 10000 7.7 90 12:22 08.11.2020
5736 Clouds 23 1021 53 10000 7.7 90 11:56 08.11.2020
5737 Clouds 23 1023 56 10000 3.1 40 11:38 08.11.2020
5738 Clouds 23 1023 56 10000 3.1 40 11:19 08.11.2020
5739 Clouds 22 1024 68 10000 2.6 20 10:42 08.11.2020
5740 Clouds 22 1024 68 10000 2.6 20 10:18 08.11.2020
5741 Clouds 22 1025 64 10000 4.1 80 09:42 08.11.2020
5742 Clouds 21 1024 68 10000 2.1 60 09:23 08.11.2020
5743 Clouds 20 1024 68 10000 2.1 60 08:47 08.11.2020
5744 Clouds 19 1023 82 10000 5.1 90 08:27 08.11.2020
5745 Clouds 19 1023 82 10000 5.1 90 07:53 08.11.2020
5746 Clouds 19 1023 82 10000 4.1 90 07:33 08.11.2020
5747 Clouds 17 1023 88 10000 5.1 90 06:45 08.11.2020
5748 Clouds 17 1023 88 10000 5.1 90 05:55 08.11.2020
5749 Clouds 17 1022 88 10000 2.83 39 05:26 08.11.2020
5750 Clouds 17 1022 88 10000 3.6 50 03:39 08.11.2020
5751 Clouds 17 1021 88 10000 2.83 51 01:49 08.11.2020
5752 Clouds 17 1023 82 10000 2.6 50 01:18 08.11.2020
5753 Clouds 17 1023 82 10000 2.1 50 00:23 08.11.2020
5754 Clouds 18 1023 82 10000 4.18 54 23:43 07.11.2020
5755 Clouds 18 1023 82 10000 4.36 58 23:24 07.11.2020
5756 Clouds 18 1023 77 10000 4.36 58 22:41 07.11.2020
5757 Clouds 18 1023 77 10000 4.32 67 22:21 07.11.2020
5758 Clouds 19 1023 72 10000 4.32 67 21:45 07.11.2020
5759 Clouds 19 1023 72 10000 4.6 77 21:21 07.11.2020
5760 Clouds 19 1023 72 10000 4.6 77 20:50 07.11.2020
5761 Clouds 19 1022 68 10000 5.34 84 20:31 07.11.2020
5762 Clouds 20 1022 68 10000 5.34 84 19:52 07.11.2020
5763 Clouds 20 1021 68 10000 5.67 89 19:29 07.11.2020
5764 Clouds 20 1021 68 10000 5.67 89 18:58 07.11.2020
5765 Clouds 21 1020 56 10000 5.1 90 18:38 07.11.2020
5766 Clouds 21 1020 56 10000 5.1 90 18:20 07.11.2020
5767 Clouds 22 1020 60 10000 5.7 90 17:43 07.11.2020
5768 Clouds 23 1019 49 10000 7.7 90 17:23 07.11.2020
5769 Clouds 25 1019 47 10000 5.1 110 16:42 07.11.2020
5770 Clouds 25 1019 47 10000 5.1 110 16:23 07.11.2020
5771 Clouds 25 1019 47 10000 5.1 110 15:45 07.11.2020
5772 Clouds 25 1019 47 10000 4.1 100 15:23 07.11.2020
5773 Clouds 25 1019 47 10000 4.1 100 14:55 07.11.2020
5774 Clouds 25 1019 47 10000 4.1 90 14:37 07.11.2020
5775 Clouds 25 1019 47 10000 4.1 90 14:18 07.11.2020
5776 Clouds 25 1020 50 10000 4.1 110 13:39 07.11.2020
5777 Clouds 25 1020 50 10000 4.1 110 13:20 07.11.2020
5778 Clouds 24 1021 50 10000 5.1 70 12:32 07.11.2020
5779 Clouds 25 1022 53 10000 4.6 40 11:45 07.11.2020
5780 Clouds 24 1022 53 10000 5.1 60 11:24 07.11.2020
5781 Clouds 24 1022 53 10000 5.1 60 10:56 07.11.2020
5782 Clouds 23 1023 64 10000 3.74 101 10:37 07.11.2020
5783 Clouds 22 1023 64 10000 3.74 101 10:18 07.11.2020
5784 Clouds 21 1023 68 10000 4.1 130 09:42 07.11.2020
5785 Clouds 21 1023 68 10000 4.1 130 09:19 07.11.2020
5786 Clouds 20 1024 82 10000 2.6 150 08:42 07.11.2020
5787 Clouds 20 1024 82 10000 2.6 150 08:22 07.11.2020
5788 Clouds 17 1023 88 10000 2.6 160 07:37 07.11.2020
5789 Clouds 17 1023 88 10000 2.6 160 06:48 07.11.2020
5790 Clouds 17 1021 88 10000 5.1 80 05:38 07.11.2020
5791 Clouds 17 1020 93 10000 2.6 80 03:25 07.11.2020
5792 Clouds 17 1021 93 10000 2.6 90 02:28 07.11.2020
5793 Clouds 17 1022 100 10000 3.1 80 01:26 07.11.2020
5794 Clouds 18 1022 93 10000 3.6 40 00:34 07.11.2020
5795 Clouds 18 1022 93 10000 3.6 40 23:32 06.11.2020
5796 Clouds 18 1023 93 10000 2.6 30 22:57 06.11.2020
5797 Clouds 18 1020 93 10000 2.6 70 22:38 06.11.2020
5798 Clouds 19 1023 93 10000 3.1 20 22:18 06.11.2020
5799 Clouds 19 1023 93 10000 4.1 30 21:41 06.11.2020
5800 Clouds 18 1022 93 10000 2.6 90 21:20 06.11.2020
5801 Clouds 18 1022 93 10000 2.6 90 20:44 06.11.2020
5802 Clouds 18 1021 93 10000 4.1 60 20:20 06.11.2020
5803 Clouds 19 1021 93 10000 3.1 30 19:45 06.11.2020
5804 Clouds 20 1020 77 10000 4.1 90 19:27 06.11.2020
5805 Clouds 20 1020 77 10000 4.1 90 18:56 06.11.2020
5806 Clouds 21 1019 68 10000 5.1 90 18:38 06.11.2020
5807 Clouds 22 1019 68 10000 5.1 90 18:19 06.11.2020
5808 Clouds 21 1020 73 10000 4.6 70 17:42 06.11.2020
5809 Clouds 22 1018 64 10000 4.1 80 17:24 06.11.2020
5810 Clouds 23 1019 64 10000 6.7 80 16:42 06.11.2020
5811 Clouds 23 1018 60 10000 5.1 100 16:21 06.11.2020
5812 Clouds 24 1018 60 10000 5.7 60 15:47 06.11.2020
5813 Clouds 24 1018 57 10000 5.1 100 15:26 06.11.2020
5814 Clouds 24 1018 57 10000 5.1 100 14:50 06.11.2020
5815 Clouds 23 1019 68 10000 3.1 70 14:23 06.11.2020
5816 Clouds 22 1020 68 10000 2.6 80 13:42 06.11.2020
5817 Rain 19 1009 77 10000 1.79 116 13:21 06.11.2020
5818 Clouds 21 1021 73 10000 1.5 60 12:43 06.11.2020
5819 Rain 19 1010 75 10000 4.86 95 12:23 06.11.2020
5820 Clouds 20 1022 82 10000 3.6 30 11:40 06.11.2020
5821 Clouds 18 1022 88 10000 2.6 20 11:21 06.11.2020
5822 Clouds 18 1022 93 10000 3.6 170 10:37 06.11.2020
5823 Clouds 18 1022 93 10000 3.6 170 10:18 06.11.2020
5824 Drizzle 18 1023 100 8000 2.6 120 09:44 06.11.2020
5825 Drizzle 17 1023 100 8000 2.6 120 09:21 06.11.2020
5826 Drizzle 18 1023 93 5000 2.6 100 08:49 06.11.2020
5827 Drizzle 18 1022 93 10000 3.1 100 08:28 06.11.2020
5828 Clouds 17 1023 100 8000 4.1 80 07:47 06.11.2020
5829 Clouds 17 1021 93 10000 5.1 90 07:29 06.11.2020
5830 Clouds 17 1021 93 10000 5.1 90 06:49 06.11.2020
5831 Clouds 14 1013 93 10000 2.94 75 05:42 06.11.2020
5832 Clouds 17 1019 93 10000 2.47 84 03:18 06.11.2020
5833 Clouds 18 1019 88 10000 3.1 90 00:46 06.11.2020
5834 Clouds 18 1020 93 10000 2.6 70 00:19 06.11.2020
5835 Clouds 18 1021 93 10000 2.1 100 23:29 05.11.2020
5836 Clouds 18 1021 93 10000 2.1 100 22:57 05.11.2020
5837 Clouds 18 1021 93 10000 2.1 100 22:37 05.11.2020
5838 Clouds 19 1021 82 10000 5.1 100 22:18 05.11.2020
5839 Clouds 19 1021 88 10000 4.1 100 21:42 05.11.2020
5840 Clouds 19 1021 88 10000 4.1 100 21:21 05.11.2020
5841 Clouds 19 1021 88 10000 4.1 100 20:48 05.11.2020
5842 Rain 19 1020 88 10000 6.7 90 20:28 05.11.2020
5843 Rain 19 1020 88 10000 6.7 90 19:59 05.11.2020
5844 Clouds 20 1019 77 10000 5.1 90 19:40 05.11.2020
5845 Clouds 20 1019 77 10000 5.1 90 19:22 05.11.2020
5846 Clouds 20 1020 77 10000 5.1 80 18:45 05.11.2020
5847 Clouds 21 1018 68 10000 5.1 90 18:26 05.11.2020
5848 Clouds 21 1018 68 10000 5.1 90 17:52 05.11.2020
5849 Clouds 22 1018 64 10000 3.6 60 17:29 05.11.2020
5850 Clouds 22 1018 64 10000 3.6 60 16:58 05.11.2020
5851 Clouds 22 1017 60 10000 6.2 80 16:40 05.11.2020
5852 Clouds 23 1017 60 10000 6.2 80 16:19 05.11.2020
5853 Clouds 25 1017 53 10000 6.2 60 15:43 05.11.2020
5854 Clouds 25 1017 53 10000 6.2 60 15:21 05.11.2020
5855 Clouds 24 1018 53 10000 6.2 30 14:45 05.11.2020
5856 Clouds 24 1018 53 10000 6.2 30 14:25 05.11.2020
5857 Clouds 24 1019 64 10000 5.1 90 13:42 05.11.2020
5858 Clouds 24 1019 64 10000 5.1 90 13:23 05.11.2020
5859 Clouds 23 1019 64 10000 5.1 90 12:53 05.11.2020
5860 Clouds 22 1020 64 10000 5.1 90 12:27 05.11.2020
5861 Clouds 22 1020 64 10000 5.1 90 11:55 05.11.2020
5862 Clouds 20 1021 77 10000 5.1 30 11:30 05.11.2020
5863 Clouds 20 1021 77 10000 5.1 30 10:58 05.11.2020
5864 Clouds 20 1022 77 10000 5.1 80 10:39 05.11.2020
5865 Clouds 20 1022 77 10000 5.1 80 10:21 05.11.2020
5866 Clouds 20 1023 77 10000 3.6 80 09:44 05.11.2020
5867 Clouds 20 1023 77 10000 5.1 90 09:21 05.11.2020
5868 Clouds 20 1023 77 10000 5.1 90 09:21 05.11.2020
5869 Clouds 19 1023 82 10000 3.1 90 08:43 05.11.2020
5870 Clouds 19 1023 82 10000 3.1 90 08:25 05.11.2020
5871 Clouds 18 1021 93 10000 5.1 90 07:30 05.11.2020
5872 Clouds 17 1021 93 10000 5.1 90 06:52 05.11.2020
5873 Clouds 17 1021 93 10000 2.6 90 06:34 05.11.2020
5874 Clouds 17 1021 93 10000 2.6 90 06:34 05.11.2020
5875 Clouds 17 1020 93 10000 2.6 90 05:22 05.11.2020
5876 Clouds 17 1020 93 10000 3.43 93 01:24 05.11.2020
5877 Clouds 17 1021 93 10000 2.6 120 00:32 05.11.2020
5878 Clouds 17 1022 93 10000 3.6 80 23:44 04.11.2020
5879 Clouds 18 1022 88 10000 2.6 90 23:26 04.11.2020
5880 Clouds 18 1022 88 10000 2.6 90 22:52 04.11.2020
5881 Clouds 18 1022 88 10000 4.1 100 22:24 04.11.2020
5882 Clouds 18 1022 88 10000 4.1 100 22:24 04.11.2020
5883 Clouds 18 1022 88 10000 4.1 100 21:57 04.11.2020
5884 Clouds 19 1022 82 10000 4.1 90 21:37 04.11.2020
5885 Clouds 19 1022 82 10000 4.1 90 21:18 04.11.2020
5886 Clouds 19 1021 82 10000 3.1 70 20:42 04.11.2020
5887 Clouds 19 1021 82 10000 3.1 70 20:24 04.11.2020
5888 Clouds 19 1021 82 10000 3.1 70 19:48 04.11.2020
5889 Clouds 20 1020 72 10000 4.1 90 19:29 04.11.2020
5890 Clouds 20 1020 72 10000 4.1 90 18:45 04.11.2020
5891 Clouds 20 1020 72 10000 4.1 90 18:27 04.11.2020
5892 Clouds 21 1019 68 10000 4.1 90 17:59 04.11.2020
5893 Clouds 22 1019 64 10000 5.1 90 17:40 04.11.2020
5894 Clouds 22 1019 64 10000 5.1 90 17:20 04.11.2020
5895 Clouds 22 1019 64 10000 5.1 90 16:38 04.11.2020
5896 Clouds 22 1018 64 10000 7.7 90 16:20 04.11.2020
5897 Clouds 23 1019 60 10000 8.7 80 15:47 04.11.2020
5898 Clouds 24 1018 57 10000 7.7 90 15:25 04.11.2020
5899 Clouds 24 1018 57 10000 7.7 90 14:57 04.11.2020
5900 Clouds 24 1019 56 10000 6.2 60 14:39 04.11.2020
5901 Clouds 24 1019 56 10000 6.2 60 14:18 04.11.2020
5902 Clouds 24 1020 57 10000 5.7 60 13:41 04.11.2020
5903 Clouds 23 1020 56 10000 6.2 60 13:19 04.11.2020
5904 Clouds 24 1021 57 10000 5.1 70 12:50 04.11.2020
5905 Clouds 22 1021 68 10000 2.1 60 12:26 04.11.2020
5906 Clouds 22 1021 68 10000 2.1 60 11:56 04.11.2020
5907 Clouds 22 1021 68 10000 2.1 60 11:56 04.11.2020
5908 Clouds 22 1021 68 10000 2.1 60 11:56 04.11.2020
5909 Clouds 22 1022 68 10000 4.1 30 11:36 04.11.2020
5910 Clouds 22 1022 68 10000 4.1 30 11:18 04.11.2020
5911 Clouds 22 1022 68 10000 4.1 30 11:18 04.11.2020
5912 Clouds 20 1023 77 10000 2.6 70 10:41 04.11.2020
5913 Clouds 20 1023 77 10000 2.6 70 10:22 04.11.2020
5914 Clouds 20 1023 77 10000 2.6 70 09:47 04.11.2020
5915 Clouds 19 1023 88 10000 4.1 60 09:22 04.11.2020
5916 Clouds 18 1023 88 10000 4.1 60 08:44 04.11.2020
5917 Drizzle 17 1023 93 8000 3.1 70 08:19 04.11.2020
5918 Drizzle 17 1023 93 8000 3.1 70 07:44 04.11.2020
5919 Clouds 16 1023 100 8000 5.1 90 07:26 04.11.2020
5920 Rain 16 1022 100 4000 5.7 90 06:42 04.11.2020
5921 Rain 16 1022 100 4000 5.7 90 05:59 04.11.2020
5922 Clouds 17 1021 93 7000 6.7 90 02:32 04.11.2020
5923 Clouds 17 1022 100 10000 5.1 80 01:42 04.11.2020
5924 Rain 17 1022 100 8000 4.6 60 00:41 04.11.2020
5925 Clouds 18 1022 93 10000 3.6 60 23:38 03.11.2020
5926 Clouds 18 1022 93 10000 3.6 60 23:20 03.11.2020
5927 Clouds 19 1023 82 10000 3.1 70 22:41 03.11.2020
5928 Clouds 19 1023 82 10000 3.1 70 22:20 03.11.2020
5929 Clouds 19 1023 82 10000 3.1 70 21:55 03.11.2020
5930 Rain 18 1022 93 10000 6.2 70 21:37 03.11.2020
5931 Rain 18 1022 93 10000 6.2 70 21:18 03.11.2020
5932 Clouds 20 1022 72 10000 2.1 80 20:42 03.11.2020
5933 Clouds 20 1022 72 10000 2.1 80 20:21 03.11.2020
5934 Clouds 19 1022 72 10000 3.1 80 19:43 03.11.2020
5935 Clouds 20 1021 72 10000 3.1 70 19:20 03.11.2020
5936 Clouds 20 1021 64 10000 4.1 50 18:44 03.11.2020
5937 Clouds 20 1021 64 10000 4.1 50 18:20 03.11.2020
5938 Clouds 20 1021 64 10000 4.1 50 17:55 03.11.2020
5939 Clouds 22 1020 60 10000 4.1 60 17:36 03.11.2020
5940 Clouds 22 1020 60 10000 4.1 60 17:36 03.11.2020
5941 Clouds 22 1020 60 10000 4.1 60 16:55 03.11.2020
5942 Clouds 22 1020 60 10000 5.7 60 16:36 03.11.2020
5943 Clouds 22 1020 60 10000 5.7 60 16:18 03.11.2020
5944 Clouds 22 1020 60 10000 5.7 60 15:41 03.11.2020
5945 Clouds 23 1020 56 10000 4.1 80 15:22 03.11.2020
5946 Clouds 23 1020 56 10000 6.2 90 14:46 03.11.2020
5947 Clouds 23 1020 56 10000 6.2 90 14:27 03.11.2020
5948 Clouds 23 1021 60 10000 6.2 70 13:44 03.11.2020
5949 Clouds 23 1021 56 10000 7.2 80 13:23 03.11.2020
5950 Clouds 22 1022 60 10000 4.1 60 12:49 03.11.2020
5951 Clouds 22 1022 60 10000 4.1 60 12:28 03.11.2020
5952 Clouds 22 1022 60 10000 4.1 60 11:59 03.11.2020
5953 Clouds 22 1023 60 10000 6.2 90 11:40 03.11.2020
5954 Clouds 22 1023 60 10000 6.2 90 11:18 03.11.2020
5955 Clouds 21 1023 72 10000 2.6 90 10:39 03.11.2020
5956 Clouds 21 1023 72 10000 2.6 90 10:39 03.11.2020
5957 Clouds 21 1023 72 10000 2.6 90 10:20 03.11.2020
5958 Clouds 20 1024 72 10000 4.6 100 09:49 03.11.2020
5959 Clouds 20 1024 72 10000 4.6 100 09:31 03.11.2020
5960 Clouds 20 1024 72 10000 4.6 100 08:55 03.11.2020
5961 Clouds 19 1023 82 10000 2.6 90 08:34 03.11.2020
5962 Clouds 18 1024 88 10000 4.1 90 07:49 03.11.2020
5963 Clouds 18 1023 88 10000 2.6 70 07:22 03.11.2020
5964 Clouds 18 1023 88 10000 2.6 70 06:44 03.11.2020
5965 Rain 16 1021 100 10000 1.5 150 04:54 03.11.2020
5966 Clouds 17 1020 93 10000 1.5 90 01:51 03.11.2020
5967 Clouds 18 1023 77 10000 5.7 80 00:40 03.11.2020
5968 Clouds 18 1023 77 10000 5.7 80 23:48 02.11.2020
5969 Clouds 18 1022 72 10000 5.1 90 23:29 02.11.2020
5970 Clouds 18 1022 72 10000 5.1 90 22:49 02.11.2020
5971 Clouds 19 1023 68 10000 4.1 100 22:30 02.11.2020
5972 Clouds 19 1023 68 10000 4.1 100 21:59 02.11.2020
5973 Clouds 19 1022 63 10000 4.1 110 21:37 02.11.2020
5974 Clouds 19 1022 63 10000 4.1 110 21:19 02.11.2020
5975 Clouds 20 1021 60 10000 5.1 110 20:39 02.11.2020
5976 Clouds 20 1021 60 10000 5.1 110 20:20 02.11.2020
5977 Clouds 20 1021 60 10000 5.1 110 19:46 02.11.2020
5978 Clouds 21 1021 52 10000 5.1 110 19:27 02.11.2020
5979 Clouds 21 1021 52 10000 5.1 110 18:56 02.11.2020
5980 Clouds 22 1020 49 10000 5.1 90 18:38 02.11.2020
5981 Clouds 22 1020 49 10000 5.1 90 18:19 02.11.2020
5982 Clouds 22 1021 53 10000 5.7 90 17:42 02.11.2020
5983 Clouds 23 1019 46 10000 6.2 100 17:24 02.11.2020
5984 Clouds 23 1019 46 10000 6.2 100 16:49 02.11.2020
5985 Clouds 23 1019 46 10000 6.2 100 16:31 02.11.2020
5986 Clouds 24 1019 47 10000 5.1 90 15:57 02.11.2020
5987 Clouds 25 1019 41 10000 5.1 60 15:39 02.11.2020
5988 Clouds 25 1019 41 10000 5.1 60 15:19 02.11.2020
5989 Clouds 25 1019 41 10000 5.1 60 14:48 02.11.2020
5990 Clouds 25 1019 41 10000 5.1 60 14:19 02.11.2020
5991 Clouds 25 1019 41 10000 5.1 60 13:48 02.11.2020
5992 Clouds 24 1020 47 10000 6.2 90 13:22 02.11.2020
5993 Clouds 24 1020 47 10000 6.2 90 12:51 02.11.2020
5994 Clouds 24 1021 47 10000 6.2 60 12:27 02.11.2020
5995 Clouds 23 1022 53 10000 4.1 60 11:46 02.11.2020
5996 Clouds 23 1022 53 10000 4.1 60 11:21 02.11.2020
5997 Clouds 23 1022 53 10000 4.1 60 10:48 02.11.2020
5998 Clouds 21 1023 60 10000 7.7 60 10:26 02.11.2020
5999 Clouds 21 1023 60 10000 7.7 60 09:56 02.11.2020
6000 Clouds 20 1023 64 10000 3.1 40 09:30 02.11.2020
6001 Clouds 20 1023 64 10000 3.1 40 08:59 02.11.2020
6002 Clouds 19 1023 77 10000 4.1 40 08:39 02.11.2020
6003 Clouds 19 1023 77 10000 4.1 40 08:19 02.11.2020
6004 Clouds 18 1023 88 10000 5.1 90 07:42 02.11.2020
6005 Clouds 17 1023 88 10000 4.1 50 06:46 02.11.2020
6006 Clouds 16 1021 93 10000 2.6 60 05:39 02.11.2020
6007 Clouds 17 1021 82 10000 4.1 60 01:35 02.11.2020
6008 Clouds 17 1021 82 10000 5.1 60 00:41 02.11.2020
6009 Clouds 17 1021 82 10000 5.1 60 00:23 02.11.2020
6010 Clear 18 1021 72 10000 3.1 70 23:40 01.11.2020
6011 Clear 18 1021 72 10000 3.1 70 23:21 01.11.2020
6012 Clear 18 1021 72 10000 3.1 70 22:44 01.11.2020
6013 Clear 18 1021 72 10000 2.6 40 22:23 01.11.2020
6014 Clear 18 1021 72 10000 2.6 40 21:46 01.11.2020
6015 Clouds 19 1021 68 10000 5.1 90 21:26 01.11.2020
6016 Clouds 19 1021 68 10000 5.1 90 20:51 01.11.2020
6017 Clouds 20 1020 60 10000 4.1 90 20:29 01.11.2020
6018 Clouds 20 1020 60 10000 4.1 90 19:58 01.11.2020
6019 Clouds 20 1019 60 10000 3.6 90 19:39 01.11.2020
6020 Clouds 20 1019 60 10000 3.6 90 19:39 01.11.2020
6021 Clouds 20 1019 60 10000 3.6 90 19:20 01.11.2020
6022 Clouds 21 1019 52 10000 3.1 90 18:40 01.11.2020
6023 Clouds 21 1019 52 10000 3.1 90 18:19 01.11.2020
6024 Clouds 21 1019 52 10000 3.1 90 17:56 01.11.2020
6025 Clouds 23 1019 43 10000 5.1 90 17:37 01.11.2020
6026 Clouds 23 1019 43 10000 5.1 90 17:18 01.11.2020
6027 Clouds 23 1018 46 10000 4.1 90 16:39 01.11.2020
6028 Clouds 23 1018 46 10000 4.1 90 16:19 01.11.2020
6029 Clouds 24 1019 41 10000 8.2 90 15:40 01.11.2020
6030 Clouds 24 1019 41 10000 8.2 90 15:21 01.11.2020
6031 Clouds 24 1019 41 10000 8.2 90 14:54 01.11.2020
6032 Clouds 25 1019 41 10000 5.1 110 14:36 01.11.2020
6033 Clouds 24 1019 41 10000 5.1 110 14:18 01.11.2020
6034 Clouds 25 1020 41 10000 5.7 80 13:44 01.11.2020
6035 Clouds 24 1019 41 10000 7.7 70 13:26 01.11.2020
6036 Clouds 25 1021 41 10000 5.1 60 12:43 01.11.2020
6037 Clouds 23 1021 49 10000 7.7 90 12:22 01.11.2020
6038 Clouds 23 1021 49 10000 7.7 90 11:51 01.11.2020
6039 Clouds 22 1022 49 10000 3.1 90 11:19 01.11.2020
6040 Clouds 22 1023 56 10000 2.6 110 10:43 01.11.2020
6041 Clouds 22 1023 56 10000 2.6 110 10:43 01.11.2020
6042 Clouds 22 1023 56 10000 5.1 80 10:24 01.11.2020
6043 Clouds 22 1023 56 10000 5.1 80 09:55 01.11.2020
6044 Clouds 20 1023 68 10000 5.1 160 09:35 01.11.2020
6045 Clouds 20 1024 64 10000 2.6 110 08:46 01.11.2020
6046 Clouds 18 1023 72 10000 2.6 150 08:20 01.11.2020
6047 Clouds 17 1022 93 10000 3.1 140 07:39 01.11.2020
6048 Rain 16 1020 93 10000 3.1 90 04:31 01.11.2020
6049 Clouds 17 1020 82 10000 5.1 90 01:51 01.11.2020
6050 Clouds 17 1021 88 10000 3.1 60 00:43 01.11.2020
6051 Clouds 17 1021 88 10000 4.1 90 23:26 31.10.2020
6052 Clear 16 1022 93 10000 3.1 50 22:58 31.10.2020
6053 Clear 16 1023 93 10000 3.1 50 22:39 31.10.2020
6054 Clear 16 1023 93 10000 3.1 50 22:20 31.10.2020
6055 Clear 16 1023 93 10000 3.6 70 21:44 31.10.2020
6056 Clear 18 1022 82 10000 4.6 80 21:19 31.10.2020
6057 Clouds 19 1021 68 10000 5.1 90 20:38 31.10.2020
6058 Clouds 19 1021 68 10000 5.1 90 20:18 31.10.2020
6059 Clouds 20 1020 64 10000 4.1 90 19:41 31.10.2020
6060 Clouds 20 1020 64 10000 4.1 90 19:22 31.10.2020
6061 Clouds 21 1020 56 10000 5.1 90 18:47 31.10.2020
6062 Clouds 21 1020 56 10000 5.1 90 18:24 31.10.2020
6063 Clouds 22 1019 53 10000 5.1 90 17:40 31.10.2020
6064 Clouds 22 1019 53 10000 5.1 90 17:22 31.10.2020
6065 Clouds 22 1019 53 10000 5.1 90 16:44 31.10.2020
6066 Clouds 24 1019 50 10000 6.2 90 16:26 31.10.2020
6067 Clouds 25 1020 47 10000 6.7 90 15:45 31.10.2020
6068 Clouds 24 1019 44 10000 6.2 90 15:25 31.10.2020
6069 Clouds 24 1019 44 10000 6.2 90 14:52 31.10.2020
6070 Clouds 24 1019 47 10000 5.1 120 14:31 31.10.2020
6071 Clouds 24 1019 47 10000 5.1 120 13:51 31.10.2020
6072 Clouds 24 1020 44 10000 5.1 90 13:28 31.10.2020
6073 Clouds 24 1020 44 10000 5.1 90 12:45 31.10.2020
6074 Clouds 23 1021 53 10000 5.1 60 12:19 31.10.2020
6075 Clouds 23 1022 53 10000 3.1 120 11:39 31.10.2020
6076 Clouds 23 1022 53 10000 3.1 120 11:21 31.10.2020
6077 Clouds 21 1023 64 10000 2.6 60 10:37 31.10.2020
6078 Clouds 20 1023 64 10000 2.6 60 09:48 31.10.2020
6079 Clouds 19 1024 72 10000 3.1 90 09:30 31.10.2020
6080 Clouds 19 1024 72 10000 3.1 90 08:57 31.10.2020
6081 Clouds 18 1024 77 10000 4.1 90 08:20 31.10.2020
6082 Clouds 16 1023 87 10000 3.16 83 07:29 31.10.2020
6083 Clouds 16 1023 87 10000 3.29 82 06:56 31.10.2020
6084 Clouds 16 1022 87 10000 3.29 82 06:36 31.10.2020
6085 Clouds 16 1022 93 10000 2.6 40 03:47 31.10.2020
6086 Clouds 16 1022 93 10000 2.1 60 02:27 31.10.2020
6087 Clouds 16 1024 93 10000 2.1 10 00:52 31.10.2020
6088 Clouds 16 1023 93 10000 4.14 72 23:54 30.10.2020
6089 Clouds 16 1023 93 10000 4.66 80 23:30 30.10.2020
6090 Clouds 16 1023 93 10000 4.66 80 23:30 30.10.2020
6091 Clouds 16 1024 93 10000 2.6 30 22:59 30.10.2020
6092 Clouds 16 1024 93 10000 2.1 40 22:38 30.10.2020
6093 Clouds 16 1024 93 10000 2.1 40 22:19 30.10.2020
6094 Clouds 16 1024 93 10000 2.1 40 22:19 30.10.2020
6095 Clouds 17 1024 93 10000 3.1 40 21:48 30.10.2020
6096 Clouds 16 1023 93 10000 5.31 93 21:26 30.10.2020
6097 Clouds 16 1023 93 10000 5.31 93 20:45 30.10.2020
6098 Rain 16 1023 93 10000 5.14 98 20:26 30.10.2020
6099 Rain 16 1023 93 10000 5.14 98 19:58 30.10.2020
6100 Clouds 17 1022 93 10000 5.14 98 19:37 30.10.2020
6101 Clouds 17 1022 93 10000 5.18 103 19:18 30.10.2020
6102 Clouds 17 1021 93 10000 5.1 60 18:41 30.10.2020
6103 Clouds 17 1021 93 10000 5.1 60 18:22 30.10.2020
6104 Clouds 17 1021 93 10000 5.1 60 17:44 30.10.2020
6105 Clouds 17 1021 93 10000 5.1 60 17:21 30.10.2020
6106 Clouds 18 1021 88 10000 2.6 130 16:50 30.10.2020
6107 Clouds 17 1021 93 10000 2.1 120 16:25 30.10.2020
6108 Rain 13 1012 88 6533 5.81 116 15:44 30.10.2020
6109 Rain 22 1011 59 7052 5.16 89 15:26 30.10.2020
6110 Rain 22 1011 59 7052 5.16 89 14:58 30.10.2020
6111 Rain 16 1013 82 7052 1.79 111 14:39 30.10.2020
6112 Rain 17 1012 78 10000 1.34 111 14:21 30.10.2020
6113 Rain 17 1012 79 10000 4.47 103 13:42 30.10.2020
6114 Rain 24 1011 48 10000 3.89 94 13:20 30.10.2020
6115 Rain 24 1011 48 10000 3.89 94 12:46 30.10.2020
6116 Rain 24 1012 49 10000 2.86 94 12:22 30.10.2020
6117 Rain 18 1014 72 10000 2.24 88 11:55 30.10.2020
6118 Clouds 19 1014 65 10000 0.45 34 11:21 30.10.2020
6119 Clouds 19 1015 67 10000 2.66 84 10:50 30.10.2020
6120 Clouds 18 1015 69 10000 0.89 141 10:25 30.10.2020
6121 Clouds 17 1016 69 10000 0.89 77 09:48 30.10.2020
6122 Clouds 18 1016 65 10000 2.24 173 09:25 30.10.2020
6123 Clouds 17 1016 66 10000 2.24 115 08:59 30.10.2020
6124 Clouds 17 1016 68 10000 0.89 344 08:31 30.10.2020
6125 Clouds 16 1016 74 10000 3.58 278 07:53 30.10.2020
6126 Clouds 16 1016 73 10000 1.79 135 07:35 30.10.2020
6127 Clouds 14 1016 84 10000 0.89 323 06:50 30.10.2020
6128 Clouds 12 1014 89 10000 1.79 103 05:45 30.10.2020
6129 Clouds 12 1013 93 10000 0.89 118 02:43 30.10.2020
6130 Clouds 12 1013 92 10000 1.34 116 01:20 30.10.2020
6131 Clouds 13 1013 92 10000 0.89 114 23:59 29.10.2020
6132 Clouds 13 1013 91 10000 0.89 115 23:41 29.10.2020
6133 Clouds 13 1013 91 10000 0.45 113 23:21 29.10.2020
6134 Clouds 13 1013 90 10000 1.34 143 22:44 29.10.2020
6135 Clouds 13 1013 89 10000 5.36 88 22:25 29.10.2020
6136 Clouds 13 1014 89 10000 0.89 228 21:43 29.10.2020
6137 Clouds 13 1014 89 10000 5.9 91 21:22 29.10.2020
6138 Clouds 13 1014 89 10000 0.45 142 20:43 29.10.2020
6139 Clouds 13 1014 90 10000 0.45 193 20:21 29.10.2020
6140 Clouds 13 1013 91 10000 1.79 196 19:56 29.10.2020
6141 Clouds 13 1013 92 10000 0.89 175 19:37 29.10.2020
6142 Clouds 13 1013 92 10000 0.89 139 19:18 29.10.2020
6143 Clouds 13 1013 92 10000 2.24 127 18:41 29.10.2020
6144 Rain 13 1013 92 10000 2.68 121 18:21 29.10.2020
6145 Rain 13 1012 92 10000 4.02 94 17:42 29.10.2020
6146 Rain 13 1012 92 10000 0.89 120 17:22 29.10.2020
6147 Rain 13 1011 91 10000 3.13 98 16:52 29.10.2020
6148 Clouds 14 1011 90 10000 4.92 107 16:23 29.10.2020
6149 Clouds 14 1010 89 10000 4.92 106 15:57 29.10.2020
6150 Clouds 14 1010 89 10000 6.26 105 15:39 29.10.2020
6151 Clouds 14 1010 90 10000 5.81 109 15:21 29.10.2020
6152 Clouds 17 1009 79 10000 5.36 113 14:46 29.10.2020
6153 Clouds 17 1009 79 10000 5.36 113 14:24 29.10.2020
6154 Clouds 17 1009 78 10000 4.47 80 13:59 29.10.2020
6155 Clouds 17 1009 79 10000 3.58 107 13:39 29.10.2020
6156 Clouds 17 1010 80 10000 4.92 119 13:21 29.10.2020
6157 Clouds 16 1010 84 10000 2.24 118 12:40 29.10.2020
6158 Clouds 16 1010 85 10000 0.89 172 12:19 29.10.2020
6159 Clouds 16 1011 86 10000 1.79 142 11:45 29.10.2020
6160 Clouds 18 1011 79 10000 0.89 136 11:24 29.10.2020
6161 Clouds 17 1012 82 10000 0.89 162 10:38 29.10.2020
6162 Clouds 17 1012 82 10000 4.61 90 10:19 29.10.2020
6163 Clouds 17 1012 82 10000 1.34 171 09:53 29.10.2020
6164 Clouds 16 1013 85 10000 3.87 69 09:28 29.10.2020
6165 Clouds 16 1013 85 10000 3.87 69 09:28 29.10.2020
6166 Clouds 16 1013 86 10000 0.45 155 08:56 29.10.2020
6167 Clouds 15 1013 88 10000 3.6 66 08:34 29.10.2020
6168 Clouds 15 1014 87 10000 3.6 66 07:54 29.10.2020
6169 Clouds 15 1014 86 10000 0.45 151 07:35 29.10.2020
6170 Clouds 14 1013 90 10000 3.75 78 06:57 29.10.2020
6171 Clouds 13 1011 93 10000 3.78 93 04:52 29.10.2020
6172 Clouds 13 1011 93 10000 0.89 105 03:58 29.10.2020
6173 Clouds 13 1010 93 10000 0.45 94 01:22 29.10.2020
6174 Clouds 13 1010 92 10000 1.34 94 00:31 29.10.2020
6175 Clouds 14 1010 92 10000 4.31 91 23:46 28.10.2020
6176 Clouds 14 1010 92 10000 0.89 91 23:22 28.10.2020
6177 Clouds 14 1011 91 10000 2.68 109 22:45 28.10.2020
6178 Clouds 14 1011 91 10000 4.02 111 22:26 28.10.2020
6179 Clouds 14 1011 90 10000 3.13 88 21:58 28.10.2020
6180 Clouds 15 1011 88 10000 2.24 113 21:40 28.10.2020
6181 Clouds 15 1011 88 10000 3.58 125 21:20 28.10.2020
6182 Clouds 18 1021 93 10000 3.1 10 20:42 28.10.2020
6183 Clouds 18 1020 93 10000 2.6 40 20:22 28.10.2020
6184 Clouds 18 1020 93 10000 2.6 40 19:50 28.10.2020
6185 Clouds 16 1011 85 10000 4.02 99 19:28 28.10.2020
6186 Clouds 16 1011 85 10000 4.92 101 18:48 28.10.2020
6187 Rain 16 1010 85 10000 4.47 82 18:21 28.10.2020
6188 Rain 16 1010 84 10000 4.02 79 17:45 28.10.2020
6189 Rain 16 1010 83 10000 4.47 98 17:25 28.10.2020
6190 Rain 16 1010 83 10000 4.47 106 16:57 28.10.2020
6191 Rain 16 1009 82 10000 4.02 70 16:39 28.10.2020
6192 Rain 16 1009 80 10000 3.13 83 16:20 28.10.2020
6193 Clouds 25 1017 44 10000 8.2 30 15:38 28.10.2020
6194 Clouds 25 1017 44 10000 8.2 30 15:19 28.10.2020
6195 Clouds 17 1008 75 10000 2.68 109 14:43 28.10.2020
6196 Clouds 24 1018 53 10000 5.1 70 14:23 28.10.2020
6197 Clouds 20 1008 65 10000 2.68 119 12:48 28.10.2020
6198 Clouds 19 1008 68 10000 5.81 92 12:27 28.10.2020
6199 Clouds 19 1008 71 10000 1.34 26 11:57 28.10.2020
6200 Clouds 19 1009 69 10000 3.13 130 11:39 28.10.2020
6201 Clouds 20 1009 69 10000 0.89 275 11:19 28.10.2020
6202 Clouds 19 1010 69 10000 1.79 304 10:44 28.10.2020
6203 Clouds 19 1011 69 10000 2.24 190 10:26 28.10.2020
6204 Clouds 22 1022 64 10000 5.1 70 09:44 28.10.2020
6205 Clouds 19 1012 71 10000 0.89 200 09:23 28.10.2020
6206 Clouds 18 1012 78 10000 4.01 77 08:51 28.10.2020
6207 Clouds 17 1013 77 10000 0.89 208 08:31 28.10.2020
6208 Clouds 17 1013 79 10000 3.13 15 07:54 28.10.2020
6209 Clouds 16 1012 82 10000 1.34 323 07:31 28.10.2020
6210 Clouds 15 1013 86 10000 2.24 82 06:56 28.10.2020
6211 Clouds 14 1013 88 10000 2.24 92 06:37 28.10.2020
6212 Clouds 14 1012 91 10000 1.79 330 05:23 28.10.2020
6213 Clouds 14 1012 90 10000 0.89 331 04:50 28.10.2020
6214 Clouds 14 1011 90 10000 0.45 336 03:53 28.10.2020
6215 Clouds 14 1010 88 10000 1.34 59 01:56 28.10.2020
6216 Clouds 14 1010 87 10000 3.13 98 00:33 28.10.2020
6217 Clouds 14 1011 87 10000 1.79 80 23:47 27.10.2020
6218 Clouds 14 1011 87 10000 1.34 97 23:22 27.10.2020
6219 Clouds 14 1011 88 10000 3.58 119 22:45 27.10.2020
6220 Clouds 14 1012 87 10000 4.92 114 22:19 27.10.2020
6221 Clouds 14 1012 87 10000 4.02 114 21:57 27.10.2020
6222 Clouds 14 1012 86 10000 4.02 112 21:38 27.10.2020
6223 Clouds 14 1012 86 10000 4.02 112 21:38 27.10.2020
6224 Clouds 15 1012 85 10000 4.47 101 21:20 27.10.2020
6225 Clouds 15 1012 83 10000 3.13 108 20:50 27.10.2020
6226 Rain 15 1012 82 10000 3.58 95 20:25 27.10.2020
6227 Rain 16 1012 82 10000 3.58 84 19:57 27.10.2020
6228 Rain 16 1012 82 10000 3.58 107 19:38 27.10.2020
6229 Clouds 15 1012 82 10000 4.02 105 19:19 27.10.2020
6230 Clouds 20 1019 72 10000 5.41 82 18:45 27.10.2020
6231 Clouds 20 1020 77 10000 2.1 50 18:45 27.10.2020
6232 Clouds 20 1019 72 10000 4.99 72 18:27 27.10.2020
6233 Clouds 20 1019 72 10000 4.99 72 17:59 27.10.2020
6234 Clouds 20 1019 77 10000 2.6 10 17:40 27.10.2020
6235 Clouds 21 1018 73 10000 5 73 17:19 27.10.2020
6236 Clouds 21 1019 73 10000 2.6 10 16:44 27.10.2020
6237 Clouds 21 1018 73 10000 5.15 78 16:23 27.10.2020
6238 Clouds 21 1019 68 10000 1 0 15:42 27.10.2020
6239 Clouds 21 1019 68 10000 1 0 15:24 27.10.2020
6240 Clouds 22 1019 68 10000 4.6 10 14:51 27.10.2020
6241 Clouds 22 1018 64 10000 6.2 90 14:32 27.10.2020
6242 Clouds 22 1018 64 10000 6.2 90 13:59 27.10.2020
6243 Clouds 23 1019 64 10000 4.6 30 13:32 27.10.2020
6244 Clouds 22 1020 60 10000 5.1 30 12:54 27.10.2020
6245 Clouds 22 1020 60 10000 5.1 30 12:36 27.10.2020
6246 Clouds 23 1021 60 10000 6.2 50 12:18 27.10.2020
6247 Clouds 23 1021 64 10000 5.7 30 11:42 27.10.2020
6248 Clouds 23 1021 64 10000 5.7 30 11:21 27.10.2020
6249 Clouds 23 1022 64 10000 6.7 40 10:46 27.10.2020
6250 Clouds 22 1022 73 10000 5.1 60 10:22 27.10.2020
6251 Clouds 22 1022 64 10000 4.6 70 09:42 27.10.2020
6252 Clouds 21 1021 77 10000 2.6 50 09:23 27.10.2020
6253 Clouds 21 1022 73 10000 3.6 50 08:33 27.10.2020
6254 Clouds 20 1022 77 10000 4.1 50 07:58 27.10.2020
6255 Clouds 19 1021 88 10000 2.6 90 07:40 27.10.2020
6256 Clouds 18 1021 88 10000 2.6 90 07:21 27.10.2020
6257 Clouds 17 1020 93 10000 2.1 70 06:21 27.10.2020
6258 Clouds 17 1020 93 10000 2.1 70 05:51 27.10.2020
6259 Clouds 17 1020 93 10000 2.1 70 05:32 27.10.2020
6260 Clouds 17 1019 93 10000 3.11 56 04:43 27.10.2020
6261 Clouds 17 1019 88 10000 2.93 57 01:32 27.10.2020
6262 Clear 17 1020 93 10000 2.1 10 00:48 27.10.2020
6263 Clouds 18 1021 82 10000 3.04 63 23:40 26.10.2020
6264 Clouds 18 1021 82 10000 2.8 76 23:19 26.10.2020
6265 Clear 18 1021 82 10000 2.1 360 22:46 26.10.2020
6266 Clouds 18 1021 82 10000 3.34 85 22:21 26.10.2020
6267 Clouds 18 1021 82 10000 3.34 85 21:42 26.10.2020
6268 Clouds 18 1021 82 10000 3.86 78 21:19 26.10.2020
6269 Clouds 18 1021 82 10000 3.86 78 20:55 26.10.2020
6270 Clouds 18 1021 82 10000 3.86 78 20:37 26.10.2020
6271 Clouds 18 1020 82 10000 3.63 65 20:18 26.10.2020
6272 Clouds 18 1021 88 10000 2.6 360 19:44 26.10.2020
6273 Clouds 19 1019 77 10000 3.59 69 19:22 26.10.2020
6274 Clouds 19 1019 77 10000 4.43 72 18:44 26.10.2020
6275 Clouds 19 1019 77 10000 4.58 83 18:22 26.10.2020
6276 Clouds 19 1018 77 10000 4.58 83 17:45 26.10.2020
6277 Clouds 19 1018 77 10000 4.13 85 17:24 26.10.2020
6278 Clouds 19 1018 77 10000 4.13 85 16:59 26.10.2020
6279 Clouds 20 1018 72 10000 4.13 85 16:39 26.10.2020
6280 Clouds 20 1018 72 10000 3.44 85 16:19 26.10.2020
6281 Clouds 20 1019 72 10000 1.5 10 15:41 26.10.2020
6282 Clouds 19 1018 77 10000 3.23 86 15:20 26.10.2020
6283 Clouds 19 1018 77 10000 3.23 86 15:20 26.10.2020
6284 Clouds 19 1018 77 10000 3.23 86 15:20 26.10.2020
6285 Clouds 19 1018 77 10000 3.23 86 14:46 26.10.2020
6286 Clouds 19 1019 88 10000 2.1 70 14:26 26.10.2020
6287 Clouds 19 1020 77 10000 2.1 40 13:43 26.10.2020
6288 Clouds 19 1020 77 10000 2.1 40 13:23 26.10.2020
6289 Clouds 18 1020 88 10000 2.1 40 12:48 26.10.2020
6290 Clouds 18 1021 82 10000 4.03 87 12:27 26.10.2020
6291 Clouds 18 1021 82 10000 4.03 87 11:57 26.10.2020
6292 Drizzle 17 1022 93 10000 3.1 50 11:37 26.10.2020
6293 Drizzle 17 1022 93 10000 3.1 50 11:19 26.10.2020
6294 Clouds 17 1023 88 10000 2.6 20 10:44 26.10.2020
6295 Rain 17 1022 93 10000 2.6 30 10:25 26.10.2020
6296 Rain 17 1022 93 10000 2.6 30 09:48 26.10.2020
6297 Drizzle 16 1023 93 10000 3.1 20 09:26 26.10.2020
6298 Drizzle 16 1023 93 10000 3.1 20 08:48 26.10.2020
6299 Clouds 16 1023 93 10000 4.1 60 08:22 26.10.2020
6300 Rain 16 1023 93 10000 4.1 30 07:38 26.10.2020
6301 Rain 16 1023 93 10000 4.1 30 07:18 26.10.2020
6302 Drizzle 17 1020 93 5000 3.24 68 05:30 26.10.2020
6303 Rain 17 1019 93 10000 3.18 68 04:18 26.10.2020
6304 Clouds 17 1020 88 10000 2.1 50 03:20 26.10.2020
6305 Clouds 17 1020 88 10000 2.1 50 03:20 26.10.2020
6306 Clouds 18 1020 88 10000 1 0 03:20 26.10.2020
6307 Clouds 17 1020 88 10000 2.1 50 03:20 26.10.2020
6308 Clouds 17 1018 93 10000 3.16 79 01:34 26.10.2020
6309 Clouds 17 1020 100 10000 3.6 50 00:33 26.10.2020
6310 Clouds 18 1020 88 10000 3.6 10 23:45 25.10.2020
6311 Clouds 18 1020 88 10000 3.78 72 23:24 25.10.2020
6312 Clouds 18 1020 88 10000 3.78 72 22:44 25.10.2020
6313 Rain 18 1020 93 10000 3.1 20 22:25 25.10.2020
6314 Rain 18 1020 93 10000 3.1 20 21:49 25.10.2020
6315 Clouds 18 1020 88 10000 4.1 50 21:30 25.10.2020
6316 Clouds 18 1020 88 10000 4.1 50 20:58 25.10.2020
6317 Clouds 19 1019 82 10000 2.1 50 20:39 25.10.2020
6318 Clouds 19 1019 82 10000 2.1 50 20:19 25.10.2020
6319 Clouds 19 1019 82 10000 2.6 360 19:49 25.10.2020
6320 Clouds 19 1018 82 10000 2.1 30 19:26 25.10.2020
6321 Clouds 19 1018 82 10000 2.1 30 18:58 25.10.2020
6322 Clouds 19 1018 82 10000 5.53 96 18:40 25.10.2020
6323 Clouds 19 1018 82 10000 5.42 98 18:21 25.10.2020
6324 Clouds 19 1018 82 10000 5.42 98 17:54 25.10.2020
6325 Rain 21 1018 68 10000 2.1 90 17:36 25.10.2020
6326 Rain 21 1018 68 10000 2.1 90 17:18 25.10.2020
6327 Clouds 23 1017 47 10000 5.1 90 16:39 25.10.2020
6328 Clouds 23 1017 47 10000 5.1 90 16:21 25.10.2020
6329 Clouds 24 1017 47 10000 5.1 90 15:47 25.10.2020
6330 Clouds 24 1016 53 10000 4.1 90 15:26 25.10.2020
6331 Clouds 24 1016 53 10000 4.1 90 14:52 25.10.2020
6332 Clouds 24 1016 50 10000 5.1 50 14:29 25.10.2020
6333 Clouds 25 1018 50 10000 6.2 50 13:44 25.10.2020
6334 Clouds 25 1018 50 10000 6.2 50 13:24 25.10.2020
6335 Clouds 25 1018 50 10000 5.7 60 12:56 25.10.2020
6336 Clouds 24 1019 53 10000 4.1 70 12:38 25.10.2020
6337 Clouds 24 1019 53 10000 4.1 70 12:18 25.10.2020
6338 Clouds 22 1021 68 10000 3.1 50 11:42 25.10.2020
6339 Clouds 22 1021 68 10000 3.1 50 11:19 25.10.2020
6340 Clouds 21 1021 68 10000 3.1 50 10:46 25.10.2020
6341 Clouds 20 1021 77 10000 3.98 92 10:26 25.10.2020
6342 Clouds 20 1021 77 10000 3.98 92 09:52 25.10.2020
6343 Clouds 18 1022 93 10000 2.6 120 09:22 25.10.2020
6344 Clouds 18 1022 93 10000 2.6 120 08:59 25.10.2020
6345 Clouds 18 1023 82 10000 2.6 60 08:40 25.10.2020
6346 Clouds 17 1022 88 10000 2.6 50 08:22 25.10.2020
6347 Clouds 15 1012 82 10000 4.47 76 07:44 25.10.2020
6348 Clouds 17 1021 88 9000 2.1 60 06:53 25.10.2020
6349 Clouds 17 1021 93 7000 3.6 60 06:28 25.10.2020
6350 Drizzle 17 1020 93 6000 3.1 60 05:20 25.10.2020
6351 Drizzle 17 1020 93 6000 3.1 60 04:50 25.10.2020
6352 Clouds 18 1019 88 10000 2.6 160 02:37 25.10.2020
6353 Clouds 19 1020 82 10000 2.6 100 00:54 25.10.2020
6354 Clouds 18 1020 77 10000 4.6 90 00:29 25.10.2020
6355 Clouds 19 1020 77 10000 4.6 90 23:57 24.10.2020
6356 Clear 20 1020 68 10000 6.2 80 23:36 24.10.2020
6357 Clear 20 1020 68 10000 6.2 80 22:59 24.10.2020
6358 Clouds 20 1020 64 10000 2.1 60 22:41 24.10.2020
6359 Clouds 20 1020 64 10000 2.1 60 22:22 24.10.2020
6360 Clouds 21 1020 64 10000 2.1 60 21:56 24.10.2020
6361 Clouds 22 1020 60 10000 2.1 120 21:37 24.10.2020
6362 Clouds 22 1020 60 10000 2.1 120 21:19 24.10.2020
6363 Clouds 22 1019 60 10000 3.1 50 20:43 24.10.2020
6364 Clouds 22 1019 60 10000 3.1 50 20:20 24.10.2020
6365 Clouds 23 1018 56 10000 2.6 60 19:42 24.10.2020
6366 Clouds 23 1018 56 10000 2.6 60 19:23 24.10.2020
6367 Clouds 23 1018 56 10000 2.6 60 18:54 24.10.2020
6368 Clouds 23 1018 53 10000 6.2 90 18:31 24.10.2020
6369 Rain 22 1018 64 10000 5.1 110 17:54 24.10.2020
6370 Clouds 24 1017 44 10000 5.1 70 17:27 24.10.2020
6371 Clouds 24 1017 44 10000 5.1 70 17:27 24.10.2020
6372 Clouds 25 1017 44 10000 5.1 70 16:57 24.10.2020
6373 Clouds 26 1017 41 10000 2.6 100 16:39 24.10.2020
6374 Clouds 26 1017 41 10000 2.6 100 15:59 24.10.2020
6375 Clouds 26 1018 41 10000 3.1 120 15:38 24.10.2020
6376 Clouds 26 1018 41 10000 3.1 120 15:19 24.10.2020
6377 Clouds 27 1018 39 10000 4.6 90 14:40 24.10.2020
6378 Clouds 26 1018 41 10000 5.1 120 14:22 24.10.2020
6379 Clouds 26 1018 41 10000 5.1 120 13:44 24.10.2020
6380 Clouds 26 1019 41 10000 3.94 112 13:20 24.10.2020
6381 Clouds 24 1021 47 10000 6.2 110 12:41 24.10.2020
6382 Clouds 24 1021 47 10000 6.2 110 12:20 24.10.2020
6383 Clouds 25 1021 47 10000 6.2 110 11:51 24.10.2020
6384 Clouds 24 1022 53 10000 2.79 105 11:24 24.10.2020
6385 Clouds 23 1022 53 10000 2.79 105 10:48 24.10.2020
6386 Clouds 23 1023 56 10000 2.6 113 10:29 24.10.2020
6387 Clouds 22 1023 56 10000 2.6 113 09:50 24.10.2020
6388 Clouds 21 1023 73 10000 2.1 140 09:27 24.10.2020
6389 Clouds 21 1023 73 10000 2.1 140 08:58 24.10.2020
6390 Clouds 18 1023 88 10000 3.1 180 08:19 24.10.2020
6391 Clouds 18 1023 88 10000 1.5 80 07:53 24.10.2020
6392 Clouds 16 1022 100 10000 1.74 75 07:22 24.10.2020
6393 Clouds 16 1022 100 10000 1.74 75 06:52 24.10.2020
6394 Clouds 16 1021 87 10000 1.89 47 05:47 24.10.2020
6395 Clouds 17 1021 88 10000 3.15 64 02:30 24.10.2020
6396 Clouds 17 1022 88 10000 1.5 240 01:19 24.10.2020
6397 Clouds 18 1022 77 10000 2.1 180 00:40 24.10.2020
6398 Clouds 18 1022 77 10000 2.1 180 00:21 24.10.2020
6399 Clouds 18 1022 77 10000 2.1 180 23:47 23.10.2020
6400 Clouds 19 1023 77 10000 4.28 99 23:23 23.10.2020
6401 Clouds 19 1023 77 10000 4.28 99 22:57 23.10.2020
6402 Clouds 19 1022 72 10000 3.1 160 22:37 23.10.2020
6403 Clouds 19 1022 72 10000 3.1 160 22:18 23.10.2020
6404 Clouds 22 1022 56 10000 4.6 140 21:42 23.10.2020
6405 Clouds 21 1021 60 10000 3.61 90 21:24 23.10.2020
6406 Clouds 23 1019 49 10000 3.61 90 20:40 23.10.2020
6407 Clouds 23 1019 49 10000 4.15 92 20:22 23.10.2020
6408 Clouds 23 1019 49 10000 4.15 92 19:50 23.10.2020
6409 Clouds 24 1019 44 10000 4.1 140 19:32 23.10.2020
6410 Clouds 24 1019 44 10000 4.1 140 18:55 23.10.2020
6411 Clouds 25 1018 41 10000 4.1 90 18:31 23.10.2020
6412 Clouds 27 1019 36 10000 5.7 90 17:50 23.10.2020
6413 Clouds 27 1018 34 10000 5.1 110 17:26 23.10.2020
6414 Clouds 27 1018 34 10000 5.1 110 16:56 23.10.2020
6415 Clouds 28 1018 34 10000 3.1 150 16:37 23.10.2020
6416 Clouds 28 1019 34 10000 5.1 90 16:19 23.10.2020
6417 Clouds 28 1019 34 10000 5.1 160 15:42 23.10.2020
6418 Clouds 28 1019 34 10000 5.1 160 15:23 23.10.2020
6419 Clouds 28 1019 34 10000 5.1 160 14:53 23.10.2020
6420 Clouds 28 1020 34 10000 5.1 140 14:34 23.10.2020
6421 Clouds 28 1020 34 10000 3.6 130 13:56 23.10.2020
6422 Clouds 25 1021 44 10000 3.1 70 13:37 23.10.2020
6423 Clouds 25 1021 44 10000 3.1 70 13:19 23.10.2020
6424 Clouds 24 1022 47 10000 2.6 140 12:43 23.10.2020
6425 Clouds 24 1022 47 10000 2.6 140 12:24 23.10.2020
6426 Clouds 24 1023 56 10000 2.1 50 11:46 23.10.2020
6427 Clouds 24 1023 56 10000 2.1 50 11:21 23.10.2020
6428 Clouds 24 1024 53 10000 3.1 150 10:43 23.10.2020
6429 Clouds 22 1024 72 10000 6.2 130 10:25 23.10.2020
6430 Clouds 22 1024 56 10000 4.1 150 09:45 23.10.2020
6431 Clouds 20 1024 72 10000 3.1 110 09:26 23.10.2020
6432 Clouds 19 1024 72 10000 3.1 110 08:52 23.10.2020
6433 Clouds 18 1023 88 10000 3.22 120 08:32 23.10.2020
6434 Clouds 17 1022 93 10000 3.59 107 07:33 23.10.2020
6435 Clouds 16 1022 93 10000 3.21 103 06:59 23.10.2020
6436 Clouds 16 1021 93 10000 2.52 98 06:20 23.10.2020
6437 Clouds 16 1021 93 10000 2.36 106 05:34 23.10.2020
6438 Clouds 17 1021 88 10000 2.74 87 02:32 23.10.2020
6439 Clouds 16 1022 87 10000 1 290 01:24 23.10.2020
6440 Clouds 17 1022 77 10000 3.4 80 00:42 23.10.2020
6441 Clouds 15 1022 82 10000 3.1 230 23:48 22.10.2020
6442 Clear 18 1022 77 10000 3.83 83 23:26 22.10.2020
6443 Clear 18 1022 77 10000 4.1 80 22:48 22.10.2020
6444 Clouds 19 1021 60 10000 2.6 70 22:27 22.10.2020
6445 Clouds 19 1021 60 10000 2.6 70 21:59 22.10.2020
6446 Clear 20 1021 60 10000 3.85 90 21:41 22.10.2020
6447 Clear 20 1021 60 10000 4.6 96 21:21 22.10.2020
6448 Clear 20 1021 60 10000 4.6 96 20:45 22.10.2020
6449 Clear 21 1020 56 10000 3.1 70 20:26 22.10.2020
6450 Clear 21 1020 56 10000 3.1 70 19:59 22.10.2020
6451 Clouds 22 1020 49 10000 4.1 90 19:40 22.10.2020
6452 Clouds 22 1020 49 10000 4.1 90 19:18 22.10.2020
6453 Clouds 24 1019 41 10000 6.2 90 18:42 22.10.2020
6454 Clouds 24 1019 41 10000 6.2 90 18:20 22.10.2020
6455 Clouds 26 1019 36 10000 5.7 110 17:45 22.10.2020
6456 Clouds 26 1019 34 10000 7.2 110 17:22 22.10.2020
6457 Clouds 26 1019 34 10000 7.2 110 16:47 22.10.2020
6458 Clouds 27 1019 36 10000 5.1 110 16:26 22.10.2020
6459 Clouds 27 1019 36 10000 5.1 110 15:57 22.10.2020
6460 Clouds 26 1019 36 10000 5.1 120 15:38 22.10.2020
6461 Clouds 26 1019 36 10000 5.1 120 15:19 22.10.2020
6462 Clouds 26 1020 41 10000 3.6 30 14:45 22.10.2020
6463 Clouds 25 1021 47 10000 5.1 120 14:24 22.10.2020
6464 Clouds 24 1021 50 10000 3.6 60 13:45 22.10.2020
6465 Clouds 24 1021 47 10000 4.02 119 13:23 22.10.2020
6466 Clouds 22 1023 60 10000 4.1 60 12:47 22.10.2020
6467 Clouds 22 1023 60 10000 4.1 60 12:23 22.10.2020
6468 Clouds 21 1023 68 10000 3.5 115 11:48 22.10.2020
6469 Clouds 21 1023 68 10000 3.22 111 11:20 22.10.2020
6470 Clouds 20 1023 68 10000 4.1 140 10:49 22.10.2020
6471 Clouds 20 1023 68 10000 4.1 140 10:27 22.10.2020
6472 Clouds 21 1024 64 10000 3.1 110 09:46 22.10.2020
6473 Clouds 21 1024 64 10000 1.5 0 09:26 22.10.2020
6474 Clouds 20 1024 68 10000 1.5 80 08:49 22.10.2020
6475 Clouds 19 1024 72 10000 1.5 20 08:27 22.10.2020
6476 Clouds 18 1024 77 10000 1.5 20 07:57 22.10.2020
6477 Clouds 18 1024 77 10000 1.5 20 07:57 22.10.2020
6478 Clouds 16 1023 87 10000 2.68 89 07:34 22.10.2020
6479 Clouds 16 1024 93 10000 1 0 06:58 22.10.2020
6480 Clouds 16 1020 87 10000 2.6 20 06:26 22.10.2020
6481 Clouds 16 1021 87 10000 3.1 30 05:40 22.10.2020
6482 Clouds 15 1022 93 10000 2.6 350 04:40 22.10.2020
6483 Clouds 15 1022 87 10000 1 0 01:45 22.10.2020
6484 Clouds 17 1022 77 10000 3.6 40 00:26 22.10.2020
6485 Clouds 18 1022 72 10000 4.6 50 23:50 21.10.2020
6486 Clouds 14 1012 86 10000 4.92 78 23:32 21.10.2020
6487 Clouds 20 1020 64 10000 4.1 70 22:41 21.10.2020
6488 Clouds 20 1020 64 10000 4.1 70 22:19 21.10.2020
6489 Clouds 20 1020 64 10000 4.1 70 21:56 21.10.2020
6490 Clouds 20 1020 60 10000 2.1 90 21:37 21.10.2020
6491 Clouds 21 1020 60 10000 2.1 90 21:18 21.10.2020
6492 Clouds 21 1020 60 10000 2.1 90 20:47 21.10.2020
6493 Clouds 22 1020 53 10000 4.1 90 20:19 21.10.2020
6494 Clouds 23 1018 47 10000 5.1 110 19:45 21.10.2020
6495 Clouds 23 1018 47 10000 5.1 110 19:26 21.10.2020
6496 Clouds 23 1018 47 10000 5.1 110 19:26 21.10.2020
6497 Clouds 24 1018 47 10000 5.1 110 18:54 21.10.2020
6498 Clouds 25 1018 44 10000 3.1 90 18:33 21.10.2020
6499 Clouds 25 1018 44 10000 3.1 90 17:57 21.10.2020
6500 Clouds 25 1018 47 10000 5.1 70 17:39 21.10.2020
6501 Clouds 25 1018 47 10000 5.1 70 17:19 21.10.2020
6502 Clouds 25 1018 47 10000 5.1 70 16:40 21.10.2020
6503 Clouds 25 1018 47 10000 6.2 70 16:21 21.10.2020
6504 Clouds 25 1018 47 10000 6.2 70 15:49 21.10.2020
6505 Clouds 25 1018 47 10000 6.2 70 15:29 21.10.2020
6506 Clouds 24 1018 53 10000 5.1 50 14:58 21.10.2020
6507 Clouds 24 1019 53 10000 5.1 90 14:40 21.10.2020
6508 Clouds 24 1019 53 10000 5.1 90 14:22 21.10.2020
6509 Clouds 25 1020 53 10000 4.6 60 13:42 21.10.2020
6510 Clouds 25 1020 53 10000 4.6 60 13:23 21.10.2020
6511 Clouds 25 1021 50 10000 2.6 0 12:43 21.10.2020
6512 Clouds 24 1022 57 10000 3.6 60 12:23 21.10.2020
6513 Clouds 24 1022 57 10000 3.6 60 11:56 21.10.2020
6514 Clouds 22 1022 77 10000 3.1 60 11:37 21.10.2020
6515 Clouds 23 1022 64 10000 3.6 60 11:18 21.10.2020
6516 Clouds 19 1022 82 10000 4.1 60 10:40 21.10.2020
6517 Clouds 19 1022 82 10000 4.1 60 10:21 21.10.2020
6518 Clouds 18 1022 82 10000 4.1 60 09:49 21.10.2020
6519 Clouds 17 1022 88 8000 3.48 74 09:28 21.10.2020
6520 Clouds 17 1022 88 8000 3.48 74 08:42 21.10.2020
6521 Clouds 17 1021 88 10000 3.06 71 08:23 21.10.2020
6522 Clouds 17 1021 88 10000 3.06 71 07:56 21.10.2020
6523 Clouds 17 1021 88 10000 2.85 62 07:24 21.10.2020
6524 Clouds 16 1022 100 10000 1 0 06:46 21.10.2020
6525 Rain 16 1020 93 10000 3.1 170 06:24 21.10.2020
6526 Rain 17 1019 93 10000 2.6 90 03:38 21.10.2020
6527 Clouds 17 1020 93 10000 3.1 80 00:49 21.10.2020
6528 Clouds 17 1021 93 10000 4.49 87 23:37 20.10.2020
6529 Clouds 17 1021 93 10000 3.1 90 22:47 20.10.2020
6530 Clouds 18 1020 88 10000 4.78 74 22:25 20.10.2020
6531 Clouds 18 1020 88 10000 4.78 74 21:48 20.10.2020
6532 Rain 18 1020 88 10000 5.76 71 21:20 20.10.2020
6533 Rain 18 1020 88 10000 5.76 71 20:44 20.10.2020
6534 Rain 18 1020 88 10000 5.02 68 20:24 20.10.2020
6535 Rain 18 1020 93 10000 2.6 40 19:57 20.10.2020
6536 Rain 18 1020 93 10000 2.6 40 19:38 20.10.2020
6537 Clouds 21 1018 60 10000 4.1 140 19:20 20.10.2020
6538 Clouds 23 1019 56 10000 4.6 150 18:44 20.10.2020
6539 Clouds 23 1018 53 10000 5.1 140 18:25 20.10.2020
6540 Clouds 23 1018 53 10000 5.1 140 17:41 20.10.2020
6541 Clouds 23 1017 56 10000 7.2 120 17:23 20.10.2020
6542 Clouds 23 1017 56 10000 7.2 120 16:43 20.10.2020
6543 Clouds 23 1017 56 10000 7.2 120 16:43 20.10.2020
6544 Clouds 23 1017 56 10000 7.2 120 16:24 20.10.2020
6545 Clouds 24 1018 50 10000 6.2 130 15:49 20.10.2020
6546 Clouds 24 1018 47 10000 6.2 130 15:30 20.10.2020
6547 Clouds 24 1018 47 10000 6.2 130 14:55 20.10.2020
6548 Clouds 24 1018 47 10000 6.2 130 14:36 20.10.2020
6549 Clouds 23 1019 53 10000 2.6 60 14:18 20.10.2020
6550 Clouds 22 1020 64 10000 2.1 90 13:41 20.10.2020
6551 Clouds 22 1020 64 10000 2.1 90 13:21 20.10.2020
6552 Clouds 21 1020 64 10000 2.1 90 12:54 20.10.2020
6553 Clouds 21 1020 64 10000 2.1 90 12:31 20.10.2020
6554 Rain 20 1019 72 10000 3.47 95 11:48 20.10.2020
6555 Rain 20 1019 72 10000 3.3 89 11:30 20.10.2020
6556 Clouds 19 1021 77 10000 3.3 89 10:53 20.10.2020
6557 Clouds 18 1021 82 10000 3.34 82 10:28 20.10.2020
6558 Clouds 18 1021 82 10000 3.34 82 09:50 20.10.2020
6559 Clouds 17 1021 88 10000 3.13 77 09:20 20.10.2020
6560 Clouds 17 1021 88 10000 3.13 77 08:53 20.10.2020
6561 Clouds 17 1021 88 10000 2.78 76 08:27 20.10.2020
6562 Clouds 16 1021 93 7000 2.63 76 07:49 20.10.2020
6563 Clouds 16 1020 93 10000 2.64 74 07:24 20.10.2020
6564 Clouds 16 1020 93 10000 2.95 75 06:24 20.10.2020
6565 Clouds 16 1020 100 10000 1 200 04:58 20.10.2020
6566 Rain 17 1019 93 7000 3.3 92 02:33 20.10.2020
6567 Rain 14 1010 92 10000 3.13 111 01:43 20.10.2020
6568 Rain 17 1020 93 10000 3.69 79 00:56 20.10.2020
6569 Rain 17 1020 93 10000 3.69 79 00:37 20.10.2020
6570 Clouds 17 1020 93 10000 3.1 30 00:18 20.10.2020
6571 Clouds 17 1020 93 10000 3.1 30 23:39 19.10.2020
6572 Clouds 18 1020 88 10000 3.6 40 23:18 19.10.2020
6573 Clouds 18 1020 88 10000 3.6 40 22:42 19.10.2020
6574 Clouds 17 1020 93 10000 4.49 69 22:20 19.10.2020
6575 Clouds 17 1020 93 10000 4.49 69 21:41 19.10.2020
6576 Clouds 17 1020 93 10000 4.2 72 21:19 19.10.2020
6577 Clouds 17 1020 93 10000 4.2 72 20:45 19.10.2020
6578 Clouds 18 1019 88 10000 3.85 75 20:26 19.10.2020
6579 Clouds 18 1019 88 10000 4.04 45 19:46 19.10.2020
6580 Rain 18 1019 88 10000 2.6 350 19:22 19.10.2020
6581 Rain 18 1019 88 10000 2.6 350 19:22 19.10.2020
6582 Rain 19 1019 88 10000 2.6 350 18:51 19.10.2020
6583 Rain 19 1019 88 10000 2.6 350 18:32 19.10.2020
6584 Clouds 20 1018 68 10000 2.6 50 17:56 19.10.2020
6585 Clouds 20 1018 68 10000 2.6 50 17:38 19.10.2020
6586 Clouds 21 1018 72 10000 4.6 120 17:19 19.10.2020
6587 Clouds 21 1018 72 10000 4.6 120 16:42 19.10.2020
6588 Clouds 22 1017 60 10000 5.7 130 16:20 19.10.2020
6589 Clouds 23 1010 47 10000 4.1 86 15:40 19.10.2020
6590 Rain 25 1009 42 10000 4.4 109 15:21 19.10.2020
6591 Rain 25 1009 42 10000 4.4 109 14:47 19.10.2020
6592 Clouds 26 1010 39 10000 3.71 116 14:24 19.10.2020
6593 Clouds 26 1010 39 10000 3.71 116 13:48 19.10.2020
6594 Clouds 25 1010 38 10000 3.38 119 13:30 19.10.2020
6595 Clouds 17 1010 84 10000 2.75 112 12:46 19.10.2020
6596 Clouds 18 1010 78 10000 2.22 97 12:28 19.10.2020
6597 Clouds 18 1011 72 10000 2.22 97 11:51 19.10.2020
6598 Clouds 21 1021 64 10000 2.14 71 11:25 19.10.2020
6599 Clouds 21 1021 64 10000 2.14 71 10:55 19.10.2020
6600 Clouds 21 1022 72 10000 4.1 200 10:36 19.10.2020
6601 Clouds 20 1022 72 10000 4.1 200 10:18 19.10.2020
6602 Clouds 20 1022 72 10000 2.58 58 09:42 19.10.2020
6603 Clouds 19 1022 72 10000 2.84 60 09:18 19.10.2020
6604 Clouds 19 1022 72 10000 2.84 60 08:47 19.10.2020
6605 Clouds 18 1022 88 10000 3.05 54 08:21 19.10.2020
6606 Clouds 16 1021 87 10000 3.05 47 07:21 19.10.2020
6607 Clouds 16 1021 87 10000 3.05 47 06:50 19.10.2020
6608 Clouds 16 1020 93 10000 2.1 170 05:42 19.10.2020
6609 Clouds 16 1020 93 10000 2.1 30 03:47 19.10.2020
6610 Clouds 17 1020 82 10000 2.1 50 01:57 19.10.2020
6611 Clouds 19 1021 68 10000 4.1 50 00:43 19.10.2020
6612 Clouds 19 1020 68 10000 5.1 60 23:59 18.10.2020
6613 Clouds 19 1020 68 10000 5.1 70 23:41 18.10.2020
6614 Clouds 19 1020 68 10000 5.1 70 23:21 18.10.2020
6615 Clouds 20 1020 64 10000 3.1 50 22:45 18.10.2020
6616 Clouds 20 1020 64 10000 3.1 50 22:20 18.10.2020
6617 Clouds 20 1021 68 10000 3.6 40 21:50 18.10.2020
6618 Clouds 20 1021 68 10000 3.6 40 21:29 18.10.2020
6619 Clouds 20 1020 72 10000 2.6 360 20:47 18.10.2020
6620 Clouds 20 1019 68 10000 3.99 60 20:25 18.10.2020
6621 Clouds 20 1019 68 10000 3.99 60 19:57 18.10.2020
6622 Clouds 21 1018 60 10000 4.1 70 19:39 18.10.2020
6623 Clouds 21 1018 60 10000 4.1 70 19:19 18.10.2020
6624 Clouds 22 1019 64 10000 4.1 30 18:46 18.10.2020
6625 Clouds 22 1018 56 10000 3.1 70 18:24 18.10.2020
6626 Clouds 24 1018 50 10000 5.1 60 17:43 18.10.2020
6627 Clouds 24 1018 50 10000 5.1 60 17:24 18.10.2020
6628 Clouds 24 1017 53 10000 4.1 110 16:44 18.10.2020
6629 Clouds 24 1017 53 10000 4.1 110 16:26 18.10.2020
6630 Clouds 24 1017 53 10000 4.1 110 15:57 18.10.2020
6631 Clouds 23 1019 60 10000 3.1 190 15:38 18.10.2020
6632 Clouds 23 1019 60 10000 3.1 190 15:18 18.10.2020
6633 Clouds 23 1019 60 10000 3.1 190 14:47 18.10.2020
6634 Clouds 23 1019 68 10000 4.1 160 14:27 18.10.2020
6635 Clouds 22 1019 68 10000 4.1 160 13:47 18.10.2020
6636 Clouds 24 1020 47 10000 2.6 320 13:27 18.10.2020
6637 Clouds 24 1020 47 10000 2.6 320 12:59 18.10.2020
6638 Clouds 24 1021 53 10000 3.1 180 12:40 18.10.2020
6639 Clouds 24 1021 53 10000 3.1 180 12:20 18.10.2020
6640 Clouds 23 1022 60 10000 2.6 140 11:40 18.10.2020
6641 Clouds 23 1022 60 10000 2.6 140 11:40 18.10.2020
6642 Clouds 23 1022 60 10000 2.6 140 11:22 18.10.2020
6643 Clouds 20 1023 72 10000 2.6 190 10:40 18.10.2020
6644 Clouds 20 1023 77 10000 1.5 150 10:20 18.10.2020
6645 Clouds 20 1023 77 10000 1.5 150 09:49 18.10.2020
6646 Clouds 18 1022 82 10000 2.4 73 09:21 18.10.2020
6647 Clouds 18 1022 82 10000 2.4 73 08:56 18.10.2020
6648 Clouds 17 1021 88 10000 3.1 180 08:37 18.10.2020
6649 Clouds 17 1021 88 10000 3.1 180 08:19 18.10.2020
6650 Clouds 17 1021 88 10000 2.1 180 06:51 18.10.2020
6651 Clouds 17 1020 93 10000 3.1 150 03:59 18.10.2020
6652 Clouds 14 1010 85 10000 2.63 95 02:55 18.10.2020
6653 Clouds 14 1011 86 10000 0.89 98 01:38 18.10.2020
6654 Clouds 14 1011 88 10000 1.79 67 00:48 18.10.2020
6655 Clouds 17 1021 88 10000 4.1 60 00:24 18.10.2020
6656 Clouds 18 1022 88 10000 2.6 20 23:43 17.10.2020
6657 Clouds 17 1021 88 10000 4.7 91 23:22 17.10.2020
6658 Clouds 18 1022 88 10000 2.1 10 22:59 17.10.2020
6659 Clouds 17 1020 88 10000 4.7 91 22:40 17.10.2020
6660 Clouds 17 1020 88 10000 5.18 87 22:19 17.10.2020
6661 Clouds 17 1020 88 10000 5.18 87 21:44 17.10.2020
6662 Clouds 18 1019 82 10000 4.1 30 21:23 17.10.2020
6663 Clouds 18 1019 82 10000 4.1 30 20:49 17.10.2020
6664 Clouds 18 1019 82 10000 3.32 41 20:21